<?xml version="1.0" encoding="UTF-8" standalone="no" ?>
<gpx xmlns="http://www.topografix.com/GPX/1/1" xmlns:xsi="http://www.w3.org/2001/XMLSchema-instance" xsi:schemaLocation="http://www.topografix.com/GPX/1/1 http://www.topografix.com/GPX/1/1/gpx.xsd" version="1.1" creator="VisuGPX - https://www.visugpx.com">
  <metadata>
    <name>Pornichet 05/05/2022</name>
    <desc><![CDATA[Sortie jeudi 05 mai 2022]]></desc>
  </metadata>
  <trk>
    <name><![CDATA[Pornichet Cyclisme]]></name>
    <trkseg>
      <trkpt lat="47.26358" lon="-2.31503">
        <ele>8.9</ele>
        <time>2022-05-05T06:48:07.000Z</time>
      </trkpt>
      <trkpt lat="47.26371" lon="-2.31553">
        <ele>8.5</ele>
        <time>2022-05-05T06:48:11.000Z</time>
      </trkpt>
      <trkpt lat="47.26372" lon="-2.31559">
        <ele>-0.40000000596046</ele>
        <time>2022-05-05T06:48:12.000Z</time>
      </trkpt>
      <trkpt lat="47.26375" lon="-2.31573">
        <ele>-0.40000000596046</ele>
        <time>2022-05-05T06:48:14.000Z</time>
      </trkpt>
      <trkpt lat="47.26378" lon="-2.31609">
        <ele>-0.40000000596046</ele>
        <time>2022-05-05T06:48:20.000Z</time>
      </trkpt>
      <trkpt lat="47.26378" lon="-2.31624">
        <ele>-0.40000000596046</ele>
        <time>2022-05-05T06:48:22.000Z</time>
      </trkpt>
      <trkpt lat="47.26377" lon="-2.31637">
        <ele>-0.40000000596046</ele>
        <time>2022-05-05T06:48:25.000Z</time>
      </trkpt>
      <trkpt lat="47.26368" lon="-2.31643">
        <ele>-0.40000000596046</ele>
        <time>2022-05-05T06:48:29.000Z</time>
      </trkpt>
      <trkpt lat="47.2635" lon="-2.31657">
        <ele>-0.40000000596046</ele>
        <time>2022-05-05T06:48:36.000Z</time>
      </trkpt>
      <trkpt lat="47.26332" lon="-2.31667">
        <ele>-0.40000000596046</ele>
        <time>2022-05-05T06:48:41.000Z</time>
      </trkpt>
      <trkpt lat="47.26319" lon="-2.31674">
        <ele>-0.40000000596046</ele>
        <time>2022-05-05T06:48:44.000Z</time>
      </trkpt>
      <trkpt lat="47.26316" lon="-2.31675">
        <ele>-0.80000001192093</ele>
        <time>2022-05-05T06:48:45.000Z</time>
      </trkpt>
      <trkpt lat="47.26313" lon="-2.31677">
        <ele>-1.2000000476837</ele>
        <time>2022-05-05T06:48:46.000Z</time>
      </trkpt>
      <trkpt lat="47.2631" lon="-2.31679">
        <ele>-1.6000000238419</ele>
        <time>2022-05-05T06:48:47.000Z</time>
      </trkpt>
      <trkpt lat="47.26308" lon="-2.31683">
        <ele>-2</ele>
        <time>2022-05-05T06:48:48.000Z</time>
      </trkpt>
      <trkpt lat="47.26307" lon="-2.31688">
        <ele>-2.4000000953674</ele>
        <time>2022-05-05T06:48:49.000Z</time>
      </trkpt>
      <trkpt lat="47.26305" lon="-2.31692">
        <ele>-2.4000000953674</ele>
        <time>2022-05-05T06:48:50.000Z</time>
      </trkpt>
      <trkpt lat="47.263" lon="-2.31696">
        <ele>-2.4000000953674</ele>
        <time>2022-05-05T06:48:52.000Z</time>
      </trkpt>
      <trkpt lat="47.26297" lon="-2.31697">
        <ele>-2.4000000953674</ele>
        <time>2022-05-05T06:48:53.000Z</time>
      </trkpt>
      <trkpt lat="47.26291" lon="-2.31702">
        <ele>-2.7999999523163</ele>
        <time>2022-05-05T06:48:55.000Z</time>
      </trkpt>
      <trkpt lat="47.26289" lon="-2.31704">
        <ele>-3.2000000476837</ele>
        <time>2022-05-05T06:48:56.000Z</time>
      </trkpt>
      <trkpt lat="47.26286" lon="-2.31706">
        <ele>-3.5999999046326</ele>
        <time>2022-05-05T06:48:57.000Z</time>
      </trkpt>
      <trkpt lat="47.26284" lon="-2.31712">
        <ele>-4</ele>
        <time>2022-05-05T06:48:58.000Z</time>
      </trkpt>
      <trkpt lat="47.26282" lon="-2.31718">
        <ele>-4.4000000953674</ele>
        <time>2022-05-05T06:48:59.000Z</time>
      </trkpt>
      <trkpt lat="47.2628" lon="-2.31733">
        <ele>-4.4000000953674</ele>
        <time>2022-05-05T06:49:02.000Z</time>
      </trkpt>
      <trkpt lat="47.2628" lon="-2.31738">
        <ele>-4.4000000953674</ele>
        <time>2022-05-05T06:49:03.000Z</time>
      </trkpt>
      <trkpt lat="47.26281" lon="-2.3177">
        <ele>-4.4000000953674</ele>
        <time>2022-05-05T06:49:09.000Z</time>
      </trkpt>
      <trkpt lat="47.26278" lon="-2.31811">
        <ele>-4.4000000953674</ele>
        <time>2022-05-05T06:49:16.000Z</time>
      </trkpt>
      <trkpt lat="47.26275" lon="-2.31856">
        <ele>-4.4000000953674</ele>
        <time>2022-05-05T06:49:23.000Z</time>
      </trkpt>
      <trkpt lat="47.26271" lon="-2.31873">
        <ele>-4.4000000953674</ele>
        <time>2022-05-05T06:49:26.000Z</time>
      </trkpt>
      <trkpt lat="47.26269" lon="-2.31877">
        <ele>-4.4000000953674</ele>
        <time>2022-05-05T06:49:27.000Z</time>
      </trkpt>
      <trkpt lat="47.26256" lon="-2.31904">
        <ele>-4.4000000953674</ele>
        <time>2022-05-05T06:49:33.000Z</time>
      </trkpt>
      <trkpt lat="47.26248" lon="-2.31917">
        <ele>-4.4000000953674</ele>
        <time>2022-05-05T06:49:36.000Z</time>
      </trkpt>
      <trkpt lat="47.26244" lon="-2.31927">
        <ele>-4.4000000953674</ele>
        <time>2022-05-05T06:49:38.000Z</time>
      </trkpt>
      <trkpt lat="47.26235" lon="-2.31945">
        <ele>-4.4000000953674</ele>
        <time>2022-05-05T06:49:43.000Z</time>
      </trkpt>
      <trkpt lat="47.26233" lon="-2.31948">
        <ele>-4.8000001907349</ele>
        <time>2022-05-05T06:49:44.000Z</time>
      </trkpt>
      <trkpt lat="47.2623" lon="-2.31951">
        <ele>-5.1999998092651</ele>
        <time>2022-05-05T06:49:45.000Z</time>
      </trkpt>
      <trkpt lat="47.26227" lon="-2.31955">
        <ele>-5.5999999046326</ele>
        <time>2022-05-05T06:49:46.000Z</time>
      </trkpt>
      <trkpt lat="47.26225" lon="-2.3196">
        <ele>-6</ele>
        <time>2022-05-05T06:49:47.000Z</time>
      </trkpt>
      <trkpt lat="47.26223" lon="-2.31964">
        <ele>-6.5999999046326</ele>
        <time>2022-05-05T06:49:48.000Z</time>
      </trkpt>
      <trkpt lat="47.26208" lon="-2.31979">
        <ele>-6.5999999046326</ele>
        <time>2022-05-05T06:49:53.000Z</time>
      </trkpt>
      <trkpt lat="47.26199" lon="-2.31985">
        <ele>-6.5999999046326</ele>
        <time>2022-05-05T06:49:56.000Z</time>
      </trkpt>
      <trkpt lat="47.26197" lon="-2.31989">
        <ele>-6.5999999046326</ele>
        <time>2022-05-05T06:49:57.000Z</time>
      </trkpt>
      <trkpt lat="47.26194" lon="-2.32001">
        <ele>-6.5999999046326</ele>
        <time>2022-05-05T06:50:00.000Z</time>
      </trkpt>
      <trkpt lat="47.26192" lon="-2.32004">
        <ele>-6.5999999046326</ele>
        <time>2022-05-05T06:50:01.000Z</time>
      </trkpt>
      <trkpt lat="47.2619" lon="-2.32006">
        <ele>-6.5999999046326</ele>
        <time>2022-05-05T06:50:02.000Z</time>
      </trkpt>
      <trkpt lat="47.26184" lon="-2.32006">
        <ele>-6.5999999046326</ele>
        <time>2022-05-05T06:50:05.000Z</time>
      </trkpt>
      <trkpt lat="47.26182" lon="-2.32006">
        <ele>-6.5999999046326</ele>
        <time>2022-05-05T06:50:06.000Z</time>
      </trkpt>
      <trkpt lat="47.26172" lon="-2.3201">
        <ele>-6.5999999046326</ele>
        <time>2022-05-05T06:50:10.000Z</time>
      </trkpt>
      <trkpt lat="47.26115" lon="-2.32052">
        <ele>-6.5999999046326</ele>
        <time>2022-05-05T06:50:15.000Z</time>
      </trkpt>
      <trkpt lat="47.2612" lon="-2.32074">
        <ele>-6.5999999046326</ele>
        <time>2022-05-05T06:50:21.000Z</time>
      </trkpt>
      <trkpt lat="47.26114" lon="-2.32102">
        <ele>-6.5999999046326</ele>
        <time>2022-05-05T06:50:27.000Z</time>
      </trkpt>
      <trkpt lat="47.26108" lon="-2.32127">
        <ele>-6.5999999046326</ele>
        <time>2022-05-05T06:50:33.000Z</time>
      </trkpt>
      <trkpt lat="47.26105" lon="-2.32133">
        <ele>-6.5999999046326</ele>
        <time>2022-05-05T06:50:34.000Z</time>
      </trkpt>
      <trkpt lat="47.26099" lon="-2.32149">
        <ele>-6.5999999046326</ele>
        <time>2022-05-05T06:50:38.000Z</time>
      </trkpt>
      <trkpt lat="47.26087" lon="-2.32176">
        <ele>-6.5999999046326</ele>
        <time>2022-05-05T06:50:45.000Z</time>
      </trkpt>
      <trkpt lat="47.26074" lon="-2.32202">
        <ele>-6.5999999046326</ele>
        <time>2022-05-05T06:50:51.000Z</time>
      </trkpt>
      <trkpt lat="47.26055" lon="-2.3223">
        <ele>-6.5999999046326</ele>
        <time>2022-05-05T06:50:57.000Z</time>
      </trkpt>
      <trkpt lat="47.26036" lon="-2.32255">
        <ele>-6.5999999046326</ele>
        <time>2022-05-05T06:51:03.000Z</time>
      </trkpt>
      <trkpt lat="47.26007" lon="-2.32291">
        <ele>-6.5999999046326</ele>
        <time>2022-05-05T06:51:11.000Z</time>
      </trkpt>
      <trkpt lat="47.25996" lon="-2.32306">
        <ele>-6.5999999046326</ele>
        <time>2022-05-05T06:51:14.000Z</time>
      </trkpt>
      <trkpt lat="47.25987" lon="-2.32319">
        <ele>-6.5999999046326</ele>
        <time>2022-05-05T06:51:17.000Z</time>
      </trkpt>
      <trkpt lat="47.25964" lon="-2.32353">
        <ele>-6.5999999046326</ele>
        <time>2022-05-05T06:51:24.000Z</time>
      </trkpt>
      <trkpt lat="47.25939" lon="-2.32386">
        <ele>-6.5999999046326</ele>
        <time>2022-05-05T06:51:31.000Z</time>
      </trkpt>
      <trkpt lat="47.25911" lon="-2.32421">
        <ele>-6.5999999046326</ele>
        <time>2022-05-05T06:51:39.000Z</time>
      </trkpt>
      <trkpt lat="47.25904" lon="-2.3243">
        <ele>-6.5999999046326</ele>
        <time>2022-05-05T06:51:41.000Z</time>
      </trkpt>
      <trkpt lat="47.25888" lon="-2.32453">
        <ele>-6.5999999046326</ele>
        <time>2022-05-05T06:51:47.000Z</time>
      </trkpt>
      <trkpt lat="47.2589" lon="-2.32463">
        <ele>-6.5999999046326</ele>
        <time>2022-05-05T06:51:50.000Z</time>
      </trkpt>
      <trkpt lat="47.25891" lon="-2.32465">
        <ele>-6.5999999046326</ele>
        <time>2022-05-05T06:51:51.000Z</time>
      </trkpt>
      <trkpt lat="47.259" lon="-2.32477">
        <ele>-6.5999999046326</ele>
        <time>2022-05-05T06:51:54.000Z</time>
      </trkpt>
      <trkpt lat="47.25903" lon="-2.32482">
        <ele>-6.5999999046326</ele>
        <time>2022-05-05T06:51:55.000Z</time>
      </trkpt>
      <trkpt lat="47.25915" lon="-2.32518">
        <ele>-6.5999999046326</ele>
        <time>2022-05-05T06:52:01.000Z</time>
      </trkpt>
      <trkpt lat="47.25928" lon="-2.32563">
        <ele>-6.5999999046326</ele>
        <time>2022-05-05T06:52:08.000Z</time>
      </trkpt>
      <trkpt lat="47.2594" lon="-2.32607">
        <ele>-6.5999999046326</ele>
        <time>2022-05-05T06:52:15.000Z</time>
      </trkpt>
      <trkpt lat="47.25943" lon="-2.32626">
        <ele>-6.5999999046326</ele>
        <time>2022-05-05T06:52:18.000Z</time>
      </trkpt>
      <trkpt lat="47.25943" lon="-2.32643">
        <ele>-6.5999999046326</ele>
        <time>2022-05-05T06:52:21.000Z</time>
      </trkpt>
      <trkpt lat="47.2595" lon="-2.32659">
        <ele>-6.5999999046326</ele>
        <time>2022-05-05T06:52:24.000Z</time>
      </trkpt>
      <trkpt lat="47.25952" lon="-2.3266">
        <ele>-6.5999999046326</ele>
        <time>2022-05-05T06:52:25.000Z</time>
      </trkpt>
      <trkpt lat="47.25964" lon="-2.32663">
        <ele>-6.5999999046326</ele>
        <time>2022-05-05T06:52:29.000Z</time>
      </trkpt>
      <trkpt lat="47.25968" lon="-2.32664">
        <ele>-6.5999999046326</ele>
        <time>2022-05-05T06:52:30.000Z</time>
      </trkpt>
      <trkpt lat="47.25984" lon="-2.32665">
        <ele>-6.5999999046326</ele>
        <time>2022-05-05T06:52:35.000Z</time>
      </trkpt>
      <trkpt lat="47.26003" lon="-2.32663">
        <ele>-6</ele>
        <time>2022-05-05T06:52:40.000Z</time>
      </trkpt>
      <trkpt lat="47.26007" lon="-2.32663">
        <ele>-5.5999999046326</ele>
        <time>2022-05-05T06:52:41.000Z</time>
      </trkpt>
      <trkpt lat="47.26011" lon="-2.32664">
        <ele>-5.1999998092651</ele>
        <time>2022-05-05T06:52:42.000Z</time>
      </trkpt>
      <trkpt lat="47.26015" lon="-2.32664">
        <ele>-4.8000001907349</ele>
        <time>2022-05-05T06:52:43.000Z</time>
      </trkpt>
      <trkpt lat="47.26019" lon="-2.32663">
        <ele>-4.4000000953674</ele>
        <time>2022-05-05T06:52:44.000Z</time>
      </trkpt>
      <trkpt lat="47.26031" lon="-2.32663">
        <ele>-4.4000000953674</ele>
        <time>2022-05-05T06:52:47.000Z</time>
      </trkpt>
      <trkpt lat="47.26073" lon="-2.3265">
        <ele>-4.4000000953674</ele>
        <time>2022-05-05T06:52:55.000Z</time>
      </trkpt>
      <trkpt lat="47.26119" lon="-2.32645">
        <ele>-4.4000000953674</ele>
        <time>2022-05-05T06:53:05.000Z</time>
      </trkpt>
      <trkpt lat="47.26135" lon="-2.32649">
        <ele>-4.4000000953674</ele>
        <time>2022-05-05T06:53:09.000Z</time>
      </trkpt>
      <trkpt lat="47.26139" lon="-2.3265">
        <ele>-4.4000000953674</ele>
        <time>2022-05-05T06:53:10.000Z</time>
      </trkpt>
      <trkpt lat="47.26169" lon="-2.32664">
        <ele>-4.4000000953674</ele>
        <time>2022-05-05T06:53:17.000Z</time>
      </trkpt>
      <trkpt lat="47.26198" lon="-2.3269">
        <ele>-4.4000000953674</ele>
        <time>2022-05-05T06:53:24.000Z</time>
      </trkpt>
      <trkpt lat="47.26221" lon="-2.32716">
        <ele>-4.4000000953674</ele>
        <time>2022-05-05T06:53:30.000Z</time>
      </trkpt>
      <trkpt lat="47.26225" lon="-2.32721">
        <ele>-4.4000000953674</ele>
        <time>2022-05-05T06:53:31.000Z</time>
      </trkpt>
      <trkpt lat="47.2625" lon="-2.32761">
        <ele>-4.4000000953674</ele>
        <time>2022-05-05T06:53:39.000Z</time>
      </trkpt>
      <trkpt lat="47.26274" lon="-2.32807">
        <ele>-4.4000000953674</ele>
        <time>2022-05-05T06:53:46.000Z</time>
      </trkpt>
      <trkpt lat="47.26275" lon="-2.32814">
        <ele>-4.4000000953674</ele>
        <time>2022-05-05T06:53:47.000Z</time>
      </trkpt>
      <trkpt lat="47.26281" lon="-2.32837">
        <ele>-4.4000000953674</ele>
        <time>2022-05-05T06:53:50.000Z</time>
      </trkpt>
      <trkpt lat="47.26282" lon="-2.32844">
        <ele>-4.4000000953674</ele>
        <time>2022-05-05T06:53:51.000Z</time>
      </trkpt>
      <trkpt lat="47.26286" lon="-2.32858">
        <ele>-4.4000000953674</ele>
        <time>2022-05-05T06:53:53.000Z</time>
      </trkpt>
      <trkpt lat="47.2629" lon="-2.32863">
        <ele>-4.4000000953674</ele>
        <time>2022-05-05T06:53:54.000Z</time>
      </trkpt>
      <trkpt lat="47.26304" lon="-2.32871">
        <ele>-4.4000000953674</ele>
        <time>2022-05-05T06:53:57.000Z</time>
      </trkpt>
      <trkpt lat="47.26309" lon="-2.32875">
        <ele>-4.4000000953674</ele>
        <time>2022-05-05T06:53:58.000Z</time>
      </trkpt>
      <trkpt lat="47.26317" lon="-2.32893">
        <ele>-4.4000000953674</ele>
        <time>2022-05-05T06:54:01.000Z</time>
      </trkpt>
      <trkpt lat="47.2632" lon="-2.32899">
        <ele>-4.4000000953674</ele>
        <time>2022-05-05T06:54:02.000Z</time>
      </trkpt>
      <trkpt lat="47.26341" lon="-2.32961">
        <ele>-4.4000000953674</ele>
        <time>2022-05-05T06:54:11.000Z</time>
      </trkpt>
      <trkpt lat="47.26349" lon="-2.32979">
        <ele>-4.4000000953674</ele>
        <time>2022-05-05T06:54:14.000Z</time>
      </trkpt>
      <trkpt lat="47.26357" lon="-2.32988">
        <ele>-4.4000000953674</ele>
        <time>2022-05-05T06:54:16.000Z</time>
      </trkpt>
      <trkpt lat="47.2636" lon="-2.32994">
        <ele>-4.4000000953674</ele>
        <time>2022-05-05T06:54:17.000Z</time>
      </trkpt>
      <trkpt lat="47.26362" lon="-2.33008">
        <ele>-4.4000000953674</ele>
        <time>2022-05-05T06:54:19.000Z</time>
      </trkpt>
      <trkpt lat="47.26363" lon="-2.33037">
        <ele>-4.4000000953674</ele>
        <time>2022-05-05T06:54:23.000Z</time>
      </trkpt>
      <trkpt lat="47.26363" lon="-2.33044">
        <ele>-4.4000000953674</ele>
        <time>2022-05-05T06:54:24.000Z</time>
      </trkpt>
      <trkpt lat="47.26368" lon="-2.33118">
        <ele>-4.4000000953674</ele>
        <time>2022-05-05T06:54:34.000Z</time>
      </trkpt>
      <trkpt lat="47.26372" lon="-2.33183">
        <ele>-4.4000000953674</ele>
        <time>2022-05-05T06:54:43.000Z</time>
      </trkpt>
      <trkpt lat="47.26373" lon="-2.33204">
        <ele>-4.4000000953674</ele>
        <time>2022-05-05T06:54:46.000Z</time>
      </trkpt>
      <trkpt lat="47.26376" lon="-2.3324">
        <ele>-4.4000000953674</ele>
        <time>2022-05-05T06:54:51.000Z</time>
      </trkpt>
      <trkpt lat="47.26378" lon="-2.33247">
        <ele>-4.4000000953674</ele>
        <time>2022-05-05T06:54:52.000Z</time>
      </trkpt>
      <trkpt lat="47.26389" lon="-2.33268">
        <ele>-4.4000000953674</ele>
        <time>2022-05-05T06:54:56.000Z</time>
      </trkpt>
      <trkpt lat="47.26404" lon="-2.3327">
        <ele>-4.4000000953674</ele>
        <time>2022-05-05T06:54:59.000Z</time>
      </trkpt>
      <trkpt lat="47.26409" lon="-2.33271">
        <ele>-4.4000000953674</ele>
        <time>2022-05-05T06:55:00.000Z</time>
      </trkpt>
      <trkpt lat="47.26423" lon="-2.33272">
        <ele>-4.4000000953674</ele>
        <time>2022-05-05T06:55:03.000Z</time>
      </trkpt>
      <trkpt lat="47.26443" lon="-2.33274">
        <ele>-4.4000000953674</ele>
        <time>2022-05-05T06:55:07.000Z</time>
      </trkpt>
      <trkpt lat="47.26474" lon="-2.3328">
        <ele>-4.4000000953674</ele>
        <time>2022-05-05T06:55:14.000Z</time>
      </trkpt>
      <trkpt lat="47.26479" lon="-2.3328">
        <ele>-4.4000000953674</ele>
        <time>2022-05-05T06:55:15.000Z</time>
      </trkpt>
      <trkpt lat="47.26501" lon="-2.33284">
        <ele>-4.4000000953674</ele>
        <time>2022-05-05T06:55:20.000Z</time>
      </trkpt>
      <trkpt lat="47.26504" lon="-2.33287">
        <ele>-4.4000000953674</ele>
        <time>2022-05-05T06:55:21.000Z</time>
      </trkpt>
      <trkpt lat="47.26522" lon="-2.33309">
        <ele>-4.4000000953674</ele>
        <time>2022-05-05T06:55:26.000Z</time>
      </trkpt>
      <trkpt lat="47.26524" lon="-2.33338">
        <ele>-4.4000000953674</ele>
        <time>2022-05-05T06:55:30.000Z</time>
      </trkpt>
      <trkpt lat="47.26524" lon="-2.33346">
        <ele>-4.4000000953674</ele>
        <time>2022-05-05T06:55:31.000Z</time>
      </trkpt>
      <trkpt lat="47.26525" lon="-2.33354">
        <ele>-4.4000000953674</ele>
        <time>2022-05-05T06:55:32.000Z</time>
      </trkpt>
      <trkpt lat="47.26529" lon="-2.33369">
        <ele>-4.4000000953674</ele>
        <time>2022-05-05T06:55:34.000Z</time>
      </trkpt>
      <trkpt lat="47.26543" lon="-2.33427">
        <ele>-4.4000000953674</ele>
        <time>2022-05-05T06:55:42.000Z</time>
      </trkpt>
      <trkpt lat="47.26551" lon="-2.33478">
        <ele>-4.4000000953674</ele>
        <time>2022-05-05T06:55:49.000Z</time>
      </trkpt>
      <trkpt lat="47.26553" lon="-2.33492">
        <ele>-4.4000000953674</ele>
        <time>2022-05-05T06:55:51.000Z</time>
      </trkpt>
      <trkpt lat="47.26561" lon="-2.33517">
        <ele>-4.4000000953674</ele>
        <time>2022-05-05T06:55:55.000Z</time>
      </trkpt>
      <trkpt lat="47.26564" lon="-2.33531">
        <ele>-4.4000000953674</ele>
        <time>2022-05-05T06:55:57.000Z</time>
      </trkpt>
      <trkpt lat="47.26568" lon="-2.33558">
        <ele>-4.4000000953674</ele>
        <time>2022-05-05T06:56:01.000Z</time>
      </trkpt>
      <trkpt lat="47.26571" lon="-2.33597">
        <ele>-4.4000000953674</ele>
        <time>2022-05-05T06:56:07.000Z</time>
      </trkpt>
      <trkpt lat="47.26572" lon="-2.33603">
        <ele>-4.4000000953674</ele>
        <time>2022-05-05T06:56:08.000Z</time>
      </trkpt>
      <trkpt lat="47.26576" lon="-2.33638">
        <ele>-4.4000000953674</ele>
        <time>2022-05-05T06:56:14.000Z</time>
      </trkpt>
      <trkpt lat="47.26581" lon="-2.33666">
        <ele>-4.4000000953674</ele>
        <time>2022-05-05T06:56:19.000Z</time>
      </trkpt>
      <trkpt lat="47.26586" lon="-2.33675">
        <ele>-4.4000000953674</ele>
        <time>2022-05-05T06:56:21.000Z</time>
      </trkpt>
      <trkpt lat="47.2659" lon="-2.33679">
        <ele>-4</ele>
        <time>2022-05-05T06:56:22.000Z</time>
      </trkpt>
      <trkpt lat="47.26592" lon="-2.33685">
        <ele>-3.5999999046326</ele>
        <time>2022-05-05T06:56:23.000Z</time>
      </trkpt>
      <trkpt lat="47.26594" lon="-2.33689">
        <ele>-3.2000000476837</ele>
        <time>2022-05-05T06:56:24.000Z</time>
      </trkpt>
      <trkpt lat="47.26598" lon="-2.33694">
        <ele>-2.7999999523163</ele>
        <time>2022-05-05T06:56:25.000Z</time>
      </trkpt>
      <trkpt lat="47.26601" lon="-2.33698">
        <ele>-2.4000000953674</ele>
        <time>2022-05-05T06:56:26.000Z</time>
      </trkpt>
      <trkpt lat="47.26604" lon="-2.33702">
        <ele>-2.4000000953674</ele>
        <time>2022-05-05T06:56:27.000Z</time>
      </trkpt>
      <trkpt lat="47.2661" lon="-2.3371">
        <ele>-2.4000000953674</ele>
        <time>2022-05-05T06:56:29.000Z</time>
      </trkpt>
      <trkpt lat="47.26618" lon="-2.33724">
        <ele>-2.4000000953674</ele>
        <time>2022-05-05T06:56:32.000Z</time>
      </trkpt>
      <trkpt lat="47.26621" lon="-2.33729">
        <ele>-2.4000000953674</ele>
        <time>2022-05-05T06:56:33.000Z</time>
      </trkpt>
      <trkpt lat="47.26625" lon="-2.33735">
        <ele>-2.4000000953674</ele>
        <time>2022-05-05T06:56:34.000Z</time>
      </trkpt>
      <trkpt lat="47.26638" lon="-2.33753">
        <ele>-2.4000000953674</ele>
        <time>2022-05-05T06:56:38.000Z</time>
      </trkpt>
      <trkpt lat="47.2665" lon="-2.33775">
        <ele>-2.4000000953674</ele>
        <time>2022-05-05T06:56:42.000Z</time>
      </trkpt>
      <trkpt lat="47.26665" lon="-2.33796">
        <ele>-2.4000000953674</ele>
        <time>2022-05-05T06:56:46.000Z</time>
      </trkpt>
      <trkpt lat="47.26675" lon="-2.33809">
        <ele>-2.4000000953674</ele>
        <time>2022-05-05T06:56:49.000Z</time>
      </trkpt>
      <trkpt lat="47.26689" lon="-2.33828">
        <ele>-2.4000000953674</ele>
        <time>2022-05-05T06:56:54.000Z</time>
      </trkpt>
      <trkpt lat="47.26697" lon="-2.33842">
        <ele>-2.4000000953674</ele>
        <time>2022-05-05T06:56:57.000Z</time>
      </trkpt>
      <trkpt lat="47.26705" lon="-2.33857">
        <ele>-2.4000000953674</ele>
        <time>2022-05-05T06:57:00.000Z</time>
      </trkpt>
      <trkpt lat="47.26709" lon="-2.33862">
        <ele>-2</ele>
        <time>2022-05-05T06:57:01.000Z</time>
      </trkpt>
      <trkpt lat="47.26712" lon="-2.33867">
        <ele>-1.6000000238419</ele>
        <time>2022-05-05T06:57:02.000Z</time>
      </trkpt>
      <trkpt lat="47.26715" lon="-2.33873">
        <ele>-1.2000000476837</ele>
        <time>2022-05-05T06:57:03.000Z</time>
      </trkpt>
      <trkpt lat="47.26718" lon="-2.33878">
        <ele>-0.80000001192093</ele>
        <time>2022-05-05T06:57:04.000Z</time>
      </trkpt>
      <trkpt lat="47.26722" lon="-2.33883">
        <ele>-0.40000000596046</ele>
        <time>2022-05-05T06:57:05.000Z</time>
      </trkpt>
      <trkpt lat="47.26728" lon="-2.33894">
        <ele>-0.40000000596046</ele>
        <time>2022-05-05T06:57:07.000Z</time>
      </trkpt>
      <trkpt lat="47.26757" lon="-2.33943">
        <ele>-0.40000000596046</ele>
        <time>2022-05-05T06:57:16.000Z</time>
      </trkpt>
      <trkpt lat="47.26761" lon="-2.33949">
        <ele>-0.40000000596046</ele>
        <time>2022-05-05T06:57:17.000Z</time>
      </trkpt>
      <trkpt lat="47.26771" lon="-2.33963">
        <ele>-0.40000000596046</ele>
        <time>2022-05-05T06:57:20.000Z</time>
      </trkpt>
      <trkpt lat="47.26774" lon="-2.33968">
        <ele>-0.40000000596046</ele>
        <time>2022-05-05T06:57:21.000Z</time>
      </trkpt>
      <trkpt lat="47.26802" lon="-2.34012">
        <ele>-0.40000000596046</ele>
        <time>2022-05-05T06:57:29.000Z</time>
      </trkpt>
      <trkpt lat="47.26835" lon="-2.34064">
        <ele>-0.40000000596046</ele>
        <time>2022-05-05T06:57:39.000Z</time>
      </trkpt>
      <trkpt lat="47.26858" lon="-2.341">
        <ele>-0.40000000596046</ele>
        <time>2022-05-05T06:57:46.000Z</time>
      </trkpt>
      <trkpt lat="47.2687" lon="-2.34122">
        <ele>-0.40000000596046</ele>
        <time>2022-05-05T06:57:50.000Z</time>
      </trkpt>
      <trkpt lat="47.26876" lon="-2.34133">
        <ele>-0.40000000596046</ele>
        <time>2022-05-05T06:57:52.000Z</time>
      </trkpt>
      <trkpt lat="47.26883" lon="-2.34142">
        <ele>-0.40000000596046</ele>
        <time>2022-05-05T06:57:54.000Z</time>
      </trkpt>
      <trkpt lat="47.26889" lon="-2.34152">
        <ele>-0.40000000596046</ele>
        <time>2022-05-05T06:57:56.000Z</time>
      </trkpt>
      <trkpt lat="47.26896" lon="-2.34162">
        <ele>-0.40000000596046</ele>
        <time>2022-05-05T06:57:58.000Z</time>
      </trkpt>
      <trkpt lat="47.26927" lon="-2.34209">
        <ele>-0.40000000596046</ele>
        <time>2022-05-05T06:58:07.000Z</time>
      </trkpt>
      <trkpt lat="47.2695" lon="-2.34247">
        <ele>-0.40000000596046</ele>
        <time>2022-05-05T06:58:14.000Z</time>
      </trkpt>
      <trkpt lat="47.26976" lon="-2.34289">
        <ele>-0.40000000596046</ele>
        <time>2022-05-05T06:58:22.000Z</time>
      </trkpt>
      <trkpt lat="47.26984" lon="-2.34304">
        <ele>-0.40000000596046</ele>
        <time>2022-05-05T06:58:25.000Z</time>
      </trkpt>
      <trkpt lat="47.26993" lon="-2.34318">
        <ele>-0.40000000596046</ele>
        <time>2022-05-05T06:58:28.000Z</time>
      </trkpt>
      <trkpt lat="47.27004" lon="-2.3432">
        <ele>-0.40000000596046</ele>
        <time>2022-05-05T06:58:31.000Z</time>
      </trkpt>
      <trkpt lat="47.27008" lon="-2.34321">
        <ele>-0.40000000596046</ele>
        <time>2022-05-05T06:58:32.000Z</time>
      </trkpt>
      <trkpt lat="47.27032" lon="-2.34325">
        <ele>-0.40000000596046</ele>
        <time>2022-05-05T06:58:38.000Z</time>
      </trkpt>
      <trkpt lat="47.27039" lon="-2.34338">
        <ele>10.3</ele>
        <time>2022-05-05T06:58:41.000Z</time>
      </trkpt>
      <trkpt lat="47.2704" lon="-2.34345">
        <ele>0.40000000596046</ele>
        <time>2022-05-05T06:58:42.000Z</time>
      </trkpt>
      <trkpt lat="47.27042" lon="-2.34351">
        <ele>0.80000001192093</ele>
        <time>2022-05-05T06:58:43.000Z</time>
      </trkpt>
      <trkpt lat="47.27043" lon="-2.34358">
        <ele>1.2000000476837</ele>
        <time>2022-05-05T06:58:44.000Z</time>
      </trkpt>
      <trkpt lat="47.27045" lon="-2.34364">
        <ele>1.6000000238419</ele>
        <time>2022-05-05T06:58:45.000Z</time>
      </trkpt>
      <trkpt lat="47.27046" lon="-2.34371">
        <ele>1.6000000238419</ele>
        <time>2022-05-05T06:58:46.000Z</time>
      </trkpt>
      <trkpt lat="47.27048" lon="-2.34377">
        <ele>1.6000000238419</ele>
        <time>2022-05-05T06:58:47.000Z</time>
      </trkpt>
      <trkpt lat="47.27053" lon="-2.34396">
        <ele>1.6000000238419</ele>
        <time>2022-05-05T06:58:50.000Z</time>
      </trkpt>
      <trkpt lat="47.27057" lon="-2.34407">
        <ele>1.6000000238419</ele>
        <time>2022-05-05T06:58:52.000Z</time>
      </trkpt>
      <trkpt lat="47.27058" lon="-2.34413">
        <ele>1.6000000238419</ele>
        <time>2022-05-05T06:58:53.000Z</time>
      </trkpt>
      <trkpt lat="47.2707" lon="-2.34467">
        <ele>1.6000000238419</ele>
        <time>2022-05-05T06:59:01.000Z</time>
      </trkpt>
      <trkpt lat="47.27084" lon="-2.34526">
        <ele>1.6000000238419</ele>
        <time>2022-05-05T06:59:10.000Z</time>
      </trkpt>
      <trkpt lat="47.27095" lon="-2.34571">
        <ele>1.6000000238419</ele>
        <time>2022-05-05T06:59:17.000Z</time>
      </trkpt>
      <trkpt lat="47.27105" lon="-2.34619">
        <ele>1.6000000238419</ele>
        <time>2022-05-05T06:59:24.000Z</time>
      </trkpt>
      <trkpt lat="47.2712" lon="-2.3468">
        <ele>1.6000000238419</ele>
        <time>2022-05-05T06:59:32.000Z</time>
      </trkpt>
      <trkpt lat="47.27132" lon="-2.34733">
        <ele>1.6000000238419</ele>
        <time>2022-05-05T06:59:39.000Z</time>
      </trkpt>
      <trkpt lat="47.27142" lon="-2.34784">
        <ele>1.6000000238419</ele>
        <time>2022-05-05T06:59:46.000Z</time>
      </trkpt>
      <trkpt lat="47.27156" lon="-2.34849">
        <ele>1.6000000238419</ele>
        <time>2022-05-05T06:59:55.000Z</time>
      </trkpt>
      <trkpt lat="47.27167" lon="-2.34889">
        <ele>1.6000000238419</ele>
        <time>2022-05-05T07:00:01.000Z</time>
      </trkpt>
      <trkpt lat="47.27169" lon="-2.34895">
        <ele>1.6000000238419</ele>
        <time>2022-05-05T07:00:02.000Z</time>
      </trkpt>
      <trkpt lat="47.27185" lon="-2.34947">
        <ele>1.6000000238419</ele>
        <time>2022-05-05T07:00:10.000Z</time>
      </trkpt>
      <trkpt lat="47.27201" lon="-2.34994">
        <ele>1.6000000238419</ele>
        <time>2022-05-05T07:00:17.000Z</time>
      </trkpt>
      <trkpt lat="47.27216" lon="-2.35038">
        <ele>1.6000000238419</ele>
        <time>2022-05-05T07:00:24.000Z</time>
      </trkpt>
      <trkpt lat="47.27219" lon="-2.35045">
        <ele>2</ele>
        <time>2022-05-05T07:00:25.000Z</time>
      </trkpt>
      <trkpt lat="47.27221" lon="-2.35052">
        <ele>2.4000000953674</ele>
        <time>2022-05-05T07:00:26.000Z</time>
      </trkpt>
      <trkpt lat="47.27224" lon="-2.35058">
        <ele>2.7999999523163</ele>
        <time>2022-05-05T07:00:27.000Z</time>
      </trkpt>
      <trkpt lat="47.27227" lon="-2.35066">
        <ele>3.2000000476837</ele>
        <time>2022-05-05T07:00:28.000Z</time>
      </trkpt>
      <trkpt lat="47.27229" lon="-2.35073">
        <ele>3.5999999046326</ele>
        <time>2022-05-05T07:00:29.000Z</time>
      </trkpt>
      <trkpt lat="47.27235" lon="-2.35086">
        <ele>3.5999999046326</ele>
        <time>2022-05-05T07:00:31.000Z</time>
      </trkpt>
      <trkpt lat="47.27253" lon="-2.35121">
        <ele>3.5999999046326</ele>
        <time>2022-05-05T07:00:37.000Z</time>
      </trkpt>
      <trkpt lat="47.27256" lon="-2.35123">
        <ele>3.5999999046326</ele>
        <time>2022-05-05T07:00:38.000Z</time>
      </trkpt>
      <trkpt lat="47.27268" lon="-2.35117">
        <ele>3.5999999046326</ele>
        <time>2022-05-05T07:00:41.000Z</time>
      </trkpt>
      <trkpt lat="47.27275" lon="-2.35113">
        <ele>3.5999999046326</ele>
        <time>2022-05-05T07:00:43.000Z</time>
      </trkpt>
      <trkpt lat="47.27291" lon="-2.35104">
        <ele>3.5999999046326</ele>
        <time>2022-05-05T07:00:48.000Z</time>
      </trkpt>
      <trkpt lat="47.27296" lon="-2.35104">
        <ele>3.5999999046326</ele>
        <time>2022-05-05T07:00:50.000Z</time>
      </trkpt>
      <trkpt lat="47.273" lon="-2.35106">
        <ele>3.5999999046326</ele>
        <time>2022-05-05T07:00:52.000Z</time>
      </trkpt>
      <trkpt lat="47.27307" lon="-2.35102">
        <ele>3.5999999046326</ele>
        <time>2022-05-05T07:00:55.000Z</time>
      </trkpt>
      <trkpt lat="47.27311" lon="-2.35096">
        <ele>3.5999999046326</ele>
        <time>2022-05-05T07:00:57.000Z</time>
      </trkpt>
      <trkpt lat="47.27318" lon="-2.35092">
        <ele>3.5999999046326</ele>
        <time>2022-05-05T07:00:59.000Z</time>
      </trkpt>
      <trkpt lat="47.2732" lon="-2.3509">
        <ele>3.5999999046326</ele>
        <time>2022-05-05T07:01:00.000Z</time>
      </trkpt>
      <trkpt lat="47.27323" lon="-2.35089">
        <ele>4.5999999046326</ele>
        <time>2022-05-05T07:01:01.000Z</time>
      </trkpt>
      <trkpt lat="47.27326" lon="-2.35087">
        <ele>5</ele>
        <time>2022-05-05T07:01:02.000Z</time>
      </trkpt>
      <trkpt lat="47.27329" lon="-2.35085">
        <ele>5.4000000953674</ele>
        <time>2022-05-05T07:01:03.000Z</time>
      </trkpt>
      <trkpt lat="47.27333" lon="-2.35083">
        <ele>5.8000001907349</ele>
        <time>2022-05-05T07:01:04.000Z</time>
      </trkpt>
      <trkpt lat="47.27342" lon="-2.35079">
        <ele>5.8000001907349</ele>
        <time>2022-05-05T07:01:07.000Z</time>
      </trkpt>
      <trkpt lat="47.27348" lon="-2.35075">
        <ele>6.4000000953674</ele>
        <time>2022-05-05T07:01:09.000Z</time>
      </trkpt>
      <trkpt lat="47.27351" lon="-2.35074">
        <ele>6.8000001907349</ele>
        <time>2022-05-05T07:01:10.000Z</time>
      </trkpt>
      <trkpt lat="47.27354" lon="-2.35072">
        <ele>7.1999998092651</ele>
        <time>2022-05-05T07:01:11.000Z</time>
      </trkpt>
      <trkpt lat="47.27357" lon="-2.3507">
        <ele>7.5999999046326</ele>
        <time>2022-05-05T07:01:12.000Z</time>
      </trkpt>
      <trkpt lat="47.2736" lon="-2.35068">
        <ele>8</ele>
        <time>2022-05-05T07:01:13.000Z</time>
      </trkpt>
      <trkpt lat="47.27373" lon="-2.35061">
        <ele>8</ele>
        <time>2022-05-05T07:01:17.000Z</time>
      </trkpt>
      <trkpt lat="47.27389" lon="-2.35055">
        <ele>8.3999996185303</ele>
        <time>2022-05-05T07:01:22.000Z</time>
      </trkpt>
      <trkpt lat="47.27392" lon="-2.35055">
        <ele>8.8000001907349</ele>
        <time>2022-05-05T07:01:23.000Z</time>
      </trkpt>
      <trkpt lat="47.27395" lon="-2.35057">
        <ele>9.1999998092651</ele>
        <time>2022-05-05T07:01:24.000Z</time>
      </trkpt>
      <trkpt lat="47.27397" lon="-2.35061">
        <ele>9.6000003814697</ele>
        <time>2022-05-05T07:01:25.000Z</time>
      </trkpt>
      <trkpt lat="47.27399" lon="-2.35065">
        <ele>10</ele>
        <time>2022-05-05T07:01:26.000Z</time>
      </trkpt>
      <trkpt lat="47.27407" lon="-2.3509">
        <ele>10</ele>
        <time>2022-05-05T07:01:31.000Z</time>
      </trkpt>
      <trkpt lat="47.27416" lon="-2.3513">
        <ele>10</ele>
        <time>2022-05-05T07:01:38.000Z</time>
      </trkpt>
      <trkpt lat="47.27427" lon="-2.35172">
        <ele>10</ele>
        <time>2022-05-05T07:01:46.000Z</time>
      </trkpt>
      <trkpt lat="47.27431" lon="-2.35182">
        <ele>10</ele>
        <time>2022-05-05T07:01:49.000Z</time>
      </trkpt>
      <trkpt lat="47.27433" lon="-2.35182">
        <ele>10</ele>
        <time>2022-05-05T07:01:50.000Z</time>
      </trkpt>
      <trkpt lat="47.27449" lon="-2.35169">
        <ele>10</ele>
        <time>2022-05-05T07:01:54.000Z</time>
      </trkpt>
      <trkpt lat="47.27464" lon="-2.35159">
        <ele>10.39999961853</ele>
        <time>2022-05-05T07:01:57.000Z</time>
      </trkpt>
      <trkpt lat="47.27468" lon="-2.35156">
        <ele>11</ele>
        <time>2022-05-05T07:01:58.000Z</time>
      </trkpt>
      <trkpt lat="47.27472" lon="-2.35153">
        <ele>11.39999961853</ele>
        <time>2022-05-05T07:01:59.000Z</time>
      </trkpt>
      <trkpt lat="47.27476" lon="-2.35151">
        <ele>11.800000190735</ele>
        <time>2022-05-05T07:02:00.000Z</time>
      </trkpt>
      <trkpt lat="47.2748" lon="-2.35149">
        <ele>12.199999809265</ele>
        <time>2022-05-05T07:02:01.000Z</time>
      </trkpt>
      <trkpt lat="47.275" lon="-2.35135">
        <ele>12.199999809265</ele>
        <time>2022-05-05T07:02:07.000Z</time>
      </trkpt>
      <trkpt lat="47.2751" lon="-2.35128">
        <ele>12.199999809265</ele>
        <time>2022-05-05T07:02:11.000Z</time>
      </trkpt>
      <trkpt lat="47.2752" lon="-2.35131">
        <ele>12.199999809265</ele>
        <time>2022-05-05T07:02:14.000Z</time>
      </trkpt>
      <trkpt lat="47.27527" lon="-2.35133">
        <ele>12.199999809265</ele>
        <time>2022-05-05T07:02:16.000Z</time>
      </trkpt>
      <trkpt lat="47.27541" lon="-2.35137">
        <ele>12.199999809265</ele>
        <time>2022-05-05T07:02:20.000Z</time>
      </trkpt>
      <trkpt lat="47.27548" lon="-2.35136">
        <ele>12.60000038147</ele>
        <time>2022-05-05T07:02:22.000Z</time>
      </trkpt>
      <trkpt lat="47.27552" lon="-2.35136">
        <ele>13</ele>
        <time>2022-05-05T07:02:23.000Z</time>
      </trkpt>
      <trkpt lat="47.27556" lon="-2.35135">
        <ele>13.39999961853</ele>
        <time>2022-05-05T07:02:24.000Z</time>
      </trkpt>
      <trkpt lat="47.2756" lon="-2.35134">
        <ele>13.800000190735</ele>
        <time>2022-05-05T07:02:25.000Z</time>
      </trkpt>
      <trkpt lat="47.27564" lon="-2.35133">
        <ele>14.199999809265</ele>
        <time>2022-05-05T07:02:26.000Z</time>
      </trkpt>
      <trkpt lat="47.27568" lon="-2.35133">
        <ele>14.199999809265</ele>
        <time>2022-05-05T07:02:27.000Z</time>
      </trkpt>
      <trkpt lat="47.27588" lon="-2.3513">
        <ele>14.199999809265</ele>
        <time>2022-05-05T07:02:32.000Z</time>
      </trkpt>
      <trkpt lat="47.27601" lon="-2.35135">
        <ele>14.199999809265</ele>
        <time>2022-05-05T07:02:35.000Z</time>
      </trkpt>
      <trkpt lat="47.27606" lon="-2.3514">
        <ele>14.199999809265</ele>
        <time>2022-05-05T07:02:36.000Z</time>
      </trkpt>
      <trkpt lat="47.27612" lon="-2.35161">
        <ele>14.199999809265</ele>
        <time>2022-05-05T07:02:39.000Z</time>
      </trkpt>
      <trkpt lat="47.27614" lon="-2.35168">
        <ele>14.199999809265</ele>
        <time>2022-05-05T07:02:40.000Z</time>
      </trkpt>
      <trkpt lat="47.27618" lon="-2.35178">
        <ele>14.199999809265</ele>
        <time>2022-05-05T07:02:42.000Z</time>
      </trkpt>
      <trkpt lat="47.27621" lon="-2.3518">
        <ele>14.199999809265</ele>
        <time>2022-05-05T07:02:43.000Z</time>
      </trkpt>
      <trkpt lat="47.27641" lon="-2.35178">
        <ele>14.199999809265</ele>
        <time>2022-05-05T07:02:47.000Z</time>
      </trkpt>
      <trkpt lat="47.27647" lon="-2.35177">
        <ele>13.800000190735</ele>
        <time>2022-05-05T07:02:48.000Z</time>
      </trkpt>
      <trkpt lat="47.27653" lon="-2.35176">
        <ele>13.39999961853</ele>
        <time>2022-05-05T07:02:49.000Z</time>
      </trkpt>
      <trkpt lat="47.27659" lon="-2.35176">
        <ele>13</ele>
        <time>2022-05-05T07:02:50.000Z</time>
      </trkpt>
      <trkpt lat="47.27664" lon="-2.35177">
        <ele>12.60000038147</ele>
        <time>2022-05-05T07:02:51.000Z</time>
      </trkpt>
      <trkpt lat="47.27668" lon="-2.3518">
        <ele>12.199999809265</ele>
        <time>2022-05-05T07:02:52.000Z</time>
      </trkpt>
      <trkpt lat="47.27671" lon="-2.35185">
        <ele>12.199999809265</ele>
        <time>2022-05-05T07:02:53.000Z</time>
      </trkpt>
      <trkpt lat="47.27674" lon="-2.35207">
        <ele>12.199999809265</ele>
        <time>2022-05-05T07:02:56.000Z</time>
      </trkpt>
      <trkpt lat="47.27676" lon="-2.35218">
        <ele>11.800000190735</ele>
        <time>2022-05-05T07:02:58.000Z</time>
      </trkpt>
      <trkpt lat="47.27678" lon="-2.35221">
        <ele>11.39999961853</ele>
        <time>2022-05-05T07:02:59.000Z</time>
      </trkpt>
      <trkpt lat="47.2768" lon="-2.35223">
        <ele>11</ele>
        <time>2022-05-05T07:03:00.000Z</time>
      </trkpt>
      <trkpt lat="47.27684" lon="-2.35222">
        <ele>10.60000038147</ele>
        <time>2022-05-05T07:03:01.000Z</time>
      </trkpt>
      <trkpt lat="47.27688" lon="-2.35221">
        <ele>10.199999809265</ele>
        <time>2022-05-05T07:03:02.000Z</time>
      </trkpt>
      <trkpt lat="47.27692" lon="-2.3522">
        <ele>10.199999809265</ele>
        <time>2022-05-05T07:03:03.000Z</time>
      </trkpt>
      <trkpt lat="47.27719" lon="-2.35212">
        <ele>10.199999809265</ele>
        <time>2022-05-05T07:03:08.000Z</time>
      </trkpt>
      <trkpt lat="47.27748" lon="-2.35205">
        <ele>9.8000001907349</ele>
        <time>2022-05-05T07:03:13.000Z</time>
      </trkpt>
      <trkpt lat="47.27753" lon="-2.35204">
        <ele>9.3999996185303</ele>
        <time>2022-05-05T07:03:14.000Z</time>
      </trkpt>
      <trkpt lat="47.27759" lon="-2.35203">
        <ele>9</ele>
        <time>2022-05-05T07:03:15.000Z</time>
      </trkpt>
      <trkpt lat="47.27764" lon="-2.35202">
        <ele>8.3999996185303</ele>
        <time>2022-05-05T07:03:16.000Z</time>
      </trkpt>
      <trkpt lat="47.27768" lon="-2.35202">
        <ele>8</ele>
        <time>2022-05-05T07:03:17.000Z</time>
      </trkpt>
      <trkpt lat="47.27774" lon="-2.35207">
        <ele>8</ele>
        <time>2022-05-05T07:03:19.000Z</time>
      </trkpt>
      <trkpt lat="47.2778" lon="-2.3523">
        <ele>8</ele>
        <time>2022-05-05T07:03:23.000Z</time>
      </trkpt>
      <trkpt lat="47.27786" lon="-2.35275">
        <ele>8</ele>
        <time>2022-05-05T07:03:29.000Z</time>
      </trkpt>
      <trkpt lat="47.27798" lon="-2.35328">
        <ele>8</ele>
        <time>2022-05-05T07:03:36.000Z</time>
      </trkpt>
      <trkpt lat="47.27806" lon="-2.35356">
        <ele>8</ele>
        <time>2022-05-05T07:03:40.000Z</time>
      </trkpt>
      <trkpt lat="47.27809" lon="-2.3536">
        <ele>8</ele>
        <time>2022-05-05T07:03:41.000Z</time>
      </trkpt>
      <trkpt lat="47.27823" lon="-2.35362">
        <ele>8</ele>
        <time>2022-05-05T07:03:44.000Z</time>
      </trkpt>
      <trkpt lat="47.27827" lon="-2.35361">
        <ele>8</ele>
        <time>2022-05-05T07:03:45.000Z</time>
      </trkpt>
      <trkpt lat="47.27845" lon="-2.3536">
        <ele>8</ele>
        <time>2022-05-05T07:03:49.000Z</time>
      </trkpt>
      <trkpt lat="47.27858" lon="-2.35361">
        <ele>8</ele>
        <time>2022-05-05T07:03:52.000Z</time>
      </trkpt>
      <trkpt lat="47.27862" lon="-2.35362">
        <ele>8</ele>
        <time>2022-05-05T07:03:53.000Z</time>
      </trkpt>
      <trkpt lat="47.27874" lon="-2.35365">
        <ele>8</ele>
        <time>2022-05-05T07:03:56.000Z</time>
      </trkpt>
      <trkpt lat="47.27877" lon="-2.35368">
        <ele>8</ele>
        <time>2022-05-05T07:03:57.000Z</time>
      </trkpt>
      <trkpt lat="47.27897" lon="-2.35395">
        <ele>8</ele>
        <time>2022-05-05T07:04:03.000Z</time>
      </trkpt>
      <trkpt lat="47.27923" lon="-2.35427">
        <ele>8</ele>
        <time>2022-05-05T07:04:10.000Z</time>
      </trkpt>
      <trkpt lat="47.27945" lon="-2.35453">
        <ele>8</ele>
        <time>2022-05-05T07:04:16.000Z</time>
      </trkpt>
      <trkpt lat="47.2795" lon="-2.35455">
        <ele>8</ele>
        <time>2022-05-05T07:04:17.000Z</time>
      </trkpt>
      <trkpt lat="47.2797" lon="-2.3547">
        <ele>8</ele>
        <time>2022-05-05T07:04:22.000Z</time>
      </trkpt>
      <trkpt lat="47.27977" lon="-2.35479">
        <ele>8</ele>
        <time>2022-05-05T07:04:24.000Z</time>
      </trkpt>
      <trkpt lat="47.27986" lon="-2.35496">
        <ele>8</ele>
        <time>2022-05-05T07:04:27.000Z</time>
      </trkpt>
      <trkpt lat="47.27991" lon="-2.35506">
        <ele>8</ele>
        <time>2022-05-05T07:04:29.000Z</time>
      </trkpt>
      <trkpt lat="47.28001" lon="-2.35536">
        <ele>8</ele>
        <time>2022-05-05T07:04:35.000Z</time>
      </trkpt>
      <trkpt lat="47.28006" lon="-2.35555">
        <ele>8</ele>
        <time>2022-05-05T07:04:40.000Z</time>
      </trkpt>
      <trkpt lat="47.28009" lon="-2.3556">
        <ele>8.3999996185303</ele>
        <time>2022-05-05T07:04:42.000Z</time>
      </trkpt>
      <trkpt lat="47.28011" lon="-2.35563">
        <ele>9</ele>
        <time>2022-05-05T07:04:43.000Z</time>
      </trkpt>
      <trkpt lat="47.28013" lon="-2.35565">
        <ele>9.8000001907349</ele>
        <time>2022-05-05T07:04:44.000Z</time>
      </trkpt>
      <trkpt lat="47.28014" lon="-2.35565">
        <ele>10.199999809265</ele>
        <time>2022-05-05T07:04:45.000Z</time>
      </trkpt>
      <trkpt lat="47.28017" lon="-2.35565">
        <ele>10.199999809265</ele>
        <time>2022-05-05T07:04:46.000Z</time>
      </trkpt>
      <trkpt lat="47.28027" lon="-2.35569">
        <ele>10.199999809265</ele>
        <time>2022-05-05T07:04:50.000Z</time>
      </trkpt>
      <trkpt lat="47.28046" lon="-2.35578">
        <ele>10.199999809265</ele>
        <time>2022-05-05T07:04:57.000Z</time>
      </trkpt>
      <trkpt lat="47.28059" lon="-2.35584">
        <ele>10.199999809265</ele>
        <time>2022-05-05T07:05:03.000Z</time>
      </trkpt>
      <trkpt lat="47.2806" lon="-2.35585">
        <ele>10.60000038147</ele>
        <time>2022-05-05T07:05:04.000Z</time>
      </trkpt>
      <trkpt lat="47.28062" lon="-2.35586">
        <ele>11</ele>
        <time>2022-05-05T07:05:05.000Z</time>
      </trkpt>
      <trkpt lat="47.28063" lon="-2.35589">
        <ele>11.39999961853</ele>
        <time>2022-05-05T07:05:06.000Z</time>
      </trkpt>
      <trkpt lat="47.28065" lon="-2.35591">
        <ele>11.800000190735</ele>
        <time>2022-05-05T07:05:07.000Z</time>
      </trkpt>
      <trkpt lat="47.28066" lon="-2.35594">
        <ele>12.199999809265</ele>
        <time>2022-05-05T07:05:08.000Z</time>
      </trkpt>
      <trkpt lat="47.28069" lon="-2.35606">
        <ele>12.199999809265</ele>
        <time>2022-05-05T07:05:13.000Z</time>
      </trkpt>
      <trkpt lat="47.28069" lon="-2.35606">
        <ele>12.199999809265</ele>
        <time>2022-05-05T07:05:15.000Z</time>
      </trkpt>
      <trkpt lat="47.28068" lon="-2.35603">
        <ele>12.199999809265</ele>
        <time>2022-05-05T07:12:57.000Z</time>
      </trkpt>
      <trkpt lat="47.28067" lon="-2.356">
        <ele>12.199999809265</ele>
        <time>2022-05-05T07:12:59.000Z</time>
      </trkpt>
      <trkpt lat="47.28063" lon="-2.35591">
        <ele>12.199999809265</ele>
        <time>2022-05-05T07:13:03.000Z</time>
      </trkpt>
      <trkpt lat="47.2805" lon="-2.35586">
        <ele>12.199999809265</ele>
        <time>2022-05-05T07:13:08.000Z</time>
      </trkpt>
      <trkpt lat="47.28047" lon="-2.35585">
        <ele>12.199999809265</ele>
        <time>2022-05-05T07:13:09.000Z</time>
      </trkpt>
      <trkpt lat="47.28033" lon="-2.35577">
        <ele>12.199999809265</ele>
        <time>2022-05-05T07:13:14.000Z</time>
      </trkpt>
      <trkpt lat="47.28031" lon="-2.35559">
        <ele>12.199999809265</ele>
        <time>2022-05-05T07:13:19.000Z</time>
      </trkpt>
      <trkpt lat="47.2804" lon="-2.35555">
        <ele>12.199999809265</ele>
        <time>2022-05-05T07:13:22.000Z</time>
      </trkpt>
      <trkpt lat="47.28067" lon="-2.35553">
        <ele>12.199999809265</ele>
        <time>2022-05-05T07:13:29.000Z</time>
      </trkpt>
      <trkpt lat="47.28095" lon="-2.35553">
        <ele>12.199999809265</ele>
        <time>2022-05-05T07:13:36.000Z</time>
      </trkpt>
      <trkpt lat="47.28122" lon="-2.35556">
        <ele>12.199999809265</ele>
        <time>2022-05-05T07:13:43.000Z</time>
      </trkpt>
      <trkpt lat="47.28131" lon="-2.35554">
        <ele>12.60000038147</ele>
        <time>2022-05-05T07:13:46.000Z</time>
      </trkpt>
      <trkpt lat="47.28134" lon="-2.35552">
        <ele>13.39999961853</ele>
        <time>2022-05-05T07:13:47.000Z</time>
      </trkpt>
      <trkpt lat="47.28137" lon="-2.35549">
        <ele>13.800000190735</ele>
        <time>2022-05-05T07:13:48.000Z</time>
      </trkpt>
      <trkpt lat="47.2814" lon="-2.35546">
        <ele>14.199999809265</ele>
        <time>2022-05-05T07:13:49.000Z</time>
      </trkpt>
      <trkpt lat="47.28148" lon="-2.35528">
        <ele>14.199999809265</ele>
        <time>2022-05-05T07:13:53.000Z</time>
      </trkpt>
      <trkpt lat="47.28153" lon="-2.35518">
        <ele>14.199999809265</ele>
        <time>2022-05-05T07:13:55.000Z</time>
      </trkpt>
      <trkpt lat="47.2816" lon="-2.35504">
        <ele>14.199999809265</ele>
        <time>2022-05-05T07:13:58.000Z</time>
      </trkpt>
      <trkpt lat="47.28171" lon="-2.35484">
        <ele>14.199999809265</ele>
        <time>2022-05-05T07:14:02.000Z</time>
      </trkpt>
      <trkpt lat="47.28176" lon="-2.35475">
        <ele>14.199999809265</ele>
        <time>2022-05-05T07:14:04.000Z</time>
      </trkpt>
      <trkpt lat="47.28194" lon="-2.35452">
        <ele>14.199999809265</ele>
        <time>2022-05-05T07:14:09.000Z</time>
      </trkpt>
      <trkpt lat="47.28219" lon="-2.35426">
        <ele>14.199999809265</ele>
        <time>2022-05-05T07:14:15.000Z</time>
      </trkpt>
      <trkpt lat="47.28224" lon="-2.35424">
        <ele>14.199999809265</ele>
        <time>2022-05-05T07:14:16.000Z</time>
      </trkpt>
      <trkpt lat="47.2824" lon="-2.35414">
        <ele>14.199999809265</ele>
        <time>2022-05-05T07:14:20.000Z</time>
      </trkpt>
      <trkpt lat="47.28253" lon="-2.35408">
        <ele>14.199999809265</ele>
        <time>2022-05-05T07:14:24.000Z</time>
      </trkpt>
      <trkpt lat="47.28256" lon="-2.35408">
        <ele>14.199999809265</ele>
        <time>2022-05-05T07:14:25.000Z</time>
      </trkpt>
      <trkpt lat="47.28269" lon="-2.35406">
        <ele>14.199999809265</ele>
        <time>2022-05-05T07:14:30.000Z</time>
      </trkpt>
      <trkpt lat="47.28274" lon="-2.35401">
        <ele>14.199999809265</ele>
        <time>2022-05-05T07:14:32.000Z</time>
      </trkpt>
      <trkpt lat="47.28277" lon="-2.35392">
        <ele>14.199999809265</ele>
        <time>2022-05-05T07:14:34.000Z</time>
      </trkpt>
      <trkpt lat="47.28281" lon="-2.35384">
        <ele>14.199999809265</ele>
        <time>2022-05-05T07:14:36.000Z</time>
      </trkpt>
      <trkpt lat="47.28289" lon="-2.35377">
        <ele>14.199999809265</ele>
        <time>2022-05-05T07:14:38.000Z</time>
      </trkpt>
      <trkpt lat="47.28298" lon="-2.35371">
        <ele>14.199999809265</ele>
        <time>2022-05-05T07:14:40.000Z</time>
      </trkpt>
      <trkpt lat="47.28314" lon="-2.3536">
        <ele>14.199999809265</ele>
        <time>2022-05-05T07:14:44.000Z</time>
      </trkpt>
      <trkpt lat="47.28339" lon="-2.35341">
        <ele>14.199999809265</ele>
        <time>2022-05-05T07:14:51.000Z</time>
      </trkpt>
      <trkpt lat="47.28353" lon="-2.35336">
        <ele>14.199999809265</ele>
        <time>2022-05-05T07:14:56.000Z</time>
      </trkpt>
      <trkpt lat="47.28357" lon="-2.35348">
        <ele>14.199999809265</ele>
        <time>2022-05-05T07:14:59.000Z</time>
      </trkpt>
      <trkpt lat="47.2836" lon="-2.35355">
        <ele>14.199999809265</ele>
        <time>2022-05-05T07:15:02.000Z</time>
      </trkpt>
      <trkpt lat="47.28361" lon="-2.35359">
        <ele>14.60000038147</ele>
        <time>2022-05-05T07:15:04.000Z</time>
      </trkpt>
      <trkpt lat="47.28363" lon="-2.35361">
        <ele>15</ele>
        <time>2022-05-05T07:15:05.000Z</time>
      </trkpt>
      <trkpt lat="47.28365" lon="-2.35364">
        <ele>15.39999961853</ele>
        <time>2022-05-05T07:15:06.000Z</time>
      </trkpt>
      <trkpt lat="47.28366" lon="-2.35366">
        <ele>15.800000190735</ele>
        <time>2022-05-05T07:15:07.000Z</time>
      </trkpt>
      <trkpt lat="47.28367" lon="-2.35369">
        <ele>16.200000762939</ele>
        <time>2022-05-05T07:15:08.000Z</time>
      </trkpt>
      <trkpt lat="47.28368" lon="-2.35372">
        <ele>16.200000762939</ele>
        <time>2022-05-05T07:15:09.000Z</time>
      </trkpt>
      <trkpt lat="47.2837" lon="-2.35377">
        <ele>16.60000038147</ele>
        <time>2022-05-05T07:15:11.000Z</time>
      </trkpt>
      <trkpt lat="47.28371" lon="-2.35379">
        <ele>17</ele>
        <time>2022-05-05T07:15:12.000Z</time>
      </trkpt>
      <trkpt lat="47.28372" lon="-2.35381">
        <ele>17.39999961853</ele>
        <time>2022-05-05T07:15:13.000Z</time>
      </trkpt>
      <trkpt lat="47.28373" lon="-2.35383">
        <ele>17.799999237061</ele>
        <time>2022-05-05T07:15:14.000Z</time>
      </trkpt>
      <trkpt lat="47.28373" lon="-2.35385">
        <ele>18.200000762939</ele>
        <time>2022-05-05T07:15:15.000Z</time>
      </trkpt>
      <trkpt lat="47.28374" lon="-2.35387">
        <ele>18.799999237061</ele>
        <time>2022-05-05T07:15:16.000Z</time>
      </trkpt>
      <trkpt lat="47.28375" lon="-2.35389">
        <ele>19.200000762939</ele>
        <time>2022-05-05T07:15:17.000Z</time>
      </trkpt>
      <trkpt lat="47.28376" lon="-2.35392">
        <ele>19.60000038147</ele>
        <time>2022-05-05T07:15:18.000Z</time>
      </trkpt>
      <trkpt lat="47.28377" lon="-2.35393">
        <ele>20.200000762939</ele>
        <time>2022-05-05T07:15:19.000Z</time>
      </trkpt>
      <trkpt lat="47.28378" lon="-2.35395">
        <ele>20.60000038147</ele>
        <time>2022-05-05T07:15:20.000Z</time>
      </trkpt>
      <trkpt lat="47.28379" lon="-2.35396">
        <ele>21</ele>
        <time>2022-05-05T07:15:21.000Z</time>
      </trkpt>
      <trkpt lat="47.2838" lon="-2.35398">
        <ele>21.39999961853</ele>
        <time>2022-05-05T07:15:22.000Z</time>
      </trkpt>
      <trkpt lat="47.28381" lon="-2.354">
        <ele>21.799999237061</ele>
        <time>2022-05-05T07:15:23.000Z</time>
      </trkpt>
      <trkpt lat="47.28382" lon="-2.35402">
        <ele>22.200000762939</ele>
        <time>2022-05-05T07:15:24.000Z</time>
      </trkpt>
      <trkpt lat="47.28383" lon="-2.35405">
        <ele>22.60000038147</ele>
        <time>2022-05-05T07:15:25.000Z</time>
      </trkpt>
      <trkpt lat="47.28385" lon="-2.35406">
        <ele>22.60000038147</ele>
        <time>2022-05-05T07:15:26.000Z</time>
      </trkpt>
      <trkpt lat="47.28389" lon="-2.3541">
        <ele>22.60000038147</ele>
        <time>2022-05-05T07:15:30.000Z</time>
      </trkpt>
      <trkpt lat="47.28391" lon="-2.35413">
        <ele>22.60000038147</ele>
        <time>2022-05-05T07:15:35.000Z</time>
      </trkpt>
      <trkpt lat="47.28398" lon="-2.35427">
        <ele>22.60000038147</ele>
        <time>2022-05-05T07:15:41.000Z</time>
      </trkpt>
      <trkpt lat="47.284" lon="-2.35429">
        <ele>22.60000038147</ele>
        <time>2022-05-05T07:15:42.000Z</time>
      </trkpt>
      <trkpt lat="47.28403" lon="-2.35429">
        <ele>22.60000038147</ele>
        <time>2022-05-05T07:15:43.000Z</time>
      </trkpt>
      <trkpt lat="47.2841" lon="-2.35425">
        <ele>22.60000038147</ele>
        <time>2022-05-05T07:15:47.000Z</time>
      </trkpt>
      <trkpt lat="47.28416" lon="-2.35419">
        <ele>23</ele>
        <time>2022-05-05T07:15:51.000Z</time>
      </trkpt>
      <trkpt lat="47.28418" lon="-2.35419">
        <ele>23.39999961853</ele>
        <time>2022-05-05T07:15:52.000Z</time>
      </trkpt>
      <trkpt lat="47.2842" lon="-2.35418">
        <ele>23.799999237061</ele>
        <time>2022-05-05T07:15:53.000Z</time>
      </trkpt>
      <trkpt lat="47.28421" lon="-2.35417">
        <ele>24.200000762939</ele>
        <time>2022-05-05T07:15:54.000Z</time>
      </trkpt>
      <trkpt lat="47.28422" lon="-2.35416">
        <ele>24.60000038147</ele>
        <time>2022-05-05T07:15:55.000Z</time>
      </trkpt>
      <trkpt lat="47.28428" lon="-2.35414">
        <ele>24.60000038147</ele>
        <time>2022-05-05T07:15:59.000Z</time>
      </trkpt>
      <trkpt lat="47.28431" lon="-2.35413">
        <ele>24.60000038147</ele>
        <time>2022-05-05T07:16:01.000Z</time>
      </trkpt>
      <trkpt lat="47.28433" lon="-2.35408">
        <ele>24.60000038147</ele>
        <time>2022-05-05T07:16:04.000Z</time>
      </trkpt>
      <trkpt lat="47.28434" lon="-2.35394">
        <ele>24.60000038147</ele>
        <time>2022-05-05T07:16:07.000Z</time>
      </trkpt>
      <trkpt lat="47.28434" lon="-2.35388">
        <ele>24.200000762939</ele>
        <time>2022-05-05T07:16:08.000Z</time>
      </trkpt>
      <trkpt lat="47.28434" lon="-2.35383">
        <ele>23.60000038147</ele>
        <time>2022-05-05T07:16:09.000Z</time>
      </trkpt>
      <trkpt lat="47.28434" lon="-2.35377">
        <ele>23.200000762939</ele>
        <time>2022-05-05T07:16:10.000Z</time>
      </trkpt>
      <trkpt lat="47.28434" lon="-2.35373">
        <ele>22.799999237061</ele>
        <time>2022-05-05T07:16:11.000Z</time>
      </trkpt>
      <trkpt lat="47.28433" lon="-2.35368">
        <ele>22.200000762939</ele>
        <time>2022-05-05T07:16:12.000Z</time>
      </trkpt>
      <trkpt lat="47.28433" lon="-2.35363">
        <ele>21.60000038147</ele>
        <time>2022-05-05T07:16:13.000Z</time>
      </trkpt>
      <trkpt lat="47.28434" lon="-2.35359">
        <ele>20.799999237061</ele>
        <time>2022-05-05T07:16:14.000Z</time>
      </trkpt>
      <trkpt lat="47.28435" lon="-2.35356">
        <ele>19.60000038147</ele>
        <time>2022-05-05T07:16:15.000Z</time>
      </trkpt>
      <trkpt lat="47.28437" lon="-2.35355">
        <ele>18.799999237061</ele>
        <time>2022-05-05T07:16:16.000Z</time>
      </trkpt>
      <trkpt lat="47.2844" lon="-2.35356">
        <ele>18.200000762939</ele>
        <time>2022-05-05T07:16:17.000Z</time>
      </trkpt>
      <trkpt lat="47.28444" lon="-2.35358">
        <ele>17.60000038147</ele>
        <time>2022-05-05T07:16:18.000Z</time>
      </trkpt>
      <trkpt lat="47.28458" lon="-2.35379">
        <ele>17.60000038147</ele>
        <time>2022-05-05T07:16:23.000Z</time>
      </trkpt>
      <trkpt lat="47.28463" lon="-2.35396">
        <ele>17.60000038147</ele>
        <time>2022-05-05T07:16:26.000Z</time>
      </trkpt>
      <trkpt lat="47.28466" lon="-2.35406">
        <ele>17.60000038147</ele>
        <time>2022-05-05T07:16:28.000Z</time>
      </trkpt>
      <trkpt lat="47.28473" lon="-2.35419">
        <ele>17.60000038147</ele>
        <time>2022-05-05T07:16:33.000Z</time>
      </trkpt>
      <trkpt lat="47.28473" lon="-2.35425">
        <ele>17.60000038147</ele>
        <time>2022-05-05T07:16:37.000Z</time>
      </trkpt>
      <trkpt lat="47.28472" lon="-2.35427">
        <ele>18.39999961853</ele>
        <time>2022-05-05T07:16:39.000Z</time>
      </trkpt>
      <trkpt lat="47.28472" lon="-2.35427">
        <ele>18.799999237061</ele>
        <time>2022-05-05T07:16:40.000Z</time>
      </trkpt>
      <trkpt lat="47.28472" lon="-2.35428">
        <ele>19.200000762939</ele>
        <time>2022-05-05T07:16:41.000Z</time>
      </trkpt>
      <trkpt lat="47.28472" lon="-2.35429">
        <ele>19.60000038147</ele>
        <time>2022-05-05T07:16:42.000Z</time>
      </trkpt>
      <trkpt lat="47.28471" lon="-2.3543">
        <ele>19.60000038147</ele>
        <time>2022-05-05T07:16:44.000Z</time>
      </trkpt>
      <trkpt lat="47.28469" lon="-2.35432">
        <ele>20</ele>
        <time>2022-05-05T07:16:46.000Z</time>
      </trkpt>
      <trkpt lat="47.28468" lon="-2.35432">
        <ele>20.60000038147</ele>
        <time>2022-05-05T07:16:47.000Z</time>
      </trkpt>
      <trkpt lat="47.28466" lon="-2.35433">
        <ele>21</ele>
        <time>2022-05-05T07:16:48.000Z</time>
      </trkpt>
      <trkpt lat="47.28464" lon="-2.35434">
        <ele>21.39999961853</ele>
        <time>2022-05-05T07:16:49.000Z</time>
      </trkpt>
      <trkpt lat="47.28463" lon="-2.35434">
        <ele>21.799999237061</ele>
        <time>2022-05-05T07:16:50.000Z</time>
      </trkpt>
      <trkpt lat="47.28459" lon="-2.3543">
        <ele>21.799999237061</ele>
        <time>2022-05-05T07:16:54.000Z</time>
      </trkpt>
      <trkpt lat="47.28458" lon="-2.35429">
        <ele>22.200000762939</ele>
        <time>2022-05-05T07:16:55.000Z</time>
      </trkpt>
      <trkpt lat="47.28457" lon="-2.35428">
        <ele>22.799999237061</ele>
        <time>2022-05-05T07:16:56.000Z</time>
      </trkpt>
      <trkpt lat="47.28456" lon="-2.35427">
        <ele>23.200000762939</ele>
        <time>2022-05-05T07:16:57.000Z</time>
      </trkpt>
      <trkpt lat="47.28455" lon="-2.35426">
        <ele>23.60000038147</ele>
        <time>2022-05-05T07:16:58.000Z</time>
      </trkpt>
      <trkpt lat="47.28453" lon="-2.35426">
        <ele>24</ele>
        <time>2022-05-05T07:16:59.000Z</time>
      </trkpt>
      <trkpt lat="47.28448" lon="-2.35428">
        <ele>24</ele>
        <time>2022-05-05T07:17:02.000Z</time>
      </trkpt>
      <trkpt lat="47.28448" lon="-2.35429">
        <ele>24</ele>
        <time>2022-05-05T07:17:03.000Z</time>
      </trkpt>
      <trkpt lat="47.28448" lon="-2.35431">
        <ele>24</ele>
        <time>2022-05-05T07:17:04.000Z</time>
      </trkpt>
      <trkpt lat="47.28448" lon="-2.35434">
        <ele>24</ele>
        <time>2022-05-05T07:17:06.000Z</time>
      </trkpt>
      <trkpt lat="47.2845" lon="-2.35436">
        <ele>24</ele>
        <time>2022-05-05T07:17:08.000Z</time>
      </trkpt>
      <trkpt lat="47.28451" lon="-2.35438">
        <ele>24.39999961853</ele>
        <time>2022-05-05T07:17:09.000Z</time>
      </trkpt>
      <trkpt lat="47.28452" lon="-2.35439">
        <ele>25</ele>
        <time>2022-05-05T07:17:10.000Z</time>
      </trkpt>
      <trkpt lat="47.28452" lon="-2.3544">
        <ele>25.39999961853</ele>
        <time>2022-05-05T07:17:11.000Z</time>
      </trkpt>
      <trkpt lat="47.28453" lon="-2.3544">
        <ele>25.799999237061</ele>
        <time>2022-05-05T07:17:12.000Z</time>
      </trkpt>
      <trkpt lat="47.28453" lon="-2.35442">
        <ele>26.200000762939</ele>
        <time>2022-05-05T07:17:13.000Z</time>
      </trkpt>
      <trkpt lat="47.28453" lon="-2.35451">
        <ele>26.60000038147</ele>
        <time>2022-05-05T07:17:17.000Z</time>
      </trkpt>
      <trkpt lat="47.28453" lon="-2.35452">
        <ele>27</ele>
        <time>2022-05-05T07:17:18.000Z</time>
      </trkpt>
      <trkpt lat="47.28454" lon="-2.35454">
        <ele>27.39999961853</ele>
        <time>2022-05-05T07:17:19.000Z</time>
      </trkpt>
      <trkpt lat="47.28454" lon="-2.35456">
        <ele>27.799999237061</ele>
        <time>2022-05-05T07:17:20.000Z</time>
      </trkpt>
      <trkpt lat="47.28454" lon="-2.35459">
        <ele>28.200000762939</ele>
        <time>2022-05-05T07:17:21.000Z</time>
      </trkpt>
      <trkpt lat="47.28454" lon="-2.35466">
        <ele>28.200000762939</ele>
        <time>2022-05-05T07:17:23.000Z</time>
      </trkpt>
      <trkpt lat="47.28455" lon="-2.35469">
        <ele>28.200000762939</ele>
        <time>2022-05-05T07:17:24.000Z</time>
      </trkpt>
      <trkpt lat="47.28463" lon="-2.35478">
        <ele>28.60000038147</ele>
        <time>2022-05-05T07:17:28.000Z</time>
      </trkpt>
      <trkpt lat="47.28464" lon="-2.35479">
        <ele>29</ele>
        <time>2022-05-05T07:17:29.000Z</time>
      </trkpt>
      <trkpt lat="47.28466" lon="-2.35482">
        <ele>29.60000038147</ele>
        <time>2022-05-05T07:17:30.000Z</time>
      </trkpt>
      <trkpt lat="47.28467" lon="-2.35484">
        <ele>30</ele>
        <time>2022-05-05T07:17:31.000Z</time>
      </trkpt>
      <trkpt lat="47.28468" lon="-2.35486">
        <ele>30.39999961853</ele>
        <time>2022-05-05T07:17:32.000Z</time>
      </trkpt>
      <trkpt lat="47.2847" lon="-2.35494">
        <ele>30.39999961853</ele>
        <time>2022-05-05T07:17:35.000Z</time>
      </trkpt>
      <trkpt lat="47.28471" lon="-2.35497">
        <ele>30.39999961853</ele>
        <time>2022-05-05T07:17:36.000Z</time>
      </trkpt>
      <trkpt lat="47.28471" lon="-2.35499">
        <ele>30.799999237061</ele>
        <time>2022-05-05T07:17:37.000Z</time>
      </trkpt>
      <trkpt lat="47.28472" lon="-2.35502">
        <ele>31.200000762939</ele>
        <time>2022-05-05T07:17:38.000Z</time>
      </trkpt>
      <trkpt lat="47.28473" lon="-2.35505">
        <ele>31.60000038147</ele>
        <time>2022-05-05T07:17:39.000Z</time>
      </trkpt>
      <trkpt lat="47.28475" lon="-2.35509">
        <ele>32</ele>
        <time>2022-05-05T07:17:40.000Z</time>
      </trkpt>
      <trkpt lat="47.28475" lon="-2.35513">
        <ele>32.400001525879</ele>
        <time>2022-05-05T07:17:41.000Z</time>
      </trkpt>
      <trkpt lat="47.28476" lon="-2.35517">
        <ele>32.400001525879</ele>
        <time>2022-05-05T07:17:42.000Z</time>
      </trkpt>
      <trkpt lat="47.28482" lon="-2.35546">
        <ele>32.400001525879</ele>
        <time>2022-05-05T07:17:48.000Z</time>
      </trkpt>
      <trkpt lat="47.2849" lon="-2.3556">
        <ele>32.400001525879</ele>
        <time>2022-05-05T07:17:53.000Z</time>
      </trkpt>
      <trkpt lat="47.28491" lon="-2.35563">
        <ele>32</ele>
        <time>2022-05-05T07:17:55.000Z</time>
      </trkpt>
      <trkpt lat="47.28492" lon="-2.35565">
        <ele>31.60000038147</ele>
        <time>2022-05-05T07:17:56.000Z</time>
      </trkpt>
      <trkpt lat="47.28494" lon="-2.35572">
        <ele>30.39999961853</ele>
        <time>2022-05-05T07:18:19.000Z</time>
      </trkpt>
      <trkpt lat="47.28492" lon="-2.35576">
        <ele>30.39999961853</ele>
        <time>2022-05-05T07:18:20.000Z</time>
      </trkpt>
      <trkpt lat="47.28492" lon="-2.35593">
        <ele>30.39999961853</ele>
        <time>2022-05-05T07:18:23.000Z</time>
      </trkpt>
      <trkpt lat="47.28495" lon="-2.35595">
        <ele>30.39999961853</ele>
        <time>2022-05-05T07:18:24.000Z</time>
      </trkpt>
      <trkpt lat="47.28501" lon="-2.35597">
        <ele>29.799999237061</ele>
        <time>2022-05-05T07:18:26.000Z</time>
      </trkpt>
      <trkpt lat="47.28506" lon="-2.35599">
        <ele>29.39999961853</ele>
        <time>2022-05-05T07:18:27.000Z</time>
      </trkpt>
      <trkpt lat="47.28511" lon="-2.356">
        <ele>29</ele>
        <time>2022-05-05T07:18:28.000Z</time>
      </trkpt>
      <trkpt lat="47.28516" lon="-2.35601">
        <ele>28.60000038147</ele>
        <time>2022-05-05T07:18:29.000Z</time>
      </trkpt>
      <trkpt lat="47.2852" lon="-2.35602">
        <ele>28.200000762939</ele>
        <time>2022-05-05T07:18:30.000Z</time>
      </trkpt>
      <trkpt lat="47.28537" lon="-2.35604">
        <ele>28.200000762939</ele>
        <time>2022-05-05T07:18:34.000Z</time>
      </trkpt>
      <trkpt lat="47.28543" lon="-2.35609">
        <ele>28.200000762939</ele>
        <time>2022-05-05T07:18:36.000Z</time>
      </trkpt>
      <trkpt lat="47.28544" lon="-2.35612">
        <ele>28.200000762939</ele>
        <time>2022-05-05T07:18:37.000Z</time>
      </trkpt>
      <trkpt lat="47.28544" lon="-2.35615">
        <ele>27.60000038147</ele>
        <time>2022-05-05T07:18:38.000Z</time>
      </trkpt>
      <trkpt lat="47.28544" lon="-2.3562">
        <ele>27.200000762939</ele>
        <time>2022-05-05T07:18:39.000Z</time>
      </trkpt>
      <trkpt lat="47.28543" lon="-2.35626">
        <ele>26.799999237061</ele>
        <time>2022-05-05T07:18:40.000Z</time>
      </trkpt>
      <trkpt lat="47.28542" lon="-2.35634">
        <ele>26.39999961853</ele>
        <time>2022-05-05T07:18:41.000Z</time>
      </trkpt>
      <trkpt lat="47.28541" lon="-2.35643">
        <ele>25.799999237061</ele>
        <time>2022-05-05T07:18:42.000Z</time>
      </trkpt>
      <trkpt lat="47.2854" lon="-2.35652">
        <ele>24.799999237061</ele>
        <time>2022-05-05T07:18:43.000Z</time>
      </trkpt>
      <trkpt lat="47.28539" lon="-2.35661">
        <ele>24.39999961853</ele>
        <time>2022-05-05T07:18:44.000Z</time>
      </trkpt>
      <trkpt lat="47.28539" lon="-2.35668">
        <ele>23.799999237061</ele>
        <time>2022-05-05T07:18:45.000Z</time>
      </trkpt>
      <trkpt lat="47.28539" lon="-2.35676">
        <ele>23.200000762939</ele>
        <time>2022-05-05T07:18:46.000Z</time>
      </trkpt>
      <trkpt lat="47.28538" lon="-2.35681">
        <ele>22.60000038147</ele>
        <time>2022-05-05T07:18:47.000Z</time>
      </trkpt>
      <trkpt lat="47.28537" lon="-2.35685">
        <ele>22</ele>
        <time>2022-05-05T07:18:48.000Z</time>
      </trkpt>
      <trkpt lat="47.28536" lon="-2.35689">
        <ele>21.60000038147</ele>
        <time>2022-05-05T07:18:49.000Z</time>
      </trkpt>
      <trkpt lat="47.28535" lon="-2.35694">
        <ele>21.60000038147</ele>
        <time>2022-05-05T07:18:52.000Z</time>
      </trkpt>
      <trkpt lat="47.28535" lon="-2.35694">
        <ele>21.60000038147</ele>
        <time>2022-05-05T07:18:53.000Z</time>
      </trkpt>
      <trkpt lat="47.28531" lon="-2.35699">
        <ele>21.60000038147</ele>
        <time>2022-05-05T07:19:27.000Z</time>
      </trkpt>
      <trkpt lat="47.28528" lon="-2.35696">
        <ele>21.60000038147</ele>
        <time>2022-05-05T07:19:29.000Z</time>
      </trkpt>
      <trkpt lat="47.28526" lon="-2.35694">
        <ele>21.60000038147</ele>
        <time>2022-05-05T07:19:31.000Z</time>
      </trkpt>
      <trkpt lat="47.28523" lon="-2.35696">
        <ele>21.60000038147</ele>
        <time>2022-05-05T07:19:34.000Z</time>
      </trkpt>
      <trkpt lat="47.28516" lon="-2.35703">
        <ele>21.60000038147</ele>
        <time>2022-05-05T07:19:38.000Z</time>
      </trkpt>
      <trkpt lat="47.28513" lon="-2.35707">
        <ele>21.60000038147</ele>
        <time>2022-05-05T07:19:40.000Z</time>
      </trkpt>
      <trkpt lat="47.2851" lon="-2.35714">
        <ele>21.60000038147</ele>
        <time>2022-05-05T07:19:43.000Z</time>
      </trkpt>
      <trkpt lat="47.28509" lon="-2.35719">
        <ele>21.60000038147</ele>
        <time>2022-05-05T07:19:45.000Z</time>
      </trkpt>
      <trkpt lat="47.28504" lon="-2.35729">
        <ele>21.60000038147</ele>
        <time>2022-05-05T07:19:49.000Z</time>
      </trkpt>
      <trkpt lat="47.28504" lon="-2.35733">
        <ele>21.60000038147</ele>
        <time>2022-05-05T07:19:50.000Z</time>
      </trkpt>
      <trkpt lat="47.28504" lon="-2.35738">
        <ele>21.60000038147</ele>
        <time>2022-05-05T07:19:51.000Z</time>
      </trkpt>
      <trkpt lat="47.28498" lon="-2.35762">
        <ele>21.60000038147</ele>
        <time>2022-05-05T07:19:54.000Z</time>
      </trkpt>
      <trkpt lat="47.28497" lon="-2.35767">
        <ele>21.60000038147</ele>
        <time>2022-05-05T07:19:55.000Z</time>
      </trkpt>
      <trkpt lat="47.28496" lon="-2.35795">
        <ele>21.60000038147</ele>
        <time>2022-05-05T07:20:02.000Z</time>
      </trkpt>
      <trkpt lat="47.28493" lon="-2.35819">
        <ele>21.60000038147</ele>
        <time>2022-05-05T07:20:08.000Z</time>
      </trkpt>
      <trkpt lat="47.28492" lon="-2.35839">
        <ele>21.60000038147</ele>
        <time>2022-05-05T07:20:13.000Z</time>
      </trkpt>
      <trkpt lat="47.28493" lon="-2.35842">
        <ele>21.60000038147</ele>
        <time>2022-05-05T07:20:14.000Z</time>
      </trkpt>
      <trkpt lat="47.28497" lon="-2.3585">
        <ele>21.60000038147</ele>
        <time>2022-05-05T07:20:17.000Z</time>
      </trkpt>
      <trkpt lat="47.28499" lon="-2.35854">
        <ele>21.60000038147</ele>
        <time>2022-05-05T07:20:19.000Z</time>
      </trkpt>
      <trkpt lat="47.285" lon="-2.35856">
        <ele>21.60000038147</ele>
        <time>2022-05-05T07:20:20.000Z</time>
      </trkpt>
      <trkpt lat="47.28512" lon="-2.35872">
        <ele>21.60000038147</ele>
        <time>2022-05-05T07:20:26.000Z</time>
      </trkpt>
      <trkpt lat="47.2852" lon="-2.35879">
        <ele>22</ele>
        <time>2022-05-05T07:20:31.000Z</time>
      </trkpt>
      <trkpt lat="47.28521" lon="-2.3588">
        <ele>22.39999961853</ele>
        <time>2022-05-05T07:20:32.000Z</time>
      </trkpt>
      <trkpt lat="47.28522" lon="-2.35881">
        <ele>22.799999237061</ele>
        <time>2022-05-05T07:20:33.000Z</time>
      </trkpt>
      <trkpt lat="47.28524" lon="-2.35881">
        <ele>23.200000762939</ele>
        <time>2022-05-05T07:20:34.000Z</time>
      </trkpt>
      <trkpt lat="47.28525" lon="-2.35882">
        <ele>23.60000038147</ele>
        <time>2022-05-05T07:20:35.000Z</time>
      </trkpt>
      <trkpt lat="47.28527" lon="-2.35883">
        <ele>24</ele>
        <time>2022-05-05T07:20:37.000Z</time>
      </trkpt>
      <trkpt lat="47.28529" lon="-2.35883">
        <ele>24.60000038147</ele>
        <time>2022-05-05T07:20:38.000Z</time>
      </trkpt>
      <trkpt lat="47.2853" lon="-2.35883">
        <ele>25</ele>
        <time>2022-05-05T07:20:39.000Z</time>
      </trkpt>
      <trkpt lat="47.28531" lon="-2.35884">
        <ele>25.60000038147</ele>
        <time>2022-05-05T07:20:40.000Z</time>
      </trkpt>
      <trkpt lat="47.28533" lon="-2.35884">
        <ele>26</ele>
        <time>2022-05-05T07:20:41.000Z</time>
      </trkpt>
      <trkpt lat="47.28537" lon="-2.35885">
        <ele>26</ele>
        <time>2022-05-05T07:20:46.000Z</time>
      </trkpt>
      <trkpt lat="47.28558" lon="-2.35915">
        <ele>28</ele>
        <time>2022-05-05T07:24:22.000Z</time>
      </trkpt>
      <trkpt lat="47.28563" lon="-2.35919">
        <ele>27.60000038147</ele>
        <time>2022-05-05T07:24:24.000Z</time>
      </trkpt>
      <trkpt lat="47.28565" lon="-2.35923">
        <ele>27.200000762939</ele>
        <time>2022-05-05T07:24:25.000Z</time>
      </trkpt>
      <trkpt lat="47.28567" lon="-2.35928">
        <ele>26.799999237061</ele>
        <time>2022-05-05T07:24:26.000Z</time>
      </trkpt>
      <trkpt lat="47.28568" lon="-2.35934">
        <ele>26.39999961853</ele>
        <time>2022-05-05T07:24:27.000Z</time>
      </trkpt>
      <trkpt lat="47.28571" lon="-2.35938">
        <ele>26</ele>
        <time>2022-05-05T07:24:28.000Z</time>
      </trkpt>
      <trkpt lat="47.28578" lon="-2.35952">
        <ele>26</ele>
        <time>2022-05-05T07:24:32.000Z</time>
      </trkpt>
      <trkpt lat="47.28587" lon="-2.35978">
        <ele>26</ele>
        <time>2022-05-05T07:24:38.000Z</time>
      </trkpt>
      <trkpt lat="47.28599" lon="-2.36015">
        <ele>26</ele>
        <time>2022-05-05T07:24:46.000Z</time>
      </trkpt>
      <trkpt lat="47.28612" lon="-2.36038">
        <ele>26</ele>
        <time>2022-05-05T07:24:51.000Z</time>
      </trkpt>
      <trkpt lat="47.28627" lon="-2.36057">
        <ele>26</ele>
        <time>2022-05-05T07:24:57.000Z</time>
      </trkpt>
      <trkpt lat="47.28641" lon="-2.36072">
        <ele>26</ele>
        <time>2022-05-05T07:25:02.000Z</time>
      </trkpt>
      <trkpt lat="47.28647" lon="-2.36089">
        <ele>26</ele>
        <time>2022-05-05T07:25:07.000Z</time>
      </trkpt>
      <trkpt lat="47.28648" lon="-2.36095">
        <ele>26.39999961853</ele>
        <time>2022-05-05T07:25:09.000Z</time>
      </trkpt>
      <trkpt lat="47.28648" lon="-2.36097">
        <ele>27</ele>
        <time>2022-05-05T07:25:10.000Z</time>
      </trkpt>
      <trkpt lat="47.28648" lon="-2.36099">
        <ele>27.39999961853</ele>
        <time>2022-05-05T07:25:11.000Z</time>
      </trkpt>
      <trkpt lat="47.28647" lon="-2.36101">
        <ele>27.799999237061</ele>
        <time>2022-05-05T07:25:12.000Z</time>
      </trkpt>
      <trkpt lat="47.28646" lon="-2.36102">
        <ele>28.39999961853</ele>
        <time>2022-05-05T07:25:13.000Z</time>
      </trkpt>
      <trkpt lat="47.28645" lon="-2.36104">
        <ele>29</ele>
        <time>2022-05-05T07:25:14.000Z</time>
      </trkpt>
      <trkpt lat="47.28644" lon="-2.36106">
        <ele>29.39999961853</ele>
        <time>2022-05-05T07:25:15.000Z</time>
      </trkpt>
      <trkpt lat="47.28644" lon="-2.36108">
        <ele>30</ele>
        <time>2022-05-05T07:25:16.000Z</time>
      </trkpt>
      <trkpt lat="47.28643" lon="-2.36111">
        <ele>30.60000038147</ele>
        <time>2022-05-05T07:25:17.000Z</time>
      </trkpt>
      <trkpt lat="47.28642" lon="-2.36113">
        <ele>30.60000038147</ele>
        <time>2022-05-05T07:25:18.000Z</time>
      </trkpt>
      <trkpt lat="47.2864" lon="-2.36116">
        <ele>31</ele>
        <time>2022-05-05T07:25:19.000Z</time>
      </trkpt>
      <trkpt lat="47.28639" lon="-2.36118">
        <ele>31.39999961853</ele>
        <time>2022-05-05T07:25:20.000Z</time>
      </trkpt>
      <trkpt lat="47.28638" lon="-2.3612">
        <ele>32</ele>
        <time>2022-05-05T07:25:21.000Z</time>
      </trkpt>
      <trkpt lat="47.28637" lon="-2.36122">
        <ele>32.400001525879</ele>
        <time>2022-05-05T07:25:22.000Z</time>
      </trkpt>
      <trkpt lat="47.28636" lon="-2.36123">
        <ele>32.799999237061</ele>
        <time>2022-05-05T07:25:23.000Z</time>
      </trkpt>
      <trkpt lat="47.28632" lon="-2.36128">
        <ele>32.799999237061</ele>
        <time>2022-05-05T07:25:28.000Z</time>
      </trkpt>
      <trkpt lat="47.28631" lon="-2.36133">
        <ele>32.799999237061</ele>
        <time>2022-05-05T07:25:30.000Z</time>
      </trkpt>
      <trkpt lat="47.28631" lon="-2.36135">
        <ele>32.799999237061</ele>
        <time>2022-05-05T07:25:32.000Z</time>
      </trkpt>
      <trkpt lat="47.28632" lon="-2.36138">
        <ele>32.799999237061</ele>
        <time>2022-05-05T07:25:33.000Z</time>
      </trkpt>
      <trkpt lat="47.28639" lon="-2.36149">
        <ele>32.799999237061</ele>
        <time>2022-05-05T07:25:37.000Z</time>
      </trkpt>
      <trkpt lat="47.28653" lon="-2.3617">
        <ele>32.799999237061</ele>
        <time>2022-05-05T07:25:42.000Z</time>
      </trkpt>
      <trkpt lat="47.28666" lon="-2.36206">
        <ele>32.799999237061</ele>
        <time>2022-05-05T07:25:48.000Z</time>
      </trkpt>
      <trkpt lat="47.28666" lon="-2.36229">
        <ele>32.400001525879</ele>
        <time>2022-05-05T07:25:52.000Z</time>
      </trkpt>
      <trkpt lat="47.28665" lon="-2.36235">
        <ele>32</ele>
        <time>2022-05-05T07:25:53.000Z</time>
      </trkpt>
      <trkpt lat="47.28665" lon="-2.36241">
        <ele>31.60000038147</ele>
        <time>2022-05-05T07:25:54.000Z</time>
      </trkpt>
      <trkpt lat="47.28665" lon="-2.36247">
        <ele>31.200000762939</ele>
        <time>2022-05-05T07:25:55.000Z</time>
      </trkpt>
      <trkpt lat="47.28664" lon="-2.36253">
        <ele>30.60000038147</ele>
        <time>2022-05-05T07:25:56.000Z</time>
      </trkpt>
      <trkpt lat="47.28664" lon="-2.36263">
        <ele>30.60000038147</ele>
        <time>2022-05-05T07:25:58.000Z</time>
      </trkpt>
      <trkpt lat="47.28666" lon="-2.36275">
        <ele>30.60000038147</ele>
        <time>2022-05-05T07:26:01.000Z</time>
      </trkpt>
      <trkpt lat="47.28668" lon="-2.36275">
        <ele>30.60000038147</ele>
        <time>2022-05-05T07:26:02.000Z</time>
      </trkpt>
      <trkpt lat="47.28683" lon="-2.36275">
        <ele>30.60000038147</ele>
        <time>2022-05-05T07:26:06.000Z</time>
      </trkpt>
      <trkpt lat="47.28686" lon="-2.36276">
        <ele>29.799999237061</ele>
        <time>2022-05-05T07:26:07.000Z</time>
      </trkpt>
      <trkpt lat="47.2869" lon="-2.36277">
        <ele>29.39999961853</ele>
        <time>2022-05-05T07:26:08.000Z</time>
      </trkpt>
      <trkpt lat="47.28693" lon="-2.36276">
        <ele>29</ele>
        <time>2022-05-05T07:26:09.000Z</time>
      </trkpt>
      <trkpt lat="47.28697" lon="-2.36275">
        <ele>28.60000038147</ele>
        <time>2022-05-05T07:26:10.000Z</time>
      </trkpt>
      <trkpt lat="47.28705" lon="-2.36269">
        <ele>28.60000038147</ele>
        <time>2022-05-05T07:26:12.000Z</time>
      </trkpt>
      <trkpt lat="47.28711" lon="-2.36263">
        <ele>28.200000762939</ele>
        <time>2022-05-05T07:26:14.000Z</time>
      </trkpt>
      <trkpt lat="47.28713" lon="-2.36261">
        <ele>27.799999237061</ele>
        <time>2022-05-05T07:26:15.000Z</time>
      </trkpt>
      <trkpt lat="47.28715" lon="-2.36258">
        <ele>27.39999961853</ele>
        <time>2022-05-05T07:26:16.000Z</time>
      </trkpt>
      <trkpt lat="47.28717" lon="-2.36255">
        <ele>27</ele>
        <time>2022-05-05T07:26:17.000Z</time>
      </trkpt>
      <trkpt lat="47.28718" lon="-2.36252">
        <ele>26.60000038147</ele>
        <time>2022-05-05T07:26:18.000Z</time>
      </trkpt>
      <trkpt lat="47.28731" lon="-2.36238">
        <ele>26.60000038147</ele>
        <time>2022-05-05T07:26:23.000Z</time>
      </trkpt>
      <trkpt lat="47.2875" lon="-2.36222">
        <ele>26.60000038147</ele>
        <time>2022-05-05T07:26:29.000Z</time>
      </trkpt>
      <trkpt lat="47.28763" lon="-2.36212">
        <ele>26.60000038147</ele>
        <time>2022-05-05T07:26:33.000Z</time>
      </trkpt>
      <trkpt lat="47.2878" lon="-2.36202">
        <ele>26.60000038147</ele>
        <time>2022-05-05T07:26:37.000Z</time>
      </trkpt>
      <trkpt lat="47.28785" lon="-2.36197">
        <ele>26.60000038147</ele>
        <time>2022-05-05T07:26:38.000Z</time>
      </trkpt>
      <trkpt lat="47.28818" lon="-2.36172">
        <ele>26</ele>
        <time>2022-05-05T07:26:45.000Z</time>
      </trkpt>
      <trkpt lat="47.28821" lon="-2.36168">
        <ele>25.60000038147</ele>
        <time>2022-05-05T07:26:46.000Z</time>
      </trkpt>
      <trkpt lat="47.28825" lon="-2.36164">
        <ele>25.200000762939</ele>
        <time>2022-05-05T07:26:47.000Z</time>
      </trkpt>
      <trkpt lat="47.28828" lon="-2.3616">
        <ele>24.799999237061</ele>
        <time>2022-05-05T07:26:48.000Z</time>
      </trkpt>
      <trkpt lat="47.28831" lon="-2.36155">
        <ele>24.39999961853</ele>
        <time>2022-05-05T07:26:49.000Z</time>
      </trkpt>
      <trkpt lat="47.28837" lon="-2.36145">
        <ele>24.39999961853</ele>
        <time>2022-05-05T07:26:51.000Z</time>
      </trkpt>
      <trkpt lat="47.28867" lon="-2.3611">
        <ele>24.39999961853</ele>
        <time>2022-05-05T07:26:59.000Z</time>
      </trkpt>
      <trkpt lat="47.289" lon="-2.36081">
        <ele>24.39999961853</ele>
        <time>2022-05-05T07:27:07.000Z</time>
      </trkpt>
      <trkpt lat="47.28926" lon="-2.36059">
        <ele>24.39999961853</ele>
        <time>2022-05-05T07:27:13.000Z</time>
      </trkpt>
      <trkpt lat="47.28958" lon="-2.36037">
        <ele>24.39999961853</ele>
        <time>2022-05-05T07:27:20.000Z</time>
      </trkpt>
      <trkpt lat="47.28986" lon="-2.36006">
        <ele>24.39999961853</ele>
        <time>2022-05-05T07:27:27.000Z</time>
      </trkpt>
      <trkpt lat="47.2899" lon="-2.36002">
        <ele>24.39999961853</ele>
        <time>2022-05-05T07:27:28.000Z</time>
      </trkpt>
      <trkpt lat="47.29006" lon="-2.35985">
        <ele>24.39999961853</ele>
        <time>2022-05-05T07:27:32.000Z</time>
      </trkpt>
      <trkpt lat="47.29027" lon="-2.35967">
        <ele>24.39999961853</ele>
        <time>2022-05-05T07:27:37.000Z</time>
      </trkpt>
      <trkpt lat="47.29034" lon="-2.35957">
        <ele>24.39999961853</ele>
        <time>2022-05-05T07:27:39.000Z</time>
      </trkpt>
      <trkpt lat="47.29071" lon="-2.35914">
        <ele>24.39999961853</ele>
        <time>2022-05-05T07:27:48.000Z</time>
      </trkpt>
      <trkpt lat="47.29104" lon="-2.35876">
        <ele>24.39999961853</ele>
        <time>2022-05-05T07:27:56.000Z</time>
      </trkpt>
      <trkpt lat="47.29143" lon="-2.35833">
        <ele>24.39999961853</ele>
        <time>2022-05-05T07:28:05.000Z</time>
      </trkpt>
      <trkpt lat="47.29175" lon="-2.35809">
        <ele>24.39999961853</ele>
        <time>2022-05-05T07:28:12.000Z</time>
      </trkpt>
      <trkpt lat="47.29213" lon="-2.35781">
        <ele>24.39999961853</ele>
        <time>2022-05-05T07:28:20.000Z</time>
      </trkpt>
      <trkpt lat="47.29242" lon="-2.35749">
        <ele>24.39999961853</ele>
        <time>2022-05-05T07:28:28.000Z</time>
      </trkpt>
      <trkpt lat="47.29253" lon="-2.35729">
        <ele>24.39999961853</ele>
        <time>2022-05-05T07:28:33.000Z</time>
      </trkpt>
      <trkpt lat="47.29253" lon="-2.3573">
        <ele>24.39999961853</ele>
        <time>2022-05-05T07:28:35.000Z</time>
      </trkpt>
      <trkpt lat="47.29253" lon="-2.35728">
        <ele>24.39999961853</ele>
        <time>2022-05-05T07:28:36.000Z</time>
      </trkpt>
      <trkpt lat="47.29256" lon="-2.35726">
        <ele>24.39999961853</ele>
        <time>2022-05-05T07:28:38.000Z</time>
      </trkpt>
      <trkpt lat="47.29262" lon="-2.35728">
        <ele>24.39999961853</ele>
        <time>2022-05-05T07:28:40.000Z</time>
      </trkpt>
      <trkpt lat="47.29268" lon="-2.35735">
        <ele>24.39999961853</ele>
        <time>2022-05-05T07:28:42.000Z</time>
      </trkpt>
      <trkpt lat="47.29275" lon="-2.35743">
        <ele>24.39999961853</ele>
        <time>2022-05-05T07:28:44.000Z</time>
      </trkpt>
      <trkpt lat="47.29303" lon="-2.35767">
        <ele>24.39999961853</ele>
        <time>2022-05-05T07:28:50.000Z</time>
      </trkpt>
      <trkpt lat="47.29327" lon="-2.35788">
        <ele>24.39999961853</ele>
        <time>2022-05-05T07:28:55.000Z</time>
      </trkpt>
      <trkpt lat="47.29366" lon="-2.35825">
        <ele>24.39999961853</ele>
        <time>2022-05-05T07:29:03.000Z</time>
      </trkpt>
      <trkpt lat="47.29396" lon="-2.35855">
        <ele>24.39999961853</ele>
        <time>2022-05-05T07:29:10.000Z</time>
      </trkpt>
      <trkpt lat="47.29426" lon="-2.35893">
        <ele>24.39999961853</ele>
        <time>2022-05-05T07:29:18.000Z</time>
      </trkpt>
      <trkpt lat="47.29443" lon="-2.35908">
        <ele>24.39999961853</ele>
        <time>2022-05-05T07:29:22.000Z</time>
      </trkpt>
      <trkpt lat="47.29448" lon="-2.35907">
        <ele>24.39999961853</ele>
        <time>2022-05-05T07:29:23.000Z</time>
      </trkpt>
      <trkpt lat="47.29466" lon="-2.35903">
        <ele>24.39999961853</ele>
        <time>2022-05-05T07:29:27.000Z</time>
      </trkpt>
      <trkpt lat="47.29479" lon="-2.35902">
        <ele>24.39999961853</ele>
        <time>2022-05-05T07:29:30.000Z</time>
      </trkpt>
      <trkpt lat="47.29493" lon="-2.35899">
        <ele>24.39999961853</ele>
        <time>2022-05-05T07:29:33.000Z</time>
      </trkpt>
      <trkpt lat="47.29497" lon="-2.35902">
        <ele>24.39999961853</ele>
        <time>2022-05-05T07:29:34.000Z</time>
      </trkpt>
      <trkpt lat="47.295" lon="-2.35907">
        <ele>24.39999961853</ele>
        <time>2022-05-05T07:29:35.000Z</time>
      </trkpt>
      <trkpt lat="47.29503" lon="-2.35919">
        <ele>24.39999961853</ele>
        <time>2022-05-05T07:29:37.000Z</time>
      </trkpt>
      <trkpt lat="47.29508" lon="-2.35939">
        <ele>24.39999961853</ele>
        <time>2022-05-05T07:29:40.000Z</time>
      </trkpt>
      <trkpt lat="47.29516" lon="-2.35945">
        <ele>24.39999961853</ele>
        <time>2022-05-05T07:29:43.000Z</time>
      </trkpt>
      <trkpt lat="47.29518" lon="-2.35944">
        <ele>24.39999961853</ele>
        <time>2022-05-05T07:29:44.000Z</time>
      </trkpt>
      <trkpt lat="47.29533" lon="-2.35935">
        <ele>24.39999961853</ele>
        <time>2022-05-05T07:29:48.000Z</time>
      </trkpt>
      <trkpt lat="47.29568" lon="-2.35915">
        <ele>24.39999961853</ele>
        <time>2022-05-05T07:29:55.000Z</time>
      </trkpt>
      <trkpt lat="47.2961" lon="-2.35889">
        <ele>24.39999961853</ele>
        <time>2022-05-05T07:30:03.000Z</time>
      </trkpt>
      <trkpt lat="47.29643" lon="-2.35868">
        <ele>24.39999961853</ele>
        <time>2022-05-05T07:30:09.000Z</time>
      </trkpt>
      <trkpt lat="47.29648" lon="-2.3586">
        <ele>24.39999961853</ele>
        <time>2022-05-05T07:30:10.000Z</time>
      </trkpt>
      <trkpt lat="47.29654" lon="-2.35845">
        <ele>24.799999237061</ele>
        <time>2022-05-05T07:30:12.000Z</time>
      </trkpt>
      <trkpt lat="47.29658" lon="-2.35841">
        <ele>25.200000762939</ele>
        <time>2022-05-05T07:30:13.000Z</time>
      </trkpt>
      <trkpt lat="47.29663" lon="-2.35839">
        <ele>26</ele>
        <time>2022-05-05T07:30:14.000Z</time>
      </trkpt>
      <trkpt lat="47.29668" lon="-2.35839">
        <ele>26.39999961853</ele>
        <time>2022-05-05T07:30:15.000Z</time>
      </trkpt>
      <trkpt lat="47.29673" lon="-2.35841">
        <ele>26.39999961853</ele>
        <time>2022-05-05T07:30:16.000Z</time>
      </trkpt>
      <trkpt lat="47.29686" lon="-2.3584">
        <ele>26.39999961853</ele>
        <time>2022-05-05T07:30:18.000Z</time>
      </trkpt>
      <trkpt lat="47.29699" lon="-2.35838">
        <ele>26.39999961853</ele>
        <time>2022-05-05T07:30:20.000Z</time>
      </trkpt>
      <trkpt lat="47.29715" lon="-2.35828">
        <ele>26.39999961853</ele>
        <time>2022-05-05T07:30:23.000Z</time>
      </trkpt>
      <trkpt lat="47.29725" lon="-2.35822">
        <ele>26.39999961853</ele>
        <time>2022-05-05T07:30:25.000Z</time>
      </trkpt>
      <trkpt lat="47.29751" lon="-2.35808">
        <ele>26.799999237061</ele>
        <time>2022-05-05T07:30:30.000Z</time>
      </trkpt>
      <trkpt lat="47.29755" lon="-2.35806">
        <ele>27.200000762939</ele>
        <time>2022-05-05T07:30:31.000Z</time>
      </trkpt>
      <trkpt lat="47.2976" lon="-2.35804">
        <ele>27.60000038147</ele>
        <time>2022-05-05T07:30:32.000Z</time>
      </trkpt>
      <trkpt lat="47.29765" lon="-2.35802">
        <ele>28.200000762939</ele>
        <time>2022-05-05T07:30:33.000Z</time>
      </trkpt>
      <trkpt lat="47.2977" lon="-2.358">
        <ele>28.60000038147</ele>
        <time>2022-05-05T07:30:34.000Z</time>
      </trkpt>
      <trkpt lat="47.29805" lon="-2.35787">
        <ele>28.60000038147</ele>
        <time>2022-05-05T07:30:41.000Z</time>
      </trkpt>
      <trkpt lat="47.29846" lon="-2.35773">
        <ele>28.60000038147</ele>
        <time>2022-05-05T07:30:48.000Z</time>
      </trkpt>
      <trkpt lat="47.29899" lon="-2.35751">
        <ele>28.60000038147</ele>
        <time>2022-05-05T07:30:56.000Z</time>
      </trkpt>
      <trkpt lat="47.29905" lon="-2.35747">
        <ele>28.60000038147</ele>
        <time>2022-05-05T07:30:57.000Z</time>
      </trkpt>
      <trkpt lat="47.29937" lon="-2.35722">
        <ele>28.60000038147</ele>
        <time>2022-05-05T07:31:03.000Z</time>
      </trkpt>
      <trkpt lat="47.29982" lon="-2.35692">
        <ele>28.60000038147</ele>
        <time>2022-05-05T07:31:12.000Z</time>
      </trkpt>
      <trkpt lat="47.30011" lon="-2.35673">
        <ele>28.60000038147</ele>
        <time>2022-05-05T07:31:18.000Z</time>
      </trkpt>
      <trkpt lat="47.30055" lon="-2.35647">
        <ele>28.60000038147</ele>
        <time>2022-05-05T07:31:27.000Z</time>
      </trkpt>
      <trkpt lat="47.30092" lon="-2.35623">
        <ele>28.60000038147</ele>
        <time>2022-05-05T07:31:35.000Z</time>
      </trkpt>
      <trkpt lat="47.30097" lon="-2.3562">
        <ele>28.60000038147</ele>
        <time>2022-05-05T07:31:36.000Z</time>
      </trkpt>
      <trkpt lat="47.30119" lon="-2.35604">
        <ele>28.60000038147</ele>
        <time>2022-05-05T07:31:41.000Z</time>
      </trkpt>
      <trkpt lat="47.30122" lon="-2.356">
        <ele>28.60000038147</ele>
        <time>2022-05-05T07:31:42.000Z</time>
      </trkpt>
      <trkpt lat="47.30134" lon="-2.35602">
        <ele>28.60000038147</ele>
        <time>2022-05-05T07:31:45.000Z</time>
      </trkpt>
      <trkpt lat="47.30135" lon="-2.35622">
        <ele>28.60000038147</ele>
        <time>2022-05-05T07:31:48.000Z</time>
      </trkpt>
      <trkpt lat="47.30134" lon="-2.35644">
        <ele>29</ele>
        <time>2022-05-05T07:31:51.000Z</time>
      </trkpt>
      <trkpt lat="47.30135" lon="-2.35651">
        <ele>29.39999961853</ele>
        <time>2022-05-05T07:31:52.000Z</time>
      </trkpt>
      <trkpt lat="47.30135" lon="-2.35658">
        <ele>30.200000762939</ele>
        <time>2022-05-05T07:31:53.000Z</time>
      </trkpt>
      <trkpt lat="47.30136" lon="-2.35665">
        <ele>30.60000038147</ele>
        <time>2022-05-05T07:31:54.000Z</time>
      </trkpt>
      <trkpt lat="47.30139" lon="-2.35726">
        <ele>30.60000038147</ele>
        <time>2022-05-05T07:32:02.000Z</time>
      </trkpt>
      <trkpt lat="47.30142" lon="-2.35782">
        <ele>30.60000038147</ele>
        <time>2022-05-05T07:32:08.000Z</time>
      </trkpt>
      <trkpt lat="47.30141" lon="-2.35838">
        <ele>30.200000762939</ele>
        <time>2022-05-05T07:32:13.000Z</time>
      </trkpt>
      <trkpt lat="47.3014" lon="-2.35849">
        <ele>29.60000038147</ele>
        <time>2022-05-05T07:32:14.000Z</time>
      </trkpt>
      <trkpt lat="47.30138" lon="-2.35861">
        <ele>29.200000762939</ele>
        <time>2022-05-05T07:32:15.000Z</time>
      </trkpt>
      <trkpt lat="47.30135" lon="-2.35873">
        <ele>28.799999237061</ele>
        <time>2022-05-05T07:32:16.000Z</time>
      </trkpt>
      <trkpt lat="47.30133" lon="-2.35885">
        <ele>28.200000762939</ele>
        <time>2022-05-05T07:32:17.000Z</time>
      </trkpt>
      <trkpt lat="47.3013" lon="-2.35896">
        <ele>27.799999237061</ele>
        <time>2022-05-05T07:32:18.000Z</time>
      </trkpt>
      <trkpt lat="47.30127" lon="-2.35908">
        <ele>27.39999961853</ele>
        <time>2022-05-05T07:32:19.000Z</time>
      </trkpt>
      <trkpt lat="47.30125" lon="-2.35919">
        <ele>27</ele>
        <time>2022-05-05T07:32:20.000Z</time>
      </trkpt>
      <trkpt lat="47.30123" lon="-2.3593">
        <ele>26.39999961853</ele>
        <time>2022-05-05T07:32:21.000Z</time>
      </trkpt>
      <trkpt lat="47.3012" lon="-2.35942">
        <ele>26</ele>
        <time>2022-05-05T07:32:22.000Z</time>
      </trkpt>
      <trkpt lat="47.30108" lon="-2.3601">
        <ele>26</ele>
        <time>2022-05-05T07:32:28.000Z</time>
      </trkpt>
      <trkpt lat="47.30104" lon="-2.36045">
        <ele>25.60000038147</ele>
        <time>2022-05-05T07:32:31.000Z</time>
      </trkpt>
      <trkpt lat="47.30103" lon="-2.36057">
        <ele>25.200000762939</ele>
        <time>2022-05-05T07:32:32.000Z</time>
      </trkpt>
      <trkpt lat="47.30102" lon="-2.36068">
        <ele>24.799999237061</ele>
        <time>2022-05-05T07:32:33.000Z</time>
      </trkpt>
      <trkpt lat="47.30101" lon="-2.36079">
        <ele>24.39999961853</ele>
        <time>2022-05-05T07:32:34.000Z</time>
      </trkpt>
      <trkpt lat="47.30099" lon="-2.36091">
        <ele>24</ele>
        <time>2022-05-05T07:32:35.000Z</time>
      </trkpt>
      <trkpt lat="47.30092" lon="-2.36152">
        <ele>24</ele>
        <time>2022-05-05T07:32:41.000Z</time>
      </trkpt>
      <trkpt lat="47.30089" lon="-2.36218">
        <ele>24</ele>
        <time>2022-05-05T07:32:48.000Z</time>
      </trkpt>
      <trkpt lat="47.30091" lon="-2.36254">
        <ele>24</ele>
        <time>2022-05-05T07:32:52.000Z</time>
      </trkpt>
      <trkpt lat="47.30093" lon="-2.3627">
        <ele>24</ele>
        <time>2022-05-05T07:32:54.000Z</time>
      </trkpt>
      <trkpt lat="47.30095" lon="-2.36294">
        <ele>24.39999961853</ele>
        <time>2022-05-05T07:32:57.000Z</time>
      </trkpt>
      <trkpt lat="47.30095" lon="-2.36302">
        <ele>24.799999237061</ele>
        <time>2022-05-05T07:32:58.000Z</time>
      </trkpt>
      <trkpt lat="47.30096" lon="-2.36309">
        <ele>25.200000762939</ele>
        <time>2022-05-05T07:32:59.000Z</time>
      </trkpt>
      <trkpt lat="47.30097" lon="-2.36316">
        <ele>25.60000038147</ele>
        <time>2022-05-05T07:33:00.000Z</time>
      </trkpt>
      <trkpt lat="47.30097" lon="-2.36324">
        <ele>26</ele>
        <time>2022-05-05T07:33:01.000Z</time>
      </trkpt>
      <trkpt lat="47.30098" lon="-2.36331">
        <ele>26</ele>
        <time>2022-05-05T07:33:02.000Z</time>
      </trkpt>
      <trkpt lat="47.30105" lon="-2.36398">
        <ele>26</ele>
        <time>2022-05-05T07:33:11.000Z</time>
      </trkpt>
      <trkpt lat="47.30108" lon="-2.3643">
        <ele>26.39999961853</ele>
        <time>2022-05-05T07:33:15.000Z</time>
      </trkpt>
      <trkpt lat="47.30109" lon="-2.36437">
        <ele>26.799999237061</ele>
        <time>2022-05-05T07:33:16.000Z</time>
      </trkpt>
      <trkpt lat="47.3011" lon="-2.36445">
        <ele>27.200000762939</ele>
        <time>2022-05-05T07:33:17.000Z</time>
      </trkpt>
      <trkpt lat="47.30111" lon="-2.36453">
        <ele>27.60000038147</ele>
        <time>2022-05-05T07:33:18.000Z</time>
      </trkpt>
      <trkpt lat="47.30112" lon="-2.36461">
        <ele>28</ele>
        <time>2022-05-05T07:33:19.000Z</time>
      </trkpt>
      <trkpt lat="47.30117" lon="-2.36506">
        <ele>28</ele>
        <time>2022-05-05T07:33:25.000Z</time>
      </trkpt>
      <trkpt lat="47.30126" lon="-2.36573">
        <ele>28</ele>
        <time>2022-05-05T07:33:34.000Z</time>
      </trkpt>
      <trkpt lat="47.30128" lon="-2.36587">
        <ele>28.39999961853</ele>
        <time>2022-05-05T07:33:36.000Z</time>
      </trkpt>
      <trkpt lat="47.30129" lon="-2.36594">
        <ele>28.799999237061</ele>
        <time>2022-05-05T07:33:37.000Z</time>
      </trkpt>
      <trkpt lat="47.30131" lon="-2.36601">
        <ele>29.200000762939</ele>
        <time>2022-05-05T07:33:38.000Z</time>
      </trkpt>
      <trkpt lat="47.30132" lon="-2.36608">
        <ele>29.60000038147</ele>
        <time>2022-05-05T07:33:39.000Z</time>
      </trkpt>
      <trkpt lat="47.30134" lon="-2.36615">
        <ele>30</ele>
        <time>2022-05-05T07:33:40.000Z</time>
      </trkpt>
      <trkpt lat="47.30136" lon="-2.36622">
        <ele>30</ele>
        <time>2022-05-05T07:33:41.000Z</time>
      </trkpt>
      <trkpt lat="47.30143" lon="-2.3664">
        <ele>30</ele>
        <time>2022-05-05T07:33:44.000Z</time>
      </trkpt>
      <trkpt lat="47.30151" lon="-2.36655">
        <ele>30</ele>
        <time>2022-05-05T07:33:47.000Z</time>
      </trkpt>
      <trkpt lat="47.30166" lon="-2.36682">
        <ele>30</ele>
        <time>2022-05-05T07:33:54.000Z</time>
      </trkpt>
      <trkpt lat="47.30168" lon="-2.36683">
        <ele>30</ele>
        <time>2022-05-05T07:33:55.000Z</time>
      </trkpt>
      <trkpt lat="47.30174" lon="-2.36684">
        <ele>30</ele>
        <time>2022-05-05T07:33:58.000Z</time>
      </trkpt>
      <trkpt lat="47.30174" lon="-2.36684">
        <ele>30.60000038147</ele>
        <time>2022-05-05T07:33:59.000Z</time>
      </trkpt>
      <trkpt lat="47.30175" lon="-2.36684">
        <ele>32.200000762939</ele>
        <time>2022-05-05T07:34:14.000Z</time>
      </trkpt>
      <trkpt lat="47.30178" lon="-2.36682">
        <ele>32.200000762939</ele>
        <time>2022-05-05T07:34:16.000Z</time>
      </trkpt>
      <trkpt lat="47.3019" lon="-2.36677">
        <ele>32.200000762939</ele>
        <time>2022-05-05T07:34:21.000Z</time>
      </trkpt>
      <trkpt lat="47.30213" lon="-2.36673">
        <ele>32.200000762939</ele>
        <time>2022-05-05T07:34:27.000Z</time>
      </trkpt>
      <trkpt lat="47.30217" lon="-2.36672">
        <ele>32.200000762939</ele>
        <time>2022-05-05T07:34:28.000Z</time>
      </trkpt>
      <trkpt lat="47.30242" lon="-2.36669">
        <ele>32.200000762939</ele>
        <time>2022-05-05T07:34:34.000Z</time>
      </trkpt>
      <trkpt lat="47.30259" lon="-2.36665">
        <ele>32.200000762939</ele>
        <time>2022-05-05T07:34:38.000Z</time>
      </trkpt>
      <trkpt lat="47.30271" lon="-2.3666">
        <ele>32.200000762939</ele>
        <time>2022-05-05T07:34:41.000Z</time>
      </trkpt>
      <trkpt lat="47.30297" lon="-2.36648">
        <ele>32.200000762939</ele>
        <time>2022-05-05T07:34:47.000Z</time>
      </trkpt>
      <trkpt lat="47.30302" lon="-2.36647">
        <ele>32.200000762939</ele>
        <time>2022-05-05T07:34:48.000Z</time>
      </trkpt>
      <trkpt lat="47.30315" lon="-2.36647">
        <ele>32.200000762939</ele>
        <time>2022-05-05T07:34:51.000Z</time>
      </trkpt>
      <trkpt lat="47.3032" lon="-2.36648">
        <ele>32.200000762939</ele>
        <time>2022-05-05T07:34:52.000Z</time>
      </trkpt>
      <trkpt lat="47.3033" lon="-2.36651">
        <ele>32.200000762939</ele>
        <time>2022-05-05T07:34:54.000Z</time>
      </trkpt>
      <trkpt lat="47.30352" lon="-2.36654">
        <ele>32.599998474121</ele>
        <time>2022-05-05T07:34:58.000Z</time>
      </trkpt>
      <trkpt lat="47.30357" lon="-2.36655">
        <ele>33</ele>
        <time>2022-05-05T07:34:59.000Z</time>
      </trkpt>
      <trkpt lat="47.30363" lon="-2.36655">
        <ele>33.400001525879</ele>
        <time>2022-05-05T07:35:00.000Z</time>
      </trkpt>
      <trkpt lat="47.30368" lon="-2.36656">
        <ele>33.799999237061</ele>
        <time>2022-05-05T07:35:01.000Z</time>
      </trkpt>
      <trkpt lat="47.30374" lon="-2.36656">
        <ele>34.400001525879</ele>
        <time>2022-05-05T07:35:02.000Z</time>
      </trkpt>
      <trkpt lat="47.30399" lon="-2.36655">
        <ele>34.400001525879</ele>
        <time>2022-05-05T07:35:07.000Z</time>
      </trkpt>
      <trkpt lat="47.3041" lon="-2.36653">
        <ele>34.799999237061</ele>
        <time>2022-05-05T07:35:09.000Z</time>
      </trkpt>
      <trkpt lat="47.30415" lon="-2.36651">
        <ele>35.200000762939</ele>
        <time>2022-05-05T07:35:10.000Z</time>
      </trkpt>
      <trkpt lat="47.3042" lon="-2.36649">
        <ele>36</ele>
        <time>2022-05-05T07:35:11.000Z</time>
      </trkpt>
      <trkpt lat="47.30425" lon="-2.36646">
        <ele>36.400001525879</ele>
        <time>2022-05-05T07:35:12.000Z</time>
      </trkpt>
      <trkpt lat="47.30443" lon="-2.36629">
        <ele>36.400001525879</ele>
        <time>2022-05-05T07:35:16.000Z</time>
      </trkpt>
      <trkpt lat="47.30448" lon="-2.36625">
        <ele>36.400001525879</ele>
        <time>2022-05-05T07:35:17.000Z</time>
      </trkpt>
      <trkpt lat="47.30482" lon="-2.36604">
        <ele>36.400001525879</ele>
        <time>2022-05-05T07:35:24.000Z</time>
      </trkpt>
      <trkpt lat="47.30496" lon="-2.36599">
        <ele>36.400001525879</ele>
        <time>2022-05-05T07:35:27.000Z</time>
      </trkpt>
      <trkpt lat="47.30505" lon="-2.36597">
        <ele>36.400001525879</ele>
        <time>2022-05-05T07:35:29.000Z</time>
      </trkpt>
      <trkpt lat="47.30533" lon="-2.36585">
        <ele>36.400001525879</ele>
        <time>2022-05-05T07:35:35.000Z</time>
      </trkpt>
      <trkpt lat="47.30537" lon="-2.36581">
        <ele>36.400001525879</ele>
        <time>2022-05-05T07:35:36.000Z</time>
      </trkpt>
      <trkpt lat="47.3057" lon="-2.36555">
        <ele>36.400001525879</ele>
        <time>2022-05-05T07:35:43.000Z</time>
      </trkpt>
      <trkpt lat="47.30574" lon="-2.36553">
        <ele>36.400001525879</ele>
        <time>2022-05-05T07:35:44.000Z</time>
      </trkpt>
      <trkpt lat="47.30587" lon="-2.36548">
        <ele>36.400001525879</ele>
        <time>2022-05-05T07:35:47.000Z</time>
      </trkpt>
      <trkpt lat="47.30596" lon="-2.36546">
        <ele>36.400001525879</ele>
        <time>2022-05-05T07:35:49.000Z</time>
      </trkpt>
      <trkpt lat="47.30601" lon="-2.36545">
        <ele>36.400001525879</ele>
        <time>2022-05-05T07:35:50.000Z</time>
      </trkpt>
      <trkpt lat="47.3062" lon="-2.36541">
        <ele>36.400001525879</ele>
        <time>2022-05-05T07:35:54.000Z</time>
      </trkpt>
      <trkpt lat="47.30626" lon="-2.3654">
        <ele>36.400001525879</ele>
        <time>2022-05-05T07:35:55.000Z</time>
      </trkpt>
      <trkpt lat="47.30646" lon="-2.36531">
        <ele>36.400001525879</ele>
        <time>2022-05-05T07:35:59.000Z</time>
      </trkpt>
      <trkpt lat="47.30685" lon="-2.36513">
        <ele>36.400001525879</ele>
        <time>2022-05-05T07:36:06.000Z</time>
      </trkpt>
      <trkpt lat="47.3069" lon="-2.36512">
        <ele>36.400001525879</ele>
        <time>2022-05-05T07:36:07.000Z</time>
      </trkpt>
      <trkpt lat="47.30697" lon="-2.36517">
        <ele>36.400001525879</ele>
        <time>2022-05-05T07:36:09.000Z</time>
      </trkpt>
      <trkpt lat="47.30707" lon="-2.36518">
        <ele>36.400001525879</ele>
        <time>2022-05-05T07:36:12.000Z</time>
      </trkpt>
      <trkpt lat="47.30714" lon="-2.36511">
        <ele>36.400001525879</ele>
        <time>2022-05-05T07:36:14.000Z</time>
      </trkpt>
      <trkpt lat="47.30719" lon="-2.36506">
        <ele>36</ele>
        <time>2022-05-05T07:36:15.000Z</time>
      </trkpt>
      <trkpt lat="47.30724" lon="-2.36502">
        <ele>35.599998474121</ele>
        <time>2022-05-05T07:36:16.000Z</time>
      </trkpt>
      <trkpt lat="47.30729" lon="-2.36498">
        <ele>35.200000762939</ele>
        <time>2022-05-05T07:36:17.000Z</time>
      </trkpt>
      <trkpt lat="47.30735" lon="-2.36496">
        <ele>34.799999237061</ele>
        <time>2022-05-05T07:36:18.000Z</time>
      </trkpt>
      <trkpt lat="47.30741" lon="-2.36493">
        <ele>34.400001525879</ele>
        <time>2022-05-05T07:36:19.000Z</time>
      </trkpt>
      <trkpt lat="47.30753" lon="-2.36488">
        <ele>34.400001525879</ele>
        <time>2022-05-05T07:36:21.000Z</time>
      </trkpt>
      <trkpt lat="47.30799" lon="-2.36477">
        <ele>34.400001525879</ele>
        <time>2022-05-05T07:36:28.000Z</time>
      </trkpt>
      <trkpt lat="47.30806" lon="-2.36475">
        <ele>34</ele>
        <time>2022-05-05T07:36:29.000Z</time>
      </trkpt>
      <trkpt lat="47.30812" lon="-2.36475">
        <ele>33.599998474121</ele>
        <time>2022-05-05T07:36:30.000Z</time>
      </trkpt>
      <trkpt lat="47.30819" lon="-2.36477">
        <ele>33.200000762939</ele>
        <time>2022-05-05T07:36:31.000Z</time>
      </trkpt>
      <trkpt lat="47.30824" lon="-2.36481">
        <ele>32.799999237061</ele>
        <time>2022-05-05T07:36:32.000Z</time>
      </trkpt>
      <trkpt lat="47.3083" lon="-2.36485">
        <ele>32.200000762939</ele>
        <time>2022-05-05T07:36:33.000Z</time>
      </trkpt>
      <trkpt lat="47.30841" lon="-2.36488">
        <ele>32.200000762939</ele>
        <time>2022-05-05T07:36:35.000Z</time>
      </trkpt>
      <trkpt lat="47.30854" lon="-2.36486">
        <ele>32.200000762939</ele>
        <time>2022-05-05T07:36:37.000Z</time>
      </trkpt>
      <trkpt lat="47.30866" lon="-2.36483">
        <ele>32.200000762939</ele>
        <time>2022-05-05T07:36:39.000Z</time>
      </trkpt>
      <trkpt lat="47.30872" lon="-2.36481">
        <ele>32.200000762939</ele>
        <time>2022-05-05T07:36:40.000Z</time>
      </trkpt>
      <trkpt lat="47.30913" lon="-2.36467">
        <ele>32.200000762939</ele>
        <time>2022-05-05T07:36:47.000Z</time>
      </trkpt>
      <trkpt lat="47.30951" lon="-2.36456">
        <ele>32.200000762939</ele>
        <time>2022-05-05T07:36:54.000Z</time>
      </trkpt>
      <trkpt lat="47.30962" lon="-2.36452">
        <ele>32.200000762939</ele>
        <time>2022-05-05T07:36:56.000Z</time>
      </trkpt>
      <trkpt lat="47.30978" lon="-2.36444">
        <ele>31.799999237061</ele>
        <time>2022-05-05T07:36:59.000Z</time>
      </trkpt>
      <trkpt lat="47.30983" lon="-2.36441">
        <ele>31.39999961853</ele>
        <time>2022-05-05T07:37:00.000Z</time>
      </trkpt>
      <trkpt lat="47.30989" lon="-2.36438">
        <ele>31</ele>
        <time>2022-05-05T07:37:01.000Z</time>
      </trkpt>
      <trkpt lat="47.30994" lon="-2.36436">
        <ele>30.60000038147</ele>
        <time>2022-05-05T07:37:02.000Z</time>
      </trkpt>
      <trkpt lat="47.30999" lon="-2.36434">
        <ele>30.200000762939</ele>
        <time>2022-05-05T07:37:03.000Z</time>
      </trkpt>
      <trkpt lat="47.31022" lon="-2.36425">
        <ele>30.200000762939</ele>
        <time>2022-05-05T07:37:07.000Z</time>
      </trkpt>
      <trkpt lat="47.31054" lon="-2.3642">
        <ele>30.200000762939</ele>
        <time>2022-05-05T07:37:13.000Z</time>
      </trkpt>
      <trkpt lat="47.31085" lon="-2.36417">
        <ele>30.200000762939</ele>
        <time>2022-05-05T07:37:19.000Z</time>
      </trkpt>
      <trkpt lat="47.31095" lon="-2.36417">
        <ele>30.200000762939</ele>
        <time>2022-05-05T07:37:21.000Z</time>
      </trkpt>
      <trkpt lat="47.311" lon="-2.36416">
        <ele>29.799999237061</ele>
        <time>2022-05-05T07:37:22.000Z</time>
      </trkpt>
      <trkpt lat="47.31104" lon="-2.36414">
        <ele>29.39999961853</ele>
        <time>2022-05-05T07:37:23.000Z</time>
      </trkpt>
      <trkpt lat="47.31109" lon="-2.36412">
        <ele>29</ele>
        <time>2022-05-05T07:37:24.000Z</time>
      </trkpt>
      <trkpt lat="47.31113" lon="-2.36409">
        <ele>28.60000038147</ele>
        <time>2022-05-05T07:37:25.000Z</time>
      </trkpt>
      <trkpt lat="47.31118" lon="-2.36406">
        <ele>28.200000762939</ele>
        <time>2022-05-05T07:37:26.000Z</time>
      </trkpt>
      <trkpt lat="47.31127" lon="-2.364">
        <ele>28.200000762939</ele>
        <time>2022-05-05T07:37:28.000Z</time>
      </trkpt>
      <trkpt lat="47.31153" lon="-2.36384">
        <ele>28.200000762939</ele>
        <time>2022-05-05T07:37:33.000Z</time>
      </trkpt>
      <trkpt lat="47.31157" lon="-2.3638">
        <ele>28.200000762939</ele>
        <time>2022-05-05T07:37:34.000Z</time>
      </trkpt>
      <trkpt lat="47.31167" lon="-2.36372">
        <ele>28.200000762939</ele>
        <time>2022-05-05T07:37:36.000Z</time>
      </trkpt>
      <trkpt lat="47.31188" lon="-2.36359">
        <ele>28.200000762939</ele>
        <time>2022-05-05T07:37:40.000Z</time>
      </trkpt>
      <trkpt lat="47.31225" lon="-2.36339">
        <ele>28.200000762939</ele>
        <time>2022-05-05T07:37:47.000Z</time>
      </trkpt>
      <trkpt lat="47.31251" lon="-2.3632">
        <ele>28.200000762939</ele>
        <time>2022-05-05T07:37:53.000Z</time>
      </trkpt>
      <trkpt lat="47.31255" lon="-2.36317">
        <ele>28.60000038147</ele>
        <time>2022-05-05T07:37:54.000Z</time>
      </trkpt>
      <trkpt lat="47.3126" lon="-2.36313">
        <ele>29</ele>
        <time>2022-05-05T07:37:55.000Z</time>
      </trkpt>
      <trkpt lat="47.31265" lon="-2.36311">
        <ele>29.39999961853</ele>
        <time>2022-05-05T07:37:56.000Z</time>
      </trkpt>
      <trkpt lat="47.31269" lon="-2.36309">
        <ele>29.799999237061</ele>
        <time>2022-05-05T07:37:57.000Z</time>
      </trkpt>
      <trkpt lat="47.31274" lon="-2.36308">
        <ele>30.200000762939</ele>
        <time>2022-05-05T07:37:58.000Z</time>
      </trkpt>
      <trkpt lat="47.31279" lon="-2.36307">
        <ele>30.200000762939</ele>
        <time>2022-05-05T07:37:59.000Z</time>
      </trkpt>
      <trkpt lat="47.31312" lon="-2.3629">
        <ele>30.200000762939</ele>
        <time>2022-05-05T07:38:06.000Z</time>
      </trkpt>
      <trkpt lat="47.31336" lon="-2.36269">
        <ele>30.200000762939</ele>
        <time>2022-05-05T07:38:12.000Z</time>
      </trkpt>
      <trkpt lat="47.31367" lon="-2.36239">
        <ele>30.200000762939</ele>
        <time>2022-05-05T07:38:20.000Z</time>
      </trkpt>
      <trkpt lat="47.314" lon="-2.36219">
        <ele>30.200000762939</ele>
        <time>2022-05-05T07:38:27.000Z</time>
      </trkpt>
      <trkpt lat="47.31435" lon="-2.36199">
        <ele>30.200000762939</ele>
        <time>2022-05-05T07:38:34.000Z</time>
      </trkpt>
      <trkpt lat="47.31459" lon="-2.36179">
        <ele>30.200000762939</ele>
        <time>2022-05-05T07:38:39.000Z</time>
      </trkpt>
      <trkpt lat="47.31467" lon="-2.3617">
        <ele>30.200000762939</ele>
        <time>2022-05-05T07:38:41.000Z</time>
      </trkpt>
      <trkpt lat="47.31488" lon="-2.36145">
        <ele>30.200000762939</ele>
        <time>2022-05-05T07:38:47.000Z</time>
      </trkpt>
      <trkpt lat="47.31516" lon="-2.36113">
        <ele>30.200000762939</ele>
        <time>2022-05-05T07:38:54.000Z</time>
      </trkpt>
      <trkpt lat="47.31541" lon="-2.36085">
        <ele>30.200000762939</ele>
        <time>2022-05-05T07:39:00.000Z</time>
      </trkpt>
      <trkpt lat="47.31566" lon="-2.36059">
        <ele>30.200000762939</ele>
        <time>2022-05-05T07:39:06.000Z</time>
      </trkpt>
      <trkpt lat="47.31575" lon="-2.36048">
        <ele>30.200000762939</ele>
        <time>2022-05-05T07:39:08.000Z</time>
      </trkpt>
      <trkpt lat="47.31584" lon="-2.36039">
        <ele>30.200000762939</ele>
        <time>2022-05-05T07:39:10.000Z</time>
      </trkpt>
      <trkpt lat="47.31613" lon="-2.36007">
        <ele>30.200000762939</ele>
        <time>2022-05-05T07:39:16.000Z</time>
      </trkpt>
      <trkpt lat="47.31623" lon="-2.35997">
        <ele>29.799999237061</ele>
        <time>2022-05-05T07:39:18.000Z</time>
      </trkpt>
      <trkpt lat="47.31627" lon="-2.35993">
        <ele>29.39999961853</ele>
        <time>2022-05-05T07:39:19.000Z</time>
      </trkpt>
      <trkpt lat="47.31632" lon="-2.35989">
        <ele>29</ele>
        <time>2022-05-05T07:39:20.000Z</time>
      </trkpt>
      <trkpt lat="47.31637" lon="-2.35984">
        <ele>28.60000038147</ele>
        <time>2022-05-05T07:39:21.000Z</time>
      </trkpt>
      <trkpt lat="47.31642" lon="-2.3598">
        <ele>28.200000762939</ele>
        <time>2022-05-05T07:39:22.000Z</time>
      </trkpt>
      <trkpt lat="47.3167" lon="-2.35964">
        <ele>28.200000762939</ele>
        <time>2022-05-05T07:39:27.000Z</time>
      </trkpt>
      <trkpt lat="47.31681" lon="-2.35958">
        <ele>28.200000762939</ele>
        <time>2022-05-05T07:39:29.000Z</time>
      </trkpt>
      <trkpt lat="47.317" lon="-2.35946">
        <ele>28.200000762939</ele>
        <time>2022-05-05T07:39:32.000Z</time>
      </trkpt>
      <trkpt lat="47.31712" lon="-2.35939">
        <ele>28.200000762939</ele>
        <time>2022-05-05T07:39:34.000Z</time>
      </trkpt>
      <trkpt lat="47.31736" lon="-2.35924">
        <ele>27.799999237061</ele>
        <time>2022-05-05T07:39:38.000Z</time>
      </trkpt>
      <trkpt lat="47.31742" lon="-2.3592">
        <ele>27.39999961853</ele>
        <time>2022-05-05T07:39:39.000Z</time>
      </trkpt>
      <trkpt lat="47.31748" lon="-2.35917">
        <ele>27</ele>
        <time>2022-05-05T07:39:40.000Z</time>
      </trkpt>
      <trkpt lat="47.31753" lon="-2.35913">
        <ele>26.39999961853</ele>
        <time>2022-05-05T07:39:41.000Z</time>
      </trkpt>
      <trkpt lat="47.31759" lon="-2.3591">
        <ele>26</ele>
        <time>2022-05-05T07:39:42.000Z</time>
      </trkpt>
      <trkpt lat="47.31771" lon="-2.35902">
        <ele>26</ele>
        <time>2022-05-05T07:39:44.000Z</time>
      </trkpt>
      <trkpt lat="47.31804" lon="-2.35885">
        <ele>26</ele>
        <time>2022-05-05T07:39:50.000Z</time>
      </trkpt>
      <trkpt lat="47.31819" lon="-2.35875">
        <ele>25.60000038147</ele>
        <time>2022-05-05T07:39:53.000Z</time>
      </trkpt>
      <trkpt lat="47.31822" lon="-2.35869">
        <ele>25.200000762939</ele>
        <time>2022-05-05T07:39:54.000Z</time>
      </trkpt>
      <trkpt lat="47.31823" lon="-2.35863">
        <ele>24.799999237061</ele>
        <time>2022-05-05T07:39:55.000Z</time>
      </trkpt>
      <trkpt lat="47.31823" lon="-2.35857">
        <ele>24.39999961853</ele>
        <time>2022-05-05T07:39:56.000Z</time>
      </trkpt>
      <trkpt lat="47.31822" lon="-2.35852">
        <ele>24</ele>
        <time>2022-05-05T07:39:57.000Z</time>
      </trkpt>
      <trkpt lat="47.3182" lon="-2.35848">
        <ele>24</ele>
        <time>2022-05-05T07:39:58.000Z</time>
      </trkpt>
      <trkpt lat="47.31811" lon="-2.35828">
        <ele>24</ele>
        <time>2022-05-05T07:40:02.000Z</time>
      </trkpt>
      <trkpt lat="47.31808" lon="-2.35823">
        <ele>24</ele>
        <time>2022-05-05T07:40:03.000Z</time>
      </trkpt>
      <trkpt lat="47.31801" lon="-2.35815">
        <ele>24</ele>
        <time>2022-05-05T07:40:05.000Z</time>
      </trkpt>
      <trkpt lat="47.31793" lon="-2.35806">
        <ele>24</ele>
        <time>2022-05-05T07:40:07.000Z</time>
      </trkpt>
      <trkpt lat="47.31785" lon="-2.35782">
        <ele>24</ele>
        <time>2022-05-05T07:40:11.000Z</time>
      </trkpt>
      <trkpt lat="47.31785" lon="-2.3576">
        <ele>24</ele>
        <time>2022-05-05T07:40:14.000Z</time>
      </trkpt>
      <trkpt lat="47.31785" lon="-2.35743">
        <ele>24</ele>
        <time>2022-05-05T07:40:16.000Z</time>
      </trkpt>
      <trkpt lat="47.31787" lon="-2.35688">
        <ele>23.60000038147</ele>
        <time>2022-05-05T07:40:22.000Z</time>
      </trkpt>
      <trkpt lat="47.31787" lon="-2.35677">
        <ele>23.200000762939</ele>
        <time>2022-05-05T07:40:23.000Z</time>
      </trkpt>
      <trkpt lat="47.31787" lon="-2.35667">
        <ele>22.799999237061</ele>
        <time>2022-05-05T07:40:24.000Z</time>
      </trkpt>
      <trkpt lat="47.31787" lon="-2.35656">
        <ele>22.200000762939</ele>
        <time>2022-05-05T07:40:25.000Z</time>
      </trkpt>
      <trkpt lat="47.31788" lon="-2.35647">
        <ele>21.799999237061</ele>
        <time>2022-05-05T07:40:26.000Z</time>
      </trkpt>
      <trkpt lat="47.31791" lon="-2.35637">
        <ele>21.799999237061</ele>
        <time>2022-05-05T07:40:27.000Z</time>
      </trkpt>
      <trkpt lat="47.31797" lon="-2.3562">
        <ele>21.799999237061</ele>
        <time>2022-05-05T07:40:29.000Z</time>
      </trkpt>
      <trkpt lat="47.31804" lon="-2.35604">
        <ele>21</ele>
        <time>2022-05-05T07:40:31.000Z</time>
      </trkpt>
      <trkpt lat="47.31807" lon="-2.35596">
        <ele>20.60000038147</ele>
        <time>2022-05-05T07:40:32.000Z</time>
      </trkpt>
      <trkpt lat="47.31809" lon="-2.35589">
        <ele>20</ele>
        <time>2022-05-05T07:40:33.000Z</time>
      </trkpt>
      <trkpt lat="47.31811" lon="-2.35584">
        <ele>19.60000038147</ele>
        <time>2022-05-05T07:40:34.000Z</time>
      </trkpt>
      <trkpt lat="47.31816" lon="-2.35576">
        <ele>19.60000038147</ele>
        <time>2022-05-05T07:40:36.000Z</time>
      </trkpt>
      <trkpt lat="47.31834" lon="-2.35564">
        <ele>19.60000038147</ele>
        <time>2022-05-05T07:40:41.000Z</time>
      </trkpt>
      <trkpt lat="47.3184" lon="-2.35546">
        <ele>19.60000038147</ele>
        <time>2022-05-05T07:40:45.000Z</time>
      </trkpt>
      <trkpt lat="47.31833" lon="-2.35527">
        <ele>19.200000762939</ele>
        <time>2022-05-05T07:40:49.000Z</time>
      </trkpt>
      <trkpt lat="47.31831" lon="-2.35522">
        <ele>18.799999237061</ele>
        <time>2022-05-05T07:40:50.000Z</time>
      </trkpt>
      <trkpt lat="47.31829" lon="-2.35517">
        <ele>18.39999961853</ele>
        <time>2022-05-05T07:40:51.000Z</time>
      </trkpt>
      <trkpt lat="47.31827" lon="-2.35513">
        <ele>18</ele>
        <time>2022-05-05T07:40:52.000Z</time>
      </trkpt>
      <trkpt lat="47.31825" lon="-2.35509">
        <ele>17.60000038147</ele>
        <time>2022-05-05T07:40:53.000Z</time>
      </trkpt>
      <trkpt lat="47.31821" lon="-2.35504">
        <ele>17.60000038147</ele>
        <time>2022-05-05T07:40:55.000Z</time>
      </trkpt>
      <trkpt lat="47.31812" lon="-2.35485">
        <ele>17.60000038147</ele>
        <time>2022-05-05T07:41:01.000Z</time>
      </trkpt>
      <trkpt lat="47.31798" lon="-2.35459">
        <ele>17.60000038147</ele>
        <time>2022-05-05T07:41:07.000Z</time>
      </trkpt>
      <trkpt lat="47.31788" lon="-2.35444">
        <ele>18</ele>
        <time>2022-05-05T07:41:11.000Z</time>
      </trkpt>
      <trkpt lat="47.31786" lon="-2.3544">
        <ele>18.39999961853</ele>
        <time>2022-05-05T07:41:12.000Z</time>
      </trkpt>
      <trkpt lat="47.31784" lon="-2.35436">
        <ele>18.799999237061</ele>
        <time>2022-05-05T07:41:13.000Z</time>
      </trkpt>
      <trkpt lat="47.31781" lon="-2.35431">
        <ele>19.200000762939</ele>
        <time>2022-05-05T07:41:14.000Z</time>
      </trkpt>
      <trkpt lat="47.31779" lon="-2.35428">
        <ele>19.60000038147</ele>
        <time>2022-05-05T07:41:15.000Z</time>
      </trkpt>
      <trkpt lat="47.31771" lon="-2.35411">
        <ele>19.60000038147</ele>
        <time>2022-05-05T07:41:18.000Z</time>
      </trkpt>
      <trkpt lat="47.31759" lon="-2.35388">
        <ele>19.60000038147</ele>
        <time>2022-05-05T07:41:24.000Z</time>
      </trkpt>
      <trkpt lat="47.31753" lon="-2.3538">
        <ele>20.200000762939</ele>
        <time>2022-05-05T07:41:28.000Z</time>
      </trkpt>
      <trkpt lat="47.31751" lon="-2.35378">
        <ele>20.60000038147</ele>
        <time>2022-05-05T07:41:29.000Z</time>
      </trkpt>
      <trkpt lat="47.3175" lon="-2.35376">
        <ele>21</ele>
        <time>2022-05-05T07:41:30.000Z</time>
      </trkpt>
      <trkpt lat="47.31749" lon="-2.35375">
        <ele>21.39999961853</ele>
        <time>2022-05-05T07:41:31.000Z</time>
      </trkpt>
      <trkpt lat="47.31747" lon="-2.35372">
        <ele>21.799999237061</ele>
        <time>2022-05-05T07:41:32.000Z</time>
      </trkpt>
      <trkpt lat="47.31746" lon="-2.35371">
        <ele>21.799999237061</ele>
        <time>2022-05-05T07:41:33.000Z</time>
      </trkpt>
      <trkpt lat="47.31745" lon="-2.3537">
        <ele>21.799999237061</ele>
        <time>2022-05-05T07:41:35.000Z</time>
      </trkpt>
      <trkpt lat="47.31744" lon="-2.3537">
        <ele>21.799999237061</ele>
        <time>2022-05-05T07:41:58.000Z</time>
      </trkpt>
      <trkpt lat="47.3174" lon="-2.3537">
        <ele>21.799999237061</ele>
        <time>2022-05-05T07:42:00.000Z</time>
      </trkpt>
      <trkpt lat="47.31735" lon="-2.35371">
        <ele>21.799999237061</ele>
        <time>2022-05-05T07:42:02.000Z</time>
      </trkpt>
      <trkpt lat="47.31723" lon="-2.35371">
        <ele>21.799999237061</ele>
        <time>2022-05-05T07:42:06.000Z</time>
      </trkpt>
      <trkpt lat="47.31703" lon="-2.35374">
        <ele>21.799999237061</ele>
        <time>2022-05-05T07:42:13.000Z</time>
      </trkpt>
      <trkpt lat="47.31699" lon="-2.35375">
        <ele>22.200000762939</ele>
        <time>2022-05-05T07:42:14.000Z</time>
      </trkpt>
      <trkpt lat="47.31695" lon="-2.35375">
        <ele>22.60000038147</ele>
        <time>2022-05-05T07:42:15.000Z</time>
      </trkpt>
      <trkpt lat="47.31691" lon="-2.35375">
        <ele>23</ele>
        <time>2022-05-05T07:42:16.000Z</time>
      </trkpt>
      <trkpt lat="47.31686" lon="-2.35376">
        <ele>23.39999961853</ele>
        <time>2022-05-05T07:42:17.000Z</time>
      </trkpt>
      <trkpt lat="47.31682" lon="-2.35376">
        <ele>23.799999237061</ele>
        <time>2022-05-05T07:42:18.000Z</time>
      </trkpt>
      <trkpt lat="47.31676" lon="-2.35376">
        <ele>23.799999237061</ele>
        <time>2022-05-05T07:42:19.000Z</time>
      </trkpt>
      <trkpt lat="47.31643" lon="-2.35371">
        <ele>23.799999237061</ele>
        <time>2022-05-05T07:42:25.000Z</time>
      </trkpt>
      <trkpt lat="47.31629" lon="-2.35365">
        <ele>23.799999237061</ele>
        <time>2022-05-05T07:42:28.000Z</time>
      </trkpt>
      <trkpt lat="47.31619" lon="-2.35364">
        <ele>23.799999237061</ele>
        <time>2022-05-05T07:42:30.000Z</time>
      </trkpt>
      <trkpt lat="47.3159" lon="-2.35371">
        <ele>23.799999237061</ele>
        <time>2022-05-05T07:42:36.000Z</time>
      </trkpt>
      <trkpt lat="47.31561" lon="-2.35387">
        <ele>23.799999237061</ele>
        <time>2022-05-05T07:42:42.000Z</time>
      </trkpt>
      <trkpt lat="47.31544" lon="-2.35397">
        <ele>23.799999237061</ele>
        <time>2022-05-05T07:42:46.000Z</time>
      </trkpt>
      <trkpt lat="47.31535" lon="-2.35403">
        <ele>23.799999237061</ele>
        <time>2022-05-05T07:42:48.000Z</time>
      </trkpt>
      <trkpt lat="47.31507" lon="-2.35426">
        <ele>23.799999237061</ele>
        <time>2022-05-05T07:42:55.000Z</time>
      </trkpt>
      <trkpt lat="47.31496" lon="-2.35448">
        <ele>23.799999237061</ele>
        <time>2022-05-05T07:42:59.000Z</time>
      </trkpt>
      <trkpt lat="47.31492" lon="-2.3546">
        <ele>23.799999237061</ele>
        <time>2022-05-05T07:43:01.000Z</time>
      </trkpt>
      <trkpt lat="47.31488" lon="-2.3548">
        <ele>24.200000762939</ele>
        <time>2022-05-05T07:43:04.000Z</time>
      </trkpt>
      <trkpt lat="47.31487" lon="-2.35487">
        <ele>24.60000038147</ele>
        <time>2022-05-05T07:43:05.000Z</time>
      </trkpt>
      <trkpt lat="47.31486" lon="-2.35494">
        <ele>25.200000762939</ele>
        <time>2022-05-05T07:43:06.000Z</time>
      </trkpt>
      <trkpt lat="47.31484" lon="-2.35501">
        <ele>25.60000038147</ele>
        <time>2022-05-05T07:43:07.000Z</time>
      </trkpt>
      <trkpt lat="47.31482" lon="-2.35507">
        <ele>26</ele>
        <time>2022-05-05T07:43:08.000Z</time>
      </trkpt>
      <trkpt lat="47.31476" lon="-2.35518">
        <ele>26</ele>
        <time>2022-05-05T07:43:10.000Z</time>
      </trkpt>
      <trkpt lat="47.31463" lon="-2.35523">
        <ele>26</ele>
        <time>2022-05-05T07:43:13.000Z</time>
      </trkpt>
      <trkpt lat="47.31447" lon="-2.35525">
        <ele>26</ele>
        <time>2022-05-05T07:43:16.000Z</time>
      </trkpt>
      <trkpt lat="47.31437" lon="-2.35525">
        <ele>26</ele>
        <time>2022-05-05T07:43:18.000Z</time>
      </trkpt>
      <trkpt lat="47.31402" lon="-2.35525">
        <ele>26</ele>
        <time>2022-05-05T07:43:25.000Z</time>
      </trkpt>
      <trkpt lat="47.31379" lon="-2.35528">
        <ele>26</ele>
        <time>2022-05-05T07:43:30.000Z</time>
      </trkpt>
      <trkpt lat="47.31371" lon="-2.35532">
        <ele>26</ele>
        <time>2022-05-05T07:43:32.000Z</time>
      </trkpt>
      <trkpt lat="47.31345" lon="-2.35544">
        <ele>26</ele>
        <time>2022-05-05T07:43:39.000Z</time>
      </trkpt>
      <trkpt lat="47.31334" lon="-2.35543">
        <ele>26</ele>
        <time>2022-05-05T07:43:42.000Z</time>
      </trkpt>
      <trkpt lat="47.31332" lon="-2.35539">
        <ele>26</ele>
        <time>2022-05-05T07:43:43.000Z</time>
      </trkpt>
      <trkpt lat="47.31331" lon="-2.35523">
        <ele>26</ele>
        <time>2022-05-05T07:43:46.000Z</time>
      </trkpt>
      <trkpt lat="47.31331" lon="-2.35516">
        <ele>26</ele>
        <time>2022-05-05T07:43:47.000Z</time>
      </trkpt>
      <trkpt lat="47.31331" lon="-2.35501">
        <ele>26</ele>
        <time>2022-05-05T07:43:49.000Z</time>
      </trkpt>
      <trkpt lat="47.31332" lon="-2.35485">
        <ele>26</ele>
        <time>2022-05-05T07:43:51.000Z</time>
      </trkpt>
      <trkpt lat="47.31333" lon="-2.35442">
        <ele>26</ele>
        <time>2022-05-05T07:43:56.000Z</time>
      </trkpt>
      <trkpt lat="47.31333" lon="-2.35434">
        <ele>26</ele>
        <time>2022-05-05T07:43:57.000Z</time>
      </trkpt>
      <trkpt lat="47.31334" lon="-2.35361">
        <ele>26</ele>
        <time>2022-05-05T07:44:05.000Z</time>
      </trkpt>
      <trkpt lat="47.31336" lon="-2.35281">
        <ele>26</ele>
        <time>2022-05-05T07:44:13.000Z</time>
      </trkpt>
      <trkpt lat="47.31338" lon="-2.3523">
        <ele>26.39999961853</ele>
        <time>2022-05-05T07:44:18.000Z</time>
      </trkpt>
      <trkpt lat="47.31338" lon="-2.3522">
        <ele>26.799999237061</ele>
        <time>2022-05-05T07:44:19.000Z</time>
      </trkpt>
      <trkpt lat="47.31338" lon="-2.35211">
        <ele>27.200000762939</ele>
        <time>2022-05-05T07:44:20.000Z</time>
      </trkpt>
      <trkpt lat="47.31338" lon="-2.35201">
        <ele>27.60000038147</ele>
        <time>2022-05-05T07:44:21.000Z</time>
      </trkpt>
      <trkpt lat="47.31339" lon="-2.35191">
        <ele>28</ele>
        <time>2022-05-05T07:44:22.000Z</time>
      </trkpt>
      <trkpt lat="47.31343" lon="-2.35112">
        <ele>28</ele>
        <time>2022-05-05T07:44:30.000Z</time>
      </trkpt>
      <trkpt lat="47.31342" lon="-2.35052">
        <ele>28</ele>
        <time>2022-05-05T07:44:37.000Z</time>
      </trkpt>
      <trkpt lat="47.31341" lon="-2.35006">
        <ele>28</ele>
        <time>2022-05-05T07:44:43.000Z</time>
      </trkpt>
      <trkpt lat="47.31334" lon="-2.34967">
        <ele>28</ele>
        <time>2022-05-05T07:44:48.000Z</time>
      </trkpt>
      <trkpt lat="47.3132" lon="-2.3492">
        <ele>28</ele>
        <time>2022-05-05T07:44:54.000Z</time>
      </trkpt>
      <trkpt lat="47.31305" lon="-2.34871">
        <ele>28</ele>
        <time>2022-05-05T07:45:01.000Z</time>
      </trkpt>
      <trkpt lat="47.31293" lon="-2.34822">
        <ele>28</ele>
        <time>2022-05-05T07:45:08.000Z</time>
      </trkpt>
      <trkpt lat="47.31283" lon="-2.34765">
        <ele>28</ele>
        <time>2022-05-05T07:45:16.000Z</time>
      </trkpt>
      <trkpt lat="47.31277" lon="-2.34722">
        <ele>28</ele>
        <time>2022-05-05T07:45:22.000Z</time>
      </trkpt>
      <trkpt lat="47.31275" lon="-2.34716">
        <ele>28</ele>
        <time>2022-05-05T07:45:23.000Z</time>
      </trkpt>
      <trkpt lat="47.31273" lon="-2.3471">
        <ele>28</ele>
        <time>2022-05-05T07:45:26.000Z</time>
      </trkpt>
      <trkpt lat="47.31273" lon="-2.3471">
        <ele>28</ele>
        <time>2022-05-05T07:45:27.000Z</time>
      </trkpt>
      <trkpt lat="47.31273" lon="-2.34707">
        <ele>28</ele>
        <time>2022-05-05T07:45:38.000Z</time>
      </trkpt>
      <trkpt lat="47.31273" lon="-2.34701">
        <ele>28</ele>
        <time>2022-05-05T07:45:40.000Z</time>
      </trkpt>
      <trkpt lat="47.31279" lon="-2.34685">
        <ele>28</ele>
        <time>2022-05-05T07:45:44.000Z</time>
      </trkpt>
      <trkpt lat="47.31288" lon="-2.34668">
        <ele>28</ele>
        <time>2022-05-05T07:45:47.000Z</time>
      </trkpt>
      <trkpt lat="47.3129" lon="-2.34661">
        <ele>28</ele>
        <time>2022-05-05T07:45:48.000Z</time>
      </trkpt>
      <trkpt lat="47.31291" lon="-2.34636">
        <ele>28</ele>
        <time>2022-05-05T07:45:51.000Z</time>
      </trkpt>
      <trkpt lat="47.31289" lon="-2.34606">
        <ele>27.60000038147</ele>
        <time>2022-05-05T07:45:54.000Z</time>
      </trkpt>
      <trkpt lat="47.31288" lon="-2.34595">
        <ele>27</ele>
        <time>2022-05-05T07:45:55.000Z</time>
      </trkpt>
      <trkpt lat="47.31286" lon="-2.34584">
        <ele>26.60000038147</ele>
        <time>2022-05-05T07:45:56.000Z</time>
      </trkpt>
      <trkpt lat="47.31285" lon="-2.34572">
        <ele>26.200000762939</ele>
        <time>2022-05-05T07:45:57.000Z</time>
      </trkpt>
      <trkpt lat="47.31284" lon="-2.34561">
        <ele>25.799999237061</ele>
        <time>2022-05-05T07:45:58.000Z</time>
      </trkpt>
      <trkpt lat="47.31277" lon="-2.34503">
        <ele>25.39999961853</ele>
        <time>2022-05-05T07:46:03.000Z</time>
      </trkpt>
      <trkpt lat="47.31276" lon="-2.34491">
        <ele>25</ele>
        <time>2022-05-05T07:46:04.000Z</time>
      </trkpt>
      <trkpt lat="47.31275" lon="-2.3448">
        <ele>24.60000038147</ele>
        <time>2022-05-05T07:46:05.000Z</time>
      </trkpt>
      <trkpt lat="47.31275" lon="-2.34468">
        <ele>24</ele>
        <time>2022-05-05T07:46:06.000Z</time>
      </trkpt>
      <trkpt lat="47.31273" lon="-2.34456">
        <ele>23.60000038147</ele>
        <time>2022-05-05T07:46:07.000Z</time>
      </trkpt>
      <trkpt lat="47.31269" lon="-2.34421">
        <ele>23.200000762939</ele>
        <time>2022-05-05T07:46:10.000Z</time>
      </trkpt>
      <trkpt lat="47.31268" lon="-2.34409">
        <ele>22.799999237061</ele>
        <time>2022-05-05T07:46:11.000Z</time>
      </trkpt>
      <trkpt lat="47.31267" lon="-2.34397">
        <ele>22.39999961853</ele>
        <time>2022-05-05T07:46:12.000Z</time>
      </trkpt>
      <trkpt lat="47.31265" lon="-2.34385">
        <ele>22</ele>
        <time>2022-05-05T07:46:13.000Z</time>
      </trkpt>
      <trkpt lat="47.31262" lon="-2.34373">
        <ele>21.39999961853</ele>
        <time>2022-05-05T07:46:14.000Z</time>
      </trkpt>
      <trkpt lat="47.31254" lon="-2.34355">
        <ele>21.39999961853</ele>
        <time>2022-05-05T07:46:16.000Z</time>
      </trkpt>
      <trkpt lat="47.31248" lon="-2.34348">
        <ele>20.60000038147</ele>
        <time>2022-05-05T07:46:17.000Z</time>
      </trkpt>
      <trkpt lat="47.3124" lon="-2.34341">
        <ele>20.200000762939</ele>
        <time>2022-05-05T07:46:18.000Z</time>
      </trkpt>
      <trkpt lat="47.31229" lon="-2.34338">
        <ele>19.60000038147</ele>
        <time>2022-05-05T07:46:19.000Z</time>
      </trkpt>
      <trkpt lat="47.31219" lon="-2.34335">
        <ele>19.200000762939</ele>
        <time>2022-05-05T07:46:20.000Z</time>
      </trkpt>
      <trkpt lat="47.31203" lon="-2.34324">
        <ele>19.200000762939</ele>
        <time>2022-05-05T07:46:22.000Z</time>
      </trkpt>
      <trkpt lat="47.31196" lon="-2.34316">
        <ele>19.200000762939</ele>
        <time>2022-05-05T07:46:23.000Z</time>
      </trkpt>
      <trkpt lat="47.3118" lon="-2.34287">
        <ele>19.200000762939</ele>
        <time>2022-05-05T07:46:26.000Z</time>
      </trkpt>
      <trkpt lat="47.31147" lon="-2.34222">
        <ele>19.200000762939</ele>
        <time>2022-05-05T07:46:33.000Z</time>
      </trkpt>
      <trkpt lat="47.31119" lon="-2.34171">
        <ele>19.200000762939</ele>
        <time>2022-05-05T07:46:40.000Z</time>
      </trkpt>
      <trkpt lat="47.3111" lon="-2.34157">
        <ele>20</ele>
        <time>2022-05-05T07:46:42.000Z</time>
      </trkpt>
      <trkpt lat="47.31106" lon="-2.3415">
        <ele>20.60000038147</ele>
        <time>2022-05-05T07:46:43.000Z</time>
      </trkpt>
      <trkpt lat="47.31103" lon="-2.34143">
        <ele>21</ele>
        <time>2022-05-05T07:46:44.000Z</time>
      </trkpt>
      <trkpt lat="47.31099" lon="-2.34136">
        <ele>21.39999961853</ele>
        <time>2022-05-05T07:46:45.000Z</time>
      </trkpt>
      <trkpt lat="47.31088" lon="-2.34115">
        <ele>21.799999237061</ele>
        <time>2022-05-05T07:46:48.000Z</time>
      </trkpt>
      <trkpt lat="47.31085" lon="-2.34109">
        <ele>22.39999961853</ele>
        <time>2022-05-05T07:46:49.000Z</time>
      </trkpt>
      <trkpt lat="47.31081" lon="-2.34102">
        <ele>22.799999237061</ele>
        <time>2022-05-05T07:46:50.000Z</time>
      </trkpt>
      <trkpt lat="47.31078" lon="-2.34094">
        <ele>23.200000762939</ele>
        <time>2022-05-05T07:46:51.000Z</time>
      </trkpt>
      <trkpt lat="47.31076" lon="-2.34087">
        <ele>23.60000038147</ele>
        <time>2022-05-05T07:46:52.000Z</time>
      </trkpt>
      <trkpt lat="47.3107" lon="-2.34073">
        <ele>23.60000038147</ele>
        <time>2022-05-05T07:46:54.000Z</time>
      </trkpt>
      <trkpt lat="47.31068" lon="-2.34065">
        <ele>24.200000762939</ele>
        <time>2022-05-05T07:46:55.000Z</time>
      </trkpt>
      <trkpt lat="47.31067" lon="-2.34058">
        <ele>24.60000038147</ele>
        <time>2022-05-05T07:46:56.000Z</time>
      </trkpt>
      <trkpt lat="47.31065" lon="-2.3405">
        <ele>25</ele>
        <time>2022-05-05T07:46:57.000Z</time>
      </trkpt>
      <trkpt lat="47.31064" lon="-2.34042">
        <ele>25.60000038147</ele>
        <time>2022-05-05T07:46:58.000Z</time>
      </trkpt>
      <trkpt lat="47.31063" lon="-2.34034">
        <ele>26</ele>
        <time>2022-05-05T07:46:59.000Z</time>
      </trkpt>
      <trkpt lat="47.3106" lon="-2.33982">
        <ele>26</ele>
        <time>2022-05-05T07:47:05.000Z</time>
      </trkpt>
      <trkpt lat="47.3106" lon="-2.33911">
        <ele>26</ele>
        <time>2022-05-05T07:47:13.000Z</time>
      </trkpt>
      <trkpt lat="47.31062" lon="-2.33857">
        <ele>26</ele>
        <time>2022-05-05T07:47:19.000Z</time>
      </trkpt>
      <trkpt lat="47.31068" lon="-2.33804">
        <ele>26</ele>
        <time>2022-05-05T07:47:25.000Z</time>
      </trkpt>
      <trkpt lat="47.31071" lon="-2.33796">
        <ele>26</ele>
        <time>2022-05-05T07:47:26.000Z</time>
      </trkpt>
      <trkpt lat="47.31082" lon="-2.33772">
        <ele>26</ele>
        <time>2022-05-05T07:47:29.000Z</time>
      </trkpt>
      <trkpt lat="47.31089" lon="-2.33755">
        <ele>26</ele>
        <time>2022-05-05T07:47:31.000Z</time>
      </trkpt>
      <trkpt lat="47.31092" lon="-2.33746">
        <ele>26</ele>
        <time>2022-05-05T07:47:32.000Z</time>
      </trkpt>
      <trkpt lat="47.31097" lon="-2.33718">
        <ele>26</ele>
        <time>2022-05-05T07:47:35.000Z</time>
      </trkpt>
      <trkpt lat="47.31106" lon="-2.33654">
        <ele>26</ele>
        <time>2022-05-05T07:47:42.000Z</time>
      </trkpt>
      <trkpt lat="47.31112" lon="-2.33583">
        <ele>26</ele>
        <time>2022-05-05T07:47:50.000Z</time>
      </trkpt>
      <trkpt lat="47.31112" lon="-2.33567">
        <ele>26</ele>
        <time>2022-05-05T07:47:52.000Z</time>
      </trkpt>
      <trkpt lat="47.31109" lon="-2.33545">
        <ele>26</ele>
        <time>2022-05-05T07:47:55.000Z</time>
      </trkpt>
      <trkpt lat="47.311" lon="-2.33487">
        <ele>26</ele>
        <time>2022-05-05T07:48:02.000Z</time>
      </trkpt>
      <trkpt lat="47.31096" lon="-2.33427">
        <ele>26</ele>
        <time>2022-05-05T07:48:08.000Z</time>
      </trkpt>
      <trkpt lat="47.31096" lon="-2.33356">
        <ele>26</ele>
        <time>2022-05-05T07:48:15.000Z</time>
      </trkpt>
      <trkpt lat="47.31099" lon="-2.33314">
        <ele>26</ele>
        <time>2022-05-05T07:48:20.000Z</time>
      </trkpt>
      <trkpt lat="47.31101" lon="-2.33264">
        <ele>25.60000038147</ele>
        <time>2022-05-05T07:48:26.000Z</time>
      </trkpt>
      <trkpt lat="47.31102" lon="-2.33256">
        <ele>25.200000762939</ele>
        <time>2022-05-05T07:48:27.000Z</time>
      </trkpt>
      <trkpt lat="47.31102" lon="-2.33248">
        <ele>24.799999237061</ele>
        <time>2022-05-05T07:48:28.000Z</time>
      </trkpt>
      <trkpt lat="47.31103" lon="-2.33239">
        <ele>24.200000762939</ele>
        <time>2022-05-05T07:48:29.000Z</time>
      </trkpt>
      <trkpt lat="47.31105" lon="-2.3323">
        <ele>23.799999237061</ele>
        <time>2022-05-05T07:48:30.000Z</time>
      </trkpt>
      <trkpt lat="47.31106" lon="-2.33221">
        <ele>23.799999237061</ele>
        <time>2022-05-05T07:48:31.000Z</time>
      </trkpt>
      <trkpt lat="47.31109" lon="-2.33213">
        <ele>23.799999237061</ele>
        <time>2022-05-05T07:48:32.000Z</time>
      </trkpt>
      <trkpt lat="47.31125" lon="-2.33199">
        <ele>23.799999237061</ele>
        <time>2022-05-05T07:48:35.000Z</time>
      </trkpt>
      <trkpt lat="47.31136" lon="-2.33192">
        <ele>23.799999237061</ele>
        <time>2022-05-05T07:48:37.000Z</time>
      </trkpt>
      <trkpt lat="47.31157" lon="-2.33178">
        <ele>23.799999237061</ele>
        <time>2022-05-05T07:48:41.000Z</time>
      </trkpt>
      <trkpt lat="47.31192" lon="-2.33155">
        <ele>23.799999237061</ele>
        <time>2022-05-05T07:48:47.000Z</time>
      </trkpt>
      <trkpt lat="47.31204" lon="-2.33151">
        <ele>23.39999961853</ele>
        <time>2022-05-05T07:48:49.000Z</time>
      </trkpt>
      <trkpt lat="47.3121" lon="-2.3315">
        <ele>23</ele>
        <time>2022-05-05T07:48:50.000Z</time>
      </trkpt>
      <trkpt lat="47.31217" lon="-2.33148">
        <ele>22.60000038147</ele>
        <time>2022-05-05T07:48:51.000Z</time>
      </trkpt>
      <trkpt lat="47.31224" lon="-2.33148">
        <ele>22.200000762939</ele>
        <time>2022-05-05T07:48:52.000Z</time>
      </trkpt>
      <trkpt lat="47.31231" lon="-2.33148">
        <ele>21.799999237061</ele>
        <time>2022-05-05T07:48:53.000Z</time>
      </trkpt>
      <trkpt lat="47.31238" lon="-2.3315">
        <ele>21.799999237061</ele>
        <time>2022-05-05T07:48:54.000Z</time>
      </trkpt>
      <trkpt lat="47.31265" lon="-2.33157">
        <ele>21.799999237061</ele>
        <time>2022-05-05T07:48:58.000Z</time>
      </trkpt>
      <trkpt lat="47.313" lon="-2.33178">
        <ele>21.799999237061</ele>
        <time>2022-05-05T07:49:04.000Z</time>
      </trkpt>
      <trkpt lat="47.31332" lon="-2.33207">
        <ele>21.799999237061</ele>
        <time>2022-05-05T07:49:10.000Z</time>
      </trkpt>
      <trkpt lat="47.31369" lon="-2.33235">
        <ele>21.799999237061</ele>
        <time>2022-05-05T07:49:17.000Z</time>
      </trkpt>
      <trkpt lat="47.31418" lon="-2.33271">
        <ele>21.799999237061</ele>
        <time>2022-05-05T07:49:26.000Z</time>
      </trkpt>
      <trkpt lat="47.31432" lon="-2.33285">
        <ele>21.799999237061</ele>
        <time>2022-05-05T07:49:29.000Z</time>
      </trkpt>
      <trkpt lat="47.31441" lon="-2.33295">
        <ele>21.799999237061</ele>
        <time>2022-05-05T07:49:31.000Z</time>
      </trkpt>
      <trkpt lat="47.31448" lon="-2.33307">
        <ele>21.799999237061</ele>
        <time>2022-05-05T07:49:33.000Z</time>
      </trkpt>
      <trkpt lat="47.31463" lon="-2.33332">
        <ele>22.200000762939</ele>
        <time>2022-05-05T07:49:37.000Z</time>
      </trkpt>
      <trkpt lat="47.31467" lon="-2.33339">
        <ele>22.60000038147</ele>
        <time>2022-05-05T07:49:38.000Z</time>
      </trkpt>
      <trkpt lat="47.3147" lon="-2.33346">
        <ele>23</ele>
        <time>2022-05-05T07:49:39.000Z</time>
      </trkpt>
      <trkpt lat="47.31473" lon="-2.33353">
        <ele>23.39999961853</ele>
        <time>2022-05-05T07:49:40.000Z</time>
      </trkpt>
      <trkpt lat="47.31477" lon="-2.3336">
        <ele>23.799999237061</ele>
        <time>2022-05-05T07:49:41.000Z</time>
      </trkpt>
      <trkpt lat="47.31481" lon="-2.33365">
        <ele>23.799999237061</ele>
        <time>2022-05-05T07:49:42.000Z</time>
      </trkpt>
      <trkpt lat="47.31486" lon="-2.33368">
        <ele>23.799999237061</ele>
        <time>2022-05-05T07:49:43.000Z</time>
      </trkpt>
      <trkpt lat="47.31502" lon="-2.33361">
        <ele>23.799999237061</ele>
        <time>2022-05-05T07:49:46.000Z</time>
      </trkpt>
      <trkpt lat="47.31508" lon="-2.33357">
        <ele>23.799999237061</ele>
        <time>2022-05-05T07:49:47.000Z</time>
      </trkpt>
      <trkpt lat="47.31535" lon="-2.33343">
        <ele>23.799999237061</ele>
        <time>2022-05-05T07:49:52.000Z</time>
      </trkpt>
      <trkpt lat="47.31578" lon="-2.33323">
        <ele>23.799999237061</ele>
        <time>2022-05-05T07:50:00.000Z</time>
      </trkpt>
      <trkpt lat="47.31612" lon="-2.33302">
        <ele>23.799999237061</ele>
        <time>2022-05-05T07:50:06.000Z</time>
      </trkpt>
      <trkpt lat="47.31617" lon="-2.33299">
        <ele>23.799999237061</ele>
        <time>2022-05-05T07:50:07.000Z</time>
      </trkpt>
      <trkpt lat="47.31654" lon="-2.33278">
        <ele>23.799999237061</ele>
        <time>2022-05-05T07:50:13.000Z</time>
      </trkpt>
      <trkpt lat="47.31694" lon="-2.33262">
        <ele>23.799999237061</ele>
        <time>2022-05-05T07:50:19.000Z</time>
      </trkpt>
      <trkpt lat="47.3172" lon="-2.3325">
        <ele>23.39999961853</ele>
        <time>2022-05-05T07:50:23.000Z</time>
      </trkpt>
      <trkpt lat="47.31727" lon="-2.33247">
        <ele>22.799999237061</ele>
        <time>2022-05-05T07:50:24.000Z</time>
      </trkpt>
      <trkpt lat="47.31734" lon="-2.33245">
        <ele>22.39999961853</ele>
        <time>2022-05-05T07:50:25.000Z</time>
      </trkpt>
      <trkpt lat="47.31739" lon="-2.33246">
        <ele>22</ele>
        <time>2022-05-05T07:50:26.000Z</time>
      </trkpt>
      <trkpt lat="47.31744" lon="-2.33249">
        <ele>21.60000038147</ele>
        <time>2022-05-05T07:50:27.000Z</time>
      </trkpt>
      <trkpt lat="47.31751" lon="-2.33269">
        <ele>21.200000762939</ele>
        <time>2022-05-05T07:50:30.000Z</time>
      </trkpt>
      <trkpt lat="47.31753" lon="-2.33275">
        <ele>20.799999237061</ele>
        <time>2022-05-05T07:50:31.000Z</time>
      </trkpt>
      <trkpt lat="47.31755" lon="-2.33283">
        <ele>20.39999961853</ele>
        <time>2022-05-05T07:50:32.000Z</time>
      </trkpt>
      <trkpt lat="47.31757" lon="-2.3329">
        <ele>20</ele>
        <time>2022-05-05T07:50:33.000Z</time>
      </trkpt>
      <trkpt lat="47.3176" lon="-2.33297">
        <ele>19.60000038147</ele>
        <time>2022-05-05T07:50:34.000Z</time>
      </trkpt>
      <trkpt lat="47.31763" lon="-2.33304">
        <ele>19.60000038147</ele>
        <time>2022-05-05T07:50:35.000Z</time>
      </trkpt>
      <trkpt lat="47.3177" lon="-2.33319">
        <ele>19.60000038147</ele>
        <time>2022-05-05T07:50:37.000Z</time>
      </trkpt>
      <trkpt lat="47.3178" lon="-2.33328">
        <ele>19.60000038147</ele>
        <time>2022-05-05T07:50:39.000Z</time>
      </trkpt>
      <trkpt lat="47.31788" lon="-2.33327">
        <ele>19</ele>
        <time>2022-05-05T07:50:41.000Z</time>
      </trkpt>
      <trkpt lat="47.31793" lon="-2.33323">
        <ele>18.60000038147</ele>
        <time>2022-05-05T07:50:42.000Z</time>
      </trkpt>
      <trkpt lat="47.31798" lon="-2.3332">
        <ele>18.200000762939</ele>
        <time>2022-05-05T07:50:43.000Z</time>
      </trkpt>
      <trkpt lat="47.31804" lon="-2.33316">
        <ele>17.60000038147</ele>
        <time>2022-05-05T07:50:44.000Z</time>
      </trkpt>
      <trkpt lat="47.31809" lon="-2.33311">
        <ele>17.200000762939</ele>
        <time>2022-05-05T07:50:45.000Z</time>
      </trkpt>
      <trkpt lat="47.31814" lon="-2.33307">
        <ele>16.799999237061</ele>
        <time>2022-05-05T07:50:46.000Z</time>
      </trkpt>
      <trkpt lat="47.3182" lon="-2.33302">
        <ele>16</ele>
        <time>2022-05-05T07:50:47.000Z</time>
      </trkpt>
      <trkpt lat="47.31826" lon="-2.33298">
        <ele>15.39999961853</ele>
        <time>2022-05-05T07:50:48.000Z</time>
      </trkpt>
      <trkpt lat="47.31832" lon="-2.33292">
        <ele>15</ele>
        <time>2022-05-05T07:50:49.000Z</time>
      </trkpt>
      <trkpt lat="47.31844" lon="-2.33276">
        <ele>14.60000038147</ele>
        <time>2022-05-05T07:50:51.000Z</time>
      </trkpt>
      <trkpt lat="47.31849" lon="-2.33266">
        <ele>14.199999809265</ele>
        <time>2022-05-05T07:50:52.000Z</time>
      </trkpt>
      <trkpt lat="47.31853" lon="-2.33255">
        <ele>13.60000038147</ele>
        <time>2022-05-05T07:50:53.000Z</time>
      </trkpt>
      <trkpt lat="47.31857" lon="-2.33244">
        <ele>13.199999809265</ele>
        <time>2022-05-05T07:50:54.000Z</time>
      </trkpt>
      <trkpt lat="47.3186" lon="-2.33233">
        <ele>12.800000190735</ele>
        <time>2022-05-05T07:50:55.000Z</time>
      </trkpt>
      <trkpt lat="47.31866" lon="-2.33201">
        <ele>12.800000190735</ele>
        <time>2022-05-05T07:50:58.000Z</time>
      </trkpt>
      <trkpt lat="47.3187" lon="-2.33148">
        <ele>12.199999809265</ele>
        <time>2022-05-05T07:51:03.000Z</time>
      </trkpt>
      <trkpt lat="47.3187" lon="-2.33138">
        <ele>11.60000038147</ele>
        <time>2022-05-05T07:51:04.000Z</time>
      </trkpt>
      <trkpt lat="47.31871" lon="-2.33127">
        <ele>11.199999809265</ele>
        <time>2022-05-05T07:51:05.000Z</time>
      </trkpt>
      <trkpt lat="47.31872" lon="-2.33115">
        <ele>10.60000038147</ele>
        <time>2022-05-05T07:51:06.000Z</time>
      </trkpt>
      <trkpt lat="47.31873" lon="-2.33104">
        <ele>10.199999809265</ele>
        <time>2022-05-05T07:51:07.000Z</time>
      </trkpt>
      <trkpt lat="47.31875" lon="-2.3308">
        <ele>9.8000001907349</ele>
        <time>2022-05-05T07:51:09.000Z</time>
      </trkpt>
      <trkpt lat="47.31876" lon="-2.33068">
        <ele>9.3999996185303</ele>
        <time>2022-05-05T07:51:10.000Z</time>
      </trkpt>
      <trkpt lat="47.31878" lon="-2.33056">
        <ele>8.8000001907349</ele>
        <time>2022-05-05T07:51:11.000Z</time>
      </trkpt>
      <trkpt lat="47.31879" lon="-2.33044">
        <ele>8</ele>
        <time>2022-05-05T07:51:12.000Z</time>
      </trkpt>
      <trkpt lat="47.31877" lon="-2.32987">
        <ele>8</ele>
        <time>2022-05-05T07:51:17.000Z</time>
      </trkpt>
      <trkpt lat="47.31878" lon="-2.32976">
        <ele>8</ele>
        <time>2022-05-05T07:51:18.000Z</time>
      </trkpt>
      <trkpt lat="47.31882" lon="-2.32946">
        <ele>8</ele>
        <time>2022-05-05T07:51:21.000Z</time>
      </trkpt>
      <trkpt lat="47.31884" lon="-2.32902">
        <ele>8</ele>
        <time>2022-05-05T07:51:26.000Z</time>
      </trkpt>
      <trkpt lat="47.31883" lon="-2.32855">
        <ele>8</ele>
        <time>2022-05-05T07:51:31.000Z</time>
      </trkpt>
      <trkpt lat="47.31884" lon="-2.32816">
        <ele>8</ele>
        <time>2022-05-05T07:51:35.000Z</time>
      </trkpt>
      <trkpt lat="47.31885" lon="-2.32788">
        <ele>8</ele>
        <time>2022-05-05T07:51:38.000Z</time>
      </trkpt>
      <trkpt lat="47.31885" lon="-2.32772">
        <ele>8</ele>
        <time>2022-05-05T07:51:40.000Z</time>
      </trkpt>
      <trkpt lat="47.31879" lon="-2.3275">
        <ele>8</ele>
        <time>2022-05-05T07:51:43.000Z</time>
      </trkpt>
      <trkpt lat="47.31876" lon="-2.32743">
        <ele>8</ele>
        <time>2022-05-05T07:51:44.000Z</time>
      </trkpt>
      <trkpt lat="47.31861" lon="-2.32706">
        <ele>8.3999996185303</ele>
        <time>2022-05-05T07:51:49.000Z</time>
      </trkpt>
      <trkpt lat="47.31858" lon="-2.32699">
        <ele>8.8000001907349</ele>
        <time>2022-05-05T07:51:50.000Z</time>
      </trkpt>
      <trkpt lat="47.31855" lon="-2.32693">
        <ele>9.3999996185303</ele>
        <time>2022-05-05T07:51:51.000Z</time>
      </trkpt>
      <trkpt lat="47.31852" lon="-2.32687">
        <ele>9.8000001907349</ele>
        <time>2022-05-05T07:51:52.000Z</time>
      </trkpt>
      <trkpt lat="47.31849" lon="-2.32682">
        <ele>10.199999809265</ele>
        <time>2022-05-05T07:51:53.000Z</time>
      </trkpt>
      <trkpt lat="47.31839" lon="-2.32657">
        <ele>10.199999809265</ele>
        <time>2022-05-05T07:51:57.000Z</time>
      </trkpt>
      <trkpt lat="47.31838" lon="-2.3265">
        <ele>10.199999809265</ele>
        <time>2022-05-05T07:51:58.000Z</time>
      </trkpt>
      <trkpt lat="47.31833" lon="-2.32629">
        <ele>10.60000038147</ele>
        <time>2022-05-05T07:52:01.000Z</time>
      </trkpt>
      <trkpt lat="47.31831" lon="-2.32621">
        <ele>11</ele>
        <time>2022-05-05T07:52:02.000Z</time>
      </trkpt>
      <trkpt lat="47.3183" lon="-2.32614">
        <ele>11.39999961853</ele>
        <time>2022-05-05T07:52:03.000Z</time>
      </trkpt>
      <trkpt lat="47.31828" lon="-2.32607">
        <ele>11.800000190735</ele>
        <time>2022-05-05T07:52:04.000Z</time>
      </trkpt>
      <trkpt lat="47.31827" lon="-2.326">
        <ele>12.199999809265</ele>
        <time>2022-05-05T07:52:05.000Z</time>
      </trkpt>
      <trkpt lat="47.31822" lon="-2.32573">
        <ele>12.199999809265</ele>
        <time>2022-05-05T07:52:09.000Z</time>
      </trkpt>
      <trkpt lat="47.31815" lon="-2.32538">
        <ele>12.60000038147</ele>
        <time>2022-05-05T07:52:15.000Z</time>
      </trkpt>
      <trkpt lat="47.31814" lon="-2.32533">
        <ele>13</ele>
        <time>2022-05-05T07:52:16.000Z</time>
      </trkpt>
      <trkpt lat="47.31813" lon="-2.32527">
        <ele>13.39999961853</ele>
        <time>2022-05-05T07:52:17.000Z</time>
      </trkpt>
      <trkpt lat="47.31813" lon="-2.32522">
        <ele>14</ele>
        <time>2022-05-05T07:52:18.000Z</time>
      </trkpt>
      <trkpt lat="47.31812" lon="-2.32516">
        <ele>14.39999961853</ele>
        <time>2022-05-05T07:52:19.000Z</time>
      </trkpt>
      <trkpt lat="47.31806" lon="-2.32494">
        <ele>14.39999961853</ele>
        <time>2022-05-05T07:52:23.000Z</time>
      </trkpt>
      <trkpt lat="47.31802" lon="-2.32482">
        <ele>14.800000190735</ele>
        <time>2022-05-05T07:52:25.000Z</time>
      </trkpt>
      <trkpt lat="47.31799" lon="-2.32476">
        <ele>15.199999809265</ele>
        <time>2022-05-05T07:52:26.000Z</time>
      </trkpt>
      <trkpt lat="47.31797" lon="-2.32471">
        <ele>15.60000038147</ele>
        <time>2022-05-05T07:52:27.000Z</time>
      </trkpt>
      <trkpt lat="47.31794" lon="-2.32466">
        <ele>16</ele>
        <time>2022-05-05T07:52:28.000Z</time>
      </trkpt>
      <trkpt lat="47.31793" lon="-2.32461">
        <ele>16.39999961853</ele>
        <time>2022-05-05T07:52:29.000Z</time>
      </trkpt>
      <trkpt lat="47.31788" lon="-2.32436">
        <ele>16.799999237061</ele>
        <time>2022-05-05T07:52:33.000Z</time>
      </trkpt>
      <trkpt lat="47.31788" lon="-2.32431">
        <ele>17.200000762939</ele>
        <time>2022-05-05T07:52:34.000Z</time>
      </trkpt>
      <trkpt lat="47.31788" lon="-2.32425">
        <ele>17.60000038147</ele>
        <time>2022-05-05T07:52:35.000Z</time>
      </trkpt>
      <trkpt lat="47.31787" lon="-2.3242">
        <ele>18.200000762939</ele>
        <time>2022-05-05T07:52:36.000Z</time>
      </trkpt>
      <trkpt lat="47.31786" lon="-2.32413">
        <ele>18.60000038147</ele>
        <time>2022-05-05T07:52:37.000Z</time>
      </trkpt>
      <trkpt lat="47.31781" lon="-2.32394">
        <ele>18.60000038147</ele>
        <time>2022-05-05T07:52:40.000Z</time>
      </trkpt>
      <trkpt lat="47.31775" lon="-2.32355">
        <ele>19</ele>
        <time>2022-05-05T07:52:47.000Z</time>
      </trkpt>
      <trkpt lat="47.31774" lon="-2.32349">
        <ele>19.39999961853</ele>
        <time>2022-05-05T07:52:48.000Z</time>
      </trkpt>
      <trkpt lat="47.31772" lon="-2.32343">
        <ele>20.200000762939</ele>
        <time>2022-05-05T07:52:49.000Z</time>
      </trkpt>
      <trkpt lat="47.31771" lon="-2.32338">
        <ele>20.60000038147</ele>
        <time>2022-05-05T07:52:50.000Z</time>
      </trkpt>
      <trkpt lat="47.31763" lon="-2.32304">
        <ele>20.60000038147</ele>
        <time>2022-05-05T07:52:55.000Z</time>
      </trkpt>
      <trkpt lat="47.31755" lon="-2.32264">
        <ele>20.60000038147</ele>
        <time>2022-05-05T07:53:02.000Z</time>
      </trkpt>
      <trkpt lat="47.31749" lon="-2.32244">
        <ele>20.60000038147</ele>
        <time>2022-05-05T07:53:07.000Z</time>
      </trkpt>
      <trkpt lat="47.31748" lon="-2.32235">
        <ele>20.60000038147</ele>
        <time>2022-05-05T07:53:12.000Z</time>
      </trkpt>
      <trkpt lat="47.31748" lon="-2.32234">
        <ele>20.60000038147</ele>
        <time>2022-05-05T07:53:13.000Z</time>
      </trkpt>
      <trkpt lat="47.31753" lon="-2.32232">
        <ele>20.60000038147</ele>
        <time>2022-05-05T07:53:22.000Z</time>
      </trkpt>
      <trkpt lat="47.31758" lon="-2.32232">
        <ele>20.60000038147</ele>
        <time>2022-05-05T07:53:24.000Z</time>
      </trkpt>
      <trkpt lat="47.31776" lon="-2.32229">
        <ele>20.60000038147</ele>
        <time>2022-05-05T07:53:29.000Z</time>
      </trkpt>
      <trkpt lat="47.31803" lon="-2.32227">
        <ele>20.60000038147</ele>
        <time>2022-05-05T07:53:35.000Z</time>
      </trkpt>
      <trkpt lat="47.31835" lon="-2.32222">
        <ele>20.60000038147</ele>
        <time>2022-05-05T07:53:41.000Z</time>
      </trkpt>
      <trkpt lat="47.31859" lon="-2.32214">
        <ele>20</ele>
        <time>2022-05-05T07:53:45.000Z</time>
      </trkpt>
      <trkpt lat="47.31866" lon="-2.32211">
        <ele>19.60000038147</ele>
        <time>2022-05-05T07:53:46.000Z</time>
      </trkpt>
      <trkpt lat="47.31874" lon="-2.32209">
        <ele>19.200000762939</ele>
        <time>2022-05-05T07:53:47.000Z</time>
      </trkpt>
      <trkpt lat="47.31881" lon="-2.32206">
        <ele>18.60000038147</ele>
        <time>2022-05-05T07:53:48.000Z</time>
      </trkpt>
      <trkpt lat="47.31889" lon="-2.32206">
        <ele>18.200000762939</ele>
        <time>2022-05-05T07:53:49.000Z</time>
      </trkpt>
      <trkpt lat="47.31897" lon="-2.32206">
        <ele>17.799999237061</ele>
        <time>2022-05-05T07:53:50.000Z</time>
      </trkpt>
      <trkpt lat="47.31905" lon="-2.32206">
        <ele>17.39999961853</ele>
        <time>2022-05-05T07:53:51.000Z</time>
      </trkpt>
      <trkpt lat="47.31913" lon="-2.32207">
        <ele>16.799999237061</ele>
        <time>2022-05-05T07:53:52.000Z</time>
      </trkpt>
      <trkpt lat="47.31922" lon="-2.32209">
        <ele>16.39999961853</ele>
        <time>2022-05-05T07:53:53.000Z</time>
      </trkpt>
      <trkpt lat="47.31931" lon="-2.32211">
        <ele>16</ele>
        <time>2022-05-05T07:53:54.000Z</time>
      </trkpt>
      <trkpt lat="47.31938" lon="-2.32214">
        <ele>15.39999961853</ele>
        <time>2022-05-05T07:53:55.000Z</time>
      </trkpt>
      <trkpt lat="47.31944" lon="-2.32215">
        <ele>14.800000190735</ele>
        <time>2022-05-05T07:53:56.000Z</time>
      </trkpt>
      <trkpt lat="47.31949" lon="-2.32216">
        <ele>14.39999961853</ele>
        <time>2022-05-05T07:53:57.000Z</time>
      </trkpt>
      <trkpt lat="47.31952" lon="-2.32219">
        <ele>13.800000190735</ele>
        <time>2022-05-05T07:53:58.000Z</time>
      </trkpt>
      <trkpt lat="47.31955" lon="-2.32223">
        <ele>13</ele>
        <time>2022-05-05T07:53:59.000Z</time>
      </trkpt>
      <trkpt lat="47.31956" lon="-2.32229">
        <ele>12.39999961853</ele>
        <time>2022-05-05T07:54:00.000Z</time>
      </trkpt>
      <trkpt lat="47.31955" lon="-2.32233">
        <ele>11.800000190735</ele>
        <time>2022-05-05T07:54:01.000Z</time>
      </trkpt>
      <trkpt lat="47.31953" lon="-2.32238">
        <ele>11.199999809265</ele>
        <time>2022-05-05T07:54:02.000Z</time>
      </trkpt>
      <trkpt lat="47.3195" lon="-2.32243">
        <ele>11.199999809265</ele>
        <time>2022-05-05T07:54:03.000Z</time>
      </trkpt>
      <trkpt lat="47.31949" lon="-2.32249">
        <ele>11.199999809265</ele>
        <time>2022-05-05T07:54:04.000Z</time>
      </trkpt>
      <trkpt lat="47.3195" lon="-2.32265">
        <ele>11.199999809265</ele>
        <time>2022-05-05T07:54:07.000Z</time>
      </trkpt>
      <trkpt lat="47.31954" lon="-2.32266">
        <ele>10.800000190735</ele>
        <time>2022-05-05T07:54:08.000Z</time>
      </trkpt>
      <trkpt lat="47.31958" lon="-2.32262">
        <ele>10.39999961853</ele>
        <time>2022-05-05T07:54:09.000Z</time>
      </trkpt>
      <trkpt lat="47.31962" lon="-2.32256">
        <ele>9.8000001907349</ele>
        <time>2022-05-05T07:54:10.000Z</time>
      </trkpt>
      <trkpt lat="47.31966" lon="-2.32249">
        <ele>9.3999996185303</ele>
        <time>2022-05-05T07:54:11.000Z</time>
      </trkpt>
      <trkpt lat="47.3197" lon="-2.32241">
        <ele>9</ele>
        <time>2022-05-05T07:54:12.000Z</time>
      </trkpt>
      <trkpt lat="47.31975" lon="-2.32234">
        <ele>8.6000003814697</ele>
        <time>2022-05-05T07:54:13.000Z</time>
      </trkpt>
      <trkpt lat="47.3198" lon="-2.32226">
        <ele>8</ele>
        <time>2022-05-05T07:54:14.000Z</time>
      </trkpt>
      <trkpt lat="47.31986" lon="-2.32219">
        <ele>7.5999999046326</ele>
        <time>2022-05-05T07:54:15.000Z</time>
      </trkpt>
      <trkpt lat="47.31992" lon="-2.32213">
        <ele>7.1999998092651</ele>
        <time>2022-05-05T07:54:16.000Z</time>
      </trkpt>
      <trkpt lat="47.31998" lon="-2.32207">
        <ele>6.8000001907349</ele>
        <time>2022-05-05T07:54:17.000Z</time>
      </trkpt>
      <trkpt lat="47.32032" lon="-2.32185">
        <ele>5</ele>
        <time>2022-05-05T07:54:22.000Z</time>
      </trkpt>
      <trkpt lat="47.32041" lon="-2.32184">
        <ele>4.5999999046326</ele>
        <time>2022-05-05T07:54:23.000Z</time>
      </trkpt>
      <trkpt lat="47.321" lon="-2.32182">
        <ele>4.5999999046326</ele>
        <time>2022-05-05T07:54:30.000Z</time>
      </trkpt>
      <trkpt lat="47.32109" lon="-2.3218">
        <ele>4.5999999046326</ele>
        <time>2022-05-05T07:54:31.000Z</time>
      </trkpt>
      <trkpt lat="47.32126" lon="-2.32177">
        <ele>4.1999998092651</ele>
        <time>2022-05-05T07:54:33.000Z</time>
      </trkpt>
      <trkpt lat="47.32134" lon="-2.32174">
        <ele>3.7999999523163</ele>
        <time>2022-05-05T07:54:34.000Z</time>
      </trkpt>
      <trkpt lat="47.32141" lon="-2.3217">
        <ele>3.4000000953674</ele>
        <time>2022-05-05T07:54:35.000Z</time>
      </trkpt>
      <trkpt lat="47.32148" lon="-2.32165">
        <ele>3</ele>
        <time>2022-05-05T07:54:36.000Z</time>
      </trkpt>
      <trkpt lat="47.32155" lon="-2.32159">
        <ele>2.5999999046326</ele>
        <time>2022-05-05T07:54:37.000Z</time>
      </trkpt>
      <trkpt lat="47.32172" lon="-2.32142">
        <ele>2.5999999046326</ele>
        <time>2022-05-05T07:54:40.000Z</time>
      </trkpt>
      <trkpt lat="47.32197" lon="-2.32122">
        <ele>2.5999999046326</ele>
        <time>2022-05-05T07:54:45.000Z</time>
      </trkpt>
      <trkpt lat="47.32208" lon="-2.32114">
        <ele>2.5999999046326</ele>
        <time>2022-05-05T07:54:49.000Z</time>
      </trkpt>
      <trkpt lat="47.32221" lon="-2.32112">
        <ele>2.5999999046326</ele>
        <time>2022-05-05T07:54:52.000Z</time>
      </trkpt>
      <trkpt lat="47.32226" lon="-2.32111">
        <ele>2.5999999046326</ele>
        <time>2022-05-05T07:54:53.000Z</time>
      </trkpt>
      <trkpt lat="47.32271" lon="-2.32103">
        <ele>2.5999999046326</ele>
        <time>2022-05-05T07:55:01.000Z</time>
      </trkpt>
      <trkpt lat="47.3231" lon="-2.321">
        <ele>2.5999999046326</ele>
        <time>2022-05-05T07:55:08.000Z</time>
      </trkpt>
      <trkpt lat="47.3233" lon="-2.32103">
        <ele>2.5999999046326</ele>
        <time>2022-05-05T07:55:13.000Z</time>
      </trkpt>
      <trkpt lat="47.32352" lon="-2.32106">
        <ele>2.5999999046326</ele>
        <time>2022-05-05T07:55:20.000Z</time>
      </trkpt>
      <trkpt lat="47.32377" lon="-2.32107">
        <ele>2.5999999046326</ele>
        <time>2022-05-05T07:55:26.000Z</time>
      </trkpt>
      <trkpt lat="47.3242" lon="-2.32102">
        <ele>2.5999999046326</ele>
        <time>2022-05-05T07:55:34.000Z</time>
      </trkpt>
      <trkpt lat="47.32453" lon="-2.321">
        <ele>2.5999999046326</ele>
        <time>2022-05-05T07:55:40.000Z</time>
      </trkpt>
      <trkpt lat="47.32487" lon="-2.32099">
        <ele>2.5999999046326</ele>
        <time>2022-05-05T07:55:46.000Z</time>
      </trkpt>
      <trkpt lat="47.32496" lon="-2.32095">
        <ele>2.5999999046326</ele>
        <time>2022-05-05T07:55:48.000Z</time>
      </trkpt>
      <trkpt lat="47.32499" lon="-2.32088">
        <ele>2.5999999046326</ele>
        <time>2022-05-05T07:55:49.000Z</time>
      </trkpt>
      <trkpt lat="47.32501" lon="-2.32068">
        <ele>2.5999999046326</ele>
        <time>2022-05-05T07:55:52.000Z</time>
      </trkpt>
      <trkpt lat="47.32501" lon="-2.32061">
        <ele>2.5999999046326</ele>
        <time>2022-05-05T07:55:53.000Z</time>
      </trkpt>
      <trkpt lat="47.32502" lon="-2.32014">
        <ele>2.5999999046326</ele>
        <time>2022-05-05T07:55:59.000Z</time>
      </trkpt>
      <trkpt lat="47.32504" lon="-2.31957">
        <ele>2.5999999046326</ele>
        <time>2022-05-05T07:56:06.000Z</time>
      </trkpt>
      <trkpt lat="47.3251" lon="-2.31914">
        <ele>2.5999999046326</ele>
        <time>2022-05-05T07:56:11.000Z</time>
      </trkpt>
      <trkpt lat="47.32511" lon="-2.31906">
        <ele>2.5999999046326</ele>
        <time>2022-05-05T07:56:12.000Z</time>
      </trkpt>
      <trkpt lat="47.32517" lon="-2.31846">
        <ele>2.5999999046326</ele>
        <time>2022-05-05T07:56:19.000Z</time>
      </trkpt>
      <trkpt lat="47.32515" lon="-2.31797">
        <ele>2.5999999046326</ele>
        <time>2022-05-05T07:56:25.000Z</time>
      </trkpt>
      <trkpt lat="47.3251" lon="-2.3174">
        <ele>2.5999999046326</ele>
        <time>2022-05-05T07:56:32.000Z</time>
      </trkpt>
      <trkpt lat="47.32506" lon="-2.31699">
        <ele>3</ele>
        <time>2022-05-05T07:56:37.000Z</time>
      </trkpt>
      <trkpt lat="47.32505" lon="-2.3169">
        <ele>3.4000000953674</ele>
        <time>2022-05-05T07:56:38.000Z</time>
      </trkpt>
      <trkpt lat="47.32505" lon="-2.31682">
        <ele>3.7999999523163</ele>
        <time>2022-05-05T07:56:39.000Z</time>
      </trkpt>
      <trkpt lat="47.32505" lon="-2.31673">
        <ele>4.1999998092651</ele>
        <time>2022-05-05T07:56:40.000Z</time>
      </trkpt>
      <trkpt lat="47.32505" lon="-2.31665">
        <ele>4.5999999046326</ele>
        <time>2022-05-05T07:56:41.000Z</time>
      </trkpt>
      <trkpt lat="47.32506" lon="-2.31656">
        <ele>4.5999999046326</ele>
        <time>2022-05-05T07:56:42.000Z</time>
      </trkpt>
      <trkpt lat="47.32509" lon="-2.31648">
        <ele>4.5999999046326</ele>
        <time>2022-05-05T07:56:43.000Z</time>
      </trkpt>
      <trkpt lat="47.32521" lon="-2.31631">
        <ele>4.5999999046326</ele>
        <time>2022-05-05T07:56:46.000Z</time>
      </trkpt>
      <trkpt lat="47.32549" lon="-2.31594">
        <ele>4.5999999046326</ele>
        <time>2022-05-05T07:56:52.000Z</time>
      </trkpt>
      <trkpt lat="47.32563" lon="-2.31582">
        <ele>4.5999999046326</ele>
        <time>2022-05-05T07:56:55.000Z</time>
      </trkpt>
      <trkpt lat="47.32567" lon="-2.3158">
        <ele>4.5999999046326</ele>
        <time>2022-05-05T07:56:56.000Z</time>
      </trkpt>
      <trkpt lat="47.32583" lon="-2.31573">
        <ele>4.1999998092651</ele>
        <time>2022-05-05T07:56:59.000Z</time>
      </trkpt>
      <trkpt lat="47.32588" lon="-2.31571">
        <ele>3.7999999523163</ele>
        <time>2022-05-05T07:57:00.000Z</time>
      </trkpt>
      <trkpt lat="47.32593" lon="-2.31569">
        <ele>3.4000000953674</ele>
        <time>2022-05-05T07:57:01.000Z</time>
      </trkpt>
      <trkpt lat="47.32597" lon="-2.31567">
        <ele>3</ele>
        <time>2022-05-05T07:57:02.000Z</time>
      </trkpt>
      <trkpt lat="47.32602" lon="-2.31565">
        <ele>2.5999999046326</ele>
        <time>2022-05-05T07:57:03.000Z</time>
      </trkpt>
      <trkpt lat="47.3262" lon="-2.31556">
        <ele>2.5999999046326</ele>
        <time>2022-05-05T07:57:07.000Z</time>
      </trkpt>
      <trkpt lat="47.32628" lon="-2.31554">
        <ele>2.5999999046326</ele>
        <time>2022-05-05T07:57:09.000Z</time>
      </trkpt>
      <trkpt lat="47.32641" lon="-2.31548">
        <ele>2.5999999046326</ele>
        <time>2022-05-05T07:57:13.000Z</time>
      </trkpt>
      <trkpt lat="47.32645" lon="-2.31546">
        <ele>2.5999999046326</ele>
        <time>2022-05-05T07:57:14.000Z</time>
      </trkpt>
      <trkpt lat="47.3266" lon="-2.31541">
        <ele>2.5999999046326</ele>
        <time>2022-05-05T07:57:17.000Z</time>
      </trkpt>
      <trkpt lat="47.32664" lon="-2.31539">
        <ele>2.5999999046326</ele>
        <time>2022-05-05T07:57:18.000Z</time>
      </trkpt>
      <trkpt lat="47.32691" lon="-2.31521">
        <ele>2.5999999046326</ele>
        <time>2022-05-05T07:57:24.000Z</time>
      </trkpt>
      <trkpt lat="47.32713" lon="-2.31505">
        <ele>2.5999999046326</ele>
        <time>2022-05-05T07:57:29.000Z</time>
      </trkpt>
      <trkpt lat="47.32722" lon="-2.31495">
        <ele>2.2000000476837</ele>
        <time>2022-05-05T07:57:31.000Z</time>
      </trkpt>
      <trkpt lat="47.32726" lon="-2.3149">
        <ele>1.7999999523163</ele>
        <time>2022-05-05T07:57:32.000Z</time>
      </trkpt>
      <trkpt lat="47.3273" lon="-2.31485">
        <ele>1.3999999761581</ele>
        <time>2022-05-05T07:57:33.000Z</time>
      </trkpt>
      <trkpt lat="47.32733" lon="-2.31479">
        <ele>1</ele>
        <time>2022-05-05T07:57:34.000Z</time>
      </trkpt>
      <trkpt lat="47.32737" lon="-2.31473">
        <ele>0.60000002384186</ele>
        <time>2022-05-05T07:57:35.000Z</time>
      </trkpt>
      <trkpt lat="47.32752" lon="-2.31448">
        <ele>0.60000002384186</ele>
        <time>2022-05-05T07:57:39.000Z</time>
      </trkpt>
      <trkpt lat="47.32759" lon="-2.31436">
        <ele>0.60000002384186</ele>
        <time>2022-05-05T07:57:41.000Z</time>
      </trkpt>
      <trkpt lat="47.32771" lon="-2.31419">
        <ele>0.60000002384186</ele>
        <time>2022-05-05T07:57:44.000Z</time>
      </trkpt>
      <trkpt lat="47.32787" lon="-2.31405">
        <ele>0.60000002384186</ele>
        <time>2022-05-05T07:57:47.000Z</time>
      </trkpt>
      <trkpt lat="47.32792" lon="-2.31401">
        <ele>0.60000002384186</ele>
        <time>2022-05-05T07:57:48.000Z</time>
      </trkpt>
      <trkpt lat="47.32824" lon="-2.31374">
        <ele>0.60000002384186</ele>
        <time>2022-05-05T07:57:54.000Z</time>
      </trkpt>
      <trkpt lat="47.3284" lon="-2.31355">
        <ele>0.60000002384186</ele>
        <time>2022-05-05T07:57:57.000Z</time>
      </trkpt>
      <trkpt lat="47.32845" lon="-2.31338">
        <ele>0.60000002384186</ele>
        <time>2022-05-05T07:57:59.000Z</time>
      </trkpt>
      <trkpt lat="47.32843" lon="-2.31328">
        <ele>6</ele>
        <time>2022-05-05T07:58:01.000Z</time>
      </trkpt>
      <trkpt lat="47.32841" lon="-2.31324">
        <ele>-0.40000000596046</ele>
        <time>2022-05-05T07:58:02.000Z</time>
      </trkpt>
      <trkpt lat="47.32836" lon="-2.31323">
        <ele>-0.80000001192093</ele>
        <time>2022-05-05T07:58:03.000Z</time>
      </trkpt>
      <trkpt lat="47.32833" lon="-2.31323">
        <ele>-1.2000000476837</ele>
        <time>2022-05-05T07:58:04.000Z</time>
      </trkpt>
      <trkpt lat="47.3283" lon="-2.31324">
        <ele>-1.6000000238419</ele>
        <time>2022-05-05T07:58:05.000Z</time>
      </trkpt>
      <trkpt lat="47.32815" lon="-2.31329">
        <ele>-1.6000000238419</ele>
        <time>2022-05-05T07:58:09.000Z</time>
      </trkpt>
      <trkpt lat="47.32806" lon="-2.31333">
        <ele>-1.6000000238419</ele>
        <time>2022-05-05T07:58:11.000Z</time>
      </trkpt>
      <trkpt lat="47.32792" lon="-2.3134">
        <ele>-1.6000000238419</ele>
        <time>2022-05-05T07:58:14.000Z</time>
      </trkpt>
      <trkpt lat="47.32779" lon="-2.31345">
        <ele>-1.6000000238419</ele>
        <time>2022-05-05T07:58:17.000Z</time>
      </trkpt>
      <trkpt lat="47.32761" lon="-2.31352">
        <ele>-1.6000000238419</ele>
        <time>2022-05-05T07:58:23.000Z</time>
      </trkpt>
      <trkpt lat="47.3276" lon="-2.31349">
        <ele>-1.6000000238419</ele>
        <time>2022-05-05T07:58:24.000Z</time>
      </trkpt>
      <trkpt lat="47.32761" lon="-2.31344">
        <ele>-1.6000000238419</ele>
        <time>2022-05-05T07:58:26.000Z</time>
      </trkpt>
      <trkpt lat="47.32771" lon="-2.31339">
        <ele>-1.6000000238419</ele>
        <time>2022-05-05T07:58:29.000Z</time>
      </trkpt>
      <trkpt lat="47.32785" lon="-2.31335">
        <ele>-1.6000000238419</ele>
        <time>2022-05-05T07:58:32.000Z</time>
      </trkpt>
      <trkpt lat="47.32795" lon="-2.31331">
        <ele>-1.6000000238419</ele>
        <time>2022-05-05T07:58:34.000Z</time>
      </trkpt>
      <trkpt lat="47.32835" lon="-2.31316">
        <ele>-1.6000000238419</ele>
        <time>2022-05-05T07:58:41.000Z</time>
      </trkpt>
      <trkpt lat="47.32889" lon="-2.31296">
        <ele>-1.6000000238419</ele>
        <time>2022-05-05T07:58:50.000Z</time>
      </trkpt>
      <trkpt lat="47.32922" lon="-2.31284">
        <ele>-1.6000000238419</ele>
        <time>2022-05-05T07:58:56.000Z</time>
      </trkpt>
      <trkpt lat="47.32927" lon="-2.31279">
        <ele>-1.6000000238419</ele>
        <time>2022-05-05T07:58:57.000Z</time>
      </trkpt>
      <trkpt lat="47.32934" lon="-2.31266">
        <ele>-1.6000000238419</ele>
        <time>2022-05-05T07:58:59.000Z</time>
      </trkpt>
      <trkpt lat="47.32933" lon="-2.31239">
        <ele>-1.6000000238419</ele>
        <time>2022-05-05T07:59:02.000Z</time>
      </trkpt>
      <trkpt lat="47.32927" lon="-2.3122">
        <ele>-1.6000000238419</ele>
        <time>2022-05-05T07:59:04.000Z</time>
      </trkpt>
      <trkpt lat="47.32922" lon="-2.31201">
        <ele>-1.6000000238419</ele>
        <time>2022-05-05T07:59:06.000Z</time>
      </trkpt>
      <trkpt lat="47.32919" lon="-2.31191">
        <ele>-1.6000000238419</ele>
        <time>2022-05-05T07:59:07.000Z</time>
      </trkpt>
      <trkpt lat="47.32901" lon="-2.31121">
        <ele>-1.6000000238419</ele>
        <time>2022-05-05T07:59:14.000Z</time>
      </trkpt>
      <trkpt lat="47.3289" lon="-2.31052">
        <ele>-1.6000000238419</ele>
        <time>2022-05-05T07:59:21.000Z</time>
      </trkpt>
      <trkpt lat="47.32893" lon="-2.30988">
        <ele>-1.6000000238419</ele>
        <time>2022-05-05T07:59:28.000Z</time>
      </trkpt>
      <trkpt lat="47.32902" lon="-2.30908">
        <ele>-1.6000000238419</ele>
        <time>2022-05-05T07:59:37.000Z</time>
      </trkpt>
      <trkpt lat="47.32905" lon="-2.30856">
        <ele>-1.6000000238419</ele>
        <time>2022-05-05T07:59:43.000Z</time>
      </trkpt>
      <trkpt lat="47.32913" lon="-2.30816">
        <ele>-1.6000000238419</ele>
        <time>2022-05-05T07:59:48.000Z</time>
      </trkpt>
      <trkpt lat="47.32917" lon="-2.3081">
        <ele>-1.6000000238419</ele>
        <time>2022-05-05T07:59:49.000Z</time>
      </trkpt>
      <trkpt lat="47.32935" lon="-2.30808">
        <ele>-1.6000000238419</ele>
        <time>2022-05-05T07:59:52.000Z</time>
      </trkpt>
      <trkpt lat="47.32941" lon="-2.30809">
        <ele>-1.6000000238419</ele>
        <time>2022-05-05T07:59:53.000Z</time>
      </trkpt>
      <trkpt lat="47.32979" lon="-2.30808">
        <ele>-1.6000000238419</ele>
        <time>2022-05-05T07:59:59.000Z</time>
      </trkpt>
      <trkpt lat="47.33023" lon="-2.30811">
        <ele>-1.6000000238419</ele>
        <time>2022-05-05T08:00:06.000Z</time>
      </trkpt>
      <trkpt lat="47.33036" lon="-2.3081">
        <ele>-2</ele>
        <time>2022-05-05T08:00:08.000Z</time>
      </trkpt>
      <trkpt lat="47.33043" lon="-2.30808">
        <ele>-2.5999999046326</ele>
        <time>2022-05-05T08:00:09.000Z</time>
      </trkpt>
      <trkpt lat="47.33048" lon="-2.30805">
        <ele>-3</ele>
        <time>2022-05-05T08:00:10.000Z</time>
      </trkpt>
      <trkpt lat="47.33053" lon="-2.30798">
        <ele>-3.4000000953674</ele>
        <time>2022-05-05T08:00:11.000Z</time>
      </trkpt>
      <trkpt lat="47.33057" lon="-2.3079">
        <ele>-3.7999999523163</ele>
        <time>2022-05-05T08:00:12.000Z</time>
      </trkpt>
      <trkpt lat="47.33061" lon="-2.30772">
        <ele>-3.7999999523163</ele>
        <time>2022-05-05T08:00:14.000Z</time>
      </trkpt>
      <trkpt lat="47.33064" lon="-2.30754">
        <ele>-3.7999999523163</ele>
        <time>2022-05-05T08:00:16.000Z</time>
      </trkpt>
      <trkpt lat="47.33066" lon="-2.30737">
        <ele>-3.7999999523163</ele>
        <time>2022-05-05T08:00:18.000Z</time>
      </trkpt>
      <trkpt lat="47.33075" lon="-2.30692">
        <ele>-3.7999999523163</ele>
        <time>2022-05-05T08:00:23.000Z</time>
      </trkpt>
      <trkpt lat="47.33082" lon="-2.30638">
        <ele>-3.7999999523163</ele>
        <time>2022-05-05T08:00:29.000Z</time>
      </trkpt>
      <trkpt lat="47.33088" lon="-2.30606">
        <ele>-3.7999999523163</ele>
        <time>2022-05-05T08:00:33.000Z</time>
      </trkpt>
      <trkpt lat="47.33091" lon="-2.30591">
        <ele>-3.7999999523163</ele>
        <time>2022-05-05T08:00:35.000Z</time>
      </trkpt>
      <trkpt lat="47.33093" lon="-2.30583">
        <ele>-3.7999999523163</ele>
        <time>2022-05-05T08:00:36.000Z</time>
      </trkpt>
      <trkpt lat="47.33102" lon="-2.3057">
        <ele>-3.7999999523163</ele>
        <time>2022-05-05T08:00:39.000Z</time>
      </trkpt>
      <trkpt lat="47.3311" lon="-2.30565">
        <ele>-3.7999999523163</ele>
        <time>2022-05-05T08:00:41.000Z</time>
      </trkpt>
      <trkpt lat="47.33125" lon="-2.30556">
        <ele>-3.7999999523163</ele>
        <time>2022-05-05T08:00:44.000Z</time>
      </trkpt>
      <trkpt lat="47.33159" lon="-2.30542">
        <ele>-3.7999999523163</ele>
        <time>2022-05-05T08:00:50.000Z</time>
      </trkpt>
      <trkpt lat="47.33196" lon="-2.30532">
        <ele>-3.7999999523163</ele>
        <time>2022-05-05T08:00:56.000Z</time>
      </trkpt>
      <trkpt lat="47.33231" lon="-2.3052">
        <ele>-3.7999999523163</ele>
        <time>2022-05-05T08:01:02.000Z</time>
      </trkpt>
      <trkpt lat="47.33274" lon="-2.30509">
        <ele>-3.7999999523163</ele>
        <time>2022-05-05T08:01:09.000Z</time>
      </trkpt>
      <trkpt lat="47.33307" lon="-2.30501">
        <ele>-3.7999999523163</ele>
        <time>2022-05-05T08:01:15.000Z</time>
      </trkpt>
      <trkpt lat="47.33312" lon="-2.30499">
        <ele>-3.7999999523163</ele>
        <time>2022-05-05T08:01:16.000Z</time>
      </trkpt>
      <trkpt lat="47.33318" lon="-2.30499">
        <ele>-4.1999998092651</ele>
        <time>2022-05-05T08:01:17.000Z</time>
      </trkpt>
      <trkpt lat="47.33322" lon="-2.30499">
        <ele>-4.5999999046326</ele>
        <time>2022-05-05T08:01:18.000Z</time>
      </trkpt>
      <trkpt lat="47.33326" lon="-2.30499">
        <ele>-5</ele>
        <time>2022-05-05T08:01:19.000Z</time>
      </trkpt>
      <trkpt lat="47.33328" lon="-2.30499">
        <ele>-5.4000000953674</ele>
        <time>2022-05-05T08:01:20.000Z</time>
      </trkpt>
      <trkpt lat="47.3333" lon="-2.30499">
        <ele>-5.8000001907349</ele>
        <time>2022-05-05T08:01:21.000Z</time>
      </trkpt>
      <trkpt lat="47.33331" lon="-2.305">
        <ele>-5.8000001907349</ele>
        <time>2022-05-05T08:01:22.000Z</time>
      </trkpt>
      <trkpt lat="47.33333" lon="-2.305">
        <ele>-5.8000001907349</ele>
        <time>2022-05-05T08:01:24.000Z</time>
      </trkpt>
      <trkpt lat="47.33338" lon="-2.305">
        <ele>-5.8000001907349</ele>
        <time>2022-05-05T08:01:30.000Z</time>
      </trkpt>
      <trkpt lat="47.33343" lon="-2.30491">
        <ele>-5.8000001907349</ele>
        <time>2022-05-05T08:01:34.000Z</time>
      </trkpt>
      <trkpt lat="47.33347" lon="-2.30475">
        <ele>-5.8000001907349</ele>
        <time>2022-05-05T08:01:39.000Z</time>
      </trkpt>
      <trkpt lat="47.33347" lon="-2.3047">
        <ele>-5.8000001907349</ele>
        <time>2022-05-05T08:01:44.000Z</time>
      </trkpt>
      <trkpt lat="47.33347" lon="-2.3047">
        <ele>-5.8000001907349</ele>
        <time>2022-05-05T08:01:45.000Z</time>
      </trkpt>
      <trkpt lat="47.33349" lon="-2.30465">
        <ele>-5.8000001907349</ele>
        <time>2022-05-05T08:01:54.000Z</time>
      </trkpt>
      <trkpt lat="47.33349" lon="-2.30459">
        <ele>-5.8000001907349</ele>
        <time>2022-05-05T08:01:56.000Z</time>
      </trkpt>
      <trkpt lat="47.33351" lon="-2.30436">
        <ele>-5.8000001907349</ele>
        <time>2022-05-05T08:02:01.000Z</time>
      </trkpt>
      <trkpt lat="47.33358" lon="-2.30408">
        <ele>-5.8000001907349</ele>
        <time>2022-05-05T08:02:06.000Z</time>
      </trkpt>
      <trkpt lat="47.33373" lon="-2.30398">
        <ele>-5.8000001907349</ele>
        <time>2022-05-05T08:02:11.000Z</time>
      </trkpt>
      <trkpt lat="47.33386" lon="-2.30381">
        <ele>-5.8000001907349</ele>
        <time>2022-05-05T08:02:16.000Z</time>
      </trkpt>
      <trkpt lat="47.33385" lon="-2.30377">
        <ele>-5.8000001907349</ele>
        <time>2022-05-05T08:02:17.000Z</time>
      </trkpt>
      <trkpt lat="47.33389" lon="-2.30365">
        <ele>-5.8000001907349</ele>
        <time>2022-05-05T08:02:20.000Z</time>
      </trkpt>
      <trkpt lat="47.33392" lon="-2.30346">
        <ele>-5.8000001907349</ele>
        <time>2022-05-05T08:02:24.000Z</time>
      </trkpt>
      <trkpt lat="47.33392" lon="-2.30314">
        <ele>-5.8000001907349</ele>
        <time>2022-05-05T08:02:30.000Z</time>
      </trkpt>
      <trkpt lat="47.33392" lon="-2.30274">
        <ele>-5.8000001907349</ele>
        <time>2022-05-05T08:02:37.000Z</time>
      </trkpt>
      <trkpt lat="47.334" lon="-2.30234">
        <ele>-5.8000001907349</ele>
        <time>2022-05-05T08:02:44.000Z</time>
      </trkpt>
      <trkpt lat="47.33403" lon="-2.30222">
        <ele>-5.8000001907349</ele>
        <time>2022-05-05T08:02:46.000Z</time>
      </trkpt>
      <trkpt lat="47.33411" lon="-2.30199">
        <ele>-5.8000001907349</ele>
        <time>2022-05-05T08:02:50.000Z</time>
      </trkpt>
      <trkpt lat="47.33421" lon="-2.30172">
        <ele>-5.8000001907349</ele>
        <time>2022-05-05T08:02:55.000Z</time>
      </trkpt>
      <trkpt lat="47.33427" lon="-2.30163">
        <ele>-5.8000001907349</ele>
        <time>2022-05-05T08:02:57.000Z</time>
      </trkpt>
      <trkpt lat="47.3343" lon="-2.30159">
        <ele>-5.8000001907349</ele>
        <time>2022-05-05T08:02:58.000Z</time>
      </trkpt>
      <trkpt lat="47.33441" lon="-2.3014">
        <ele>-5.8000001907349</ele>
        <time>2022-05-05T08:03:02.000Z</time>
      </trkpt>
      <trkpt lat="47.33446" lon="-2.3012">
        <ele>-5.8000001907349</ele>
        <time>2022-05-05T08:03:07.000Z</time>
      </trkpt>
      <trkpt lat="47.33454" lon="-2.30099">
        <ele>-5.8000001907349</ele>
        <time>2022-05-05T08:03:12.000Z</time>
      </trkpt>
      <trkpt lat="47.33461" lon="-2.30077">
        <ele>-5.8000001907349</ele>
        <time>2022-05-05T08:03:16.000Z</time>
      </trkpt>
      <trkpt lat="47.33465" lon="-2.30064">
        <ele>-5.8000001907349</ele>
        <time>2022-05-05T08:03:18.000Z</time>
      </trkpt>
      <trkpt lat="47.33467" lon="-2.30052">
        <ele>-5.8000001907349</ele>
        <time>2022-05-05T08:03:20.000Z</time>
      </trkpt>
      <trkpt lat="47.33472" lon="-2.30037">
        <ele>-5.8000001907349</ele>
        <time>2022-05-05T08:03:23.000Z</time>
      </trkpt>
      <trkpt lat="47.33481" lon="-2.30011">
        <ele>-5.8000001907349</ele>
        <time>2022-05-05T08:03:28.000Z</time>
      </trkpt>
      <trkpt lat="47.33492" lon="-2.30001">
        <ele>-5.8000001907349</ele>
        <time>2022-05-05T08:03:32.000Z</time>
      </trkpt>
      <trkpt lat="47.33514" lon="-2.30002">
        <ele>-5.8000001907349</ele>
        <time>2022-05-05T08:03:37.000Z</time>
      </trkpt>
      <trkpt lat="47.33523" lon="-2.30004">
        <ele>-5.8000001907349</ele>
        <time>2022-05-05T08:03:39.000Z</time>
      </trkpt>
      <trkpt lat="47.33543" lon="-2.30007">
        <ele>-5.8000001907349</ele>
        <time>2022-05-05T08:03:43.000Z</time>
      </trkpt>
      <trkpt lat="47.33548" lon="-2.30008">
        <ele>-5.8000001907349</ele>
        <time>2022-05-05T08:03:44.000Z</time>
      </trkpt>
      <trkpt lat="47.33563" lon="-2.30006">
        <ele>-5.8000001907349</ele>
        <time>2022-05-05T08:03:47.000Z</time>
      </trkpt>
      <trkpt lat="47.3358" lon="-2.29991">
        <ele>-5.8000001907349</ele>
        <time>2022-05-05T08:03:51.000Z</time>
      </trkpt>
      <trkpt lat="47.33603" lon="-2.29962">
        <ele>-5.8000001907349</ele>
        <time>2022-05-05T08:03:57.000Z</time>
      </trkpt>
      <trkpt lat="47.33616" lon="-2.29948">
        <ele>-5.8000001907349</ele>
        <time>2022-05-05T08:04:00.000Z</time>
      </trkpt>
      <trkpt lat="47.33629" lon="-2.29931">
        <ele>-5.8000001907349</ele>
        <time>2022-05-05T08:04:03.000Z</time>
      </trkpt>
      <trkpt lat="47.33648" lon="-2.29901">
        <ele>-5.8000001907349</ele>
        <time>2022-05-05T08:04:08.000Z</time>
      </trkpt>
      <trkpt lat="47.3365" lon="-2.29893">
        <ele>-5.8000001907349</ele>
        <time>2022-05-05T08:04:09.000Z</time>
      </trkpt>
      <trkpt lat="47.33644" lon="-2.29863">
        <ele>-5.8000001907349</ele>
        <time>2022-05-05T08:04:13.000Z</time>
      </trkpt>
      <trkpt lat="47.33642" lon="-2.29856">
        <ele>-5.8000001907349</ele>
        <time>2022-05-05T08:04:14.000Z</time>
      </trkpt>
      <trkpt lat="47.33636" lon="-2.29836">
        <ele>-5.8000001907349</ele>
        <time>2022-05-05T08:04:17.000Z</time>
      </trkpt>
      <trkpt lat="47.33637" lon="-2.29822">
        <ele>-5.8000001907349</ele>
        <time>2022-05-05T08:04:19.000Z</time>
      </trkpt>
      <trkpt lat="47.33649" lon="-2.29811">
        <ele>-5.8000001907349</ele>
        <time>2022-05-05T08:04:22.000Z</time>
      </trkpt>
      <trkpt lat="47.33654" lon="-2.29808">
        <ele>-5.8000001907349</ele>
        <time>2022-05-05T08:04:23.000Z</time>
      </trkpt>
      <trkpt lat="47.3368" lon="-2.29796">
        <ele>-5.8000001907349</ele>
        <time>2022-05-05T08:04:28.000Z</time>
      </trkpt>
      <trkpt lat="47.33685" lon="-2.29795">
        <ele>-5.8000001907349</ele>
        <time>2022-05-05T08:04:29.000Z</time>
      </trkpt>
      <trkpt lat="47.33695" lon="-2.29797">
        <ele>-5.8000001907349</ele>
        <time>2022-05-05T08:04:31.000Z</time>
      </trkpt>
      <trkpt lat="47.3373" lon="-2.29803">
        <ele>-5.8000001907349</ele>
        <time>2022-05-05T08:04:38.000Z</time>
      </trkpt>
      <trkpt lat="47.33763" lon="-2.2981">
        <ele>-5.8000001907349</ele>
        <time>2022-05-05T08:04:44.000Z</time>
      </trkpt>
      <trkpt lat="47.33792" lon="-2.29817">
        <ele>-5.8000001907349</ele>
        <time>2022-05-05T08:04:49.000Z</time>
      </trkpt>
      <trkpt lat="47.33814" lon="-2.29813">
        <ele>-5.8000001907349</ele>
        <time>2022-05-05T08:04:53.000Z</time>
      </trkpt>
      <trkpt lat="47.3382" lon="-2.29811">
        <ele>-5.8000001907349</ele>
        <time>2022-05-05T08:04:54.000Z</time>
      </trkpt>
      <trkpt lat="47.3385" lon="-2.29795">
        <ele>-5.8000001907349</ele>
        <time>2022-05-05T08:05:00.000Z</time>
      </trkpt>
      <trkpt lat="47.33855" lon="-2.29791">
        <ele>-5.8000001907349</ele>
        <time>2022-05-05T08:05:01.000Z</time>
      </trkpt>
      <trkpt lat="47.33864" lon="-2.29785">
        <ele>-5.8000001907349</ele>
        <time>2022-05-05T08:05:03.000Z</time>
      </trkpt>
      <trkpt lat="47.33872" lon="-2.29774">
        <ele>-5.8000001907349</ele>
        <time>2022-05-05T08:05:05.000Z</time>
      </trkpt>
      <trkpt lat="47.3388" lon="-2.29752">
        <ele>-5.8000001907349</ele>
        <time>2022-05-05T08:05:08.000Z</time>
      </trkpt>
      <trkpt lat="47.33885" lon="-2.29737">
        <ele>-5.8000001907349</ele>
        <time>2022-05-05T08:05:10.000Z</time>
      </trkpt>
      <trkpt lat="47.339" lon="-2.29685">
        <ele>-5.8000001907349</ele>
        <time>2022-05-05T08:05:17.000Z</time>
      </trkpt>
      <trkpt lat="47.3391" lon="-2.29648">
        <ele>-5.8000001907349</ele>
        <time>2022-05-05T08:05:22.000Z</time>
      </trkpt>
      <trkpt lat="47.33911" lon="-2.2964">
        <ele>-5.8000001907349</ele>
        <time>2022-05-05T08:05:23.000Z</time>
      </trkpt>
      <trkpt lat="47.33915" lon="-2.29602">
        <ele>-5.8000001907349</ele>
        <time>2022-05-05T08:05:28.000Z</time>
      </trkpt>
      <trkpt lat="47.33916" lon="-2.29595">
        <ele>-5.8000001907349</ele>
        <time>2022-05-05T08:05:29.000Z</time>
      </trkpt>
      <trkpt lat="47.33916" lon="-2.29568">
        <ele>-5.8000001907349</ele>
        <time>2022-05-05T08:05:34.000Z</time>
      </trkpt>
      <trkpt lat="47.33916" lon="-2.29554">
        <ele>-5.8000001907349</ele>
        <time>2022-05-05T08:05:39.000Z</time>
      </trkpt>
      <trkpt lat="47.33917" lon="-2.29553">
        <ele>-5.8000001907349</ele>
        <time>2022-05-05T08:05:40.000Z</time>
      </trkpt>
      <trkpt lat="47.33919" lon="-2.29538">
        <ele>-5.8000001907349</ele>
        <time>2022-05-05T08:09:55.000Z</time>
      </trkpt>
      <trkpt lat="47.33919" lon="-2.29536">
        <ele>-5.8000001907349</ele>
        <time>2022-05-05T08:09:56.000Z</time>
      </trkpt>
      <trkpt lat="47.3392" lon="-2.29528">
        <ele>-5.8000001907349</ele>
        <time>2022-05-05T08:10:00.000Z</time>
      </trkpt>
      <trkpt lat="47.33921" lon="-2.29518">
        <ele>-5.8000001907349</ele>
        <time>2022-05-05T08:10:19.000Z</time>
      </trkpt>
      <trkpt lat="47.33921" lon="-2.29501">
        <ele>-5.8000001907349</ele>
        <time>2022-05-05T08:10:24.000Z</time>
      </trkpt>
      <trkpt lat="47.33922" lon="-2.29497">
        <ele>-5.8000001907349</ele>
        <time>2022-05-05T08:10:25.000Z</time>
      </trkpt>
      <trkpt lat="47.33933" lon="-2.29481">
        <ele>-5.8000001907349</ele>
        <time>2022-05-05T08:10:29.000Z</time>
      </trkpt>
      <trkpt lat="47.33947" lon="-2.29458">
        <ele>-5.8000001907349</ele>
        <time>2022-05-05T08:10:34.000Z</time>
      </trkpt>
      <trkpt lat="47.33949" lon="-2.29452">
        <ele>-5.8000001907349</ele>
        <time>2022-05-05T08:10:35.000Z</time>
      </trkpt>
      <trkpt lat="47.33948" lon="-2.29434">
        <ele>-5.8000001907349</ele>
        <time>2022-05-05T08:10:38.000Z</time>
      </trkpt>
      <trkpt lat="47.33938" lon="-2.29422">
        <ele>-5.8000001907349</ele>
        <time>2022-05-05T08:10:41.000Z</time>
      </trkpt>
      <trkpt lat="47.33903" lon="-2.29385">
        <ele>-5.8000001907349</ele>
        <time>2022-05-05T08:10:50.000Z</time>
      </trkpt>
      <trkpt lat="47.33891" lon="-2.29374">
        <ele>-5.4000000953674</ele>
        <time>2022-05-05T08:10:53.000Z</time>
      </trkpt>
      <trkpt lat="47.33887" lon="-2.2937">
        <ele>-5</ele>
        <time>2022-05-05T08:10:54.000Z</time>
      </trkpt>
      <trkpt lat="47.33883" lon="-2.29366">
        <ele>-4.5999999046326</ele>
        <time>2022-05-05T08:10:55.000Z</time>
      </trkpt>
      <trkpt lat="47.33879" lon="-2.29362">
        <ele>-4.1999998092651</ele>
        <time>2022-05-05T08:10:56.000Z</time>
      </trkpt>
      <trkpt lat="47.33875" lon="-2.29358">
        <ele>-3.7999999523163</ele>
        <time>2022-05-05T08:10:57.000Z</time>
      </trkpt>
      <trkpt lat="47.33871" lon="-2.29354">
        <ele>-3.7999999523163</ele>
        <time>2022-05-05T08:10:58.000Z</time>
      </trkpt>
      <trkpt lat="47.33835" lon="-2.29324">
        <ele>-3.7999999523163</ele>
        <time>2022-05-05T08:11:06.000Z</time>
      </trkpt>
      <trkpt lat="47.33808" lon="-2.29301">
        <ele>-3.7999999523163</ele>
        <time>2022-05-05T08:11:12.000Z</time>
      </trkpt>
      <trkpt lat="47.33805" lon="-2.29285">
        <ele>-3.7999999523163</ele>
        <time>2022-05-05T08:11:15.000Z</time>
      </trkpt>
      <trkpt lat="47.33814" lon="-2.29271">
        <ele>-3.7999999523163</ele>
        <time>2022-05-05T08:11:18.000Z</time>
      </trkpt>
      <trkpt lat="47.33818" lon="-2.29268">
        <ele>-3.7999999523163</ele>
        <time>2022-05-05T08:11:19.000Z</time>
      </trkpt>
      <trkpt lat="47.33847" lon="-2.2925">
        <ele>-3.7999999523163</ele>
        <time>2022-05-05T08:11:25.000Z</time>
      </trkpt>
      <trkpt lat="47.33891" lon="-2.29235">
        <ele>-3.7999999523163</ele>
        <time>2022-05-05T08:11:33.000Z</time>
      </trkpt>
      <trkpt lat="47.33902" lon="-2.29233">
        <ele>-3.7999999523163</ele>
        <time>2022-05-05T08:11:35.000Z</time>
      </trkpt>
      <trkpt lat="47.33924" lon="-2.2923">
        <ele>-3.7999999523163</ele>
        <time>2022-05-05T08:11:39.000Z</time>
      </trkpt>
      <trkpt lat="47.33964" lon="-2.29223">
        <ele>-3.7999999523163</ele>
        <time>2022-05-05T08:11:46.000Z</time>
      </trkpt>
      <trkpt lat="47.34" lon="-2.29214">
        <ele>-3.7999999523163</ele>
        <time>2022-05-05T08:11:52.000Z</time>
      </trkpt>
      <trkpt lat="47.34033" lon="-2.29198">
        <ele>-3.7999999523163</ele>
        <time>2022-05-05T08:11:58.000Z</time>
      </trkpt>
      <trkpt lat="47.3405" lon="-2.29188">
        <ele>-3.7999999523163</ele>
        <time>2022-05-05T08:12:01.000Z</time>
      </trkpt>
      <trkpt lat="47.34071" lon="-2.2917">
        <ele>-3.7999999523163</ele>
        <time>2022-05-05T08:12:05.000Z</time>
      </trkpt>
      <trkpt lat="47.34108" lon="-2.29136">
        <ele>-3.7999999523163</ele>
        <time>2022-05-05T08:12:12.000Z</time>
      </trkpt>
      <trkpt lat="47.34113" lon="-2.29132">
        <ele>-3.7999999523163</ele>
        <time>2022-05-05T08:12:13.000Z</time>
      </trkpt>
      <trkpt lat="47.34137" lon="-2.29118">
        <ele>-3.7999999523163</ele>
        <time>2022-05-05T08:12:17.000Z</time>
      </trkpt>
      <trkpt lat="47.34148" lon="-2.2911">
        <ele>-3.7999999523163</ele>
        <time>2022-05-05T08:12:19.000Z</time>
      </trkpt>
      <trkpt lat="47.34159" lon="-2.29101">
        <ele>-3.7999999523163</ele>
        <time>2022-05-05T08:12:21.000Z</time>
      </trkpt>
      <trkpt lat="47.34165" lon="-2.29098">
        <ele>-3.7999999523163</ele>
        <time>2022-05-05T08:12:22.000Z</time>
      </trkpt>
      <trkpt lat="47.34171" lon="-2.29095">
        <ele>-3.7999999523163</ele>
        <time>2022-05-05T08:12:23.000Z</time>
      </trkpt>
      <trkpt lat="47.34201" lon="-2.29082">
        <ele>-3.7999999523163</ele>
        <time>2022-05-05T08:12:28.000Z</time>
      </trkpt>
      <trkpt lat="47.34251" lon="-2.29072">
        <ele>-3.7999999523163</ele>
        <time>2022-05-05T08:12:36.000Z</time>
      </trkpt>
      <trkpt lat="47.34298" lon="-2.29067">
        <ele>-3.7999999523163</ele>
        <time>2022-05-05T08:12:44.000Z</time>
      </trkpt>
      <trkpt lat="47.34313" lon="-2.29066">
        <ele>-3.7999999523163</ele>
        <time>2022-05-05T08:12:47.000Z</time>
      </trkpt>
      <trkpt lat="47.34316" lon="-2.29062">
        <ele>-3.7999999523163</ele>
        <time>2022-05-05T08:12:48.000Z</time>
      </trkpt>
      <trkpt lat="47.34315" lon="-2.29045">
        <ele>-3.7999999523163</ele>
        <time>2022-05-05T08:12:51.000Z</time>
      </trkpt>
      <trkpt lat="47.34313" lon="-2.29038">
        <ele>-3.7999999523163</ele>
        <time>2022-05-05T08:12:52.000Z</time>
      </trkpt>
      <trkpt lat="47.34303" lon="-2.28998">
        <ele>-3.7999999523163</ele>
        <time>2022-05-05T08:12:57.000Z</time>
      </trkpt>
      <trkpt lat="47.3429" lon="-2.28944">
        <ele>-3.7999999523163</ele>
        <time>2022-05-05T08:13:03.000Z</time>
      </trkpt>
      <trkpt lat="47.34274" lon="-2.28887">
        <ele>-3.7999999523163</ele>
        <time>2022-05-05T08:13:09.000Z</time>
      </trkpt>
      <trkpt lat="47.34255" lon="-2.28833">
        <ele>-4.1999998092651</ele>
        <time>2022-05-05T08:13:16.000Z</time>
      </trkpt>
      <trkpt lat="47.3425" lon="-2.28832">
        <ele>-4.5999999046326</ele>
        <time>2022-05-05T08:13:17.000Z</time>
      </trkpt>
      <trkpt lat="47.34246" lon="-2.28833">
        <ele>-5</ele>
        <time>2022-05-05T08:13:18.000Z</time>
      </trkpt>
      <trkpt lat="47.34241" lon="-2.28835">
        <ele>-5.4000000953674</ele>
        <time>2022-05-05T08:13:19.000Z</time>
      </trkpt>
      <trkpt lat="47.34237" lon="-2.28838">
        <ele>-5.8000001907349</ele>
        <time>2022-05-05T08:13:20.000Z</time>
      </trkpt>
      <trkpt lat="47.34226" lon="-2.28846">
        <ele>-5.8000001907349</ele>
        <time>2022-05-05T08:13:22.000Z</time>
      </trkpt>
      <trkpt lat="47.3422" lon="-2.28851">
        <ele>-5.8000001907349</ele>
        <time>2022-05-05T08:13:23.000Z</time>
      </trkpt>
      <trkpt lat="47.34188" lon="-2.28878">
        <ele>-5.8000001907349</ele>
        <time>2022-05-05T08:13:29.000Z</time>
      </trkpt>
      <trkpt lat="47.34184" lon="-2.28877">
        <ele>-5.8000001907349</ele>
        <time>2022-05-05T08:13:30.000Z</time>
      </trkpt>
      <trkpt lat="47.34176" lon="-2.28863">
        <ele>-5.8000001907349</ele>
        <time>2022-05-05T08:13:33.000Z</time>
      </trkpt>
      <trkpt lat="47.34176" lon="-2.28844">
        <ele>-5.8000001907349</ele>
        <time>2022-05-05T08:13:36.000Z</time>
      </trkpt>
      <trkpt lat="47.34177" lon="-2.28836">
        <ele>-5.8000001907349</ele>
        <time>2022-05-05T08:13:37.000Z</time>
      </trkpt>
      <trkpt lat="47.34175" lon="-2.28792">
        <ele>-5.8000001907349</ele>
        <time>2022-05-05T08:13:42.000Z</time>
      </trkpt>
      <trkpt lat="47.34174" lon="-2.28728">
        <ele>-5.8000001907349</ele>
        <time>2022-05-05T08:13:49.000Z</time>
      </trkpt>
      <trkpt lat="47.34172" lon="-2.28712">
        <ele>-5.8000001907349</ele>
        <time>2022-05-05T08:13:51.000Z</time>
      </trkpt>
      <trkpt lat="47.34168" lon="-2.28699">
        <ele>-5.8000001907349</ele>
        <time>2022-05-05T08:13:53.000Z</time>
      </trkpt>
      <trkpt lat="47.34155" lon="-2.28692">
        <ele>-5.8000001907349</ele>
        <time>2022-05-05T08:13:56.000Z</time>
      </trkpt>
      <trkpt lat="47.34149" lon="-2.28691">
        <ele>-5.8000001907349</ele>
        <time>2022-05-05T08:13:57.000Z</time>
      </trkpt>
      <trkpt lat="47.34137" lon="-2.28693">
        <ele>-5.8000001907349</ele>
        <time>2022-05-05T08:13:59.000Z</time>
      </trkpt>
      <trkpt lat="47.34125" lon="-2.28696">
        <ele>-5.8000001907349</ele>
        <time>2022-05-05T08:14:01.000Z</time>
      </trkpt>
      <trkpt lat="47.34119" lon="-2.287">
        <ele>-5.8000001907349</ele>
        <time>2022-05-05T08:14:02.000Z</time>
      </trkpt>
      <trkpt lat="47.3411" lon="-2.28711">
        <ele>-5.8000001907349</ele>
        <time>2022-05-05T08:14:04.000Z</time>
      </trkpt>
      <trkpt lat="47.34094" lon="-2.28734">
        <ele>-5.8000001907349</ele>
        <time>2022-05-05T08:14:08.000Z</time>
      </trkpt>
      <trkpt lat="47.34078" lon="-2.28732">
        <ele>-5.8000001907349</ele>
        <time>2022-05-05T08:14:11.000Z</time>
      </trkpt>
      <trkpt lat="47.34072" lon="-2.2873">
        <ele>-5.8000001907349</ele>
        <time>2022-05-05T08:14:12.000Z</time>
      </trkpt>
      <trkpt lat="47.34037" lon="-2.28716">
        <ele>-5.8000001907349</ele>
        <time>2022-05-05T08:14:18.000Z</time>
      </trkpt>
      <trkpt lat="47.34007" lon="-2.28703">
        <ele>-5.8000001907349</ele>
        <time>2022-05-05T08:14:24.000Z</time>
      </trkpt>
      <trkpt lat="47.34004" lon="-2.28699">
        <ele>-5.8000001907349</ele>
        <time>2022-05-05T08:14:25.000Z</time>
      </trkpt>
      <trkpt lat="47.34" lon="-2.28687">
        <ele>-5.8000001907349</ele>
        <time>2022-05-05T08:14:27.000Z</time>
      </trkpt>
      <trkpt lat="47.33992" lon="-2.28658">
        <ele>-5.8000001907349</ele>
        <time>2022-05-05T08:14:32.000Z</time>
      </trkpt>
      <trkpt lat="47.33992" lon="-2.2864">
        <ele>-5.8000001907349</ele>
        <time>2022-05-05T08:14:36.000Z</time>
      </trkpt>
      <trkpt lat="47.34003" lon="-2.28637">
        <ele>-5.8000001907349</ele>
        <time>2022-05-05T08:14:40.000Z</time>
      </trkpt>
      <trkpt lat="47.34005" lon="-2.28637">
        <ele>-5.8000001907349</ele>
        <time>2022-05-05T08:14:41.000Z</time>
      </trkpt>
      <trkpt lat="47.34007" lon="-2.28637">
        <ele>-5.8000001907349</ele>
        <time>2022-05-05T08:14:44.000Z</time>
      </trkpt>
      <trkpt lat="47.34001" lon="-2.28635">
        <ele>-8</ele>
        <time>2022-05-05T08:31:05.000Z</time>
      </trkpt>
      <trkpt lat="47.33997" lon="-2.28638">
        <ele>-8</ele>
        <time>2022-05-05T08:31:08.000Z</time>
      </trkpt>
      <trkpt lat="47.33987" lon="-2.2864">
        <ele>-8</ele>
        <time>2022-05-05T08:31:13.000Z</time>
      </trkpt>
      <trkpt lat="47.33975" lon="-2.28632">
        <ele>-8</ele>
        <time>2022-05-05T08:31:18.000Z</time>
      </trkpt>
      <trkpt lat="47.33965" lon="-2.28616">
        <ele>-8</ele>
        <time>2022-05-05T08:31:23.000Z</time>
      </trkpt>
      <trkpt lat="47.33951" lon="-2.28596">
        <ele>-8</ele>
        <time>2022-05-05T08:31:29.000Z</time>
      </trkpt>
      <trkpt lat="47.33934" lon="-2.28575">
        <ele>-8</ele>
        <time>2022-05-05T08:31:35.000Z</time>
      </trkpt>
      <trkpt lat="47.33915" lon="-2.28551">
        <ele>-8</ele>
        <time>2022-05-05T08:31:41.000Z</time>
      </trkpt>
      <trkpt lat="47.33892" lon="-2.28523">
        <ele>-8</ele>
        <time>2022-05-05T08:31:48.000Z</time>
      </trkpt>
      <trkpt lat="47.33863" lon="-2.28487">
        <ele>-8</ele>
        <time>2022-05-05T08:31:56.000Z</time>
      </trkpt>
      <trkpt lat="47.33843" lon="-2.28464">
        <ele>-8</ele>
        <time>2022-05-05T08:32:02.000Z</time>
      </trkpt>
      <trkpt lat="47.3383" lon="-2.28458">
        <ele>-8</ele>
        <time>2022-05-05T08:32:05.000Z</time>
      </trkpt>
      <trkpt lat="47.33825" lon="-2.2846">
        <ele>-8</ele>
        <time>2022-05-05T08:32:06.000Z</time>
      </trkpt>
      <trkpt lat="47.33811" lon="-2.28468">
        <ele>-8</ele>
        <time>2022-05-05T08:32:09.000Z</time>
      </trkpt>
      <trkpt lat="47.33807" lon="-2.28471">
        <ele>-8</ele>
        <time>2022-05-05T08:32:10.000Z</time>
      </trkpt>
      <trkpt lat="47.33786" lon="-2.28488">
        <ele>-8</ele>
        <time>2022-05-05T08:32:15.000Z</time>
      </trkpt>
      <trkpt lat="47.33778" lon="-2.28493">
        <ele>-8</ele>
        <time>2022-05-05T08:32:17.000Z</time>
      </trkpt>
      <trkpt lat="47.33743" lon="-2.28523">
        <ele>-8</ele>
        <time>2022-05-05T08:32:25.000Z</time>
      </trkpt>
      <trkpt lat="47.33732" lon="-2.28535">
        <ele>-8</ele>
        <time>2022-05-05T08:32:28.000Z</time>
      </trkpt>
      <trkpt lat="47.33723" lon="-2.28542">
        <ele>-8</ele>
        <time>2022-05-05T08:32:30.000Z</time>
      </trkpt>
      <trkpt lat="47.33702" lon="-2.28561">
        <ele>-8</ele>
        <time>2022-05-05T08:32:35.000Z</time>
      </trkpt>
      <trkpt lat="47.33694" lon="-2.2857">
        <ele>-8</ele>
        <time>2022-05-05T08:32:37.000Z</time>
      </trkpt>
      <trkpt lat="47.33686" lon="-2.28579">
        <ele>-8</ele>
        <time>2022-05-05T08:32:39.000Z</time>
      </trkpt>
      <trkpt lat="47.33669" lon="-2.28599">
        <ele>-8</ele>
        <time>2022-05-05T08:32:43.000Z</time>
      </trkpt>
      <trkpt lat="47.33633" lon="-2.28634">
        <ele>-8</ele>
        <time>2022-05-05T08:32:51.000Z</time>
      </trkpt>
      <trkpt lat="47.33598" lon="-2.28654">
        <ele>-8</ele>
        <time>2022-05-05T08:32:58.000Z</time>
      </trkpt>
      <trkpt lat="47.33559" lon="-2.28675">
        <ele>-8</ele>
        <time>2022-05-05T08:33:06.000Z</time>
      </trkpt>
      <trkpt lat="47.33525" lon="-2.28691">
        <ele>-8</ele>
        <time>2022-05-05T08:33:13.000Z</time>
      </trkpt>
      <trkpt lat="47.3352" lon="-2.28695">
        <ele>-8</ele>
        <time>2022-05-05T08:33:14.000Z</time>
      </trkpt>
      <trkpt lat="47.33506" lon="-2.28706">
        <ele>-8</ele>
        <time>2022-05-05T08:33:17.000Z</time>
      </trkpt>
      <trkpt lat="47.33502" lon="-2.28711">
        <ele>-7.5999999046326</ele>
        <time>2022-05-05T08:33:18.000Z</time>
      </trkpt>
      <trkpt lat="47.33498" lon="-2.28715">
        <ele>-7.1999998092651</ele>
        <time>2022-05-05T08:33:19.000Z</time>
      </trkpt>
      <trkpt lat="47.33495" lon="-2.2872">
        <ele>-6.8000001907349</ele>
        <time>2022-05-05T08:33:20.000Z</time>
      </trkpt>
      <trkpt lat="47.33492" lon="-2.28725">
        <ele>-6.4000000953674</ele>
        <time>2022-05-05T08:33:21.000Z</time>
      </trkpt>
      <trkpt lat="47.33489" lon="-2.2873">
        <ele>-6</ele>
        <time>2022-05-05T08:33:22.000Z</time>
      </trkpt>
      <trkpt lat="47.33486" lon="-2.28735">
        <ele>-6</ele>
        <time>2022-05-05T08:33:23.000Z</time>
      </trkpt>
      <trkpt lat="47.33483" lon="-2.28741">
        <ele>-6</ele>
        <time>2022-05-05T08:33:24.000Z</time>
      </trkpt>
      <trkpt lat="47.33468" lon="-2.28773">
        <ele>-6</ele>
        <time>2022-05-05T08:33:29.000Z</time>
      </trkpt>
      <trkpt lat="47.33441" lon="-2.28828">
        <ele>-6</ele>
        <time>2022-05-05T08:33:38.000Z</time>
      </trkpt>
      <trkpt lat="47.33432" lon="-2.28843">
        <ele>-6</ele>
        <time>2022-05-05T08:33:41.000Z</time>
      </trkpt>
      <trkpt lat="47.33422" lon="-2.28853">
        <ele>-6</ele>
        <time>2022-05-05T08:33:43.000Z</time>
      </trkpt>
      <trkpt lat="47.33393" lon="-2.28873">
        <ele>-6</ele>
        <time>2022-05-05T08:33:49.000Z</time>
      </trkpt>
      <trkpt lat="47.33376" lon="-2.2888">
        <ele>-5.4000000953674</ele>
        <time>2022-05-05T08:33:52.000Z</time>
      </trkpt>
      <trkpt lat="47.33371" lon="-2.28883">
        <ele>-5</ele>
        <time>2022-05-05T08:33:53.000Z</time>
      </trkpt>
      <trkpt lat="47.33365" lon="-2.28886">
        <ele>-4.5999999046326</ele>
        <time>2022-05-05T08:33:54.000Z</time>
      </trkpt>
      <trkpt lat="47.33361" lon="-2.28888">
        <ele>-4.1999998092651</ele>
        <time>2022-05-05T08:33:55.000Z</time>
      </trkpt>
      <trkpt lat="47.33355" lon="-2.2889">
        <ele>-3.7999999523163</ele>
        <time>2022-05-05T08:33:56.000Z</time>
      </trkpt>
      <trkpt lat="47.3333" lon="-2.28903">
        <ele>-3.7999999523163</ele>
        <time>2022-05-05T08:34:01.000Z</time>
      </trkpt>
      <trkpt lat="47.33294" lon="-2.28926">
        <ele>-3.7999999523163</ele>
        <time>2022-05-05T08:34:08.000Z</time>
      </trkpt>
      <trkpt lat="47.33286" lon="-2.28931">
        <ele>-3.7999999523163</ele>
        <time>2022-05-05T08:34:10.000Z</time>
      </trkpt>
      <trkpt lat="47.33263" lon="-2.28948">
        <ele>-3.7999999523163</ele>
        <time>2022-05-05T08:34:15.000Z</time>
      </trkpt>
      <trkpt lat="47.33251" lon="-2.2896">
        <ele>-3.7999999523163</ele>
        <time>2022-05-05T08:34:18.000Z</time>
      </trkpt>
      <trkpt lat="47.33246" lon="-2.28974">
        <ele>-3.7999999523163</ele>
        <time>2022-05-05T08:34:20.000Z</time>
      </trkpt>
      <trkpt lat="47.33241" lon="-2.28995">
        <ele>-3.7999999523163</ele>
        <time>2022-05-05T08:34:23.000Z</time>
      </trkpt>
      <trkpt lat="47.33239" lon="-2.29017">
        <ele>-3.4000000953674</ele>
        <time>2022-05-05T08:34:26.000Z</time>
      </trkpt>
      <trkpt lat="47.33239" lon="-2.29025">
        <ele>-3</ele>
        <time>2022-05-05T08:34:27.000Z</time>
      </trkpt>
      <trkpt lat="47.33238" lon="-2.29032">
        <ele>-2.5999999046326</ele>
        <time>2022-05-05T08:34:28.000Z</time>
      </trkpt>
      <trkpt lat="47.33238" lon="-2.29039">
        <ele>-2.2000000476837</ele>
        <time>2022-05-05T08:34:29.000Z</time>
      </trkpt>
      <trkpt lat="47.33238" lon="-2.29046">
        <ele>-1.7999999523163</ele>
        <time>2022-05-05T08:34:30.000Z</time>
      </trkpt>
      <trkpt lat="47.33236" lon="-2.29059">
        <ele>-1.7999999523163</ele>
        <time>2022-05-05T08:34:32.000Z</time>
      </trkpt>
      <trkpt lat="47.33234" lon="-2.29064">
        <ele>-1.7999999523163</ele>
        <time>2022-05-05T08:34:33.000Z</time>
      </trkpt>
      <trkpt lat="47.33223" lon="-2.29069">
        <ele>-1.7999999523163</ele>
        <time>2022-05-05T08:34:36.000Z</time>
      </trkpt>
      <trkpt lat="47.33217" lon="-2.29066">
        <ele>-1.7999999523163</ele>
        <time>2022-05-05T08:34:38.000Z</time>
      </trkpt>
      <trkpt lat="47.33203" lon="-2.29061">
        <ele>-1.7999999523163</ele>
        <time>2022-05-05T08:34:42.000Z</time>
      </trkpt>
      <trkpt lat="47.33179" lon="-2.2906">
        <ele>-1.7999999523163</ele>
        <time>2022-05-05T08:34:48.000Z</time>
      </trkpt>
      <trkpt lat="47.33148" lon="-2.29058">
        <ele>-1.7999999523163</ele>
        <time>2022-05-05T08:34:54.000Z</time>
      </trkpt>
      <trkpt lat="47.33133" lon="-2.29061">
        <ele>-1.7999999523163</ele>
        <time>2022-05-05T08:34:57.000Z</time>
      </trkpt>
      <trkpt lat="47.33123" lon="-2.29064">
        <ele>-1.3999999761581</ele>
        <time>2022-05-05T08:34:59.000Z</time>
      </trkpt>
      <trkpt lat="47.33118" lon="-2.29065">
        <ele>-1</ele>
        <time>2022-05-05T08:35:00.000Z</time>
      </trkpt>
      <trkpt lat="47.33112" lon="-2.29066">
        <ele>-0.60000002384186</ele>
        <time>2022-05-05T08:35:01.000Z</time>
      </trkpt>
      <trkpt lat="47.33107" lon="-2.29067">
        <ele>-0.20000000298023</ele>
        <time>2022-05-05T08:35:02.000Z</time>
      </trkpt>
      <trkpt lat="47.33102" lon="-2.29068">
        <ele>0.20000000298023</ele>
        <time>2022-05-05T08:35:03.000Z</time>
      </trkpt>
      <trkpt lat="47.33097" lon="-2.29067">
        <ele>0.20000000298023</ele>
        <time>2022-05-05T08:35:04.000Z</time>
      </trkpt>
      <trkpt lat="47.33094" lon="-2.2906">
        <ele>0.20000000298023</ele>
        <time>2022-05-05T08:35:05.000Z</time>
      </trkpt>
      <trkpt lat="47.33088" lon="-2.29039">
        <ele>0.20000000298023</ele>
        <time>2022-05-05T08:35:08.000Z</time>
      </trkpt>
      <trkpt lat="47.33094" lon="-2.29019">
        <ele>0.20000000298023</ele>
        <time>2022-05-05T08:35:11.000Z</time>
      </trkpt>
      <trkpt lat="47.33097" lon="-2.29011">
        <ele>0.20000000298023</ele>
        <time>2022-05-05T08:35:12.000Z</time>
      </trkpt>
      <trkpt lat="47.33103" lon="-2.28987">
        <ele>0.20000000298023</ele>
        <time>2022-05-05T08:35:15.000Z</time>
      </trkpt>
      <trkpt lat="47.33111" lon="-2.28949">
        <ele>0.20000000298023</ele>
        <time>2022-05-05T08:35:20.000Z</time>
      </trkpt>
      <trkpt lat="47.33112" lon="-2.28942">
        <ele>0.20000000298023</ele>
        <time>2022-05-05T08:35:21.000Z</time>
      </trkpt>
      <trkpt lat="47.33115" lon="-2.28904">
        <ele>0.20000000298023</ele>
        <time>2022-05-05T08:35:26.000Z</time>
      </trkpt>
      <trkpt lat="47.33115" lon="-2.28887">
        <ele>0.20000000298023</ele>
        <time>2022-05-05T08:35:28.000Z</time>
      </trkpt>
      <trkpt lat="47.3311" lon="-2.28865">
        <ele>0.20000000298023</ele>
        <time>2022-05-05T08:35:31.000Z</time>
      </trkpt>
      <trkpt lat="47.33102" lon="-2.28843">
        <ele>0.20000000298023</ele>
        <time>2022-05-05T08:35:34.000Z</time>
      </trkpt>
      <trkpt lat="47.33097" lon="-2.28828">
        <ele>0.20000000298023</ele>
        <time>2022-05-05T08:35:36.000Z</time>
      </trkpt>
      <trkpt lat="47.33089" lon="-2.28821">
        <ele>0.20000000298023</ele>
        <time>2022-05-05T08:35:38.000Z</time>
      </trkpt>
      <trkpt lat="47.33079" lon="-2.28825">
        <ele>0.20000000298023</ele>
        <time>2022-05-05T08:35:40.000Z</time>
      </trkpt>
      <trkpt lat="47.33068" lon="-2.28829">
        <ele>0.20000000298023</ele>
        <time>2022-05-05T08:35:42.000Z</time>
      </trkpt>
      <trkpt lat="47.33022" lon="-2.28855">
        <ele>0.20000000298023</ele>
        <time>2022-05-05T08:35:51.000Z</time>
      </trkpt>
      <trkpt lat="47.32985" lon="-2.2888">
        <ele>0.20000000298023</ele>
        <time>2022-05-05T08:35:58.000Z</time>
      </trkpt>
      <trkpt lat="47.32948" lon="-2.2891">
        <ele>0.20000000298023</ele>
        <time>2022-05-05T08:36:05.000Z</time>
      </trkpt>
      <trkpt lat="47.32921" lon="-2.28933">
        <ele>0.20000000298023</ele>
        <time>2022-05-05T08:36:10.000Z</time>
      </trkpt>
      <trkpt lat="47.32915" lon="-2.28936">
        <ele>0.20000000298023</ele>
        <time>2022-05-05T08:36:11.000Z</time>
      </trkpt>
      <trkpt lat="47.32909" lon="-2.28938">
        <ele>-0.20000000298023</ele>
        <time>2022-05-05T08:36:12.000Z</time>
      </trkpt>
      <trkpt lat="47.32903" lon="-2.2894">
        <ele>-0.60000002384186</ele>
        <time>2022-05-05T08:36:13.000Z</time>
      </trkpt>
      <trkpt lat="47.32897" lon="-2.2894">
        <ele>-1</ele>
        <time>2022-05-05T08:36:14.000Z</time>
      </trkpt>
      <trkpt lat="47.32891" lon="-2.2894">
        <ele>-1.3999999761581</ele>
        <time>2022-05-05T08:36:15.000Z</time>
      </trkpt>
      <trkpt lat="47.32885" lon="-2.2894">
        <ele>-1.7999999523163</ele>
        <time>2022-05-05T08:36:16.000Z</time>
      </trkpt>
      <trkpt lat="47.32871" lon="-2.28939">
        <ele>-1.7999999523163</ele>
        <time>2022-05-05T08:36:18.000Z</time>
      </trkpt>
      <trkpt lat="47.32858" lon="-2.28944">
        <ele>-1.7999999523163</ele>
        <time>2022-05-05T08:36:20.000Z</time>
      </trkpt>
      <trkpt lat="47.32846" lon="-2.28953">
        <ele>-1.7999999523163</ele>
        <time>2022-05-05T08:36:22.000Z</time>
      </trkpt>
      <trkpt lat="47.32822" lon="-2.28974">
        <ele>-1.7999999523163</ele>
        <time>2022-05-05T08:36:26.000Z</time>
      </trkpt>
      <trkpt lat="47.3281" lon="-2.28983">
        <ele>-2.2000000476837</ele>
        <time>2022-05-05T08:36:28.000Z</time>
      </trkpt>
      <trkpt lat="47.32805" lon="-2.28987">
        <ele>-3</ele>
        <time>2022-05-05T08:36:29.000Z</time>
      </trkpt>
      <trkpt lat="47.32799" lon="-2.28991">
        <ele>-3.5999999046326</ele>
        <time>2022-05-05T08:36:30.000Z</time>
      </trkpt>
      <trkpt lat="47.32793" lon="-2.28995">
        <ele>-4</ele>
        <time>2022-05-05T08:36:31.000Z</time>
      </trkpt>
      <trkpt lat="47.32772" lon="-2.29008">
        <ele>-4</ele>
        <time>2022-05-05T08:36:35.000Z</time>
      </trkpt>
      <trkpt lat="47.32768" lon="-2.29007">
        <ele>-4</ele>
        <time>2022-05-05T08:36:36.000Z</time>
      </trkpt>
      <trkpt lat="47.32762" lon="-2.28991">
        <ele>-4</ele>
        <time>2022-05-05T08:36:39.000Z</time>
      </trkpt>
      <trkpt lat="47.32764" lon="-2.2896">
        <ele>-4</ele>
        <time>2022-05-05T08:36:43.000Z</time>
      </trkpt>
      <trkpt lat="47.32764" lon="-2.28952">
        <ele>-4</ele>
        <time>2022-05-05T08:36:44.000Z</time>
      </trkpt>
      <trkpt lat="47.32773" lon="-2.28884">
        <ele>-4</ele>
        <time>2022-05-05T08:36:52.000Z</time>
      </trkpt>
      <trkpt lat="47.32785" lon="-2.28836">
        <ele>-4</ele>
        <time>2022-05-05T08:36:58.000Z</time>
      </trkpt>
      <trkpt lat="47.32792" lon="-2.2881">
        <ele>-4</ele>
        <time>2022-05-05T08:37:01.000Z</time>
      </trkpt>
      <trkpt lat="47.32795" lon="-2.28791">
        <ele>-4</ele>
        <time>2022-05-05T08:37:03.000Z</time>
      </trkpt>
      <trkpt lat="47.32796" lon="-2.28782">
        <ele>-4</ele>
        <time>2022-05-05T08:37:04.000Z</time>
      </trkpt>
      <trkpt lat="47.32794" lon="-2.28755">
        <ele>-4</ele>
        <time>2022-05-05T08:37:07.000Z</time>
      </trkpt>
      <trkpt lat="47.32785" lon="-2.28689">
        <ele>-4</ele>
        <time>2022-05-05T08:37:14.000Z</time>
      </trkpt>
      <trkpt lat="47.32782" lon="-2.28679">
        <ele>-4</ele>
        <time>2022-05-05T08:37:15.000Z</time>
      </trkpt>
      <trkpt lat="47.32772" lon="-2.28654">
        <ele>-4</ele>
        <time>2022-05-05T08:37:18.000Z</time>
      </trkpt>
      <trkpt lat="47.32767" lon="-2.28645">
        <ele>-4</ele>
        <time>2022-05-05T08:37:19.000Z</time>
      </trkpt>
      <trkpt lat="47.32741" lon="-2.28594">
        <ele>-4</ele>
        <time>2022-05-05T08:37:25.000Z</time>
      </trkpt>
      <trkpt lat="47.3273" lon="-2.28565">
        <ele>-4</ele>
        <time>2022-05-05T08:37:28.000Z</time>
      </trkpt>
      <trkpt lat="47.32726" lon="-2.28544">
        <ele>-4</ele>
        <time>2022-05-05T08:37:30.000Z</time>
      </trkpt>
      <trkpt lat="47.32719" lon="-2.2848">
        <ele>-4</ele>
        <time>2022-05-05T08:37:36.000Z</time>
      </trkpt>
      <trkpt lat="47.32713" lon="-2.284">
        <ele>-4</ele>
        <time>2022-05-05T08:37:43.000Z</time>
      </trkpt>
      <trkpt lat="47.32712" lon="-2.28389">
        <ele>-4.4000000953674</ele>
        <time>2022-05-05T08:37:44.000Z</time>
      </trkpt>
      <trkpt lat="47.32711" lon="-2.28378">
        <ele>-4.8000001907349</ele>
        <time>2022-05-05T08:37:45.000Z</time>
      </trkpt>
      <trkpt lat="47.3271" lon="-2.28367">
        <ele>-5.1999998092651</ele>
        <time>2022-05-05T08:37:46.000Z</time>
      </trkpt>
      <trkpt lat="47.32709" lon="-2.28357">
        <ele>-5.5999999046326</ele>
        <time>2022-05-05T08:37:47.000Z</time>
      </trkpt>
      <trkpt lat="47.32708" lon="-2.28347">
        <ele>-6</ele>
        <time>2022-05-05T08:37:48.000Z</time>
      </trkpt>
      <trkpt lat="47.32706" lon="-2.28328">
        <ele>-6</ele>
        <time>2022-05-05T08:37:50.000Z</time>
      </trkpt>
      <trkpt lat="47.32705" lon="-2.28321">
        <ele>-6</ele>
        <time>2022-05-05T08:37:51.000Z</time>
      </trkpt>
      <trkpt lat="47.32698" lon="-2.28314">
        <ele>-6</ele>
        <time>2022-05-05T08:37:53.000Z</time>
      </trkpt>
      <trkpt lat="47.32684" lon="-2.28319">
        <ele>-6</ele>
        <time>2022-05-05T08:37:56.000Z</time>
      </trkpt>
      <trkpt lat="47.32679" lon="-2.28322">
        <ele>-6</ele>
        <time>2022-05-05T08:37:57.000Z</time>
      </trkpt>
      <trkpt lat="47.32673" lon="-2.28326">
        <ele>-6</ele>
        <time>2022-05-05T08:37:58.000Z</time>
      </trkpt>
      <trkpt lat="47.32662" lon="-2.28336">
        <ele>-6</ele>
        <time>2022-05-05T08:38:00.000Z</time>
      </trkpt>
      <trkpt lat="47.32651" lon="-2.28344">
        <ele>-6</ele>
        <time>2022-05-05T08:38:02.000Z</time>
      </trkpt>
      <trkpt lat="47.32638" lon="-2.28346">
        <ele>-6</ele>
        <time>2022-05-05T08:38:04.000Z</time>
      </trkpt>
      <trkpt lat="47.32623" lon="-2.28335">
        <ele>-6</ele>
        <time>2022-05-05T08:38:07.000Z</time>
      </trkpt>
      <trkpt lat="47.32619" lon="-2.28329">
        <ele>-6</ele>
        <time>2022-05-05T08:38:08.000Z</time>
      </trkpt>
      <trkpt lat="47.32616" lon="-2.28322">
        <ele>-6</ele>
        <time>2022-05-05T08:38:09.000Z</time>
      </trkpt>
      <trkpt lat="47.3261" lon="-2.28302">
        <ele>-6.5999999046326</ele>
        <time>2022-05-05T08:38:11.000Z</time>
      </trkpt>
      <trkpt lat="47.32608" lon="-2.28291">
        <ele>-7</ele>
        <time>2022-05-05T08:38:12.000Z</time>
      </trkpt>
      <trkpt lat="47.32606" lon="-2.28281">
        <ele>-7.4000000953674</ele>
        <time>2022-05-05T08:38:13.000Z</time>
      </trkpt>
      <trkpt lat="47.32604" lon="-2.28271">
        <ele>-7.8000001907349</ele>
        <time>2022-05-05T08:38:14.000Z</time>
      </trkpt>
      <trkpt lat="47.32602" lon="-2.28261">
        <ele>-8.1999998092651</ele>
        <time>2022-05-05T08:38:15.000Z</time>
      </trkpt>
      <trkpt lat="47.32597" lon="-2.28232">
        <ele>-8.1999998092651</ele>
        <time>2022-05-05T08:38:18.000Z</time>
      </trkpt>
      <trkpt lat="47.32585" lon="-2.2817">
        <ele>-8.1999998092651</ele>
        <time>2022-05-05T08:38:25.000Z</time>
      </trkpt>
      <trkpt lat="47.32567" lon="-2.28086">
        <ele>-8.1999998092651</ele>
        <time>2022-05-05T08:38:34.000Z</time>
      </trkpt>
      <trkpt lat="47.32565" lon="-2.28076">
        <ele>-8.1999998092651</ele>
        <time>2022-05-05T08:38:35.000Z</time>
      </trkpt>
      <trkpt lat="47.32549" lon="-2.27994">
        <ele>-8.1999998092651</ele>
        <time>2022-05-05T08:38:44.000Z</time>
      </trkpt>
      <trkpt lat="47.32534" lon="-2.27923">
        <ele>-8.1999998092651</ele>
        <time>2022-05-05T08:38:52.000Z</time>
      </trkpt>
      <trkpt lat="47.3252" lon="-2.27861">
        <ele>-8.1999998092651</ele>
        <time>2022-05-05T08:39:00.000Z</time>
      </trkpt>
      <trkpt lat="47.32517" lon="-2.27854">
        <ele>-8.1999998092651</ele>
        <time>2022-05-05T08:39:01.000Z</time>
      </trkpt>
      <trkpt lat="47.32504" lon="-2.27838">
        <ele>-8.1999998092651</ele>
        <time>2022-05-05T08:39:04.000Z</time>
      </trkpt>
      <trkpt lat="47.32481" lon="-2.27831">
        <ele>-8.1999998092651</ele>
        <time>2022-05-05T08:39:08.000Z</time>
      </trkpt>
      <trkpt lat="47.32438" lon="-2.27834">
        <ele>-8.1999998092651</ele>
        <time>2022-05-05T08:39:15.000Z</time>
      </trkpt>
      <trkpt lat="47.32394" lon="-2.27837">
        <ele>-8.1999998092651</ele>
        <time>2022-05-05T08:39:22.000Z</time>
      </trkpt>
      <trkpt lat="47.32359" lon="-2.2784">
        <ele>-8.1999998092651</ele>
        <time>2022-05-05T08:39:28.000Z</time>
      </trkpt>
      <trkpt lat="47.32323" lon="-2.27841">
        <ele>-8.1999998092651</ele>
        <time>2022-05-05T08:39:35.000Z</time>
      </trkpt>
      <trkpt lat="47.3232" lon="-2.27839">
        <ele>-8.1999998092651</ele>
        <time>2022-05-05T08:39:36.000Z</time>
      </trkpt>
      <trkpt lat="47.32316" lon="-2.27832">
        <ele>-8.1999998092651</ele>
        <time>2022-05-05T08:39:38.000Z</time>
      </trkpt>
      <trkpt lat="47.32318" lon="-2.27822">
        <ele>-8.1999998092651</ele>
        <time>2022-05-05T08:39:41.000Z</time>
      </trkpt>
      <trkpt lat="47.32324" lon="-2.27809">
        <ele>-8.1999998092651</ele>
        <time>2022-05-05T08:39:44.000Z</time>
      </trkpt>
      <trkpt lat="47.32328" lon="-2.27798">
        <ele>-8.1999998092651</ele>
        <time>2022-05-05T08:39:46.000Z</time>
      </trkpt>
      <trkpt lat="47.3233" lon="-2.27787">
        <ele>-8.1999998092651</ele>
        <time>2022-05-05T08:39:48.000Z</time>
      </trkpt>
      <trkpt lat="47.32336" lon="-2.2776">
        <ele>-8.1999998092651</ele>
        <time>2022-05-05T08:39:52.000Z</time>
      </trkpt>
      <trkpt lat="47.32345" lon="-2.277">
        <ele>-8.1999998092651</ele>
        <time>2022-05-05T08:39:59.000Z</time>
      </trkpt>
      <trkpt lat="47.3235" lon="-2.2767">
        <ele>-8.1999998092651</ele>
        <time>2022-05-05T08:40:03.000Z</time>
      </trkpt>
      <trkpt lat="47.32357" lon="-2.27627">
        <ele>-8.1999998092651</ele>
        <time>2022-05-05T08:40:09.000Z</time>
      </trkpt>
      <trkpt lat="47.32365" lon="-2.27566">
        <ele>-8.1999998092651</ele>
        <time>2022-05-05T08:40:16.000Z</time>
      </trkpt>
      <trkpt lat="47.32359" lon="-2.27528">
        <ele>-8.1999998092651</ele>
        <time>2022-05-05T08:40:20.000Z</time>
      </trkpt>
      <trkpt lat="47.32356" lon="-2.2752">
        <ele>-8.1999998092651</ele>
        <time>2022-05-05T08:40:21.000Z</time>
      </trkpt>
      <trkpt lat="47.32347" lon="-2.27512">
        <ele>-8.1999998092651</ele>
        <time>2022-05-05T08:40:23.000Z</time>
      </trkpt>
      <trkpt lat="47.32336" lon="-2.27511">
        <ele>-8.1999998092651</ele>
        <time>2022-05-05T08:40:25.000Z</time>
      </trkpt>
      <trkpt lat="47.3233" lon="-2.2751">
        <ele>-8.1999998092651</ele>
        <time>2022-05-05T08:40:26.000Z</time>
      </trkpt>
      <trkpt lat="47.32324" lon="-2.27509">
        <ele>-8.1999998092651</ele>
        <time>2022-05-05T08:40:27.000Z</time>
      </trkpt>
      <trkpt lat="47.32288" lon="-2.27504">
        <ele>-8.1999998092651</ele>
        <time>2022-05-05T08:40:33.000Z</time>
      </trkpt>
      <trkpt lat="47.3226" lon="-2.27503">
        <ele>-8.1999998092651</ele>
        <time>2022-05-05T08:40:38.000Z</time>
      </trkpt>
      <trkpt lat="47.32255" lon="-2.27504">
        <ele>-8.1999998092651</ele>
        <time>2022-05-05T08:40:39.000Z</time>
      </trkpt>
      <trkpt lat="47.32243" lon="-2.27498">
        <ele>-8.1999998092651</ele>
        <time>2022-05-05T08:40:42.000Z</time>
      </trkpt>
      <trkpt lat="47.32241" lon="-2.27477">
        <ele>-8.1999998092651</ele>
        <time>2022-05-05T08:40:45.000Z</time>
      </trkpt>
      <trkpt lat="47.32241" lon="-2.27469">
        <ele>-8.1999998092651</ele>
        <time>2022-05-05T08:40:46.000Z</time>
      </trkpt>
      <trkpt lat="47.32246" lon="-2.27428">
        <ele>-8.1999998092651</ele>
        <time>2022-05-05T08:40:51.000Z</time>
      </trkpt>
      <trkpt lat="47.32249" lon="-2.27394">
        <ele>-8.1999998092651</ele>
        <time>2022-05-05T08:40:55.000Z</time>
      </trkpt>
      <trkpt lat="47.32248" lon="-2.27376">
        <ele>-8.1999998092651</ele>
        <time>2022-05-05T08:40:57.000Z</time>
      </trkpt>
      <trkpt lat="47.32248" lon="-2.27333">
        <ele>-8.1999998092651</ele>
        <time>2022-05-05T08:41:02.000Z</time>
      </trkpt>
      <trkpt lat="47.32249" lon="-2.27325">
        <ele>-7.8000001907349</ele>
        <time>2022-05-05T08:41:03.000Z</time>
      </trkpt>
      <trkpt lat="47.32252" lon="-2.27318">
        <ele>-7.4000000953674</ele>
        <time>2022-05-05T08:41:04.000Z</time>
      </trkpt>
      <trkpt lat="47.32256" lon="-2.27311">
        <ele>-7</ele>
        <time>2022-05-05T08:41:05.000Z</time>
      </trkpt>
      <trkpt lat="47.32261" lon="-2.27306">
        <ele>-6.5999999046326</ele>
        <time>2022-05-05T08:41:06.000Z</time>
      </trkpt>
      <trkpt lat="47.32266" lon="-2.27301">
        <ele>-6.1999998092651</ele>
        <time>2022-05-05T08:41:07.000Z</time>
      </trkpt>
      <trkpt lat="47.32278" lon="-2.27294">
        <ele>-6.1999998092651</ele>
        <time>2022-05-05T08:41:09.000Z</time>
      </trkpt>
      <trkpt lat="47.32284" lon="-2.27292">
        <ele>-6.1999998092651</ele>
        <time>2022-05-05T08:41:10.000Z</time>
      </trkpt>
      <trkpt lat="47.32315" lon="-2.27275">
        <ele>-6.1999998092651</ele>
        <time>2022-05-05T08:41:15.000Z</time>
      </trkpt>
      <trkpt lat="47.32349" lon="-2.27247">
        <ele>-6.1999998092651</ele>
        <time>2022-05-05T08:41:22.000Z</time>
      </trkpt>
      <trkpt lat="47.32356" lon="-2.27236">
        <ele>-6.1999998092651</ele>
        <time>2022-05-05T08:41:24.000Z</time>
      </trkpt>
      <trkpt lat="47.32359" lon="-2.2723">
        <ele>-5.8000001907349</ele>
        <time>2022-05-05T08:41:25.000Z</time>
      </trkpt>
      <trkpt lat="47.32362" lon="-2.27224">
        <ele>-5.4000000953674</ele>
        <time>2022-05-05T08:41:26.000Z</time>
      </trkpt>
      <trkpt lat="47.32365" lon="-2.27217">
        <ele>-5</ele>
        <time>2022-05-05T08:41:27.000Z</time>
      </trkpt>
      <trkpt lat="47.32368" lon="-2.27209">
        <ele>-4.5999999046326</ele>
        <time>2022-05-05T08:41:28.000Z</time>
      </trkpt>
      <trkpt lat="47.3237" lon="-2.27202">
        <ele>-4.1999998092651</ele>
        <time>2022-05-05T08:41:29.000Z</time>
      </trkpt>
      <trkpt lat="47.32381" lon="-2.27162">
        <ele>-4.1999998092651</ele>
        <time>2022-05-05T08:41:34.000Z</time>
      </trkpt>
      <trkpt lat="47.32384" lon="-2.27124">
        <ele>-4.1999998092651</ele>
        <time>2022-05-05T08:41:38.000Z</time>
      </trkpt>
      <trkpt lat="47.32382" lon="-2.2708">
        <ele>-4.1999998092651</ele>
        <time>2022-05-05T08:41:43.000Z</time>
      </trkpt>
      <trkpt lat="47.3238" lon="-2.2704">
        <ele>-4.1999998092651</ele>
        <time>2022-05-05T08:41:48.000Z</time>
      </trkpt>
      <trkpt lat="47.32384" lon="-2.27028">
        <ele>-4.1999998092651</ele>
        <time>2022-05-05T08:41:50.000Z</time>
      </trkpt>
      <trkpt lat="47.32399" lon="-2.27021">
        <ele>-4.1999998092651</ele>
        <time>2022-05-05T08:41:53.000Z</time>
      </trkpt>
      <trkpt lat="47.3241" lon="-2.27022">
        <ele>-4.1999998092651</ele>
        <time>2022-05-05T08:41:55.000Z</time>
      </trkpt>
      <trkpt lat="47.32427" lon="-2.27024">
        <ele>-4.1999998092651</ele>
        <time>2022-05-05T08:41:58.000Z</time>
      </trkpt>
      <trkpt lat="47.32439" lon="-2.27023">
        <ele>-4.1999998092651</ele>
        <time>2022-05-05T08:42:00.000Z</time>
      </trkpt>
      <trkpt lat="47.32445" lon="-2.2702">
        <ele>-4.5999999046326</ele>
        <time>2022-05-05T08:42:01.000Z</time>
      </trkpt>
      <trkpt lat="47.32449" lon="-2.27014">
        <ele>-5</ele>
        <time>2022-05-05T08:42:02.000Z</time>
      </trkpt>
      <trkpt lat="47.32451" lon="-2.27005">
        <ele>-5.5999999046326</ele>
        <time>2022-05-05T08:42:03.000Z</time>
      </trkpt>
      <trkpt lat="47.32452" lon="-2.26997">
        <ele>-6</ele>
        <time>2022-05-05T08:42:04.000Z</time>
      </trkpt>
      <trkpt lat="47.32451" lon="-2.26988">
        <ele>-6.4000000953674</ele>
        <time>2022-05-05T08:42:05.000Z</time>
      </trkpt>
      <trkpt lat="47.3245" lon="-2.26979">
        <ele>-6.4000000953674</ele>
        <time>2022-05-05T08:42:06.000Z</time>
      </trkpt>
      <trkpt lat="47.32446" lon="-2.26955">
        <ele>-6.4000000953674</ele>
        <time>2022-05-05T08:42:09.000Z</time>
      </trkpt>
      <trkpt lat="47.32433" lon="-2.26896">
        <ele>-6.4000000953674</ele>
        <time>2022-05-05T08:42:16.000Z</time>
      </trkpt>
      <trkpt lat="47.32426" lon="-2.26842">
        <ele>-6.4000000953674</ele>
        <time>2022-05-05T08:42:22.000Z</time>
      </trkpt>
      <trkpt lat="47.32422" lon="-2.26792">
        <ele>-6.4000000953674</ele>
        <time>2022-05-05T08:42:27.000Z</time>
      </trkpt>
      <trkpt lat="47.32421" lon="-2.26782">
        <ele>-6.4000000953674</ele>
        <time>2022-05-05T08:42:28.000Z</time>
      </trkpt>
      <trkpt lat="47.32419" lon="-2.26728">
        <ele>-6.4000000953674</ele>
        <time>2022-05-05T08:42:34.000Z</time>
      </trkpt>
      <trkpt lat="47.32417" lon="-2.26692">
        <ele>-6.4000000953674</ele>
        <time>2022-05-05T08:42:38.000Z</time>
      </trkpt>
      <trkpt lat="47.32415" lon="-2.26683">
        <ele>-6.4000000953674</ele>
        <time>2022-05-05T08:42:39.000Z</time>
      </trkpt>
      <trkpt lat="47.32411" lon="-2.26664">
        <ele>-6.4000000953674</ele>
        <time>2022-05-05T08:42:41.000Z</time>
      </trkpt>
      <trkpt lat="47.32403" lon="-2.26636">
        <ele>-6.4000000953674</ele>
        <time>2022-05-05T08:42:44.000Z</time>
      </trkpt>
      <trkpt lat="47.32386" lon="-2.26576">
        <ele>-6.4000000953674</ele>
        <time>2022-05-05T08:42:51.000Z</time>
      </trkpt>
      <trkpt lat="47.3238" lon="-2.2655">
        <ele>-6.4000000953674</ele>
        <time>2022-05-05T08:42:54.000Z</time>
      </trkpt>
      <trkpt lat="47.32377" lon="-2.26542">
        <ele>-6.4000000953674</ele>
        <time>2022-05-05T08:42:55.000Z</time>
      </trkpt>
      <trkpt lat="47.32361" lon="-2.26533">
        <ele>-6.4000000953674</ele>
        <time>2022-05-05T08:42:58.000Z</time>
      </trkpt>
      <trkpt lat="47.32339" lon="-2.26546">
        <ele>-6.4000000953674</ele>
        <time>2022-05-05T08:43:02.000Z</time>
      </trkpt>
      <trkpt lat="47.32333" lon="-2.2655">
        <ele>-6.4000000953674</ele>
        <time>2022-05-05T08:43:03.000Z</time>
      </trkpt>
      <trkpt lat="47.32328" lon="-2.26555">
        <ele>-6.4000000953674</ele>
        <time>2022-05-05T08:43:04.000Z</time>
      </trkpt>
      <trkpt lat="47.32313" lon="-2.26571">
        <ele>-6.4000000953674</ele>
        <time>2022-05-05T08:43:07.000Z</time>
      </trkpt>
      <trkpt lat="47.32289" lon="-2.266">
        <ele>-6.4000000953674</ele>
        <time>2022-05-05T08:43:12.000Z</time>
      </trkpt>
      <trkpt lat="47.32284" lon="-2.26604">
        <ele>-6.4000000953674</ele>
        <time>2022-05-05T08:43:13.000Z</time>
      </trkpt>
      <trkpt lat="47.32259" lon="-2.2661">
        <ele>-6.4000000953674</ele>
        <time>2022-05-05T08:43:17.000Z</time>
      </trkpt>
      <trkpt lat="47.32247" lon="-2.2661">
        <ele>-6.4000000953674</ele>
        <time>2022-05-05T08:43:19.000Z</time>
      </trkpt>
      <trkpt lat="47.32224" lon="-2.26612">
        <ele>-6.4000000953674</ele>
        <time>2022-05-05T08:43:23.000Z</time>
      </trkpt>
      <trkpt lat="47.32181" lon="-2.26614">
        <ele>-6.4000000953674</ele>
        <time>2022-05-05T08:43:30.000Z</time>
      </trkpt>
      <trkpt lat="47.32156" lon="-2.26611">
        <ele>-6</ele>
        <time>2022-05-05T08:43:34.000Z</time>
      </trkpt>
      <trkpt lat="47.3215" lon="-2.2661">
        <ele>-5.5999999046326</ele>
        <time>2022-05-05T08:43:35.000Z</time>
      </trkpt>
      <trkpt lat="47.32144" lon="-2.26608">
        <ele>-5.1999998092651</ele>
        <time>2022-05-05T08:43:36.000Z</time>
      </trkpt>
      <trkpt lat="47.32138" lon="-2.26606">
        <ele>-4.8000001907349</ele>
        <time>2022-05-05T08:43:37.000Z</time>
      </trkpt>
      <trkpt lat="47.32131" lon="-2.26604">
        <ele>-4.4000000953674</ele>
        <time>2022-05-05T08:43:38.000Z</time>
      </trkpt>
      <trkpt lat="47.321" lon="-2.26594">
        <ele>-4.4000000953674</ele>
        <time>2022-05-05T08:43:43.000Z</time>
      </trkpt>
      <trkpt lat="47.32081" lon="-2.2659">
        <ele>-4.4000000953674</ele>
        <time>2022-05-05T08:43:46.000Z</time>
      </trkpt>
      <trkpt lat="47.32068" lon="-2.26592">
        <ele>-4.4000000953674</ele>
        <time>2022-05-05T08:43:48.000Z</time>
      </trkpt>
      <trkpt lat="47.32054" lon="-2.26596">
        <ele>-4.4000000953674</ele>
        <time>2022-05-05T08:43:50.000Z</time>
      </trkpt>
      <trkpt lat="47.32034" lon="-2.26605">
        <ele>-4.4000000953674</ele>
        <time>2022-05-05T08:43:53.000Z</time>
      </trkpt>
      <trkpt lat="47.31988" lon="-2.26636">
        <ele>-4.4000000953674</ele>
        <time>2022-05-05T08:44:01.000Z</time>
      </trkpt>
      <trkpt lat="47.31956" lon="-2.2666">
        <ele>-4.4000000953674</ele>
        <time>2022-05-05T08:44:07.000Z</time>
      </trkpt>
      <trkpt lat="47.31946" lon="-2.26668">
        <ele>-4</ele>
        <time>2022-05-05T08:44:09.000Z</time>
      </trkpt>
      <trkpt lat="47.31941" lon="-2.26672">
        <ele>-3.5999999046326</ele>
        <time>2022-05-05T08:44:10.000Z</time>
      </trkpt>
      <trkpt lat="47.31935" lon="-2.26677">
        <ele>-3.2000000476837</ele>
        <time>2022-05-05T08:44:11.000Z</time>
      </trkpt>
      <trkpt lat="47.3193" lon="-2.26681">
        <ele>-2.5999999046326</ele>
        <time>2022-05-05T08:44:12.000Z</time>
      </trkpt>
      <trkpt lat="47.31925" lon="-2.26685">
        <ele>-2.2000000476837</ele>
        <time>2022-05-05T08:44:13.000Z</time>
      </trkpt>
      <trkpt lat="47.31894" lon="-2.26711">
        <ele>-2.2000000476837</ele>
        <time>2022-05-05T08:44:19.000Z</time>
      </trkpt>
      <trkpt lat="47.31858" lon="-2.26739">
        <ele>-2.2000000476837</ele>
        <time>2022-05-05T08:44:26.000Z</time>
      </trkpt>
      <trkpt lat="47.31848" lon="-2.26743">
        <ele>-2.2000000476837</ele>
        <time>2022-05-05T08:44:28.000Z</time>
      </trkpt>
      <trkpt lat="47.31836" lon="-2.26741">
        <ele>-2.2000000476837</ele>
        <time>2022-05-05T08:44:30.000Z</time>
      </trkpt>
      <trkpt lat="47.31821" lon="-2.26725">
        <ele>-2.2000000476837</ele>
        <time>2022-05-05T08:44:33.000Z</time>
      </trkpt>
      <trkpt lat="47.31815" lon="-2.26712">
        <ele>-2.2000000476837</ele>
        <time>2022-05-05T08:44:35.000Z</time>
      </trkpt>
      <trkpt lat="47.31807" lon="-2.267">
        <ele>-2.2000000476837</ele>
        <time>2022-05-05T08:44:37.000Z</time>
      </trkpt>
      <trkpt lat="47.31791" lon="-2.267">
        <ele>-2.2000000476837</ele>
        <time>2022-05-05T08:44:40.000Z</time>
      </trkpt>
      <trkpt lat="47.31779" lon="-2.26705">
        <ele>-2.2000000476837</ele>
        <time>2022-05-05T08:44:42.000Z</time>
      </trkpt>
      <trkpt lat="47.31759" lon="-2.26711">
        <ele>-2.2000000476837</ele>
        <time>2022-05-05T08:44:45.000Z</time>
      </trkpt>
      <trkpt lat="47.31739" lon="-2.26716">
        <ele>-2.7999999523163</ele>
        <time>2022-05-05T08:44:48.000Z</time>
      </trkpt>
      <trkpt lat="47.31732" lon="-2.26719">
        <ele>-3.2000000476837</ele>
        <time>2022-05-05T08:44:49.000Z</time>
      </trkpt>
      <trkpt lat="47.31725" lon="-2.26721">
        <ele>-3.5999999046326</ele>
        <time>2022-05-05T08:44:50.000Z</time>
      </trkpt>
      <trkpt lat="47.31718" lon="-2.26724">
        <ele>-4.1999998092651</ele>
        <time>2022-05-05T08:44:51.000Z</time>
      </trkpt>
      <trkpt lat="47.31711" lon="-2.26726">
        <ele>-4.5999999046326</ele>
        <time>2022-05-05T08:44:52.000Z</time>
      </trkpt>
      <trkpt lat="47.31676" lon="-2.26733">
        <ele>-4.5999999046326</ele>
        <time>2022-05-05T08:44:57.000Z</time>
      </trkpt>
      <trkpt lat="47.31644" lon="-2.26744">
        <ele>-4.5999999046326</ele>
        <time>2022-05-05T08:45:02.000Z</time>
      </trkpt>
      <trkpt lat="47.31626" lon="-2.26758">
        <ele>-4.5999999046326</ele>
        <time>2022-05-05T08:45:05.000Z</time>
      </trkpt>
      <trkpt lat="47.31613" lon="-2.26762">
        <ele>-4.5999999046326</ele>
        <time>2022-05-05T08:45:07.000Z</time>
      </trkpt>
      <trkpt lat="47.31607" lon="-2.26762">
        <ele>-5</ele>
        <time>2022-05-05T08:45:08.000Z</time>
      </trkpt>
      <trkpt lat="47.31601" lon="-2.26761">
        <ele>-5.4000000953674</ele>
        <time>2022-05-05T08:45:09.000Z</time>
      </trkpt>
      <trkpt lat="47.31595" lon="-2.2676">
        <ele>-5.8000001907349</ele>
        <time>2022-05-05T08:45:10.000Z</time>
      </trkpt>
      <trkpt lat="47.31589" lon="-2.2676">
        <ele>-6.1999998092651</ele>
        <time>2022-05-05T08:45:11.000Z</time>
      </trkpt>
      <trkpt lat="47.31583" lon="-2.26759">
        <ele>-6.5999999046326</ele>
        <time>2022-05-05T08:45:12.000Z</time>
      </trkpt>
      <trkpt lat="47.31577" lon="-2.2676">
        <ele>-6.5999999046326</ele>
        <time>2022-05-05T08:45:13.000Z</time>
      </trkpt>
      <trkpt lat="47.31566" lon="-2.2677">
        <ele>-6.5999999046326</ele>
        <time>2022-05-05T08:45:15.000Z</time>
      </trkpt>
      <trkpt lat="47.31553" lon="-2.26799">
        <ele>-6.5999999046326</ele>
        <time>2022-05-05T08:45:19.000Z</time>
      </trkpt>
      <trkpt lat="47.31548" lon="-2.26814">
        <ele>-6.5999999046326</ele>
        <time>2022-05-05T08:45:21.000Z</time>
      </trkpt>
      <trkpt lat="47.3154" lon="-2.26836">
        <ele>-6.5999999046326</ele>
        <time>2022-05-05T08:45:24.000Z</time>
      </trkpt>
      <trkpt lat="47.31523" lon="-2.26878">
        <ele>-6.5999999046326</ele>
        <time>2022-05-05T08:45:30.000Z</time>
      </trkpt>
      <trkpt lat="47.31508" lon="-2.26926">
        <ele>-6.5999999046326</ele>
        <time>2022-05-05T08:45:37.000Z</time>
      </trkpt>
      <trkpt lat="47.31494" lon="-2.26968">
        <ele>-6.5999999046326</ele>
        <time>2022-05-05T08:45:43.000Z</time>
      </trkpt>
      <trkpt lat="47.31489" lon="-2.2698">
        <ele>-6.5999999046326</ele>
        <time>2022-05-05T08:45:45.000Z</time>
      </trkpt>
      <trkpt lat="47.31482" lon="-2.26989">
        <ele>-6.5999999046326</ele>
        <time>2022-05-05T08:45:47.000Z</time>
      </trkpt>
      <trkpt lat="47.31473" lon="-2.26996">
        <ele>-6.5999999046326</ele>
        <time>2022-05-05T08:45:49.000Z</time>
      </trkpt>
      <trkpt lat="47.31453" lon="-2.27013">
        <ele>-6.5999999046326</ele>
        <time>2022-05-05T08:45:53.000Z</time>
      </trkpt>
      <trkpt lat="47.31407" lon="-2.27047">
        <ele>-6.5999999046326</ele>
        <time>2022-05-05T08:46:02.000Z</time>
      </trkpt>
      <trkpt lat="47.31396" lon="-2.27054">
        <ele>-6.1999998092651</ele>
        <time>2022-05-05T08:46:04.000Z</time>
      </trkpt>
      <trkpt lat="47.31391" lon="-2.27057">
        <ele>-5.8000001907349</ele>
        <time>2022-05-05T08:46:05.000Z</time>
      </trkpt>
      <trkpt lat="47.31385" lon="-2.2706">
        <ele>-5.4000000953674</ele>
        <time>2022-05-05T08:46:06.000Z</time>
      </trkpt>
      <trkpt lat="47.31379" lon="-2.27063">
        <ele>-4.8000001907349</ele>
        <time>2022-05-05T08:46:07.000Z</time>
      </trkpt>
      <trkpt lat="47.31373" lon="-2.27066">
        <ele>-4.4000000953674</ele>
        <time>2022-05-05T08:46:08.000Z</time>
      </trkpt>
      <trkpt lat="47.31367" lon="-2.27068">
        <ele>-4.4000000953674</ele>
        <time>2022-05-05T08:46:09.000Z</time>
      </trkpt>
      <trkpt lat="47.31343" lon="-2.27076">
        <ele>-4.4000000953674</ele>
        <time>2022-05-05T08:46:13.000Z</time>
      </trkpt>
      <trkpt lat="47.31302" lon="-2.27088">
        <ele>-4.4000000953674</ele>
        <time>2022-05-05T08:46:20.000Z</time>
      </trkpt>
      <trkpt lat="47.31281" lon="-2.271">
        <ele>-4.4000000953674</ele>
        <time>2022-05-05T08:46:24.000Z</time>
      </trkpt>
      <trkpt lat="47.31272" lon="-2.27106">
        <ele>-4.4000000953674</ele>
        <time>2022-05-05T08:46:26.000Z</time>
      </trkpt>
      <trkpt lat="47.31245" lon="-2.27124">
        <ele>-4.4000000953674</ele>
        <time>2022-05-05T08:46:32.000Z</time>
      </trkpt>
      <trkpt lat="47.31215" lon="-2.27149">
        <ele>-4.4000000953674</ele>
        <time>2022-05-05T08:46:39.000Z</time>
      </trkpt>
      <trkpt lat="47.31203" lon="-2.2716">
        <ele>-4.4000000953674</ele>
        <time>2022-05-05T08:46:42.000Z</time>
      </trkpt>
      <trkpt lat="47.31192" lon="-2.27174">
        <ele>-4.4000000953674</ele>
        <time>2022-05-05T08:46:45.000Z</time>
      </trkpt>
      <trkpt lat="47.31186" lon="-2.27181">
        <ele>-4.4000000953674</ele>
        <time>2022-05-05T08:46:47.000Z</time>
      </trkpt>
      <trkpt lat="47.31176" lon="-2.27191">
        <ele>-4.4000000953674</ele>
        <time>2022-05-05T08:46:50.000Z</time>
      </trkpt>
      <trkpt lat="47.31159" lon="-2.2721">
        <ele>-4.4000000953674</ele>
        <time>2022-05-05T08:46:56.000Z</time>
      </trkpt>
      <trkpt lat="47.31139" lon="-2.27226">
        <ele>-4.4000000953674</ele>
        <time>2022-05-05T08:47:02.000Z</time>
      </trkpt>
      <trkpt lat="47.31135" lon="-2.27228">
        <ele>-4.4000000953674</ele>
        <time>2022-05-05T08:47:03.000Z</time>
      </trkpt>
      <trkpt lat="47.31119" lon="-2.27236">
        <ele>-4.4000000953674</ele>
        <time>2022-05-05T08:47:07.000Z</time>
      </trkpt>
      <trkpt lat="47.31106" lon="-2.27242">
        <ele>-4.4000000953674</ele>
        <time>2022-05-05T08:47:10.000Z</time>
      </trkpt>
      <trkpt lat="47.31098" lon="-2.27245">
        <ele>-4.4000000953674</ele>
        <time>2022-05-05T08:47:12.000Z</time>
      </trkpt>
      <trkpt lat="47.3108" lon="-2.2725">
        <ele>-4.4000000953674</ele>
        <time>2022-05-05T08:47:16.000Z</time>
      </trkpt>
      <trkpt lat="47.31071" lon="-2.27254">
        <ele>-4.4000000953674</ele>
        <time>2022-05-05T08:47:18.000Z</time>
      </trkpt>
      <trkpt lat="47.31051" lon="-2.27259">
        <ele>-4.4000000953674</ele>
        <time>2022-05-05T08:47:22.000Z</time>
      </trkpt>
      <trkpt lat="47.31037" lon="-2.27259">
        <ele>-4.4000000953674</ele>
        <time>2022-05-05T08:47:25.000Z</time>
      </trkpt>
      <trkpt lat="47.31016" lon="-2.27256">
        <ele>-4.4000000953674</ele>
        <time>2022-05-05T08:47:30.000Z</time>
      </trkpt>
      <trkpt lat="47.31013" lon="-2.27252">
        <ele>-4.4000000953674</ele>
        <time>2022-05-05T08:47:31.000Z</time>
      </trkpt>
      <trkpt lat="47.31007" lon="-2.27233">
        <ele>-4.4000000953674</ele>
        <time>2022-05-05T08:47:34.000Z</time>
      </trkpt>
      <trkpt lat="47.31006" lon="-2.27225">
        <ele>-4.4000000953674</ele>
        <time>2022-05-05T08:47:35.000Z</time>
      </trkpt>
      <trkpt lat="47.31002" lon="-2.27188">
        <ele>-4.4000000953674</ele>
        <time>2022-05-05T08:47:40.000Z</time>
      </trkpt>
      <trkpt lat="47.31001" lon="-2.27167">
        <ele>-4</ele>
        <time>2022-05-05T08:47:43.000Z</time>
      </trkpt>
      <trkpt lat="47.31" lon="-2.2716">
        <ele>-3.5999999046326</ele>
        <time>2022-05-05T08:47:44.000Z</time>
      </trkpt>
      <trkpt lat="47.31" lon="-2.27154">
        <ele>-3.2000000476837</ele>
        <time>2022-05-05T08:47:45.000Z</time>
      </trkpt>
      <trkpt lat="47.30999" lon="-2.27148">
        <ele>-2.7999999523163</ele>
        <time>2022-05-05T08:47:46.000Z</time>
      </trkpt>
      <trkpt lat="47.30999" lon="-2.27141">
        <ele>-2.4000000953674</ele>
        <time>2022-05-05T08:47:47.000Z</time>
      </trkpt>
      <trkpt lat="47.30999" lon="-2.27135">
        <ele>-2.4000000953674</ele>
        <time>2022-05-05T08:47:48.000Z</time>
      </trkpt>
      <trkpt lat="47.30996" lon="-2.27088">
        <ele>-2.4000000953674</ele>
        <time>2022-05-05T08:47:54.000Z</time>
      </trkpt>
      <trkpt lat="47.30994" lon="-2.2704">
        <ele>-2.7999999523163</ele>
        <time>2022-05-05T08:47:59.000Z</time>
      </trkpt>
      <trkpt lat="47.30994" lon="-2.27029">
        <ele>-3.4000000953674</ele>
        <time>2022-05-05T08:48:00.000Z</time>
      </trkpt>
      <trkpt lat="47.30993" lon="-2.27017">
        <ele>-3.7999999523163</ele>
        <time>2022-05-05T08:48:01.000Z</time>
      </trkpt>
      <trkpt lat="47.30991" lon="-2.27006">
        <ele>-4.4000000953674</ele>
        <time>2022-05-05T08:48:02.000Z</time>
      </trkpt>
      <trkpt lat="47.30989" lon="-2.26995">
        <ele>-4.8000001907349</ele>
        <time>2022-05-05T08:48:03.000Z</time>
      </trkpt>
      <trkpt lat="47.30986" lon="-2.26985">
        <ele>-4.8000001907349</ele>
        <time>2022-05-05T08:48:04.000Z</time>
      </trkpt>
      <trkpt lat="47.3098" lon="-2.26977">
        <ele>-5.1999998092651</ele>
        <time>2022-05-05T08:48:05.000Z</time>
      </trkpt>
      <trkpt lat="47.30974" lon="-2.2697">
        <ele>-5.5999999046326</ele>
        <time>2022-05-05T08:48:06.000Z</time>
      </trkpt>
      <trkpt lat="47.30967" lon="-2.26965">
        <ele>-6</ele>
        <time>2022-05-05T08:48:07.000Z</time>
      </trkpt>
      <trkpt lat="47.3096" lon="-2.26959">
        <ele>-6.4000000953674</ele>
        <time>2022-05-05T08:48:08.000Z</time>
      </trkpt>
      <trkpt lat="47.30953" lon="-2.26955">
        <ele>-7</ele>
        <time>2022-05-05T08:48:09.000Z</time>
      </trkpt>
      <trkpt lat="47.30939" lon="-2.26946">
        <ele>-7</ele>
        <time>2022-05-05T08:48:11.000Z</time>
      </trkpt>
      <trkpt lat="47.30917" lon="-2.26926">
        <ele>-7</ele>
        <time>2022-05-05T08:48:15.000Z</time>
      </trkpt>
      <trkpt lat="47.30914" lon="-2.26919">
        <ele>-7</ele>
        <time>2022-05-05T08:48:16.000Z</time>
      </trkpt>
      <trkpt lat="47.30907" lon="-2.26895">
        <ele>-7</ele>
        <time>2022-05-05T08:48:19.000Z</time>
      </trkpt>
      <trkpt lat="47.30905" lon="-2.26878">
        <ele>-7</ele>
        <time>2022-05-05T08:48:21.000Z</time>
      </trkpt>
      <trkpt lat="47.30908" lon="-2.26849">
        <ele>-7</ele>
        <time>2022-05-05T08:48:24.000Z</time>
      </trkpt>
      <trkpt lat="47.3091" lon="-2.2684">
        <ele>-7</ele>
        <time>2022-05-05T08:48:25.000Z</time>
      </trkpt>
      <trkpt lat="47.30923" lon="-2.26763">
        <ele>-7</ele>
        <time>2022-05-05T08:48:33.000Z</time>
      </trkpt>
      <trkpt lat="47.30935" lon="-2.26698">
        <ele>-7</ele>
        <time>2022-05-05T08:48:40.000Z</time>
      </trkpt>
      <trkpt lat="47.30946" lon="-2.26627">
        <ele>-7</ele>
        <time>2022-05-05T08:48:48.000Z</time>
      </trkpt>
      <trkpt lat="47.30963" lon="-2.26546">
        <ele>-7</ele>
        <time>2022-05-05T08:48:57.000Z</time>
      </trkpt>
      <trkpt lat="47.30973" lon="-2.2649">
        <ele>-7</ele>
        <time>2022-05-05T08:49:03.000Z</time>
      </trkpt>
      <trkpt lat="47.30984" lon="-2.26424">
        <ele>-7</ele>
        <time>2022-05-05T08:49:10.000Z</time>
      </trkpt>
      <trkpt lat="47.30996" lon="-2.26358">
        <ele>-7</ele>
        <time>2022-05-05T08:49:17.000Z</time>
      </trkpt>
      <trkpt lat="47.31008" lon="-2.26299">
        <ele>-7</ele>
        <time>2022-05-05T08:49:23.000Z</time>
      </trkpt>
      <trkpt lat="47.31022" lon="-2.2622">
        <ele>-7</ele>
        <time>2022-05-05T08:49:31.000Z</time>
      </trkpt>
      <trkpt lat="47.31032" lon="-2.26146">
        <ele>-7</ele>
        <time>2022-05-05T08:49:39.000Z</time>
      </trkpt>
      <trkpt lat="47.31042" lon="-2.2607">
        <ele>-7</ele>
        <time>2022-05-05T08:49:48.000Z</time>
      </trkpt>
      <trkpt lat="47.31045" lon="-2.26054">
        <ele>-6.4000000953674</ele>
        <time>2022-05-05T08:49:50.000Z</time>
      </trkpt>
      <trkpt lat="47.31047" lon="-2.26047">
        <ele>-6</ele>
        <time>2022-05-05T08:49:51.000Z</time>
      </trkpt>
      <trkpt lat="47.31049" lon="-2.2604">
        <ele>-5.5999999046326</ele>
        <time>2022-05-05T08:49:52.000Z</time>
      </trkpt>
      <trkpt lat="47.31051" lon="-2.26032">
        <ele>-5.1999998092651</ele>
        <time>2022-05-05T08:49:53.000Z</time>
      </trkpt>
      <trkpt lat="47.31054" lon="-2.26026">
        <ele>-4.8000001907349</ele>
        <time>2022-05-05T08:49:54.000Z</time>
      </trkpt>
      <trkpt lat="47.31061" lon="-2.26013">
        <ele>-4.8000001907349</ele>
        <time>2022-05-05T08:49:56.000Z</time>
      </trkpt>
      <trkpt lat="47.31075" lon="-2.25999">
        <ele>-4.8000001907349</ele>
        <time>2022-05-05T08:49:59.000Z</time>
      </trkpt>
      <trkpt lat="47.31091" lon="-2.26">
        <ele>-4.8000001907349</ele>
        <time>2022-05-05T08:50:02.000Z</time>
      </trkpt>
      <trkpt lat="47.31107" lon="-2.2601">
        <ele>-4.8000001907349</ele>
        <time>2022-05-05T08:50:05.000Z</time>
      </trkpt>
      <trkpt lat="47.3112" lon="-2.26016">
        <ele>-4.8000001907349</ele>
        <time>2022-05-05T08:50:07.000Z</time>
      </trkpt>
      <trkpt lat="47.31163" lon="-2.26045">
        <ele>-4.8000001907349</ele>
        <time>2022-05-05T08:50:14.000Z</time>
      </trkpt>
      <trkpt lat="47.31179" lon="-2.26056">
        <ele>-5.1999998092651</ele>
        <time>2022-05-05T08:50:18.000Z</time>
      </trkpt>
      <trkpt lat="47.31183" lon="-2.26058">
        <ele>-5.5999999046326</ele>
        <time>2022-05-05T08:50:19.000Z</time>
      </trkpt>
      <trkpt lat="47.31187" lon="-2.2606">
        <ele>-6</ele>
        <time>2022-05-05T08:50:20.000Z</time>
      </trkpt>
      <trkpt lat="47.3119" lon="-2.26061">
        <ele>-6.4000000953674</ele>
        <time>2022-05-05T08:50:21.000Z</time>
      </trkpt>
      <trkpt lat="47.31192" lon="-2.2606">
        <ele>-7</ele>
        <time>2022-05-05T08:50:22.000Z</time>
      </trkpt>
      <trkpt lat="47.31194" lon="-2.26057">
        <ele>-7</ele>
        <time>2022-05-05T08:50:23.000Z</time>
      </trkpt>
      <trkpt lat="47.31203" lon="-2.2605">
        <ele>-7</ele>
        <time>2022-05-05T08:50:26.000Z</time>
      </trkpt>
      <trkpt lat="47.31209" lon="-2.26045">
        <ele>-7</ele>
        <time>2022-05-05T08:50:28.000Z</time>
      </trkpt>
      <trkpt lat="47.31233" lon="-2.26029">
        <ele>-7</ele>
        <time>2022-05-05T08:50:35.000Z</time>
      </trkpt>
      <trkpt lat="47.31245" lon="-2.26018">
        <ele>-7</ele>
        <time>2022-05-05T08:50:39.000Z</time>
      </trkpt>
      <trkpt lat="47.31249" lon="-2.26016">
        <ele>-7</ele>
        <time>2022-05-05T08:50:40.000Z</time>
      </trkpt>
      <trkpt lat="47.31264" lon="-2.26002">
        <ele>-7</ele>
        <time>2022-05-05T08:50:45.000Z</time>
      </trkpt>
      <trkpt lat="47.31273" lon="-2.25992">
        <ele>-6.4000000953674</ele>
        <time>2022-05-05T08:50:48.000Z</time>
      </trkpt>
      <trkpt lat="47.31277" lon="-2.2599">
        <ele>-6</ele>
        <time>2022-05-05T08:50:49.000Z</time>
      </trkpt>
      <trkpt lat="47.3128" lon="-2.25987">
        <ele>-5.5999999046326</ele>
        <time>2022-05-05T08:50:50.000Z</time>
      </trkpt>
      <trkpt lat="47.31285" lon="-2.25985">
        <ele>-4.8000001907349</ele>
        <time>2022-05-05T08:50:51.000Z</time>
      </trkpt>
      <trkpt lat="47.31289" lon="-2.25983">
        <ele>-4.8000001907349</ele>
        <time>2022-05-05T08:50:52.000Z</time>
      </trkpt>
      <trkpt lat="47.31293" lon="-2.25984">
        <ele>-4.8000001907349</ele>
        <time>2022-05-05T08:50:53.000Z</time>
      </trkpt>
      <trkpt lat="47.313" lon="-2.25988">
        <ele>-4.8000001907349</ele>
        <time>2022-05-05T08:50:55.000Z</time>
      </trkpt>
      <trkpt lat="47.31313" lon="-2.26013">
        <ele>-4.8000001907349</ele>
        <time>2022-05-05T08:51:00.000Z</time>
      </trkpt>
      <trkpt lat="47.31324" lon="-2.26043">
        <ele>-4.8000001907349</ele>
        <time>2022-05-05T08:51:05.000Z</time>
      </trkpt>
      <trkpt lat="47.31345" lon="-2.26086">
        <ele>-4.8000001907349</ele>
        <time>2022-05-05T08:51:11.000Z</time>
      </trkpt>
      <trkpt lat="47.31354" lon="-2.26108">
        <ele>-4.8000001907349</ele>
        <time>2022-05-05T08:51:14.000Z</time>
      </trkpt>
      <trkpt lat="47.31363" lon="-2.26133">
        <ele>-4.8000001907349</ele>
        <time>2022-05-05T08:51:17.000Z</time>
      </trkpt>
      <trkpt lat="47.31366" lon="-2.26142">
        <ele>-5.1999998092651</ele>
        <time>2022-05-05T08:51:18.000Z</time>
      </trkpt>
      <trkpt lat="47.31369" lon="-2.26148">
        <ele>-5.5999999046326</ele>
        <time>2022-05-05T08:51:19.000Z</time>
      </trkpt>
      <trkpt lat="47.31374" lon="-2.26151">
        <ele>-6</ele>
        <time>2022-05-05T08:51:20.000Z</time>
      </trkpt>
      <trkpt lat="47.31379" lon="-2.2615">
        <ele>-6.5999999046326</ele>
        <time>2022-05-05T08:51:21.000Z</time>
      </trkpt>
      <trkpt lat="47.31384" lon="-2.26147">
        <ele>-7</ele>
        <time>2022-05-05T08:51:22.000Z</time>
      </trkpt>
      <trkpt lat="47.31388" lon="-2.26144">
        <ele>-7</ele>
        <time>2022-05-05T08:51:23.000Z</time>
      </trkpt>
      <trkpt lat="47.31413" lon="-2.26115">
        <ele>-7</ele>
        <time>2022-05-05T08:51:29.000Z</time>
      </trkpt>
      <trkpt lat="47.31435" lon="-2.26071">
        <ele>-7</ele>
        <time>2022-05-05T08:51:35.000Z</time>
      </trkpt>
      <trkpt lat="47.31455" lon="-2.26039">
        <ele>-7</ele>
        <time>2022-05-05T08:51:40.000Z</time>
      </trkpt>
      <trkpt lat="47.31479" lon="-2.25997">
        <ele>-7</ele>
        <time>2022-05-05T08:51:46.000Z</time>
      </trkpt>
      <trkpt lat="47.31507" lon="-2.25944">
        <ele>-7</ele>
        <time>2022-05-05T08:51:53.000Z</time>
      </trkpt>
      <trkpt lat="47.31542" lon="-2.25884">
        <ele>-7</ele>
        <time>2022-05-05T08:52:01.000Z</time>
      </trkpt>
      <trkpt lat="47.31548" lon="-2.25868">
        <ele>-7</ele>
        <time>2022-05-05T08:52:03.000Z</time>
      </trkpt>
      <trkpt lat="47.31551" lon="-2.25849">
        <ele>-7</ele>
        <time>2022-05-05T08:52:05.000Z</time>
      </trkpt>
      <trkpt lat="47.31549" lon="-2.25821">
        <ele>-7</ele>
        <time>2022-05-05T08:52:08.000Z</time>
      </trkpt>
      <trkpt lat="47.31548" lon="-2.25811">
        <ele>-7</ele>
        <time>2022-05-05T08:52:09.000Z</time>
      </trkpt>
      <trkpt lat="47.31543" lon="-2.25777">
        <ele>-7</ele>
        <time>2022-05-05T08:52:13.000Z</time>
      </trkpt>
      <trkpt lat="47.31541" lon="-2.2576">
        <ele>-7</ele>
        <time>2022-05-05T08:52:15.000Z</time>
      </trkpt>
      <trkpt lat="47.31533" lon="-2.25709">
        <ele>-7</ele>
        <time>2022-05-05T08:52:21.000Z</time>
      </trkpt>
      <trkpt lat="47.31528" lon="-2.25693">
        <ele>-7</ele>
        <time>2022-05-05T08:52:23.000Z</time>
      </trkpt>
      <trkpt lat="47.31522" lon="-2.25666">
        <ele>-7</ele>
        <time>2022-05-05T08:52:26.000Z</time>
      </trkpt>
      <trkpt lat="47.31504" lon="-2.256">
        <ele>-7</ele>
        <time>2022-05-05T08:52:33.000Z</time>
      </trkpt>
      <trkpt lat="47.31497" lon="-2.25583">
        <ele>-7</ele>
        <time>2022-05-05T08:52:35.000Z</time>
      </trkpt>
      <trkpt lat="47.31486" lon="-2.2557">
        <ele>-7</ele>
        <time>2022-05-05T08:52:37.000Z</time>
      </trkpt>
      <trkpt lat="47.31453" lon="-2.25536">
        <ele>-7</ele>
        <time>2022-05-05T08:52:43.000Z</time>
      </trkpt>
      <trkpt lat="47.31443" lon="-2.25524">
        <ele>-7</ele>
        <time>2022-05-05T08:52:45.000Z</time>
      </trkpt>
      <trkpt lat="47.31431" lon="-2.25502">
        <ele>-7</ele>
        <time>2022-05-05T08:52:48.000Z</time>
      </trkpt>
      <trkpt lat="47.31408" lon="-2.2545">
        <ele>-7</ele>
        <time>2022-05-05T08:52:55.000Z</time>
      </trkpt>
      <trkpt lat="47.31396" lon="-2.25426">
        <ele>-7</ele>
        <time>2022-05-05T08:52:58.000Z</time>
      </trkpt>
      <trkpt lat="47.31386" lon="-2.25412">
        <ele>-7</ele>
        <time>2022-05-05T08:53:00.000Z</time>
      </trkpt>
      <trkpt lat="47.31375" lon="-2.254">
        <ele>-7</ele>
        <time>2022-05-05T08:53:02.000Z</time>
      </trkpt>
      <trkpt lat="47.31358" lon="-2.25382">
        <ele>-7</ele>
        <time>2022-05-05T08:53:05.000Z</time>
      </trkpt>
      <trkpt lat="47.31353" lon="-2.25375">
        <ele>-7</ele>
        <time>2022-05-05T08:53:06.000Z</time>
      </trkpt>
      <trkpt lat="47.31343" lon="-2.25347">
        <ele>-7</ele>
        <time>2022-05-05T08:53:09.000Z</time>
      </trkpt>
      <trkpt lat="47.3134" lon="-2.25338">
        <ele>-7</ele>
        <time>2022-05-05T08:53:10.000Z</time>
      </trkpt>
      <trkpt lat="47.31336" lon="-2.25318">
        <ele>-7</ele>
        <time>2022-05-05T08:53:12.000Z</time>
      </trkpt>
      <trkpt lat="47.31333" lon="-2.25288">
        <ele>-7</ele>
        <time>2022-05-05T08:53:15.000Z</time>
      </trkpt>
      <trkpt lat="47.31323" lon="-2.25252">
        <ele>-7</ele>
        <time>2022-05-05T08:53:19.000Z</time>
      </trkpt>
      <trkpt lat="47.31318" lon="-2.25245">
        <ele>-7</ele>
        <time>2022-05-05T08:53:20.000Z</time>
      </trkpt>
      <trkpt lat="47.31286" lon="-2.25204">
        <ele>-7</ele>
        <time>2022-05-05T08:53:26.000Z</time>
      </trkpt>
      <trkpt lat="47.31264" lon="-2.25167">
        <ele>-7</ele>
        <time>2022-05-05T08:53:31.000Z</time>
      </trkpt>
      <trkpt lat="47.31237" lon="-2.25117">
        <ele>-7</ele>
        <time>2022-05-05T08:53:38.000Z</time>
      </trkpt>
      <trkpt lat="47.31227" lon="-2.25095">
        <ele>-7</ele>
        <time>2022-05-05T08:53:41.000Z</time>
      </trkpt>
      <trkpt lat="47.31219" lon="-2.25073">
        <ele>-7</ele>
        <time>2022-05-05T08:53:44.000Z</time>
      </trkpt>
      <trkpt lat="47.31203" lon="-2.25029">
        <ele>-7</ele>
        <time>2022-05-05T08:53:50.000Z</time>
      </trkpt>
      <trkpt lat="47.31193" lon="-2.25003">
        <ele>-7</ele>
        <time>2022-05-05T08:53:54.000Z</time>
      </trkpt>
      <trkpt lat="47.31185" lon="-2.24992">
        <ele>-7</ele>
        <time>2022-05-05T08:53:56.000Z</time>
      </trkpt>
      <trkpt lat="47.3117" lon="-2.24986">
        <ele>-7</ele>
        <time>2022-05-05T08:53:59.000Z</time>
      </trkpt>
      <trkpt lat="47.31161" lon="-2.24971">
        <ele>-7</ele>
        <time>2022-05-05T08:54:02.000Z</time>
      </trkpt>
      <trkpt lat="47.31158" lon="-2.24956">
        <ele>-7</ele>
        <time>2022-05-05T08:54:04.000Z</time>
      </trkpt>
      <trkpt lat="47.31153" lon="-2.24932">
        <ele>-7</ele>
        <time>2022-05-05T08:54:07.000Z</time>
      </trkpt>
      <trkpt lat="47.31147" lon="-2.24876">
        <ele>-7</ele>
        <time>2022-05-05T08:54:13.000Z</time>
      </trkpt>
      <trkpt lat="47.3114" lon="-2.24842">
        <ele>-7</ele>
        <time>2022-05-05T08:54:17.000Z</time>
      </trkpt>
      <trkpt lat="47.31135" lon="-2.24826">
        <ele>-7</ele>
        <time>2022-05-05T08:54:19.000Z</time>
      </trkpt>
      <trkpt lat="47.31129" lon="-2.2478">
        <ele>-7</ele>
        <time>2022-05-05T08:54:25.000Z</time>
      </trkpt>
      <trkpt lat="47.3113" lon="-2.24766">
        <ele>-7</ele>
        <time>2022-05-05T08:54:27.000Z</time>
      </trkpt>
      <trkpt lat="47.31135" lon="-2.24752">
        <ele>-7</ele>
        <time>2022-05-05T08:54:30.000Z</time>
      </trkpt>
      <trkpt lat="47.3114" lon="-2.24745">
        <ele>-7</ele>
        <time>2022-05-05T08:54:34.000Z</time>
      </trkpt>
      <trkpt lat="47.31152" lon="-2.24735">
        <ele>-7</ele>
        <time>2022-05-05T08:54:39.000Z</time>
      </trkpt>
      <trkpt lat="47.31155" lon="-2.2473">
        <ele>-7</ele>
        <time>2022-05-05T08:54:40.000Z</time>
      </trkpt>
      <trkpt lat="47.31168" lon="-2.24711">
        <ele>-7</ele>
        <time>2022-05-05T08:54:44.000Z</time>
      </trkpt>
      <trkpt lat="47.31174" lon="-2.24703">
        <ele>-7</ele>
        <time>2022-05-05T08:54:46.000Z</time>
      </trkpt>
      <trkpt lat="47.31188" lon="-2.24684">
        <ele>-7</ele>
        <time>2022-05-05T08:54:50.000Z</time>
      </trkpt>
      <trkpt lat="47.31196" lon="-2.24674">
        <ele>-7</ele>
        <time>2022-05-05T08:54:52.000Z</time>
      </trkpt>
      <trkpt lat="47.31212" lon="-2.24657">
        <ele>-7</ele>
        <time>2022-05-05T08:54:56.000Z</time>
      </trkpt>
      <trkpt lat="47.31234" lon="-2.24634">
        <ele>-7</ele>
        <time>2022-05-05T08:55:01.000Z</time>
      </trkpt>
      <trkpt lat="47.31237" lon="-2.24629">
        <ele>-7</ele>
        <time>2022-05-05T08:55:02.000Z</time>
      </trkpt>
      <trkpt lat="47.31249" lon="-2.24616">
        <ele>-7</ele>
        <time>2022-05-05T08:55:05.000Z</time>
      </trkpt>
      <trkpt lat="47.31254" lon="-2.24612">
        <ele>-7</ele>
        <time>2022-05-05T08:55:06.000Z</time>
      </trkpt>
      <trkpt lat="47.31258" lon="-2.24607">
        <ele>-7</ele>
        <time>2022-05-05T08:55:07.000Z</time>
      </trkpt>
      <trkpt lat="47.31276" lon="-2.24588">
        <ele>-7</ele>
        <time>2022-05-05T08:55:11.000Z</time>
      </trkpt>
      <trkpt lat="47.31302" lon="-2.24564">
        <ele>-7</ele>
        <time>2022-05-05T08:55:16.000Z</time>
      </trkpt>
      <trkpt lat="47.31307" lon="-2.24559">
        <ele>-7</ele>
        <time>2022-05-05T08:55:17.000Z</time>
      </trkpt>
      <trkpt lat="47.31339" lon="-2.24528">
        <ele>-7</ele>
        <time>2022-05-05T08:55:23.000Z</time>
      </trkpt>
      <trkpt lat="47.31369" lon="-2.24493">
        <ele>-7</ele>
        <time>2022-05-05T08:55:29.000Z</time>
      </trkpt>
      <trkpt lat="47.314" lon="-2.24463">
        <ele>-7</ele>
        <time>2022-05-05T08:55:35.000Z</time>
      </trkpt>
      <trkpt lat="47.31429" lon="-2.24431">
        <ele>-7</ele>
        <time>2022-05-05T08:55:41.000Z</time>
      </trkpt>
      <trkpt lat="47.31456" lon="-2.24397">
        <ele>-7</ele>
        <time>2022-05-05T08:55:47.000Z</time>
      </trkpt>
      <trkpt lat="47.31461" lon="-2.24393">
        <ele>-7</ele>
        <time>2022-05-05T08:55:48.000Z</time>
      </trkpt>
      <trkpt lat="47.31476" lon="-2.24385">
        <ele>-7</ele>
        <time>2022-05-05T08:55:51.000Z</time>
      </trkpt>
      <trkpt lat="47.3149" lon="-2.24378">
        <ele>-7</ele>
        <time>2022-05-05T08:55:54.000Z</time>
      </trkpt>
      <trkpt lat="47.31499" lon="-2.24376">
        <ele>-7</ele>
        <time>2022-05-05T08:55:56.000Z</time>
      </trkpt>
      <trkpt lat="47.3151" lon="-2.24368">
        <ele>-7</ele>
        <time>2022-05-05T08:56:01.000Z</time>
      </trkpt>
      <trkpt lat="47.31509" lon="-2.24367">
        <ele>-7</ele>
        <time>2022-05-05T08:56:04.000Z</time>
      </trkpt>
      <trkpt lat="47.31506" lon="-2.24362">
        <ele>-7</ele>
        <time>2022-05-05T08:56:26.000Z</time>
      </trkpt>
      <trkpt lat="47.31505" lon="-2.24361">
        <ele>-7</ele>
        <time>2022-05-05T08:56:27.000Z</time>
      </trkpt>
      <trkpt lat="47.31498" lon="-2.24348">
        <ele>-7</ele>
        <time>2022-05-05T08:56:32.000Z</time>
      </trkpt>
      <trkpt lat="47.31489" lon="-2.24332">
        <ele>-7</ele>
        <time>2022-05-05T08:56:37.000Z</time>
      </trkpt>
      <trkpt lat="47.31483" lon="-2.24317">
        <ele>-7</ele>
        <time>2022-05-05T08:56:41.000Z</time>
      </trkpt>
      <trkpt lat="47.31489" lon="-2.24297">
        <ele>-7</ele>
        <time>2022-05-05T08:56:45.000Z</time>
      </trkpt>
      <trkpt lat="47.31501" lon="-2.24279">
        <ele>-7</ele>
        <time>2022-05-05T08:56:49.000Z</time>
      </trkpt>
      <trkpt lat="47.31516" lon="-2.24278">
        <ele>-7</ele>
        <time>2022-05-05T08:56:52.000Z</time>
      </trkpt>
      <trkpt lat="47.31521" lon="-2.24276">
        <ele>-7</ele>
        <time>2022-05-05T08:56:53.000Z</time>
      </trkpt>
      <trkpt lat="47.31539" lon="-2.24281">
        <ele>-7</ele>
        <time>2022-05-05T08:56:57.000Z</time>
      </trkpt>
      <trkpt lat="47.31543" lon="-2.24286">
        <ele>-7</ele>
        <time>2022-05-05T08:56:58.000Z</time>
      </trkpt>
      <trkpt lat="47.31548" lon="-2.24299">
        <ele>-7</ele>
        <time>2022-05-05T08:57:00.000Z</time>
      </trkpt>
      <trkpt lat="47.31562" lon="-2.24329">
        <ele>-7</ele>
        <time>2022-05-05T08:57:05.000Z</time>
      </trkpt>
      <trkpt lat="47.31565" lon="-2.24334">
        <ele>-7</ele>
        <time>2022-05-05T08:57:06.000Z</time>
      </trkpt>
      <trkpt lat="47.3157" lon="-2.2434">
        <ele>-7</ele>
        <time>2022-05-05T08:57:07.000Z</time>
      </trkpt>
      <trkpt lat="47.3158" lon="-2.24343">
        <ele>-7</ele>
        <time>2022-05-05T08:57:09.000Z</time>
      </trkpt>
      <trkpt lat="47.31593" lon="-2.24354">
        <ele>-7</ele>
        <time>2022-05-05T08:57:13.000Z</time>
      </trkpt>
      <trkpt lat="47.31597" lon="-2.24367">
        <ele>-7</ele>
        <time>2022-05-05T08:57:16.000Z</time>
      </trkpt>
      <trkpt lat="47.31596" lon="-2.24373">
        <ele>-7</ele>
        <time>2022-05-05T08:57:17.000Z</time>
      </trkpt>
      <trkpt lat="47.31588" lon="-2.24384">
        <ele>-7</ele>
        <time>2022-05-05T08:57:20.000Z</time>
      </trkpt>
      <trkpt lat="47.31573" lon="-2.24384">
        <ele>-7</ele>
        <time>2022-05-05T08:57:24.000Z</time>
      </trkpt>
      <trkpt lat="47.31568" lon="-2.24383">
        <ele>-7</ele>
        <time>2022-05-05T08:57:25.000Z</time>
      </trkpt>
      <trkpt lat="47.31558" lon="-2.24383">
        <ele>-7</ele>
        <time>2022-05-05T08:57:30.000Z</time>
      </trkpt>
      <trkpt lat="47.3156" lon="-2.24384">
        <ele>-7</ele>
        <time>2022-05-05T08:57:31.000Z</time>
      </trkpt>
      <trkpt lat="47.31569" lon="-2.24389">
        <ele>-7</ele>
        <time>2022-05-05T08:57:34.000Z</time>
      </trkpt>
      <trkpt lat="47.31573" lon="-2.24393">
        <ele>-7</ele>
        <time>2022-05-05T08:57:35.000Z</time>
      </trkpt>
      <trkpt lat="47.31584" lon="-2.24407">
        <ele>-7</ele>
        <time>2022-05-05T08:57:38.000Z</time>
      </trkpt>
      <trkpt lat="47.31598" lon="-2.24407">
        <ele>-7</ele>
        <time>2022-05-05T08:57:41.000Z</time>
      </trkpt>
      <trkpt lat="47.31617" lon="-2.24414">
        <ele>-7</ele>
        <time>2022-05-05T08:57:45.000Z</time>
      </trkpt>
      <trkpt lat="47.31621" lon="-2.24417">
        <ele>-7</ele>
        <time>2022-05-05T08:57:46.000Z</time>
      </trkpt>
      <trkpt lat="47.31629" lon="-2.24421">
        <ele>-7</ele>
        <time>2022-05-05T08:57:48.000Z</time>
      </trkpt>
      <trkpt lat="47.31638" lon="-2.24424">
        <ele>-7</ele>
        <time>2022-05-05T08:57:50.000Z</time>
      </trkpt>
      <trkpt lat="47.31652" lon="-2.24429">
        <ele>-7</ele>
        <time>2022-05-05T08:57:53.000Z</time>
      </trkpt>
      <trkpt lat="47.31658" lon="-2.24435">
        <ele>-7.4000000953674</ele>
        <time>2022-05-05T08:57:55.000Z</time>
      </trkpt>
      <trkpt lat="47.31661" lon="-2.2444">
        <ele>-7.8000001907349</ele>
        <time>2022-05-05T08:57:56.000Z</time>
      </trkpt>
      <trkpt lat="47.31662" lon="-2.24444">
        <ele>-8.1999998092651</ele>
        <time>2022-05-05T08:57:57.000Z</time>
      </trkpt>
      <trkpt lat="47.31662" lon="-2.24446">
        <ele>-8.6000003814697</ele>
        <time>2022-05-05T08:57:58.000Z</time>
      </trkpt>
      <trkpt lat="47.31661" lon="-2.24449">
        <ele>-9</ele>
        <time>2022-05-05T08:57:59.000Z</time>
      </trkpt>
      <trkpt lat="47.31657" lon="-2.24454">
        <ele>-9</ele>
        <time>2022-05-05T08:58:01.000Z</time>
      </trkpt>
      <trkpt lat="47.31647" lon="-2.2446">
        <ele>-9</ele>
        <time>2022-05-05T08:58:04.000Z</time>
      </trkpt>
      <trkpt lat="47.31644" lon="-2.24462">
        <ele>-9</ele>
        <time>2022-05-05T08:58:05.000Z</time>
      </trkpt>
      <trkpt lat="47.31641" lon="-2.24461">
        <ele>-9</ele>
        <time>2022-05-05T08:58:06.000Z</time>
      </trkpt>
      <trkpt lat="47.31637" lon="-2.24455">
        <ele>-9</ele>
        <time>2022-05-05T08:58:08.000Z</time>
      </trkpt>
      <trkpt lat="47.31627" lon="-2.24439">
        <ele>-9</ele>
        <time>2022-05-05T08:58:13.000Z</time>
      </trkpt>
      <trkpt lat="47.31624" lon="-2.24437">
        <ele>-9</ele>
        <time>2022-05-05T08:58:14.000Z</time>
      </trkpt>
      <trkpt lat="47.31621" lon="-2.24439">
        <ele>-9</ele>
        <time>2022-05-05T08:58:17.000Z</time>
      </trkpt>
      <trkpt lat="47.31621" lon="-2.24439">
        <ele>-9</ele>
        <time>2022-05-05T08:58:18.000Z</time>
      </trkpt>
      <trkpt lat="47.3162" lon="-2.2444">
        <ele>-9</ele>
        <time>2022-05-05T08:58:19.000Z</time>
      </trkpt>
      <trkpt lat="47.31611" lon="-2.24447">
        <ele>-9</ele>
        <time>2022-05-05T08:58:39.000Z</time>
      </trkpt>
      <trkpt lat="47.31605" lon="-2.24448">
        <ele>-9</ele>
        <time>2022-05-05T08:58:41.000Z</time>
      </trkpt>
      <trkpt lat="47.31594" lon="-2.2446">
        <ele>-9</ele>
        <time>2022-05-05T08:58:45.000Z</time>
      </trkpt>
      <trkpt lat="47.31581" lon="-2.24477">
        <ele>-9</ele>
        <time>2022-05-05T08:58:49.000Z</time>
      </trkpt>
      <trkpt lat="47.31576" lon="-2.24481">
        <ele>-9</ele>
        <time>2022-05-05T08:58:50.000Z</time>
      </trkpt>
      <trkpt lat="47.31559" lon="-2.24491">
        <ele>-9</ele>
        <time>2022-05-05T08:58:55.000Z</time>
      </trkpt>
      <trkpt lat="47.31543" lon="-2.24484">
        <ele>-9</ele>
        <time>2022-05-05T08:58:59.000Z</time>
      </trkpt>
      <trkpt lat="47.31527" lon="-2.24469">
        <ele>-9</ele>
        <time>2022-05-05T08:59:04.000Z</time>
      </trkpt>
      <trkpt lat="47.31522" lon="-2.24449">
        <ele>-9</ele>
        <time>2022-05-05T08:59:08.000Z</time>
      </trkpt>
      <trkpt lat="47.31517" lon="-2.24414">
        <ele>-9</ele>
        <time>2022-05-05T08:59:14.000Z</time>
      </trkpt>
      <trkpt lat="47.31509" lon="-2.24391">
        <ele>-9</ele>
        <time>2022-05-05T08:59:19.000Z</time>
      </trkpt>
      <trkpt lat="47.31506" lon="-2.24391">
        <ele>-9</ele>
        <time>2022-05-05T08:59:20.000Z</time>
      </trkpt>
      <trkpt lat="47.315" lon="-2.24391">
        <ele>-9</ele>
        <time>2022-05-05T08:59:22.000Z</time>
      </trkpt>
      <trkpt lat="47.31495" lon="-2.24391">
        <ele>-9</ele>
        <time>2022-05-05T08:59:23.000Z</time>
      </trkpt>
      <trkpt lat="47.31485" lon="-2.24395">
        <ele>-9</ele>
        <time>2022-05-05T08:59:25.000Z</time>
      </trkpt>
      <trkpt lat="47.31474" lon="-2.24402">
        <ele>-9</ele>
        <time>2022-05-05T08:59:27.000Z</time>
      </trkpt>
      <trkpt lat="47.31458" lon="-2.24411">
        <ele>-9</ele>
        <time>2022-05-05T08:59:30.000Z</time>
      </trkpt>
      <trkpt lat="47.31444" lon="-2.24425">
        <ele>-9</ele>
        <time>2022-05-05T08:59:33.000Z</time>
      </trkpt>
      <trkpt lat="47.31435" lon="-2.24434">
        <ele>-9</ele>
        <time>2022-05-05T08:59:35.000Z</time>
      </trkpt>
      <trkpt lat="47.31417" lon="-2.24453">
        <ele>-9</ele>
        <time>2022-05-05T08:59:39.000Z</time>
      </trkpt>
      <trkpt lat="47.31386" lon="-2.24481">
        <ele>-9</ele>
        <time>2022-05-05T08:59:46.000Z</time>
      </trkpt>
      <trkpt lat="47.31382" lon="-2.24485">
        <ele>-9</ele>
        <time>2022-05-05T08:59:47.000Z</time>
      </trkpt>
      <trkpt lat="47.3137" lon="-2.24499">
        <ele>-9</ele>
        <time>2022-05-05T08:59:50.000Z</time>
      </trkpt>
      <trkpt lat="47.31366" lon="-2.24503">
        <ele>-9</ele>
        <time>2022-05-05T08:59:51.000Z</time>
      </trkpt>
      <trkpt lat="47.31338" lon="-2.24534">
        <ele>-8.6000003814697</ele>
        <time>2022-05-05T08:59:58.000Z</time>
      </trkpt>
      <trkpt lat="47.31334" lon="-2.24538">
        <ele>-8.1999998092651</ele>
        <time>2022-05-05T08:59:59.000Z</time>
      </trkpt>
      <trkpt lat="47.31329" lon="-2.24542">
        <ele>-7.8000001907349</ele>
        <time>2022-05-05T09:00:00.000Z</time>
      </trkpt>
      <trkpt lat="47.31324" lon="-2.24545">
        <ele>-7.4000000953674</ele>
        <time>2022-05-05T09:00:01.000Z</time>
      </trkpt>
      <trkpt lat="47.3132" lon="-2.24549">
        <ele>-7</ele>
        <time>2022-05-05T09:00:02.000Z</time>
      </trkpt>
      <trkpt lat="47.31304" lon="-2.24567">
        <ele>-7</ele>
        <time>2022-05-05T09:00:06.000Z</time>
      </trkpt>
      <trkpt lat="47.31272" lon="-2.24596">
        <ele>-7</ele>
        <time>2022-05-05T09:00:13.000Z</time>
      </trkpt>
      <trkpt lat="47.31246" lon="-2.2462">
        <ele>-7</ele>
        <time>2022-05-05T09:00:19.000Z</time>
      </trkpt>
      <trkpt lat="47.31235" lon="-2.24634">
        <ele>-7</ele>
        <time>2022-05-05T09:00:22.000Z</time>
      </trkpt>
      <trkpt lat="47.31227" lon="-2.24646">
        <ele>-7</ele>
        <time>2022-05-05T09:00:24.000Z</time>
      </trkpt>
      <trkpt lat="47.31217" lon="-2.24656">
        <ele>-7</ele>
        <time>2022-05-05T09:00:26.000Z</time>
      </trkpt>
      <trkpt lat="47.31201" lon="-2.24671">
        <ele>-7</ele>
        <time>2022-05-05T09:00:29.000Z</time>
      </trkpt>
      <trkpt lat="47.31177" lon="-2.24702">
        <ele>-7</ele>
        <time>2022-05-05T09:00:34.000Z</time>
      </trkpt>
      <trkpt lat="47.31172" lon="-2.24707">
        <ele>-7</ele>
        <time>2022-05-05T09:00:35.000Z</time>
      </trkpt>
      <trkpt lat="47.31156" lon="-2.24731">
        <ele>-7</ele>
        <time>2022-05-05T09:00:39.000Z</time>
      </trkpt>
      <trkpt lat="47.31152" lon="-2.24736">
        <ele>-7</ele>
        <time>2022-05-05T09:00:40.000Z</time>
      </trkpt>
      <trkpt lat="47.31138" lon="-2.24751">
        <ele>-7</ele>
        <time>2022-05-05T09:00:43.000Z</time>
      </trkpt>
      <trkpt lat="47.31134" lon="-2.24757">
        <ele>-7.4000000953674</ele>
        <time>2022-05-05T09:00:44.000Z</time>
      </trkpt>
      <trkpt lat="47.31129" lon="-2.24763">
        <ele>-7.8000001907349</ele>
        <time>2022-05-05T09:00:45.000Z</time>
      </trkpt>
      <trkpt lat="47.31124" lon="-2.24768">
        <ele>-8.1999998092651</ele>
        <time>2022-05-05T09:00:46.000Z</time>
      </trkpt>
      <trkpt lat="47.31118" lon="-2.24772">
        <ele>-8.8000001907349</ele>
        <time>2022-05-05T09:00:47.000Z</time>
      </trkpt>
      <trkpt lat="47.31113" lon="-2.24776">
        <ele>-9.1999998092651</ele>
        <time>2022-05-05T09:00:48.000Z</time>
      </trkpt>
      <trkpt lat="47.31108" lon="-2.24779">
        <ele>-9.1999998092651</ele>
        <time>2022-05-05T09:00:49.000Z</time>
      </trkpt>
      <trkpt lat="47.31079" lon="-2.24785">
        <ele>-9.1999998092651</ele>
        <time>2022-05-05T09:00:54.000Z</time>
      </trkpt>
      <trkpt lat="47.31067" lon="-2.24784">
        <ele>-9.1999998092651</ele>
        <time>2022-05-05T09:00:56.000Z</time>
      </trkpt>
      <trkpt lat="47.3105" lon="-2.24778">
        <ele>-9.1999998092651</ele>
        <time>2022-05-05T09:00:59.000Z</time>
      </trkpt>
      <trkpt lat="47.31011" lon="-2.24763">
        <ele>-9.1999998092651</ele>
        <time>2022-05-05T09:01:05.000Z</time>
      </trkpt>
      <trkpt lat="47.30978" lon="-2.24763">
        <ele>-9.1999998092651</ele>
        <time>2022-05-05T09:01:10.000Z</time>
      </trkpt>
      <trkpt lat="47.30972" lon="-2.24766">
        <ele>-9.1999998092651</ele>
        <time>2022-05-05T09:01:11.000Z</time>
      </trkpt>
      <trkpt lat="47.30955" lon="-2.24776">
        <ele>-9.1999998092651</ele>
        <time>2022-05-05T09:01:14.000Z</time>
      </trkpt>
      <trkpt lat="47.30925" lon="-2.24812">
        <ele>-9.1999998092651</ele>
        <time>2022-05-05T09:01:20.000Z</time>
      </trkpt>
      <trkpt lat="47.30899" lon="-2.24848">
        <ele>-9.1999998092651</ele>
        <time>2022-05-05T09:01:26.000Z</time>
      </trkpt>
      <trkpt lat="47.30875" lon="-2.24887">
        <ele>-9.1999998092651</ele>
        <time>2022-05-05T09:01:32.000Z</time>
      </trkpt>
      <trkpt lat="47.30867" lon="-2.24914">
        <ele>-9.1999998092651</ele>
        <time>2022-05-05T09:01:36.000Z</time>
      </trkpt>
      <trkpt lat="47.30866" lon="-2.24919">
        <ele>-9.1999998092651</ele>
        <time>2022-05-05T09:01:37.000Z</time>
      </trkpt>
      <trkpt lat="47.30863" lon="-2.24939">
        <ele>-9.1999998092651</ele>
        <time>2022-05-05T09:01:40.000Z</time>
      </trkpt>
      <trkpt lat="47.3086" lon="-2.24943">
        <ele>-9.1999998092651</ele>
        <time>2022-05-05T09:01:41.000Z</time>
      </trkpt>
      <trkpt lat="47.30856" lon="-2.24944">
        <ele>-9.1999998092651</ele>
        <time>2022-05-05T09:01:42.000Z</time>
      </trkpt>
      <trkpt lat="47.30843" lon="-2.24939">
        <ele>-9.1999998092651</ele>
        <time>2022-05-05T09:01:45.000Z</time>
      </trkpt>
      <trkpt lat="47.30821" lon="-2.24927">
        <ele>-9.1999998092651</ele>
        <time>2022-05-05T09:01:51.000Z</time>
      </trkpt>
      <trkpt lat="47.30817" lon="-2.24921">
        <ele>-9.1999998092651</ele>
        <time>2022-05-05T09:01:55.000Z</time>
      </trkpt>
      <trkpt lat="47.30818" lon="-2.24919">
        <ele>-9.1999998092651</ele>
        <time>2022-05-05T09:01:56.000Z</time>
      </trkpt>
      <trkpt lat="47.30827" lon="-2.24919">
        <ele>-9.1999998092651</ele>
        <time>2022-05-05T09:01:59.000Z</time>
      </trkpt>
      <trkpt lat="47.30831" lon="-2.24918">
        <ele>-9.1999998092651</ele>
        <time>2022-05-05T09:02:00.000Z</time>
      </trkpt>
      <trkpt lat="47.3085" lon="-2.24914">
        <ele>-9.1999998092651</ele>
        <time>2022-05-05T09:02:05.000Z</time>
      </trkpt>
      <trkpt lat="47.30861" lon="-2.24918">
        <ele>-9.1999998092651</ele>
        <time>2022-05-05T09:02:09.000Z</time>
      </trkpt>
      <trkpt lat="47.3087" lon="-2.24934">
        <ele>-9.1999998092651</ele>
        <time>2022-05-05T09:02:14.000Z</time>
      </trkpt>
      <trkpt lat="47.30864" lon="-2.24943">
        <ele>-9.1999998092651</ele>
        <time>2022-05-05T09:02:17.000Z</time>
      </trkpt>
      <trkpt lat="47.3085" lon="-2.24942">
        <ele>-9.1999998092651</ele>
        <time>2022-05-05T09:02:21.000Z</time>
      </trkpt>
      <trkpt lat="47.30843" lon="-2.24938">
        <ele>-9.1999998092651</ele>
        <time>2022-05-05T09:02:23.000Z</time>
      </trkpt>
      <trkpt lat="47.30828" lon="-2.24932">
        <ele>-9.1999998092651</ele>
        <time>2022-05-05T09:02:27.000Z</time>
      </trkpt>
      <trkpt lat="47.30801" lon="-2.2492">
        <ele>-9.1999998092651</ele>
        <time>2022-05-05T09:02:33.000Z</time>
      </trkpt>
      <trkpt lat="47.30764" lon="-2.24903">
        <ele>-9.1999998092651</ele>
        <time>2022-05-05T09:02:40.000Z</time>
      </trkpt>
      <trkpt lat="47.30754" lon="-2.24898">
        <ele>-9.1999998092651</ele>
        <time>2022-05-05T09:02:42.000Z</time>
      </trkpt>
      <trkpt lat="47.30731" lon="-2.24881">
        <ele>-9.1999998092651</ele>
        <time>2022-05-05T09:02:47.000Z</time>
      </trkpt>
      <trkpt lat="47.30723" lon="-2.24871">
        <ele>-9.1999998092651</ele>
        <time>2022-05-05T09:02:49.000Z</time>
      </trkpt>
      <trkpt lat="47.30713" lon="-2.24854">
        <ele>-9.1999998092651</ele>
        <time>2022-05-05T09:02:52.000Z</time>
      </trkpt>
      <trkpt lat="47.3071" lon="-2.24847">
        <ele>-9.1999998092651</ele>
        <time>2022-05-05T09:02:53.000Z</time>
      </trkpt>
      <trkpt lat="47.30703" lon="-2.24834">
        <ele>-9.1999998092651</ele>
        <time>2022-05-05T09:02:55.000Z</time>
      </trkpt>
      <trkpt lat="47.30695" lon="-2.24821">
        <ele>-9.1999998092651</ele>
        <time>2022-05-05T09:02:57.000Z</time>
      </trkpt>
      <trkpt lat="47.30686" lon="-2.24809">
        <ele>-9.1999998092651</ele>
        <time>2022-05-05T09:02:59.000Z</time>
      </trkpt>
      <trkpt lat="47.30671" lon="-2.24788">
        <ele>-9.1999998092651</ele>
        <time>2022-05-05T09:03:02.000Z</time>
      </trkpt>
      <trkpt lat="47.30658" lon="-2.24767">
        <ele>-9.1999998092651</ele>
        <time>2022-05-05T09:03:05.000Z</time>
      </trkpt>
      <trkpt lat="47.3065" lon="-2.24751">
        <ele>-9.1999998092651</ele>
        <time>2022-05-05T09:03:07.000Z</time>
      </trkpt>
      <trkpt lat="47.30645" lon="-2.24733">
        <ele>-9.1999998092651</ele>
        <time>2022-05-05T09:03:09.000Z</time>
      </trkpt>
      <trkpt lat="47.30633" lon="-2.24697">
        <ele>-9.1999998092651</ele>
        <time>2022-05-05T09:03:13.000Z</time>
      </trkpt>
      <trkpt lat="47.30618" lon="-2.24646">
        <ele>-9.1999998092651</ele>
        <time>2022-05-05T09:03:19.000Z</time>
      </trkpt>
      <trkpt lat="47.30611" lon="-2.24625">
        <ele>-9.1999998092651</ele>
        <time>2022-05-05T09:03:22.000Z</time>
      </trkpt>
      <trkpt lat="47.3061" lon="-2.24608">
        <ele>-9.1999998092651</ele>
        <time>2022-05-05T09:03:24.000Z</time>
      </trkpt>
      <trkpt lat="47.30612" lon="-2.24592">
        <ele>-9.1999998092651</ele>
        <time>2022-05-05T09:03:26.000Z</time>
      </trkpt>
      <trkpt lat="47.30615" lon="-2.24568">
        <ele>-9.1999998092651</ele>
        <time>2022-05-05T09:03:29.000Z</time>
      </trkpt>
      <trkpt lat="47.30618" lon="-2.24546">
        <ele>-8.6000003814697</ele>
        <time>2022-05-05T09:03:32.000Z</time>
      </trkpt>
      <trkpt lat="47.30618" lon="-2.24538">
        <ele>-8.1999998092651</ele>
        <time>2022-05-05T09:03:33.000Z</time>
      </trkpt>
      <trkpt lat="47.30619" lon="-2.24531">
        <ele>-7.8000001907349</ele>
        <time>2022-05-05T09:03:34.000Z</time>
      </trkpt>
      <trkpt lat="47.3062" lon="-2.24524">
        <ele>-7.4000000953674</ele>
        <time>2022-05-05T09:03:35.000Z</time>
      </trkpt>
      <trkpt lat="47.3062" lon="-2.24517">
        <ele>-7</ele>
        <time>2022-05-05T09:03:36.000Z</time>
      </trkpt>
      <trkpt lat="47.30622" lon="-2.2451">
        <ele>-7</ele>
        <time>2022-05-05T09:03:37.000Z</time>
      </trkpt>
      <trkpt lat="47.30624" lon="-2.24497">
        <ele>-6.5999999046326</ele>
        <time>2022-05-05T09:03:39.000Z</time>
      </trkpt>
      <trkpt lat="47.30625" lon="-2.2449">
        <ele>-6</ele>
        <time>2022-05-05T09:03:40.000Z</time>
      </trkpt>
      <trkpt lat="47.30626" lon="-2.24483">
        <ele>-5.5999999046326</ele>
        <time>2022-05-05T09:03:41.000Z</time>
      </trkpt>
      <trkpt lat="47.30627" lon="-2.24476">
        <ele>-5.1999998092651</ele>
        <time>2022-05-05T09:03:42.000Z</time>
      </trkpt>
      <trkpt lat="47.30628" lon="-2.24469">
        <ele>-4.5999999046326</ele>
        <time>2022-05-05T09:03:43.000Z</time>
      </trkpt>
      <trkpt lat="47.30632" lon="-2.24444">
        <ele>-4.1999998092651</ele>
        <time>2022-05-05T09:03:47.000Z</time>
      </trkpt>
      <trkpt lat="47.30633" lon="-2.24438">
        <ele>-3.7999999523163</ele>
        <time>2022-05-05T09:03:48.000Z</time>
      </trkpt>
      <trkpt lat="47.30634" lon="-2.24433">
        <ele>-3.4000000953674</ele>
        <time>2022-05-05T09:03:49.000Z</time>
      </trkpt>
      <trkpt lat="47.30634" lon="-2.24428">
        <ele>-3</ele>
        <time>2022-05-05T09:03:50.000Z</time>
      </trkpt>
      <trkpt lat="47.30632" lon="-2.24426">
        <ele>-2.5999999046326</ele>
        <time>2022-05-05T09:03:51.000Z</time>
      </trkpt>
      <trkpt lat="47.30631" lon="-2.24424">
        <ele>-2.5999999046326</ele>
        <time>2022-05-05T09:03:52.000Z</time>
      </trkpt>
      <trkpt lat="47.30625" lon="-2.24421">
        <ele>-2.2000000476837</ele>
        <time>2022-05-05T09:03:54.000Z</time>
      </trkpt>
      <trkpt lat="47.30621" lon="-2.2442">
        <ele>-1.7999999523163</ele>
        <time>2022-05-05T09:03:55.000Z</time>
      </trkpt>
      <trkpt lat="47.30618" lon="-2.24419">
        <ele>-1.2000000476837</ele>
        <time>2022-05-05T09:03:56.000Z</time>
      </trkpt>
      <trkpt lat="47.30614" lon="-2.24418">
        <ele>-0.80000001192093</ele>
        <time>2022-05-05T09:03:57.000Z</time>
      </trkpt>
      <trkpt lat="47.3061" lon="-2.24417">
        <ele>-0.40000000596046</ele>
        <time>2022-05-05T09:03:58.000Z</time>
      </trkpt>
      <trkpt lat="47.30602" lon="-2.24412">
        <ele>-0.40000000596046</ele>
        <time>2022-05-05T09:04:00.000Z</time>
      </trkpt>
      <trkpt lat="47.30595" lon="-2.24405">
        <ele>-0.40000000596046</ele>
        <time>2022-05-05T09:04:02.000Z</time>
      </trkpt>
      <trkpt lat="47.30583" lon="-2.24393">
        <ele>13.7</ele>
        <time>2022-05-05T09:04:05.000Z</time>
      </trkpt>
      <trkpt lat="47.30579" lon="-2.24388">
        <ele>0.40000000596046</ele>
        <time>2022-05-05T09:04:06.000Z</time>
      </trkpt>
      <trkpt lat="47.30575" lon="-2.24384">
        <ele>0.80000001192093</ele>
        <time>2022-05-05T09:04:07.000Z</time>
      </trkpt>
      <trkpt lat="47.3057" lon="-2.2438">
        <ele>1.2000000476837</ele>
        <time>2022-05-05T09:04:08.000Z</time>
      </trkpt>
      <trkpt lat="47.30566" lon="-2.24375">
        <ele>1.7999999523163</ele>
        <time>2022-05-05T09:04:09.000Z</time>
      </trkpt>
      <trkpt lat="47.30562" lon="-2.24371">
        <ele>1.7999999523163</ele>
        <time>2022-05-05T09:04:10.000Z</time>
      </trkpt>
      <trkpt lat="47.30543" lon="-2.24352">
        <ele>1.7999999523163</ele>
        <time>2022-05-05T09:04:15.000Z</time>
      </trkpt>
      <trkpt lat="47.30517" lon="-2.24323">
        <ele>1.7999999523163</ele>
        <time>2022-05-05T09:04:21.000Z</time>
      </trkpt>
      <trkpt lat="47.30499" lon="-2.24303">
        <ele>1.7999999523163</ele>
        <time>2022-05-05T09:04:25.000Z</time>
      </trkpt>
      <trkpt lat="47.30483" lon="-2.24293">
        <ele>1.7999999523163</ele>
        <time>2022-05-05T09:04:28.000Z</time>
      </trkpt>
      <trkpt lat="47.30467" lon="-2.24286">
        <ele>1.7999999523163</ele>
        <time>2022-05-05T09:04:31.000Z</time>
      </trkpt>
      <trkpt lat="47.30448" lon="-2.24281">
        <ele>1.7999999523163</ele>
        <time>2022-05-05T09:04:34.000Z</time>
      </trkpt>
      <trkpt lat="47.30415" lon="-2.24273">
        <ele>1.7999999523163</ele>
        <time>2022-05-05T09:04:40.000Z</time>
      </trkpt>
      <trkpt lat="47.3041" lon="-2.24269">
        <ele>1.7999999523163</ele>
        <time>2022-05-05T09:04:41.000Z</time>
      </trkpt>
      <trkpt lat="47.30397" lon="-2.24254">
        <ele>1.7999999523163</ele>
        <time>2022-05-05T09:04:44.000Z</time>
      </trkpt>
      <trkpt lat="47.30392" lon="-2.24249">
        <ele>1.7999999523163</ele>
        <time>2022-05-05T09:04:45.000Z</time>
      </trkpt>
      <trkpt lat="47.30356" lon="-2.24206">
        <ele>1.7999999523163</ele>
        <time>2022-05-05T09:04:53.000Z</time>
      </trkpt>
      <trkpt lat="47.30353" lon="-2.24197">
        <ele>1.7999999523163</ele>
        <time>2022-05-05T09:04:54.000Z</time>
      </trkpt>
      <trkpt lat="47.3035" lon="-2.24174">
        <ele>1.7999999523163</ele>
        <time>2022-05-05T09:04:57.000Z</time>
      </trkpt>
      <trkpt lat="47.30351" lon="-2.24166">
        <ele>1.7999999523163</ele>
        <time>2022-05-05T09:04:58.000Z</time>
      </trkpt>
      <trkpt lat="47.3036" lon="-2.24149">
        <ele>1.7999999523163</ele>
        <time>2022-05-05T09:05:01.000Z</time>
      </trkpt>
      <trkpt lat="47.30367" lon="-2.24139">
        <ele>2.2000000476837</ele>
        <time>2022-05-05T09:05:03.000Z</time>
      </trkpt>
      <trkpt lat="47.3037" lon="-2.24134">
        <ele>2.5999999046326</ele>
        <time>2022-05-05T09:05:04.000Z</time>
      </trkpt>
      <trkpt lat="47.30373" lon="-2.2413">
        <ele>3</ele>
        <time>2022-05-05T09:05:05.000Z</time>
      </trkpt>
      <trkpt lat="47.30377" lon="-2.24126">
        <ele>3.4000000953674</ele>
        <time>2022-05-05T09:05:06.000Z</time>
      </trkpt>
      <trkpt lat="47.30381" lon="-2.24124">
        <ele>3.7999999523163</ele>
        <time>2022-05-05T09:05:07.000Z</time>
      </trkpt>
      <trkpt lat="47.30397" lon="-2.24104">
        <ele>3.7999999523163</ele>
        <time>2022-05-05T09:05:12.000Z</time>
      </trkpt>
      <trkpt lat="47.30422" lon="-2.2407">
        <ele>3.7999999523163</ele>
        <time>2022-05-05T09:05:18.000Z</time>
      </trkpt>
      <trkpt lat="47.30431" lon="-2.24058">
        <ele>3.2000000476837</ele>
        <time>2022-05-05T09:05:20.000Z</time>
      </trkpt>
      <trkpt lat="47.30435" lon="-2.24051">
        <ele>2.7999999523163</ele>
        <time>2022-05-05T09:05:21.000Z</time>
      </trkpt>
      <trkpt lat="47.3044" lon="-2.24045">
        <ele>2.4000000953674</ele>
        <time>2022-05-05T09:05:22.000Z</time>
      </trkpt>
      <trkpt lat="47.30445" lon="-2.24039">
        <ele>2</ele>
        <time>2022-05-05T09:05:23.000Z</time>
      </trkpt>
      <trkpt lat="47.30449" lon="-2.24035">
        <ele>1.3999999761581</ele>
        <time>2022-05-05T09:05:24.000Z</time>
      </trkpt>
      <trkpt lat="47.30454" lon="-2.24032">
        <ele>1.3999999761581</ele>
        <time>2022-05-05T09:05:25.000Z</time>
      </trkpt>
      <trkpt lat="47.3047" lon="-2.24021">
        <ele>1</ele>
        <time>2022-05-05T09:05:28.000Z</time>
      </trkpt>
      <trkpt lat="47.30477" lon="-2.24015">
        <ele>0.40000000596046</ele>
        <time>2022-05-05T09:05:29.000Z</time>
      </trkpt>
      <trkpt lat="47.30483" lon="-2.24008">
        <ele>9.2</ele>
        <time>2022-05-05T09:05:30.000Z</time>
      </trkpt>
      <trkpt lat="47.30489" lon="-2.23999">
        <ele>-0.60000002384186</ele>
        <time>2022-05-05T09:05:31.000Z</time>
      </trkpt>
      <trkpt lat="47.30495" lon="-2.2399">
        <ele>-1</ele>
        <time>2022-05-05T09:05:32.000Z</time>
      </trkpt>
      <trkpt lat="47.30505" lon="-2.23977">
        <ele>-2</ele>
        <time>2022-05-05T09:05:33.000Z</time>
      </trkpt>
      <trkpt lat="47.30511" lon="-2.23968">
        <ele>-2.4000000953674</ele>
        <time>2022-05-05T09:05:34.000Z</time>
      </trkpt>
      <trkpt lat="47.30518" lon="-2.23959">
        <ele>-3</ele>
        <time>2022-05-05T09:05:35.000Z</time>
      </trkpt>
      <trkpt lat="47.30525" lon="-2.23951">
        <ele>-3.4000000953674</ele>
        <time>2022-05-05T09:05:36.000Z</time>
      </trkpt>
      <trkpt lat="47.3053" lon="-2.23946">
        <ele>-4</ele>
        <time>2022-05-05T09:05:37.000Z</time>
      </trkpt>
      <trkpt lat="47.30536" lon="-2.2394">
        <ele>-4.5999999046326</ele>
        <time>2022-05-05T09:05:38.000Z</time>
      </trkpt>
      <trkpt lat="47.30539" lon="-2.23934">
        <ele>-5.1999998092651</ele>
        <time>2022-05-05T09:05:39.000Z</time>
      </trkpt>
      <trkpt lat="47.30542" lon="-2.23928">
        <ele>-6</ele>
        <time>2022-05-05T09:05:40.000Z</time>
      </trkpt>
      <trkpt lat="47.30542" lon="-2.23922">
        <ele>-6.8000001907349</ele>
        <time>2022-05-05T09:05:41.000Z</time>
      </trkpt>
      <trkpt lat="47.30542" lon="-2.23918">
        <ele>-7.4000000953674</ele>
        <time>2022-05-05T09:05:42.000Z</time>
      </trkpt>
      <trkpt lat="47.30539" lon="-2.23914">
        <ele>-8.1999998092651</ele>
        <time>2022-05-05T09:05:43.000Z</time>
      </trkpt>
      <trkpt lat="47.30536" lon="-2.2391">
        <ele>-8.1999998092651</ele>
        <time>2022-05-05T09:05:44.000Z</time>
      </trkpt>
      <trkpt lat="47.30515" lon="-2.23881">
        <ele>-8.1999998092651</ele>
        <time>2022-05-05T09:05:49.000Z</time>
      </trkpt>
      <trkpt lat="47.30493" lon="-2.23851">
        <ele>-8.1999998092651</ele>
        <time>2022-05-05T09:05:54.000Z</time>
      </trkpt>
      <trkpt lat="47.30482" lon="-2.23842">
        <ele>-8.1999998092651</ele>
        <time>2022-05-05T09:05:56.000Z</time>
      </trkpt>
      <trkpt lat="47.30463" lon="-2.23842">
        <ele>-8.1999998092651</ele>
        <time>2022-05-05T09:05:59.000Z</time>
      </trkpt>
      <trkpt lat="47.30457" lon="-2.23843">
        <ele>-8.1999998092651</ele>
        <time>2022-05-05T09:06:00.000Z</time>
      </trkpt>
      <trkpt lat="47.30412" lon="-2.23854">
        <ele>-8.1999998092651</ele>
        <time>2022-05-05T09:06:08.000Z</time>
      </trkpt>
      <trkpt lat="47.30386" lon="-2.23859">
        <ele>-8.1999998092651</ele>
        <time>2022-05-05T09:06:13.000Z</time>
      </trkpt>
      <trkpt lat="47.30381" lon="-2.2386">
        <ele>-8.1999998092651</ele>
        <time>2022-05-05T09:06:14.000Z</time>
      </trkpt>
      <trkpt lat="47.30357" lon="-2.23865">
        <ele>-8.1999998092651</ele>
        <time>2022-05-05T09:06:19.000Z</time>
      </trkpt>
      <trkpt lat="47.30324" lon="-2.23875">
        <ele>-8.1999998092651</ele>
        <time>2022-05-05T09:06:27.000Z</time>
      </trkpt>
      <trkpt lat="47.30296" lon="-2.23889">
        <ele>-8.1999998092651</ele>
        <time>2022-05-05T09:06:34.000Z</time>
      </trkpt>
      <trkpt lat="47.30284" lon="-2.23893">
        <ele>-8.1999998092651</ele>
        <time>2022-05-05T09:06:37.000Z</time>
      </trkpt>
      <trkpt lat="47.30277" lon="-2.23898">
        <ele>-8.1999998092651</ele>
        <time>2022-05-05T09:06:39.000Z</time>
      </trkpt>
      <trkpt lat="47.30262" lon="-2.23917">
        <ele>-8.1999998092651</ele>
        <time>2022-05-05T09:06:44.000Z</time>
      </trkpt>
      <trkpt lat="47.30263" lon="-2.23943">
        <ele>-8.1999998092651</ele>
        <time>2022-05-05T09:06:48.000Z</time>
      </trkpt>
      <trkpt lat="47.30272" lon="-2.23971">
        <ele>-8.1999998092651</ele>
        <time>2022-05-05T09:06:52.000Z</time>
      </trkpt>
      <trkpt lat="47.30278" lon="-2.23992">
        <ele>-8.1999998092651</ele>
        <time>2022-05-05T09:06:55.000Z</time>
      </trkpt>
      <trkpt lat="47.3028" lon="-2.24005">
        <ele>-7.8000001907349</ele>
        <time>2022-05-05T09:06:57.000Z</time>
      </trkpt>
      <trkpt lat="47.30281" lon="-2.24012">
        <ele>-7.4000000953674</ele>
        <time>2022-05-05T09:06:58.000Z</time>
      </trkpt>
      <trkpt lat="47.30282" lon="-2.24018">
        <ele>-7</ele>
        <time>2022-05-05T09:06:59.000Z</time>
      </trkpt>
      <trkpt lat="47.30283" lon="-2.24026">
        <ele>-6.5999999046326</ele>
        <time>2022-05-05T09:07:00.000Z</time>
      </trkpt>
      <trkpt lat="47.30284" lon="-2.24031">
        <ele>-6</ele>
        <time>2022-05-05T09:07:01.000Z</time>
      </trkpt>
      <trkpt lat="47.30286" lon="-2.24048">
        <ele>-5.1999998092651</ele>
        <time>2022-05-05T09:07:04.000Z</time>
      </trkpt>
      <trkpt lat="47.30285" lon="-2.24053">
        <ele>-4.8000001907349</ele>
        <time>2022-05-05T09:07:05.000Z</time>
      </trkpt>
      <trkpt lat="47.30284" lon="-2.24058">
        <ele>-4.4000000953674</ele>
        <time>2022-05-05T09:07:06.000Z</time>
      </trkpt>
      <trkpt lat="47.30281" lon="-2.24061">
        <ele>-3.7999999523163</ele>
        <time>2022-05-05T09:07:07.000Z</time>
      </trkpt>
      <trkpt lat="47.30271" lon="-2.24066">
        <ele>-3.7999999523163</ele>
        <time>2022-05-05T09:07:10.000Z</time>
      </trkpt>
      <trkpt lat="47.30266" lon="-2.24067">
        <ele>-3.7999999523163</ele>
        <time>2022-05-05T09:07:11.000Z</time>
      </trkpt>
      <trkpt lat="47.30244" lon="-2.24067">
        <ele>-3.7999999523163</ele>
        <time>2022-05-05T09:07:16.000Z</time>
      </trkpt>
      <trkpt lat="47.30214" lon="-2.24066">
        <ele>-3.4000000953674</ele>
        <time>2022-05-05T09:07:22.000Z</time>
      </trkpt>
      <trkpt lat="47.30209" lon="-2.24065">
        <ele>-3</ele>
        <time>2022-05-05T09:07:23.000Z</time>
      </trkpt>
      <trkpt lat="47.30203" lon="-2.24065">
        <ele>-2.5999999046326</ele>
        <time>2022-05-05T09:07:24.000Z</time>
      </trkpt>
      <trkpt lat="47.30198" lon="-2.24065">
        <ele>-2.2000000476837</ele>
        <time>2022-05-05T09:07:25.000Z</time>
      </trkpt>
      <trkpt lat="47.30194" lon="-2.24065">
        <ele>-1.7999999523163</ele>
        <time>2022-05-05T09:07:26.000Z</time>
      </trkpt>
      <trkpt lat="47.30179" lon="-2.24069">
        <ele>-1.7999999523163</ele>
        <time>2022-05-05T09:07:29.000Z</time>
      </trkpt>
      <trkpt lat="47.30147" lon="-2.24083">
        <ele>-1.7999999523163</ele>
        <time>2022-05-05T09:07:36.000Z</time>
      </trkpt>
      <trkpt lat="47.30119" lon="-2.24097">
        <ele>-1.7999999523163</ele>
        <time>2022-05-05T09:07:43.000Z</time>
      </trkpt>
      <trkpt lat="47.30092" lon="-2.24113">
        <ele>-1.7999999523163</ele>
        <time>2022-05-05T09:07:50.000Z</time>
      </trkpt>
      <trkpt lat="47.30066" lon="-2.24129">
        <ele>-1.7999999523163</ele>
        <time>2022-05-05T09:07:57.000Z</time>
      </trkpt>
      <trkpt lat="47.30042" lon="-2.24145">
        <ele>-1.7999999523163</ele>
        <time>2022-05-05T09:08:03.000Z</time>
      </trkpt>
      <trkpt lat="47.30033" lon="-2.24153">
        <ele>-1.7999999523163</ele>
        <time>2022-05-05T09:08:08.000Z</time>
      </trkpt>
      <trkpt lat="47.30033" lon="-2.24157">
        <ele>-1.7999999523163</ele>
        <time>2022-05-05T09:08:09.000Z</time>
      </trkpt>
      <trkpt lat="47.30032" lon="-2.2417">
        <ele>-1.7999999523163</ele>
        <time>2022-05-05T09:08:12.000Z</time>
      </trkpt>
      <trkpt lat="47.3003" lon="-2.24207">
        <ele>-1.3999999761581</ele>
        <time>2022-05-05T09:08:19.000Z</time>
      </trkpt>
      <trkpt lat="47.30029" lon="-2.24211">
        <ele>-0.80000001192093</ele>
        <time>2022-05-05T09:08:20.000Z</time>
      </trkpt>
      <trkpt lat="47.30029" lon="-2.24215">
        <ele>-0.40000000596046</ele>
        <time>2022-05-05T09:08:21.000Z</time>
      </trkpt>
      <trkpt lat="47.30028" lon="-2.2422">
        <ele>14.8</ele>
        <time>2022-05-05T09:08:22.000Z</time>
      </trkpt>
      <trkpt lat="47.30027" lon="-2.24225">
        <ele>0.60000002384186</ele>
        <time>2022-05-05T09:08:23.000Z</time>
      </trkpt>
      <trkpt lat="47.30026" lon="-2.24231">
        <ele>0.60000002384186</ele>
        <time>2022-05-05T09:08:24.000Z</time>
      </trkpt>
      <trkpt lat="47.30027" lon="-2.24252">
        <ele>0.60000002384186</ele>
        <time>2022-05-05T09:08:29.000Z</time>
      </trkpt>
      <trkpt lat="47.30028" lon="-2.24256">
        <ele>1</ele>
        <time>2022-05-05T09:08:30.000Z</time>
      </trkpt>
      <trkpt lat="47.30029" lon="-2.24259">
        <ele>1.3999999761581</ele>
        <time>2022-05-05T09:08:31.000Z</time>
      </trkpt>
      <trkpt lat="47.30029" lon="-2.24263">
        <ele>2</ele>
        <time>2022-05-05T09:08:32.000Z</time>
      </trkpt>
      <trkpt lat="47.30027" lon="-2.24268">
        <ele>2.4000000953674</ele>
        <time>2022-05-05T09:08:33.000Z</time>
      </trkpt>
      <trkpt lat="47.30025" lon="-2.24272">
        <ele>2.7999999523163</ele>
        <time>2022-05-05T09:08:34.000Z</time>
      </trkpt>
      <trkpt lat="47.30021" lon="-2.24278">
        <ele>2.7999999523163</ele>
        <time>2022-05-05T09:08:36.000Z</time>
      </trkpt>
      <trkpt lat="47.30018" lon="-2.24287">
        <ele>2.7999999523163</ele>
        <time>2022-05-05T09:08:38.000Z</time>
      </trkpt>
      <trkpt lat="47.30014" lon="-2.24306">
        <ele>2.7999999523163</ele>
        <time>2022-05-05T09:08:42.000Z</time>
      </trkpt>
      <trkpt lat="47.30009" lon="-2.24316">
        <ele>2.7999999523163</ele>
        <time>2022-05-05T09:08:44.000Z</time>
      </trkpt>
      <trkpt lat="47.30005" lon="-2.24327">
        <ele>3.2000000476837</ele>
        <time>2022-05-05T09:08:46.000Z</time>
      </trkpt>
      <trkpt lat="47.30004" lon="-2.24332">
        <ele>3.7999999523163</ele>
        <time>2022-05-05T09:08:47.000Z</time>
      </trkpt>
      <trkpt lat="47.30002" lon="-2.24337">
        <ele>4.1999998092651</ele>
        <time>2022-05-05T09:08:48.000Z</time>
      </trkpt>
      <trkpt lat="47.30001" lon="-2.24342">
        <ele>4.5999999046326</ele>
        <time>2022-05-05T09:08:49.000Z</time>
      </trkpt>
      <trkpt lat="47.29999" lon="-2.24347">
        <ele>5</ele>
        <time>2022-05-05T09:08:50.000Z</time>
      </trkpt>
      <trkpt lat="47.29995" lon="-2.24356">
        <ele>5</ele>
        <time>2022-05-05T09:08:52.000Z</time>
      </trkpt>
      <trkpt lat="47.29988" lon="-2.24358">
        <ele>5</ele>
        <time>2022-05-05T09:08:55.000Z</time>
      </trkpt>
      <trkpt lat="47.29987" lon="-2.24357">
        <ele>5</ele>
        <time>2022-05-05T09:08:58.000Z</time>
      </trkpt>
      <trkpt lat="47.29985" lon="-2.24355">
        <ele>5</ele>
        <time>2022-05-05T09:09:14.000Z</time>
      </trkpt>
      <trkpt lat="47.29976" lon="-2.24344">
        <ele>5</ele>
        <time>2022-05-05T09:09:19.000Z</time>
      </trkpt>
      <trkpt lat="47.29963" lon="-2.24328">
        <ele>5</ele>
        <time>2022-05-05T09:09:24.000Z</time>
      </trkpt>
      <trkpt lat="47.29946" lon="-2.24313">
        <ele>5</ele>
        <time>2022-05-05T09:09:30.000Z</time>
      </trkpt>
      <trkpt lat="47.29936" lon="-2.24299">
        <ele>5</ele>
        <time>2022-05-05T09:09:35.000Z</time>
      </trkpt>
      <trkpt lat="47.29924" lon="-2.24288">
        <ele>5</ele>
        <time>2022-05-05T09:09:40.000Z</time>
      </trkpt>
      <trkpt lat="47.29903" lon="-2.24277">
        <ele>5</ele>
        <time>2022-05-05T09:09:47.000Z</time>
      </trkpt>
      <trkpt lat="47.29887" lon="-2.24265">
        <ele>5</ele>
        <time>2022-05-05T09:09:53.000Z</time>
      </trkpt>
      <trkpt lat="47.29866" lon="-2.24251">
        <ele>5</ele>
        <time>2022-05-05T09:10:00.000Z</time>
      </trkpt>
      <trkpt lat="47.29844" lon="-2.2424">
        <ele>5</ele>
        <time>2022-05-05T09:10:07.000Z</time>
      </trkpt>
      <trkpt lat="47.29823" lon="-2.2423">
        <ele>5</ele>
        <time>2022-05-05T09:10:13.000Z</time>
      </trkpt>
      <trkpt lat="47.29806" lon="-2.24218">
        <ele>5</ele>
        <time>2022-05-05T09:10:20.000Z</time>
      </trkpt>
      <trkpt lat="47.29801" lon="-2.24218">
        <ele>4.5999999046326</ele>
        <time>2022-05-05T09:10:22.000Z</time>
      </trkpt>
      <trkpt lat="47.29798" lon="-2.24218">
        <ele>3.5999999046326</ele>
        <time>2022-05-05T09:10:23.000Z</time>
      </trkpt>
      <trkpt lat="47.29796" lon="-2.24219">
        <ele>3.2000000476837</ele>
        <time>2022-05-05T09:10:24.000Z</time>
      </trkpt>
      <trkpt lat="47.29793" lon="-2.2422">
        <ele>2.7999999523163</ele>
        <time>2022-05-05T09:10:25.000Z</time>
      </trkpt>
      <trkpt lat="47.29773" lon="-2.2423">
        <ele>2.7999999523163</ele>
        <time>2022-05-05T09:10:31.000Z</time>
      </trkpt>
      <trkpt lat="47.2976" lon="-2.24238">
        <ele>2.4000000953674</ele>
        <time>2022-05-05T09:10:34.000Z</time>
      </trkpt>
      <trkpt lat="47.29755" lon="-2.2424">
        <ele>2</ele>
        <time>2022-05-05T09:10:35.000Z</time>
      </trkpt>
      <trkpt lat="47.2975" lon="-2.24244">
        <ele>1.6000000238419</ele>
        <time>2022-05-05T09:10:36.000Z</time>
      </trkpt>
      <trkpt lat="47.29745" lon="-2.24246">
        <ele>1.2000000476837</ele>
        <time>2022-05-05T09:10:37.000Z</time>
      </trkpt>
      <trkpt lat="47.29741" lon="-2.24249">
        <ele>0.80000001192093</ele>
        <time>2022-05-05T09:10:38.000Z</time>
      </trkpt>
      <trkpt lat="47.29715" lon="-2.24261">
        <ele>0.80000001192093</ele>
        <time>2022-05-05T09:10:43.000Z</time>
      </trkpt>
      <trkpt lat="47.29704" lon="-2.24268">
        <ele>0.40000000596046</ele>
        <time>2022-05-05T09:10:45.000Z</time>
      </trkpt>
      <trkpt lat="47.29697" lon="-2.24271">
        <ele>9.7</ele>
        <time>2022-05-05T09:10:46.000Z</time>
      </trkpt>
      <trkpt lat="47.29691" lon="-2.24275">
        <ele>-0.60000002384186</ele>
        <time>2022-05-05T09:10:47.000Z</time>
      </trkpt>
      <trkpt lat="47.29685" lon="-2.24279">
        <ele>-1.3999999761581</ele>
        <time>2022-05-05T09:10:48.000Z</time>
      </trkpt>
      <trkpt lat="47.29679" lon="-2.24282">
        <ele>-1.3999999761581</ele>
        <time>2022-05-05T09:10:49.000Z</time>
      </trkpt>
      <trkpt lat="47.29646" lon="-2.243">
        <ele>-1.7999999523163</ele>
        <time>2022-05-05T09:10:54.000Z</time>
      </trkpt>
      <trkpt lat="47.29639" lon="-2.24304">
        <ele>-2.2000000476837</ele>
        <time>2022-05-05T09:10:55.000Z</time>
      </trkpt>
      <trkpt lat="47.29633" lon="-2.24307">
        <ele>-2.5999999046326</ele>
        <time>2022-05-05T09:10:56.000Z</time>
      </trkpt>
      <trkpt lat="47.29627" lon="-2.2431">
        <ele>-3</ele>
        <time>2022-05-05T09:10:57.000Z</time>
      </trkpt>
      <trkpt lat="47.29621" lon="-2.24313">
        <ele>-3.4000000953674</ele>
        <time>2022-05-05T09:10:58.000Z</time>
      </trkpt>
      <trkpt lat="47.29614" lon="-2.24314">
        <ele>-3.4000000953674</ele>
        <time>2022-05-05T09:10:59.000Z</time>
      </trkpt>
      <trkpt lat="47.29608" lon="-2.24316">
        <ele>-3.4000000953674</ele>
        <time>2022-05-05T09:11:00.000Z</time>
      </trkpt>
      <trkpt lat="47.29581" lon="-2.24319">
        <ele>-3.4000000953674</ele>
        <time>2022-05-05T09:11:05.000Z</time>
      </trkpt>
      <trkpt lat="47.29571" lon="-2.24317">
        <ele>-3.4000000953674</ele>
        <time>2022-05-05T09:11:07.000Z</time>
      </trkpt>
      <trkpt lat="47.29561" lon="-2.2431">
        <ele>-3.4000000953674</ele>
        <time>2022-05-05T09:11:09.000Z</time>
      </trkpt>
      <trkpt lat="47.29555" lon="-2.24305">
        <ele>-3.7999999523163</ele>
        <time>2022-05-05T09:11:10.000Z</time>
      </trkpt>
      <trkpt lat="47.2955" lon="-2.24299">
        <ele>-4.4000000953674</ele>
        <time>2022-05-05T09:11:11.000Z</time>
      </trkpt>
      <trkpt lat="47.29544" lon="-2.24295">
        <ele>-5.1999998092651</ele>
        <time>2022-05-05T09:11:12.000Z</time>
      </trkpt>
      <trkpt lat="47.29538" lon="-2.24292">
        <ele>-5.5999999046326</ele>
        <time>2022-05-05T09:11:13.000Z</time>
      </trkpt>
      <trkpt lat="47.29521" lon="-2.24295">
        <ele>-5.5999999046326</ele>
        <time>2022-05-05T09:11:16.000Z</time>
      </trkpt>
      <trkpt lat="47.29517" lon="-2.24296">
        <ele>-5.5999999046326</ele>
        <time>2022-05-05T09:11:17.000Z</time>
      </trkpt>
      <trkpt lat="47.29497" lon="-2.24304">
        <ele>-5.5999999046326</ele>
        <time>2022-05-05T09:11:22.000Z</time>
      </trkpt>
      <trkpt lat="47.29484" lon="-2.2431">
        <ele>-5.5999999046326</ele>
        <time>2022-05-05T09:11:25.000Z</time>
      </trkpt>
      <trkpt lat="47.2947" lon="-2.24314">
        <ele>-5.5999999046326</ele>
        <time>2022-05-05T09:11:28.000Z</time>
      </trkpt>
      <trkpt lat="47.29461" lon="-2.24317">
        <ele>-5.1999998092651</ele>
        <time>2022-05-05T09:11:30.000Z</time>
      </trkpt>
      <trkpt lat="47.29457" lon="-2.24318">
        <ele>-4.8000001907349</ele>
        <time>2022-05-05T09:11:31.000Z</time>
      </trkpt>
      <trkpt lat="47.29452" lon="-2.2432">
        <ele>-4.4000000953674</ele>
        <time>2022-05-05T09:11:32.000Z</time>
      </trkpt>
      <trkpt lat="47.29448" lon="-2.24322">
        <ele>-4</ele>
        <time>2022-05-05T09:11:33.000Z</time>
      </trkpt>
      <trkpt lat="47.29443" lon="-2.24323">
        <ele>-3.4000000953674</ele>
        <time>2022-05-05T09:11:34.000Z</time>
      </trkpt>
      <trkpt lat="47.29434" lon="-2.24327">
        <ele>-3.4000000953674</ele>
        <time>2022-05-05T09:11:36.000Z</time>
      </trkpt>
      <trkpt lat="47.29408" lon="-2.24348">
        <ele>-3.4000000953674</ele>
        <time>2022-05-05T09:11:42.000Z</time>
      </trkpt>
      <trkpt lat="47.29404" lon="-2.24352">
        <ele>-3</ele>
        <time>2022-05-05T09:11:43.000Z</time>
      </trkpt>
      <trkpt lat="47.294" lon="-2.24355">
        <ele>-2.5999999046326</ele>
        <time>2022-05-05T09:11:44.000Z</time>
      </trkpt>
      <trkpt lat="47.29396" lon="-2.24359">
        <ele>-2.2000000476837</ele>
        <time>2022-05-05T09:11:45.000Z</time>
      </trkpt>
      <trkpt lat="47.29392" lon="-2.24364">
        <ele>-1.7999999523163</ele>
        <time>2022-05-05T09:11:46.000Z</time>
      </trkpt>
      <trkpt lat="47.29388" lon="-2.24369">
        <ele>-1.3999999761581</ele>
        <time>2022-05-05T09:11:47.000Z</time>
      </trkpt>
      <trkpt lat="47.29377" lon="-2.24382">
        <ele>-1.3999999761581</ele>
        <time>2022-05-05T09:11:50.000Z</time>
      </trkpt>
      <trkpt lat="47.29348" lon="-2.24411">
        <ele>-1.3999999761581</ele>
        <time>2022-05-05T09:11:57.000Z</time>
      </trkpt>
      <trkpt lat="47.29318" lon="-2.24441">
        <ele>-1.3999999761581</ele>
        <time>2022-05-05T09:12:04.000Z</time>
      </trkpt>
      <trkpt lat="47.29309" lon="-2.24448">
        <ele>-1.3999999761581</ele>
        <time>2022-05-05T09:12:06.000Z</time>
      </trkpt>
      <trkpt lat="47.29294" lon="-2.24466">
        <ele>-1.3999999761581</ele>
        <time>2022-05-05T09:12:10.000Z</time>
      </trkpt>
      <trkpt lat="47.29293" lon="-2.24486">
        <ele>-1.3999999761581</ele>
        <time>2022-05-05T09:12:13.000Z</time>
      </trkpt>
      <trkpt lat="47.29293" lon="-2.24493">
        <ele>-1.3999999761581</ele>
        <time>2022-05-05T09:12:14.000Z</time>
      </trkpt>
      <trkpt lat="47.29293" lon="-2.24514">
        <ele>-1.3999999761581</ele>
        <time>2022-05-05T09:12:17.000Z</time>
      </trkpt>
      <trkpt lat="47.29294" lon="-2.2453">
        <ele>-1.3999999761581</ele>
        <time>2022-05-05T09:12:19.000Z</time>
      </trkpt>
      <trkpt lat="47.29297" lon="-2.24586">
        <ele>-1.3999999761581</ele>
        <time>2022-05-05T09:12:25.000Z</time>
      </trkpt>
      <trkpt lat="47.29298" lon="-2.24613">
        <ele>-1.3999999761581</ele>
        <time>2022-05-05T09:12:28.000Z</time>
      </trkpt>
      <trkpt lat="47.29297" lon="-2.24628">
        <ele>-1.3999999761581</ele>
        <time>2022-05-05T09:12:30.000Z</time>
      </trkpt>
      <trkpt lat="47.29296" lon="-2.24635">
        <ele>-1.3999999761581</ele>
        <time>2022-05-05T09:12:31.000Z</time>
      </trkpt>
      <trkpt lat="47.29296" lon="-2.24642">
        <ele>-1.3999999761581</ele>
        <time>2022-05-05T09:12:32.000Z</time>
      </trkpt>
      <trkpt lat="47.29298" lon="-2.2467">
        <ele>-1.3999999761581</ele>
        <time>2022-05-05T09:12:36.000Z</time>
      </trkpt>
      <trkpt lat="47.29298" lon="-2.24677">
        <ele>-1</ele>
        <time>2022-05-05T09:12:37.000Z</time>
      </trkpt>
      <trkpt lat="47.29299" lon="-2.24684">
        <ele>-0.60000002384186</ele>
        <time>2022-05-05T09:12:38.000Z</time>
      </trkpt>
      <trkpt lat="47.29301" lon="-2.2469">
        <ele>-0.20000000298023</ele>
        <time>2022-05-05T09:12:39.000Z</time>
      </trkpt>
      <trkpt lat="47.29303" lon="-2.24697">
        <ele>0.40000000596046</ele>
        <time>2022-05-05T09:12:40.000Z</time>
      </trkpt>
      <trkpt lat="47.29305" lon="-2.24703">
        <ele>0.80000001192093</ele>
        <time>2022-05-05T09:12:41.000Z</time>
      </trkpt>
      <trkpt lat="47.29312" lon="-2.24747">
        <ele>0.80000001192093</ele>
        <time>2022-05-05T09:12:47.000Z</time>
      </trkpt>
      <trkpt lat="47.29318" lon="-2.24773">
        <ele>0.80000001192093</ele>
        <time>2022-05-05T09:12:51.000Z</time>
      </trkpt>
      <trkpt lat="47.29319" lon="-2.24779">
        <ele>0.80000001192093</ele>
        <time>2022-05-05T09:12:52.000Z</time>
      </trkpt>
      <trkpt lat="47.29329" lon="-2.24831">
        <ele>0.80000001192093</ele>
        <time>2022-05-05T09:12:59.000Z</time>
      </trkpt>
      <trkpt lat="47.29333" lon="-2.2485">
        <ele>0.80000001192093</ele>
        <time>2022-05-05T09:13:02.000Z</time>
      </trkpt>
      <trkpt lat="47.29334" lon="-2.24874">
        <ele>1.2000000476837</ele>
        <time>2022-05-05T09:13:05.000Z</time>
      </trkpt>
      <trkpt lat="47.29334" lon="-2.24881">
        <ele>1.6000000238419</ele>
        <time>2022-05-05T09:13:06.000Z</time>
      </trkpt>
      <trkpt lat="47.29334" lon="-2.24888">
        <ele>2</ele>
        <time>2022-05-05T09:13:07.000Z</time>
      </trkpt>
      <trkpt lat="47.29334" lon="-2.24896">
        <ele>2.4000000953674</ele>
        <time>2022-05-05T09:13:08.000Z</time>
      </trkpt>
      <trkpt lat="47.29332" lon="-2.24902">
        <ele>2.7999999523163</ele>
        <time>2022-05-05T09:13:09.000Z</time>
      </trkpt>
      <trkpt lat="47.29328" lon="-2.24909">
        <ele>2.7999999523163</ele>
        <time>2022-05-05T09:13:10.000Z</time>
      </trkpt>
      <trkpt lat="47.29315" lon="-2.24916">
        <ele>2.7999999523163</ele>
        <time>2022-05-05T09:13:13.000Z</time>
      </trkpt>
      <trkpt lat="47.29286" lon="-2.24921">
        <ele>2.7999999523163</ele>
        <time>2022-05-05T09:13:19.000Z</time>
      </trkpt>
      <trkpt lat="47.29264" lon="-2.24922">
        <ele>2.7999999523163</ele>
        <time>2022-05-05T09:13:24.000Z</time>
      </trkpt>
      <trkpt lat="47.2926" lon="-2.24926">
        <ele>2.7999999523163</ele>
        <time>2022-05-05T09:13:25.000Z</time>
      </trkpt>
      <trkpt lat="47.29258" lon="-2.24946">
        <ele>2.7999999523163</ele>
        <time>2022-05-05T09:13:28.000Z</time>
      </trkpt>
      <trkpt lat="47.29259" lon="-2.24959">
        <ele>2.7999999523163</ele>
        <time>2022-05-05T09:13:30.000Z</time>
      </trkpt>
      <trkpt lat="47.2926" lon="-2.24973">
        <ele>2.7999999523163</ele>
        <time>2022-05-05T09:13:32.000Z</time>
      </trkpt>
      <trkpt lat="47.29262" lon="-2.24982">
        <ele>2.7999999523163</ele>
        <time>2022-05-05T09:13:33.000Z</time>
      </trkpt>
      <trkpt lat="47.2927" lon="-2.2502">
        <ele>2.7999999523163</ele>
        <time>2022-05-05T09:13:38.000Z</time>
      </trkpt>
      <trkpt lat="47.2928" lon="-2.25059">
        <ele>2.7999999523163</ele>
        <time>2022-05-05T09:13:43.000Z</time>
      </trkpt>
      <trkpt lat="47.29294" lon="-2.25129">
        <ele>2.7999999523163</ele>
        <time>2022-05-05T09:13:51.000Z</time>
      </trkpt>
      <trkpt lat="47.29297" lon="-2.25148">
        <ele>2.7999999523163</ele>
        <time>2022-05-05T09:13:53.000Z</time>
      </trkpt>
      <trkpt lat="47.29301" lon="-2.2517">
        <ele>2.4000000953674</ele>
        <time>2022-05-05T09:13:55.000Z</time>
      </trkpt>
      <trkpt lat="47.29304" lon="-2.2518">
        <ele>2</ele>
        <time>2022-05-05T09:13:56.000Z</time>
      </trkpt>
      <trkpt lat="47.29306" lon="-2.25189">
        <ele>1.6000000238419</ele>
        <time>2022-05-05T09:13:57.000Z</time>
      </trkpt>
      <trkpt lat="47.29309" lon="-2.25196">
        <ele>1.2000000476837</ele>
        <time>2022-05-05T09:13:58.000Z</time>
      </trkpt>
      <trkpt lat="47.29313" lon="-2.25201">
        <ele>0.80000001192093</ele>
        <time>2022-05-05T09:13:59.000Z</time>
      </trkpt>
      <trkpt lat="47.29323" lon="-2.25199">
        <ele>0.80000001192093</ele>
        <time>2022-05-05T09:14:01.000Z</time>
      </trkpt>
      <trkpt lat="47.29328" lon="-2.25198">
        <ele>0.80000001192093</ele>
        <time>2022-05-05T09:14:02.000Z</time>
      </trkpt>
      <trkpt lat="47.29344" lon="-2.25198">
        <ele>0.80000001192093</ele>
        <time>2022-05-05T09:14:05.000Z</time>
      </trkpt>
      <trkpt lat="47.29354" lon="-2.25199">
        <ele>0.80000001192093</ele>
        <time>2022-05-05T09:14:07.000Z</time>
      </trkpt>
      <trkpt lat="47.2939" lon="-2.25208">
        <ele>0.80000001192093</ele>
        <time>2022-05-05T09:14:13.000Z</time>
      </trkpt>
      <trkpt lat="47.29425" lon="-2.25212">
        <ele>0.80000001192093</ele>
        <time>2022-05-05T09:14:19.000Z</time>
      </trkpt>
      <trkpt lat="47.29451" lon="-2.25204">
        <ele>0.80000001192093</ele>
        <time>2022-05-05T09:14:24.000Z</time>
      </trkpt>
      <trkpt lat="47.29493" lon="-2.25195">
        <ele>1.2000000476837</ele>
        <time>2022-05-05T09:14:32.000Z</time>
      </trkpt>
      <trkpt lat="47.29498" lon="-2.25193">
        <ele>1.6000000238419</ele>
        <time>2022-05-05T09:14:33.000Z</time>
      </trkpt>
      <trkpt lat="47.29503" lon="-2.25192">
        <ele>2</ele>
        <time>2022-05-05T09:14:34.000Z</time>
      </trkpt>
      <trkpt lat="47.29508" lon="-2.2519">
        <ele>2.4000000953674</ele>
        <time>2022-05-05T09:14:35.000Z</time>
      </trkpt>
      <trkpt lat="47.29513" lon="-2.25189">
        <ele>2.7999999523163</ele>
        <time>2022-05-05T09:14:36.000Z</time>
      </trkpt>
      <trkpt lat="47.29522" lon="-2.25186">
        <ele>2.7999999523163</ele>
        <time>2022-05-05T09:14:38.000Z</time>
      </trkpt>
      <trkpt lat="47.29532" lon="-2.25183">
        <ele>2.7999999523163</ele>
        <time>2022-05-05T09:14:40.000Z</time>
      </trkpt>
      <trkpt lat="47.29543" lon="-2.25181">
        <ele>2.7999999523163</ele>
        <time>2022-05-05T09:14:43.000Z</time>
      </trkpt>
      <trkpt lat="47.2955" lon="-2.25178">
        <ele>2.7999999523163</ele>
        <time>2022-05-05T09:14:46.000Z</time>
      </trkpt>
      <trkpt lat="47.29553" lon="-2.25178">
        <ele>2.7999999523163</ele>
        <time>2022-05-05T09:14:47.000Z</time>
      </trkpt>
      <trkpt lat="47.29556" lon="-2.25179">
        <ele>2.7999999523163</ele>
        <time>2022-05-05T09:14:48.000Z</time>
      </trkpt>
      <trkpt lat="47.29557" lon="-2.25184">
        <ele>2.7999999523163</ele>
        <time>2022-05-05T09:14:50.000Z</time>
      </trkpt>
      <trkpt lat="47.29551" lon="-2.252">
        <ele>2.7999999523163</ele>
        <time>2022-05-05T09:14:54.000Z</time>
      </trkpt>
      <trkpt lat="47.29542" lon="-2.25229">
        <ele>2.7999999523163</ele>
        <time>2022-05-05T09:14:59.000Z</time>
      </trkpt>
      <trkpt lat="47.29542" lon="-2.25234">
        <ele>2.7999999523163</ele>
        <time>2022-05-05T09:15:00.000Z</time>
      </trkpt>
      <trkpt lat="47.2954" lon="-2.25253">
        <ele>2.7999999523163</ele>
        <time>2022-05-05T09:15:03.000Z</time>
      </trkpt>
      <trkpt lat="47.29539" lon="-2.25266">
        <ele>2.7999999523163</ele>
        <time>2022-05-05T09:15:05.000Z</time>
      </trkpt>
      <trkpt lat="47.29541" lon="-2.25287">
        <ele>2.7999999523163</ele>
        <time>2022-05-05T09:15:08.000Z</time>
      </trkpt>
      <trkpt lat="47.29545" lon="-2.25307">
        <ele>3.2000000476837</ele>
        <time>2022-05-05T09:15:11.000Z</time>
      </trkpt>
      <trkpt lat="47.29547" lon="-2.25313">
        <ele>3.5999999046326</ele>
        <time>2022-05-05T09:15:12.000Z</time>
      </trkpt>
      <trkpt lat="47.29549" lon="-2.25319">
        <ele>4.1999998092651</ele>
        <time>2022-05-05T09:15:13.000Z</time>
      </trkpt>
      <trkpt lat="47.29552" lon="-2.25324">
        <ele>4.5999999046326</ele>
        <time>2022-05-05T09:15:14.000Z</time>
      </trkpt>
      <trkpt lat="47.29555" lon="-2.2533">
        <ele>5</ele>
        <time>2022-05-05T09:15:15.000Z</time>
      </trkpt>
      <trkpt lat="47.29561" lon="-2.25341">
        <ele>5</ele>
        <time>2022-05-05T09:15:17.000Z</time>
      </trkpt>
      <trkpt lat="47.29564" lon="-2.25347">
        <ele>5</ele>
        <time>2022-05-05T09:15:18.000Z</time>
      </trkpt>
      <trkpt lat="47.29574" lon="-2.25374">
        <ele>5</ele>
        <time>2022-05-05T09:15:22.000Z</time>
      </trkpt>
      <trkpt lat="47.29581" lon="-2.25404">
        <ele>5.4000000953674</ele>
        <time>2022-05-05T09:15:26.000Z</time>
      </trkpt>
      <trkpt lat="47.29583" lon="-2.25411">
        <ele>5.8000001907349</ele>
        <time>2022-05-05T09:15:27.000Z</time>
      </trkpt>
      <trkpt lat="47.29584" lon="-2.25418">
        <ele>6.1999998092651</ele>
        <time>2022-05-05T09:15:28.000Z</time>
      </trkpt>
      <trkpt lat="47.29584" lon="-2.25426">
        <ele>6.5999999046326</ele>
        <time>2022-05-05T09:15:29.000Z</time>
      </trkpt>
      <trkpt lat="47.29585" lon="-2.25433">
        <ele>7</ele>
        <time>2022-05-05T09:15:30.000Z</time>
      </trkpt>
      <trkpt lat="47.29587" lon="-2.25455">
        <ele>7</ele>
        <time>2022-05-05T09:15:33.000Z</time>
      </trkpt>
      <trkpt lat="47.29588" lon="-2.25484">
        <ele>7</ele>
        <time>2022-05-05T09:15:37.000Z</time>
      </trkpt>
      <trkpt lat="47.29586" lon="-2.255">
        <ele>7</ele>
        <time>2022-05-05T09:15:39.000Z</time>
      </trkpt>
      <trkpt lat="47.29582" lon="-2.25516">
        <ele>7</ele>
        <time>2022-05-05T09:15:41.000Z</time>
      </trkpt>
      <trkpt lat="47.29571" lon="-2.25536">
        <ele>7</ele>
        <time>2022-05-05T09:15:44.000Z</time>
      </trkpt>
      <trkpt lat="47.29567" lon="-2.25542">
        <ele>7.5999999046326</ele>
        <time>2022-05-05T09:15:45.000Z</time>
      </trkpt>
      <trkpt lat="47.29562" lon="-2.25547">
        <ele>8</ele>
        <time>2022-05-05T09:15:46.000Z</time>
      </trkpt>
      <trkpt lat="47.29557" lon="-2.25551">
        <ele>8.3999996185303</ele>
        <time>2022-05-05T09:15:47.000Z</time>
      </trkpt>
      <trkpt lat="47.29552" lon="-2.25554">
        <ele>8.8000001907349</ele>
        <time>2022-05-05T09:15:48.000Z</time>
      </trkpt>
      <trkpt lat="47.29547" lon="-2.25558">
        <ele>9.1999998092651</ele>
        <time>2022-05-05T09:15:49.000Z</time>
      </trkpt>
      <trkpt lat="47.29542" lon="-2.25561">
        <ele>9.1999998092651</ele>
        <time>2022-05-05T09:15:50.000Z</time>
      </trkpt>
      <trkpt lat="47.29508" lon="-2.25583">
        <ele>9.1999998092651</ele>
        <time>2022-05-05T09:15:57.000Z</time>
      </trkpt>
      <trkpt lat="47.29482" lon="-2.25598">
        <ele>9.6000003814697</ele>
        <time>2022-05-05T09:16:02.000Z</time>
      </trkpt>
      <trkpt lat="47.29477" lon="-2.25601">
        <ele>10</ele>
        <time>2022-05-05T09:16:03.000Z</time>
      </trkpt>
      <trkpt lat="47.29472" lon="-2.25603">
        <ele>10.39999961853</ele>
        <time>2022-05-05T09:16:04.000Z</time>
      </trkpt>
      <trkpt lat="47.29467" lon="-2.25605">
        <ele>10.800000190735</ele>
        <time>2022-05-05T09:16:05.000Z</time>
      </trkpt>
      <trkpt lat="47.29462" lon="-2.25608">
        <ele>11.199999809265</ele>
        <time>2022-05-05T09:16:06.000Z</time>
      </trkpt>
      <trkpt lat="47.29436" lon="-2.25618">
        <ele>11.199999809265</ele>
        <time>2022-05-05T09:16:11.000Z</time>
      </trkpt>
      <trkpt lat="47.29401" lon="-2.25634">
        <ele>11.199999809265</ele>
        <time>2022-05-05T09:16:18.000Z</time>
      </trkpt>
      <trkpt lat="47.29393" lon="-2.25642">
        <ele>11.199999809265</ele>
        <time>2022-05-05T09:16:20.000Z</time>
      </trkpt>
      <trkpt lat="47.29387" lon="-2.25654">
        <ele>11.199999809265</ele>
        <time>2022-05-05T09:16:22.000Z</time>
      </trkpt>
      <trkpt lat="47.29383" lon="-2.25677">
        <ele>11.199999809265</ele>
        <time>2022-05-05T09:16:25.000Z</time>
      </trkpt>
      <trkpt lat="47.29382" lon="-2.25686">
        <ele>11.199999809265</ele>
        <time>2022-05-05T09:16:26.000Z</time>
      </trkpt>
      <trkpt lat="47.29375" lon="-2.25716">
        <ele>11.199999809265</ele>
        <time>2022-05-05T09:16:30.000Z</time>
      </trkpt>
      <trkpt lat="47.29369" lon="-2.25729">
        <ele>11.199999809265</ele>
        <time>2022-05-05T09:16:32.000Z</time>
      </trkpt>
      <trkpt lat="47.29362" lon="-2.25741">
        <ele>11.199999809265</ele>
        <time>2022-05-05T09:16:34.000Z</time>
      </trkpt>
      <trkpt lat="47.29353" lon="-2.25752">
        <ele>11.199999809265</ele>
        <time>2022-05-05T09:16:37.000Z</time>
      </trkpt>
      <trkpt lat="47.29334" lon="-2.2577">
        <ele>11.199999809265</ele>
        <time>2022-05-05T09:16:43.000Z</time>
      </trkpt>
      <trkpt lat="47.29327" lon="-2.25775">
        <ele>11.199999809265</ele>
        <time>2022-05-05T09:16:47.000Z</time>
      </trkpt>
      <trkpt lat="47.29324" lon="-2.25779">
        <ele>11.199999809265</ele>
        <time>2022-05-05T09:16:52.000Z</time>
      </trkpt>
      <trkpt lat="47.29329" lon="-2.25782">
        <ele>11.199999809265</ele>
        <time>2022-05-05T09:16:58.000Z</time>
      </trkpt>
      <trkpt lat="47.29333" lon="-2.25787">
        <ele>11.199999809265</ele>
        <time>2022-05-05T09:17:01.000Z</time>
      </trkpt>
      <trkpt lat="47.29345" lon="-2.25789">
        <ele>10.800000190735</ele>
        <time>2022-05-05T09:17:06.000Z</time>
      </trkpt>
      <trkpt lat="47.29347" lon="-2.2579">
        <ele>10.39999961853</ele>
        <time>2022-05-05T09:17:07.000Z</time>
      </trkpt>
      <trkpt lat="47.29349" lon="-2.2579">
        <ele>10</ele>
        <time>2022-05-05T09:17:08.000Z</time>
      </trkpt>
      <trkpt lat="47.2935" lon="-2.25789">
        <ele>9.3999996185303</ele>
        <time>2022-05-05T09:17:09.000Z</time>
      </trkpt>
      <trkpt lat="47.29351" lon="-2.25788">
        <ele>9</ele>
        <time>2022-05-05T09:17:10.000Z</time>
      </trkpt>
      <trkpt lat="47.29352" lon="-2.25785">
        <ele>9</ele>
        <time>2022-05-05T09:17:11.000Z</time>
      </trkpt>
      <trkpt lat="47.29355" lon="-2.25777">
        <ele>9</ele>
        <time>2022-05-05T09:17:14.000Z</time>
      </trkpt>
      <trkpt lat="47.29359" lon="-2.2577">
        <ele>9</ele>
        <time>2022-05-05T09:17:17.000Z</time>
      </trkpt>
      <trkpt lat="47.29361" lon="-2.2577">
        <ele>9</ele>
        <time>2022-05-05T09:17:18.000Z</time>
      </trkpt>
      <trkpt lat="47.29372" lon="-2.25768">
        <ele>9</ele>
        <time>2022-05-05T09:17:21.000Z</time>
      </trkpt>
      <trkpt lat="47.29375" lon="-2.25766">
        <ele>9</ele>
        <time>2022-05-05T09:17:22.000Z</time>
      </trkpt>
      <trkpt lat="47.29388" lon="-2.25763">
        <ele>9</ele>
        <time>2022-05-05T09:17:26.000Z</time>
      </trkpt>
      <trkpt lat="47.29404" lon="-2.2577">
        <ele>9</ele>
        <time>2022-05-05T09:17:31.000Z</time>
      </trkpt>
      <trkpt lat="47.29407" lon="-2.25773">
        <ele>8.6000003814697</ele>
        <time>2022-05-05T09:17:32.000Z</time>
      </trkpt>
      <trkpt lat="47.29411" lon="-2.25776">
        <ele>8.1999998092651</ele>
        <time>2022-05-05T09:17:33.000Z</time>
      </trkpt>
      <trkpt lat="47.29415" lon="-2.25778">
        <ele>7.8000001907349</ele>
        <time>2022-05-05T09:17:34.000Z</time>
      </trkpt>
      <trkpt lat="47.29418" lon="-2.25779">
        <ele>7.4000000953674</ele>
        <time>2022-05-05T09:17:35.000Z</time>
      </trkpt>
      <trkpt lat="47.2942" lon="-2.25781">
        <ele>6.8000001907349</ele>
        <time>2022-05-05T09:17:36.000Z</time>
      </trkpt>
      <trkpt lat="47.29424" lon="-2.2579">
        <ele>6.4000000953674</ele>
        <time>2022-05-05T09:17:40.000Z</time>
      </trkpt>
      <trkpt lat="47.29425" lon="-2.25792">
        <ele>6</ele>
        <time>2022-05-05T09:17:41.000Z</time>
      </trkpt>
      <trkpt lat="47.29425" lon="-2.25793">
        <ele>5.5999999046326</ele>
        <time>2022-05-05T09:17:42.000Z</time>
      </trkpt>
      <trkpt lat="47.29426" lon="-2.25796">
        <ele>5.1999998092651</ele>
        <time>2022-05-05T09:17:43.000Z</time>
      </trkpt>
      <trkpt lat="47.29426" lon="-2.25796">
        <ele>4.8000001907349</ele>
        <time>2022-05-05T09:17:44.000Z</time>
      </trkpt>
      <trkpt lat="47.29426" lon="-2.25797">
        <ele>4.8000001907349</ele>
        <time>2022-05-05T09:17:45.000Z</time>
      </trkpt>
      <trkpt lat="47.29429" lon="-2.25803">
        <ele>4.8000001907349</ele>
        <time>2022-05-05T09:17:54.000Z</time>
      </trkpt>
      <trkpt lat="47.29432" lon="-2.25826">
        <ele>4.8000001907349</ele>
        <time>2022-05-05T09:17:59.000Z</time>
      </trkpt>
      <trkpt lat="47.29431" lon="-2.2583">
        <ele>4.8000001907349</ele>
        <time>2022-05-05T09:18:00.000Z</time>
      </trkpt>
      <trkpt lat="47.29426" lon="-2.25853">
        <ele>4.8000001907349</ele>
        <time>2022-05-05T09:18:05.000Z</time>
      </trkpt>
      <trkpt lat="47.29427" lon="-2.25858">
        <ele>4.8000001907349</ele>
        <time>2022-05-05T09:18:06.000Z</time>
      </trkpt>
      <trkpt lat="47.29434" lon="-2.25874">
        <ele>4.8000001907349</ele>
        <time>2022-05-05T09:18:09.000Z</time>
      </trkpt>
      <trkpt lat="47.29436" lon="-2.25881">
        <ele>4.8000001907349</ele>
        <time>2022-05-05T09:18:10.000Z</time>
      </trkpt>
      <trkpt lat="47.29439" lon="-2.25896">
        <ele>4.8000001907349</ele>
        <time>2022-05-05T09:18:12.000Z</time>
      </trkpt>
      <trkpt lat="47.29443" lon="-2.25918">
        <ele>4.8000001907349</ele>
        <time>2022-05-05T09:18:15.000Z</time>
      </trkpt>
      <trkpt lat="47.2944" lon="-2.25935">
        <ele>4.8000001907349</ele>
        <time>2022-05-05T09:18:18.000Z</time>
      </trkpt>
      <trkpt lat="47.29438" lon="-2.25938">
        <ele>4.8000001907349</ele>
        <time>2022-05-05T09:18:19.000Z</time>
      </trkpt>
      <trkpt lat="47.29427" lon="-2.25949">
        <ele>4.8000001907349</ele>
        <time>2022-05-05T09:18:22.000Z</time>
      </trkpt>
      <trkpt lat="47.29419" lon="-2.25953">
        <ele>4.8000001907349</ele>
        <time>2022-05-05T09:18:24.000Z</time>
      </trkpt>
      <trkpt lat="47.29405" lon="-2.25958">
        <ele>4.8000001907349</ele>
        <time>2022-05-05T09:18:27.000Z</time>
      </trkpt>
      <trkpt lat="47.29396" lon="-2.25956">
        <ele>5.1999998092651</ele>
        <time>2022-05-05T09:18:29.000Z</time>
      </trkpt>
      <trkpt lat="47.29393" lon="-2.25955">
        <ele>5.8000001907349</ele>
        <time>2022-05-05T09:18:30.000Z</time>
      </trkpt>
      <trkpt lat="47.29391" lon="-2.25958">
        <ele>6.1999998092651</ele>
        <time>2022-05-05T09:18:31.000Z</time>
      </trkpt>
      <trkpt lat="47.29391" lon="-2.25963">
        <ele>6.5999999046326</ele>
        <time>2022-05-05T09:18:32.000Z</time>
      </trkpt>
      <trkpt lat="47.29392" lon="-2.25968">
        <ele>7</ele>
        <time>2022-05-05T09:18:33.000Z</time>
      </trkpt>
      <trkpt lat="47.29395" lon="-2.25983">
        <ele>7</ele>
        <time>2022-05-05T09:18:35.000Z</time>
      </trkpt>
      <trkpt lat="47.29392" lon="-2.26016">
        <ele>7</ele>
        <time>2022-05-05T09:18:40.000Z</time>
      </trkpt>
      <trkpt lat="47.29393" lon="-2.26023">
        <ele>6.5999999046326</ele>
        <time>2022-05-05T09:18:41.000Z</time>
      </trkpt>
      <trkpt lat="47.29396" lon="-2.26029">
        <ele>6.1999998092651</ele>
        <time>2022-05-05T09:18:42.000Z</time>
      </trkpt>
      <trkpt lat="47.29399" lon="-2.26035">
        <ele>5.8000001907349</ele>
        <time>2022-05-05T09:18:43.000Z</time>
      </trkpt>
      <trkpt lat="47.29402" lon="-2.26041">
        <ele>5.4000000953674</ele>
        <time>2022-05-05T09:18:44.000Z</time>
      </trkpt>
      <trkpt lat="47.29406" lon="-2.26046">
        <ele>5</ele>
        <time>2022-05-05T09:18:45.000Z</time>
      </trkpt>
      <trkpt lat="47.29413" lon="-2.26065">
        <ele>5</ele>
        <time>2022-05-05T09:18:48.000Z</time>
      </trkpt>
      <trkpt lat="47.29418" lon="-2.26119">
        <ele>5</ele>
        <time>2022-05-05T09:18:55.000Z</time>
      </trkpt>
      <trkpt lat="47.29412" lon="-2.26157">
        <ele>5</ele>
        <time>2022-05-05T09:19:01.000Z</time>
      </trkpt>
      <trkpt lat="47.29408" lon="-2.26164">
        <ele>5.8000001907349</ele>
        <time>2022-05-05T09:19:03.000Z</time>
      </trkpt>
      <trkpt lat="47.29405" lon="-2.26165">
        <ele>6.4000000953674</ele>
        <time>2022-05-05T09:19:04.000Z</time>
      </trkpt>
      <trkpt lat="47.29403" lon="-2.26166">
        <ele>6.8000001907349</ele>
        <time>2022-05-05T09:19:05.000Z</time>
      </trkpt>
      <trkpt lat="47.294" lon="-2.26167">
        <ele>7.1999998092651</ele>
        <time>2022-05-05T09:19:06.000Z</time>
      </trkpt>
      <trkpt lat="47.29389" lon="-2.26165">
        <ele>7.1999998092651</ele>
        <time>2022-05-05T09:19:11.000Z</time>
      </trkpt>
      <trkpt lat="47.2938" lon="-2.26161">
        <ele>7.1999998092651</ele>
        <time>2022-05-05T09:19:18.000Z</time>
      </trkpt>
      <trkpt lat="47.29374" lon="-2.26161">
        <ele>7.1999998092651</ele>
        <time>2022-05-05T09:20:23.000Z</time>
      </trkpt>
      <trkpt lat="47.29368" lon="-2.26165">
        <ele>7.1999998092651</ele>
        <time>2022-05-05T09:20:26.000Z</time>
      </trkpt>
      <trkpt lat="47.29364" lon="-2.26168">
        <ele>7.5999999046326</ele>
        <time>2022-05-05T09:20:28.000Z</time>
      </trkpt>
      <trkpt lat="47.29361" lon="-2.26169">
        <ele>8</ele>
        <time>2022-05-05T09:20:29.000Z</time>
      </trkpt>
      <trkpt lat="47.29359" lon="-2.26169">
        <ele>8.3999996185303</ele>
        <time>2022-05-05T09:20:30.000Z</time>
      </trkpt>
      <trkpt lat="47.29357" lon="-2.26169">
        <ele>8.8000001907349</ele>
        <time>2022-05-05T09:20:31.000Z</time>
      </trkpt>
      <trkpt lat="47.29354" lon="-2.26168">
        <ele>9.1999998092651</ele>
        <time>2022-05-05T09:20:32.000Z</time>
      </trkpt>
      <trkpt lat="47.29342" lon="-2.26168">
        <ele>9.1999998092651</ele>
        <time>2022-05-05T09:20:38.000Z</time>
      </trkpt>
      <trkpt lat="47.29331" lon="-2.2617">
        <ele>9.1999998092651</ele>
        <time>2022-05-05T09:20:44.000Z</time>
      </trkpt>
      <trkpt lat="47.2933" lon="-2.26169">
        <ele>9.1999998092651</ele>
        <time>2022-05-05T09:20:45.000Z</time>
      </trkpt>
      <trkpt lat="47.29326" lon="-2.26165">
        <ele>9.6000003814697</ele>
        <time>2022-05-05T09:20:48.000Z</time>
      </trkpt>
      <trkpt lat="47.29323" lon="-2.26167">
        <ele>10</ele>
        <time>2022-05-05T09:20:49.000Z</time>
      </trkpt>
      <trkpt lat="47.29321" lon="-2.26168">
        <ele>10.39999961853</ele>
        <time>2022-05-05T09:20:50.000Z</time>
      </trkpt>
      <trkpt lat="47.2932" lon="-2.2617">
        <ele>10.800000190735</ele>
        <time>2022-05-05T09:20:51.000Z</time>
      </trkpt>
      <trkpt lat="47.29319" lon="-2.26172">
        <ele>11.199999809265</ele>
        <time>2022-05-05T09:20:52.000Z</time>
      </trkpt>
      <trkpt lat="47.29319" lon="-2.26179">
        <ele>11.199999809265</ele>
        <time>2022-05-05T09:20:54.000Z</time>
      </trkpt>
      <trkpt lat="47.29309" lon="-2.26182">
        <ele>11.199999809265</ele>
        <time>2022-05-05T09:20:58.000Z</time>
      </trkpt>
      <trkpt lat="47.29306" lon="-2.26181">
        <ele>11.199999809265</ele>
        <time>2022-05-05T09:20:59.000Z</time>
      </trkpt>
      <trkpt lat="47.29294" lon="-2.26182">
        <ele>11.199999809265</ele>
        <time>2022-05-05T09:21:02.000Z</time>
      </trkpt>
      <trkpt lat="47.29275" lon="-2.26181">
        <ele>11.199999809265</ele>
        <time>2022-05-05T09:21:08.000Z</time>
      </trkpt>
      <trkpt lat="47.29267" lon="-2.26178">
        <ele>11.199999809265</ele>
        <time>2022-05-05T09:21:11.000Z</time>
      </trkpt>
      <trkpt lat="47.29262" lon="-2.26169">
        <ele>11.199999809265</ele>
        <time>2022-05-05T09:21:13.000Z</time>
      </trkpt>
      <trkpt lat="47.29255" lon="-2.26143">
        <ele>11.199999809265</ele>
        <time>2022-05-05T09:21:18.000Z</time>
      </trkpt>
      <trkpt lat="47.29244" lon="-2.26114">
        <ele>11.199999809265</ele>
        <time>2022-05-05T09:21:24.000Z</time>
      </trkpt>
      <trkpt lat="47.29239" lon="-2.26086">
        <ele>11.199999809265</ele>
        <time>2022-05-05T09:21:30.000Z</time>
      </trkpt>
      <trkpt lat="47.2925" lon="-2.26074">
        <ele>11.199999809265</ele>
        <time>2022-05-05T09:21:34.000Z</time>
      </trkpt>
      <trkpt lat="47.29267" lon="-2.26071">
        <ele>11.199999809265</ele>
        <time>2022-05-05T09:21:37.000Z</time>
      </trkpt>
      <trkpt lat="47.29278" lon="-2.26069">
        <ele>11.199999809265</ele>
        <time>2022-05-05T09:21:39.000Z</time>
      </trkpt>
      <trkpt lat="47.29291" lon="-2.26057">
        <ele>11.199999809265</ele>
        <time>2022-05-05T09:21:44.000Z</time>
      </trkpt>
      <trkpt lat="47.29288" lon="-2.26043">
        <ele>11.199999809265</ele>
        <time>2022-05-05T09:21:47.000Z</time>
      </trkpt>
      <trkpt lat="47.29287" lon="-2.26039">
        <ele>11.199999809265</ele>
        <time>2022-05-05T09:21:49.000Z</time>
      </trkpt>
      <trkpt lat="47.29286" lon="-2.26037">
        <ele>11.199999809265</ele>
        <time>2022-05-05T09:21:50.000Z</time>
      </trkpt>
      <trkpt lat="47.29278" lon="-2.26027">
        <ele>11.199999809265</ele>
        <time>2022-05-05T09:21:55.000Z</time>
      </trkpt>
      <trkpt lat="47.29273" lon="-2.26019">
        <ele>11.199999809265</ele>
        <time>2022-05-05T09:21:58.000Z</time>
      </trkpt>
      <trkpt lat="47.2927" lon="-2.25997">
        <ele>11.199999809265</ele>
        <time>2022-05-05T09:22:04.000Z</time>
      </trkpt>
      <trkpt lat="47.29272" lon="-2.25992">
        <ele>11.199999809265</ele>
        <time>2022-05-05T09:22:06.000Z</time>
      </trkpt>
      <trkpt lat="47.2928" lon="-2.25984">
        <ele>11.199999809265</ele>
        <time>2022-05-05T09:22:10.000Z</time>
      </trkpt>
      <trkpt lat="47.29291" lon="-2.25981">
        <ele>10.800000190735</ele>
        <time>2022-05-05T09:22:13.000Z</time>
      </trkpt>
      <trkpt lat="47.29294" lon="-2.2598">
        <ele>10.39999961853</ele>
        <time>2022-05-05T09:22:14.000Z</time>
      </trkpt>
      <trkpt lat="47.29295" lon="-2.25979">
        <ele>10</ele>
        <time>2022-05-05T09:22:15.000Z</time>
      </trkpt>
      <trkpt lat="47.29297" lon="-2.25979">
        <ele>9.6000003814697</ele>
        <time>2022-05-05T09:22:16.000Z</time>
      </trkpt>
      <trkpt lat="47.29298" lon="-2.25978">
        <ele>9.1999998092651</ele>
        <time>2022-05-05T09:22:17.000Z</time>
      </trkpt>
      <trkpt lat="47.29299" lon="-2.25976">
        <ele>9.1999998092651</ele>
        <time>2022-05-05T09:22:19.000Z</time>
      </trkpt>
      <trkpt lat="47.29307" lon="-2.25976">
        <ele>9.1999998092651</ele>
        <time>2022-05-05T09:23:26.000Z</time>
      </trkpt>
      <trkpt lat="47.29315" lon="-2.25971">
        <ele>9.1999998092651</ele>
        <time>2022-05-05T09:23:29.000Z</time>
      </trkpt>
      <trkpt lat="47.29326" lon="-2.25966">
        <ele>9.1999998092651</ele>
        <time>2022-05-05T09:23:34.000Z</time>
      </trkpt>
      <trkpt lat="47.29331" lon="-2.25968">
        <ele>9.1999998092651</ele>
        <time>2022-05-05T09:23:36.000Z</time>
      </trkpt>
      <trkpt lat="47.29343" lon="-2.25977">
        <ele>9.1999998092651</ele>
        <time>2022-05-05T09:23:42.000Z</time>
      </trkpt>
      <trkpt lat="47.29355" lon="-2.2598">
        <ele>9.1999998092651</ele>
        <time>2022-05-05T09:23:46.000Z</time>
      </trkpt>
      <trkpt lat="47.29357" lon="-2.25977">
        <ele>9.1999998092651</ele>
        <time>2022-05-05T09:23:47.000Z</time>
      </trkpt>
      <trkpt lat="47.29364" lon="-2.25964">
        <ele>9.1999998092651</ele>
        <time>2022-05-05T09:23:51.000Z</time>
      </trkpt>
      <trkpt lat="47.29376" lon="-2.25946">
        <ele>9.1999998092651</ele>
        <time>2022-05-05T09:23:56.000Z</time>
      </trkpt>
      <trkpt lat="47.2938" lon="-2.25924">
        <ele>9.1999998092651</ele>
        <time>2022-05-05T09:24:01.000Z</time>
      </trkpt>
      <trkpt lat="47.29381" lon="-2.25899">
        <ele>9.1999998092651</ele>
        <time>2022-05-05T09:24:06.000Z</time>
      </trkpt>
      <trkpt lat="47.29382" lon="-2.25893">
        <ele>9.1999998092651</ele>
        <time>2022-05-05T09:24:08.000Z</time>
      </trkpt>
      <trkpt lat="47.29382" lon="-2.25883">
        <ele>9.1999998092651</ele>
        <time>2022-05-05T09:24:11.000Z</time>
      </trkpt>
      <trkpt lat="47.29373" lon="-2.25875">
        <ele>9.1999998092651</ele>
        <time>2022-05-05T09:24:14.000Z</time>
      </trkpt>
      <trkpt lat="47.29362" lon="-2.25856">
        <ele>9.1999998092651</ele>
        <time>2022-05-05T09:24:20.000Z</time>
      </trkpt>
      <trkpt lat="47.29361" lon="-2.25852">
        <ele>9.1999998092651</ele>
        <time>2022-05-05T09:24:21.000Z</time>
      </trkpt>
      <trkpt lat="47.2936" lon="-2.25849">
        <ele>9.1999998092651</ele>
        <time>2022-05-05T09:24:22.000Z</time>
      </trkpt>
      <trkpt lat="47.29354" lon="-2.2584">
        <ele>9.1999998092651</ele>
        <time>2022-05-05T09:24:25.000Z</time>
      </trkpt>
      <trkpt lat="47.29342" lon="-2.25826">
        <ele>9.1999998092651</ele>
        <time>2022-05-05T09:24:32.000Z</time>
      </trkpt>
      <trkpt lat="47.29337" lon="-2.25817">
        <ele>9.1999998092651</ele>
        <time>2022-05-05T09:24:37.000Z</time>
      </trkpt>
      <trkpt lat="47.29336" lon="-2.25816">
        <ele>9.1999998092651</ele>
        <time>2022-05-05T09:24:38.000Z</time>
      </trkpt>
      <trkpt lat="47.29321" lon="-2.258">
        <ele>9.1999998092651</ele>
        <time>2022-05-05T09:24:59.000Z</time>
      </trkpt>
      <trkpt lat="47.29322" lon="-2.25795">
        <ele>9.1999998092651</ele>
        <time>2022-05-05T09:25:01.000Z</time>
      </trkpt>
      <trkpt lat="47.2933" lon="-2.25795">
        <ele>9.1999998092651</ele>
        <time>2022-05-05T09:25:06.000Z</time>
      </trkpt>
      <trkpt lat="47.29337" lon="-2.25797">
        <ele>9.1999998092651</ele>
        <time>2022-05-05T09:25:08.000Z</time>
      </trkpt>
      <trkpt lat="47.29345" lon="-2.25795">
        <ele>9.1999998092651</ele>
        <time>2022-05-05T09:25:11.000Z</time>
      </trkpt>
      <trkpt lat="47.29355" lon="-2.258">
        <ele>9.1999998092651</ele>
        <time>2022-05-05T09:25:15.000Z</time>
      </trkpt>
      <trkpt lat="47.29356" lon="-2.25802">
        <ele>9.1999998092651</ele>
        <time>2022-05-05T09:25:16.000Z</time>
      </trkpt>
      <trkpt lat="47.29363" lon="-2.25819">
        <ele>9.1999998092651</ele>
        <time>2022-05-05T09:25:24.000Z</time>
      </trkpt>
      <trkpt lat="47.29364" lon="-2.25827">
        <ele>9.1999998092651</ele>
        <time>2022-05-05T09:25:28.000Z</time>
      </trkpt>
      <trkpt lat="47.29361" lon="-2.25845">
        <ele>9.1999998092651</ele>
        <time>2022-05-05T09:25:40.000Z</time>
      </trkpt>
      <trkpt lat="47.29362" lon="-2.25848">
        <ele>9.1999998092651</ele>
        <time>2022-05-05T09:25:41.000Z</time>
      </trkpt>
      <trkpt lat="47.29364" lon="-2.25857">
        <ele>9.1999998092651</ele>
        <time>2022-05-05T09:25:44.000Z</time>
      </trkpt>
      <trkpt lat="47.29361" lon="-2.25864">
        <ele>9.1999998092651</ele>
        <time>2022-05-05T09:25:46.000Z</time>
      </trkpt>
      <trkpt lat="47.29358" lon="-2.25869">
        <ele>9.1999998092651</ele>
        <time>2022-05-05T09:25:48.000Z</time>
      </trkpt>
      <trkpt lat="47.29349" lon="-2.25877">
        <ele>9.1999998092651</ele>
        <time>2022-05-05T09:25:51.000Z</time>
      </trkpt>
      <trkpt lat="47.2934" lon="-2.25882">
        <ele>9.1999998092651</ele>
        <time>2022-05-05T09:25:54.000Z</time>
      </trkpt>
      <trkpt lat="47.29337" lon="-2.25881">
        <ele>9.1999998092651</ele>
        <time>2022-05-05T09:25:55.000Z</time>
      </trkpt>
      <trkpt lat="47.29325" lon="-2.25867">
        <ele>9.1999998092651</ele>
        <time>2022-05-05T09:26:00.000Z</time>
      </trkpt>
      <trkpt lat="47.29321" lon="-2.2585">
        <ele>9.1999998092651</ele>
        <time>2022-05-05T09:26:05.000Z</time>
      </trkpt>
      <trkpt lat="47.29319" lon="-2.25848">
        <ele>9.6000003814697</ele>
        <time>2022-05-05T09:26:06.000Z</time>
      </trkpt>
      <trkpt lat="47.29317" lon="-2.25846">
        <ele>10</ele>
        <time>2022-05-05T09:26:07.000Z</time>
      </trkpt>
      <trkpt lat="47.29314" lon="-2.25846">
        <ele>10.39999961853</ele>
        <time>2022-05-05T09:26:08.000Z</time>
      </trkpt>
      <trkpt lat="47.29312" lon="-2.25847">
        <ele>10.800000190735</ele>
        <time>2022-05-05T09:26:09.000Z</time>
      </trkpt>
      <trkpt lat="47.29311" lon="-2.2585">
        <ele>11.199999809265</ele>
        <time>2022-05-05T09:26:10.000Z</time>
      </trkpt>
      <trkpt lat="47.29311" lon="-2.25856">
        <ele>11.199999809265</ele>
        <time>2022-05-05T09:26:12.000Z</time>
      </trkpt>
      <trkpt lat="47.29314" lon="-2.25863">
        <ele>11.199999809265</ele>
        <time>2022-05-05T09:26:14.000Z</time>
      </trkpt>
      <trkpt lat="47.29319" lon="-2.25872">
        <ele>11.199999809265</ele>
        <time>2022-05-05T09:26:16.000Z</time>
      </trkpt>
      <trkpt lat="47.29324" lon="-2.25881">
        <ele>11.199999809265</ele>
        <time>2022-05-05T09:26:18.000Z</time>
      </trkpt>
      <trkpt lat="47.29324" lon="-2.25884">
        <ele>11.199999809265</ele>
        <time>2022-05-05T09:26:19.000Z</time>
      </trkpt>
      <trkpt lat="47.29322" lon="-2.25902">
        <ele>11.199999809265</ele>
        <time>2022-05-05T09:26:22.000Z</time>
      </trkpt>
      <trkpt lat="47.29313" lon="-2.25918">
        <ele>11.199999809265</ele>
        <time>2022-05-05T09:26:26.000Z</time>
      </trkpt>
      <trkpt lat="47.29303" lon="-2.25927">
        <ele>11.199999809265</ele>
        <time>2022-05-05T09:26:31.000Z</time>
      </trkpt>
      <trkpt lat="47.29283" lon="-2.25941">
        <ele>11.199999809265</ele>
        <time>2022-05-05T09:26:39.000Z</time>
      </trkpt>
      <trkpt lat="47.29242" lon="-2.25959">
        <ele>11.199999809265</ele>
        <time>2022-05-05T09:26:47.000Z</time>
      </trkpt>
      <trkpt lat="47.29216" lon="-2.25974">
        <ele>11.199999809265</ele>
        <time>2022-05-05T09:26:52.000Z</time>
      </trkpt>
      <trkpt lat="47.29192" lon="-2.25979">
        <ele>11.199999809265</ele>
        <time>2022-05-05T09:26:58.000Z</time>
      </trkpt>
      <trkpt lat="47.29189" lon="-2.25981">
        <ele>11.199999809265</ele>
        <time>2022-05-05T09:26:59.000Z</time>
      </trkpt>
      <trkpt lat="47.29184" lon="-2.25987">
        <ele>11.199999809265</ele>
        <time>2022-05-05T09:27:01.000Z</time>
      </trkpt>
      <trkpt lat="47.29183" lon="-2.25999">
        <ele>11.199999809265</ele>
        <time>2022-05-05T09:27:04.000Z</time>
      </trkpt>
      <trkpt lat="47.29184" lon="-2.26002">
        <ele>11.199999809265</ele>
        <time>2022-05-05T09:27:05.000Z</time>
      </trkpt>
      <trkpt lat="47.29187" lon="-2.26016">
        <ele>11.199999809265</ele>
        <time>2022-05-05T09:27:10.000Z</time>
      </trkpt>
      <trkpt lat="47.29193" lon="-2.26031">
        <ele>11.199999809265</ele>
        <time>2022-05-05T09:27:16.000Z</time>
      </trkpt>
      <trkpt lat="47.29199" lon="-2.26039">
        <ele>11.199999809265</ele>
        <time>2022-05-05T09:27:22.000Z</time>
      </trkpt>
      <trkpt lat="47.29207" lon="-2.26048">
        <ele>11.800000190735</ele>
        <time>2022-05-05T09:27:28.000Z</time>
      </trkpt>
      <trkpt lat="47.29209" lon="-2.2605">
        <ele>12.199999809265</ele>
        <time>2022-05-05T09:27:29.000Z</time>
      </trkpt>
      <trkpt lat="47.29212" lon="-2.26053">
        <ele>12.60000038147</ele>
        <time>2022-05-05T09:27:30.000Z</time>
      </trkpt>
      <trkpt lat="47.29215" lon="-2.26057">
        <ele>13</ele>
        <time>2022-05-05T09:27:31.000Z</time>
      </trkpt>
      <trkpt lat="47.29218" lon="-2.26061">
        <ele>13.39999961853</ele>
        <time>2022-05-05T09:27:32.000Z</time>
      </trkpt>
      <trkpt lat="47.29221" lon="-2.26065">
        <ele>13.39999961853</ele>
        <time>2022-05-05T09:27:33.000Z</time>
      </trkpt>
      <trkpt lat="47.29241" lon="-2.26089">
        <ele>13.39999961853</ele>
        <time>2022-05-05T09:27:39.000Z</time>
      </trkpt>
      <trkpt lat="47.2925" lon="-2.26109">
        <ele>13.39999961853</ele>
        <time>2022-05-05T09:27:43.000Z</time>
      </trkpt>
      <trkpt lat="47.29256" lon="-2.26137">
        <ele>13.39999961853</ele>
        <time>2022-05-05T09:27:48.000Z</time>
      </trkpt>
      <trkpt lat="47.29257" lon="-2.26159">
        <ele>13.39999961853</ele>
        <time>2022-05-05T09:27:51.000Z</time>
      </trkpt>
      <trkpt lat="47.29262" lon="-2.2617">
        <ele>13.39999961853</ele>
        <time>2022-05-05T09:27:53.000Z</time>
      </trkpt>
      <trkpt lat="47.29277" lon="-2.26178">
        <ele>13.39999961853</ele>
        <time>2022-05-05T09:27:57.000Z</time>
      </trkpt>
      <trkpt lat="47.29283" lon="-2.26178">
        <ele>13.39999961853</ele>
        <time>2022-05-05T09:27:58.000Z</time>
      </trkpt>
      <trkpt lat="47.29297" lon="-2.26179">
        <ele>13.39999961853</ele>
        <time>2022-05-05T09:28:01.000Z</time>
      </trkpt>
      <trkpt lat="47.29301" lon="-2.26181">
        <ele>13.39999961853</ele>
        <time>2022-05-05T09:28:02.000Z</time>
      </trkpt>
      <trkpt lat="47.29309" lon="-2.26181">
        <ele>13.39999961853</ele>
        <time>2022-05-05T09:28:05.000Z</time>
      </trkpt>
      <trkpt lat="47.2931" lon="-2.26177">
        <ele>13.39999961853</ele>
        <time>2022-05-05T09:28:07.000Z</time>
      </trkpt>
      <trkpt lat="47.29311" lon="-2.26174">
        <ele>13.39999961853</ele>
        <time>2022-05-05T09:28:10.000Z</time>
      </trkpt>
      <trkpt lat="47.2931" lon="-2.26172">
        <ele>13.39999961853</ele>
        <time>2022-05-05T09:28:11.000Z</time>
      </trkpt>
      <trkpt lat="47.29313" lon="-2.26164">
        <ele>13.39999961853</ele>
        <time>2022-05-05T09:28:14.000Z</time>
      </trkpt>
      <trkpt lat="47.29318" lon="-2.26166">
        <ele>13.39999961853</ele>
        <time>2022-05-05T09:28:16.000Z</time>
      </trkpt>
      <trkpt lat="47.29321" lon="-2.26168">
        <ele>13.39999961853</ele>
        <time>2022-05-05T09:28:17.000Z</time>
      </trkpt>
      <trkpt lat="47.29335" lon="-2.26167">
        <ele>13.39999961853</ele>
        <time>2022-05-05T09:28:20.000Z</time>
      </trkpt>
      <trkpt lat="47.29343" lon="-2.26163">
        <ele>13</ele>
        <time>2022-05-05T09:28:22.000Z</time>
      </trkpt>
      <trkpt lat="47.2935" lon="-2.26165">
        <ele>12.60000038147</ele>
        <time>2022-05-05T09:28:23.000Z</time>
      </trkpt>
      <trkpt lat="47.29358" lon="-2.26164">
        <ele>12.199999809265</ele>
        <time>2022-05-05T09:28:24.000Z</time>
      </trkpt>
      <trkpt lat="47.29363" lon="-2.26163">
        <ele>11.60000038147</ele>
        <time>2022-05-05T09:28:25.000Z</time>
      </trkpt>
      <trkpt lat="47.29369" lon="-2.26163">
        <ele>11.199999809265</ele>
        <time>2022-05-05T09:28:26.000Z</time>
      </trkpt>
      <trkpt lat="47.29384" lon="-2.26167">
        <ele>11.199999809265</ele>
        <time>2022-05-05T09:28:29.000Z</time>
      </trkpt>
      <trkpt lat="47.294" lon="-2.26173">
        <ele>10.800000190735</ele>
        <time>2022-05-05T09:28:32.000Z</time>
      </trkpt>
      <trkpt lat="47.29407" lon="-2.26176">
        <ele>10.39999961853</ele>
        <time>2022-05-05T09:28:33.000Z</time>
      </trkpt>
      <trkpt lat="47.29413" lon="-2.26179">
        <ele>10</ele>
        <time>2022-05-05T09:28:34.000Z</time>
      </trkpt>
      <trkpt lat="47.29419" lon="-2.26181">
        <ele>9.6000003814697</ele>
        <time>2022-05-05T09:28:35.000Z</time>
      </trkpt>
      <trkpt lat="47.29425" lon="-2.26183">
        <ele>9.1999998092651</ele>
        <time>2022-05-05T09:28:36.000Z</time>
      </trkpt>
      <trkpt lat="47.29431" lon="-2.26184">
        <ele>9.1999998092651</ele>
        <time>2022-05-05T09:28:37.000Z</time>
      </trkpt>
      <trkpt lat="47.29451" lon="-2.26184">
        <ele>8.8000001907349</ele>
        <time>2022-05-05T09:28:40.000Z</time>
      </trkpt>
      <trkpt lat="47.29458" lon="-2.26184">
        <ele>8.3999996185303</ele>
        <time>2022-05-05T09:28:41.000Z</time>
      </trkpt>
      <trkpt lat="47.29464" lon="-2.26184">
        <ele>8</ele>
        <time>2022-05-05T09:28:42.000Z</time>
      </trkpt>
      <trkpt lat="47.29471" lon="-2.26184">
        <ele>7.5999999046326</ele>
        <time>2022-05-05T09:28:43.000Z</time>
      </trkpt>
      <trkpt lat="47.29477" lon="-2.26186">
        <ele>7.1999998092651</ele>
        <time>2022-05-05T09:28:44.000Z</time>
      </trkpt>
      <trkpt lat="47.29484" lon="-2.26188">
        <ele>7.1999998092651</ele>
        <time>2022-05-05T09:28:45.000Z</time>
      </trkpt>
      <trkpt lat="47.2951" lon="-2.26198">
        <ele>6.8000001907349</ele>
        <time>2022-05-05T09:28:49.000Z</time>
      </trkpt>
      <trkpt lat="47.29515" lon="-2.262">
        <ele>6.4000000953674</ele>
        <time>2022-05-05T09:28:50.000Z</time>
      </trkpt>
      <trkpt lat="47.2952" lon="-2.26204">
        <ele>5.8000001907349</ele>
        <time>2022-05-05T09:28:51.000Z</time>
      </trkpt>
      <trkpt lat="47.29525" lon="-2.26207">
        <ele>5.4000000953674</ele>
        <time>2022-05-05T09:28:52.000Z</time>
      </trkpt>
      <trkpt lat="47.29529" lon="-2.2621">
        <ele>5</ele>
        <time>2022-05-05T09:28:53.000Z</time>
      </trkpt>
      <trkpt lat="47.29533" lon="-2.26217">
        <ele>5</ele>
        <time>2022-05-05T09:28:55.000Z</time>
      </trkpt>
      <trkpt lat="47.29535" lon="-2.2622">
        <ele>4.1999998092651</ele>
        <time>2022-05-05T09:28:56.000Z</time>
      </trkpt>
      <trkpt lat="47.29537" lon="-2.26222">
        <ele>3.7999999523163</ele>
        <time>2022-05-05T09:28:57.000Z</time>
      </trkpt>
      <trkpt lat="47.29538" lon="-2.26224">
        <ele>3.4000000953674</ele>
        <time>2022-05-05T09:28:58.000Z</time>
      </trkpt>
      <trkpt lat="47.2954" lon="-2.26226">
        <ele>3</ele>
        <time>2022-05-05T09:28:59.000Z</time>
      </trkpt>
      <trkpt lat="47.29539" lon="-2.26232">
        <ele>3</ele>
        <time>2022-05-05T09:29:01.000Z</time>
      </trkpt>
      <trkpt lat="47.29538" lon="-2.26245">
        <ele>3</ele>
        <time>2022-05-05T09:29:05.000Z</time>
      </trkpt>
      <trkpt lat="47.29552" lon="-2.26248">
        <ele>3</ele>
        <time>2022-05-05T09:29:08.000Z</time>
      </trkpt>
      <trkpt lat="47.29557" lon="-2.26249">
        <ele>2.5999999046326</ele>
        <time>2022-05-05T09:29:09.000Z</time>
      </trkpt>
      <trkpt lat="47.29563" lon="-2.26249">
        <ele>2.2000000476837</ele>
        <time>2022-05-05T09:29:10.000Z</time>
      </trkpt>
      <trkpt lat="47.29569" lon="-2.2625">
        <ele>1.6000000238419</ele>
        <time>2022-05-05T09:29:11.000Z</time>
      </trkpt>
      <trkpt lat="47.29576" lon="-2.2625">
        <ele>1.2000000476837</ele>
        <time>2022-05-05T09:29:12.000Z</time>
      </trkpt>
      <trkpt lat="47.29583" lon="-2.2625">
        <ele>0.80000001192093</ele>
        <time>2022-05-05T09:29:13.000Z</time>
      </trkpt>
      <trkpt lat="47.2959" lon="-2.26251">
        <ele>0.80000001192093</ele>
        <time>2022-05-05T09:29:14.000Z</time>
      </trkpt>
      <trkpt lat="47.29603" lon="-2.26252">
        <ele>0.40000000596046</ele>
        <time>2022-05-05T09:29:16.000Z</time>
      </trkpt>
      <trkpt lat="47.2961" lon="-2.26253">
        <ele>7</ele>
        <time>2022-05-05T09:29:17.000Z</time>
      </trkpt>
      <trkpt lat="47.29616" lon="-2.26253">
        <ele>-0.40000000596046</ele>
        <time>2022-05-05T09:29:18.000Z</time>
      </trkpt>
      <trkpt lat="47.29621" lon="-2.26254">
        <ele>-0.80000001192093</ele>
        <time>2022-05-05T09:29:19.000Z</time>
      </trkpt>
      <trkpt lat="47.29623" lon="-2.26256">
        <ele>-1.7999999523163</ele>
        <time>2022-05-05T09:29:20.000Z</time>
      </trkpt>
      <trkpt lat="47.29624" lon="-2.26259">
        <ele>-2.2000000476837</ele>
        <time>2022-05-05T09:29:21.000Z</time>
      </trkpt>
      <trkpt lat="47.29624" lon="-2.26261">
        <ele>-2.7999999523163</ele>
        <time>2022-05-05T09:29:22.000Z</time>
      </trkpt>
      <trkpt lat="47.29622" lon="-2.26264">
        <ele>-3.2000000476837</ele>
        <time>2022-05-05T09:29:23.000Z</time>
      </trkpt>
      <trkpt lat="47.29622" lon="-2.26265">
        <ele>-3.7999999523163</ele>
        <time>2022-05-05T09:29:24.000Z</time>
      </trkpt>
      <trkpt lat="47.29621" lon="-2.26267">
        <ele>-3.7999999523163</ele>
        <time>2022-05-05T09:29:25.000Z</time>
      </trkpt>
      <trkpt lat="47.2961" lon="-2.26279">
        <ele>-3.7999999523163</ele>
        <time>2022-05-05T09:29:31.000Z</time>
      </trkpt>
      <trkpt lat="47.29601" lon="-2.26288">
        <ele>-3.7999999523163</ele>
        <time>2022-05-05T09:29:37.000Z</time>
      </trkpt>
      <trkpt lat="47.29601" lon="-2.26309">
        <ele>-3.7999999523163</ele>
        <time>2022-05-05T09:30:59.000Z</time>
      </trkpt>
      <trkpt lat="47.29604" lon="-2.26313">
        <ele>-3.7999999523163</ele>
        <time>2022-05-05T09:31:01.000Z</time>
      </trkpt>
      <trkpt lat="47.29607" lon="-2.26317">
        <ele>-4.1999998092651</ele>
        <time>2022-05-05T09:31:03.000Z</time>
      </trkpt>
      <trkpt lat="47.29607" lon="-2.2632">
        <ele>-4.5999999046326</ele>
        <time>2022-05-05T09:31:04.000Z</time>
      </trkpt>
      <trkpt lat="47.29609" lon="-2.26323">
        <ele>-5</ele>
        <time>2022-05-05T09:31:05.000Z</time>
      </trkpt>
      <trkpt lat="47.2961" lon="-2.26326">
        <ele>-5.4000000953674</ele>
        <time>2022-05-05T09:31:06.000Z</time>
      </trkpt>
      <trkpt lat="47.29611" lon="-2.26328">
        <ele>-5.8000001907349</ele>
        <time>2022-05-05T09:31:07.000Z</time>
      </trkpt>
      <trkpt lat="47.29612" lon="-2.26331">
        <ele>-5.8000001907349</ele>
        <time>2022-05-05T09:31:08.000Z</time>
      </trkpt>
      <trkpt lat="47.29612" lon="-2.26333">
        <ele>-5.8000001907349</ele>
        <time>2022-05-05T09:31:09.000Z</time>
      </trkpt>
      <trkpt lat="47.2961" lon="-2.2634">
        <ele>-5.8000001907349</ele>
        <time>2022-05-05T09:31:12.000Z</time>
      </trkpt>
      <trkpt lat="47.29604" lon="-2.26358">
        <ele>-5.8000001907349</ele>
        <time>2022-05-05T09:31:18.000Z</time>
      </trkpt>
      <trkpt lat="47.29604" lon="-2.26361">
        <ele>-5.8000001907349</ele>
        <time>2022-05-05T09:31:19.000Z</time>
      </trkpt>
      <trkpt lat="47.2961" lon="-2.2637">
        <ele>-5.8000001907349</ele>
        <time>2022-05-05T09:31:22.000Z</time>
      </trkpt>
      <trkpt lat="47.29612" lon="-2.26392">
        <ele>-5.8000001907349</ele>
        <time>2022-05-05T09:31:27.000Z</time>
      </trkpt>
      <trkpt lat="47.29611" lon="-2.26402">
        <ele>-5.4000000953674</ele>
        <time>2022-05-05T09:31:29.000Z</time>
      </trkpt>
      <trkpt lat="47.29609" lon="-2.26406">
        <ele>-5</ele>
        <time>2022-05-05T09:31:30.000Z</time>
      </trkpt>
      <trkpt lat="47.29608" lon="-2.2641">
        <ele>-4.5999999046326</ele>
        <time>2022-05-05T09:31:31.000Z</time>
      </trkpt>
      <trkpt lat="47.29606" lon="-2.26415">
        <ele>-4.1999998092651</ele>
        <time>2022-05-05T09:31:32.000Z</time>
      </trkpt>
      <trkpt lat="47.29605" lon="-2.26419">
        <ele>-3.5999999046326</ele>
        <time>2022-05-05T09:31:33.000Z</time>
      </trkpt>
      <trkpt lat="47.296" lon="-2.26441">
        <ele>-3.2000000476837</ele>
        <time>2022-05-05T09:31:38.000Z</time>
      </trkpt>
      <trkpt lat="47.296" lon="-2.26445">
        <ele>-2.7999999523163</ele>
        <time>2022-05-05T09:31:39.000Z</time>
      </trkpt>
      <trkpt lat="47.29599" lon="-2.26449">
        <ele>-2.4000000953674</ele>
        <time>2022-05-05T09:31:40.000Z</time>
      </trkpt>
      <trkpt lat="47.29599" lon="-2.26453">
        <ele>-2</ele>
        <time>2022-05-05T09:31:41.000Z</time>
      </trkpt>
      <trkpt lat="47.29599" lon="-2.26457">
        <ele>-1.6000000238419</ele>
        <time>2022-05-05T09:31:42.000Z</time>
      </trkpt>
      <trkpt lat="47.29598" lon="-2.26465">
        <ele>-1.6000000238419</ele>
        <time>2022-05-05T09:31:44.000Z</time>
      </trkpt>
      <trkpt lat="47.29598" lon="-2.26478">
        <ele>-1.2000000476837</ele>
        <time>2022-05-05T09:31:47.000Z</time>
      </trkpt>
      <trkpt lat="47.29598" lon="-2.26482">
        <ele>-0.80000001192093</ele>
        <time>2022-05-05T09:31:48.000Z</time>
      </trkpt>
      <trkpt lat="47.29598" lon="-2.26487">
        <ele>12.5</ele>
        <time>2022-05-05T09:31:49.000Z</time>
      </trkpt>
      <trkpt lat="47.29598" lon="-2.26491">
        <ele>0.60000002384186</ele>
        <time>2022-05-05T09:31:50.000Z</time>
      </trkpt>
      <trkpt lat="47.29596" lon="-2.26496">
        <ele>0.60000002384186</ele>
        <time>2022-05-05T09:31:51.000Z</time>
      </trkpt>
      <trkpt lat="47.29588" lon="-2.26505">
        <ele>0.60000002384186</ele>
        <time>2022-05-05T09:31:55.000Z</time>
      </trkpt>
      <trkpt lat="47.29577" lon="-2.26513">
        <ele>1</ele>
        <time>2022-05-05T09:32:00.000Z</time>
      </trkpt>
      <trkpt lat="47.29575" lon="-2.26515">
        <ele>1.3999999761581</ele>
        <time>2022-05-05T09:32:01.000Z</time>
      </trkpt>
      <trkpt lat="47.29574" lon="-2.26516">
        <ele>1.7999999523163</ele>
        <time>2022-05-05T09:32:02.000Z</time>
      </trkpt>
      <trkpt lat="47.29573" lon="-2.26517">
        <ele>2.2000000476837</ele>
        <time>2022-05-05T09:32:03.000Z</time>
      </trkpt>
      <trkpt lat="47.29572" lon="-2.26518">
        <ele>2.5999999046326</ele>
        <time>2022-05-05T09:32:04.000Z</time>
      </trkpt>
      <trkpt lat="47.29564" lon="-2.26525">
        <ele>2.5999999046326</ele>
        <time>2022-05-05T09:32:08.000Z</time>
      </trkpt>
      <trkpt lat="47.29543" lon="-2.26541">
        <ele>2.5999999046326</ele>
        <time>2022-05-05T09:32:17.000Z</time>
      </trkpt>
      <trkpt lat="47.29541" lon="-2.26544">
        <ele>3</ele>
        <time>2022-05-05T09:32:18.000Z</time>
      </trkpt>
      <trkpt lat="47.29539" lon="-2.26546">
        <ele>3.4000000953674</ele>
        <time>2022-05-05T09:32:19.000Z</time>
      </trkpt>
      <trkpt lat="47.29537" lon="-2.26548">
        <ele>3.7999999523163</ele>
        <time>2022-05-05T09:32:20.000Z</time>
      </trkpt>
      <trkpt lat="47.29535" lon="-2.26551">
        <ele>4.1999998092651</ele>
        <time>2022-05-05T09:32:21.000Z</time>
      </trkpt>
      <trkpt lat="47.29532" lon="-2.26553">
        <ele>4.5999999046326</ele>
        <time>2022-05-05T09:32:22.000Z</time>
      </trkpt>
      <trkpt lat="47.2953" lon="-2.26556">
        <ele>4.5999999046326</ele>
        <time>2022-05-05T09:32:23.000Z</time>
      </trkpt>
      <trkpt lat="47.29513" lon="-2.26574">
        <ele>4.5999999046326</ele>
        <time>2022-05-05T09:32:30.000Z</time>
      </trkpt>
      <trkpt lat="47.29494" lon="-2.2659">
        <ele>4.5999999046326</ele>
        <time>2022-05-05T09:32:36.000Z</time>
      </trkpt>
      <trkpt lat="47.29471" lon="-2.26603">
        <ele>4.5999999046326</ele>
        <time>2022-05-05T09:32:42.000Z</time>
      </trkpt>
      <trkpt lat="47.29449" lon="-2.26614">
        <ele>4.5999999046326</ele>
        <time>2022-05-05T09:32:48.000Z</time>
      </trkpt>
      <trkpt lat="47.29419" lon="-2.26623">
        <ele>4.5999999046326</ele>
        <time>2022-05-05T09:32:55.000Z</time>
      </trkpt>
      <trkpt lat="47.29407" lon="-2.26628">
        <ele>4.5999999046326</ele>
        <time>2022-05-05T09:32:58.000Z</time>
      </trkpt>
      <trkpt lat="47.29393" lon="-2.26634">
        <ele>4.5999999046326</ele>
        <time>2022-05-05T09:33:01.000Z</time>
      </trkpt>
      <trkpt lat="47.29362" lon="-2.26649">
        <ele>4.5999999046326</ele>
        <time>2022-05-05T09:33:08.000Z</time>
      </trkpt>
      <trkpt lat="47.29331" lon="-2.26658">
        <ele>4.5999999046326</ele>
        <time>2022-05-05T09:33:15.000Z</time>
      </trkpt>
      <trkpt lat="47.29316" lon="-2.26667">
        <ele>4.5999999046326</ele>
        <time>2022-05-05T09:33:19.000Z</time>
      </trkpt>
      <trkpt lat="47.29308" lon="-2.26673">
        <ele>4.5999999046326</ele>
        <time>2022-05-05T09:33:21.000Z</time>
      </trkpt>
      <trkpt lat="47.29301" lon="-2.26676">
        <ele>4.5999999046326</ele>
        <time>2022-05-05T09:33:23.000Z</time>
      </trkpt>
      <trkpt lat="47.29284" lon="-2.2668">
        <ele>4.5999999046326</ele>
        <time>2022-05-05T09:33:27.000Z</time>
      </trkpt>
      <trkpt lat="47.29252" lon="-2.26686">
        <ele>4.5999999046326</ele>
        <time>2022-05-05T09:33:34.000Z</time>
      </trkpt>
      <trkpt lat="47.29243" lon="-2.26689">
        <ele>4.5999999046326</ele>
        <time>2022-05-05T09:33:36.000Z</time>
      </trkpt>
      <trkpt lat="47.29233" lon="-2.26702">
        <ele>4.5999999046326</ele>
        <time>2022-05-05T09:33:39.000Z</time>
      </trkpt>
      <trkpt lat="47.29218" lon="-2.26719">
        <ele>4.5999999046326</ele>
        <time>2022-05-05T09:33:44.000Z</time>
      </trkpt>
      <trkpt lat="47.29211" lon="-2.26724">
        <ele>4.5999999046326</ele>
        <time>2022-05-05T09:33:48.000Z</time>
      </trkpt>
      <trkpt lat="47.2921" lon="-2.26723">
        <ele>4.5999999046326</ele>
        <time>2022-05-05T09:33:50.000Z</time>
      </trkpt>
      <trkpt lat="47.29209" lon="-2.26724">
        <ele>4.5999999046326</ele>
        <time>2022-05-05T09:34:16.000Z</time>
      </trkpt>
      <trkpt lat="47.29208" lon="-2.26726">
        <ele>4.5999999046326</ele>
        <time>2022-05-05T09:34:17.000Z</time>
      </trkpt>
      <trkpt lat="47.2921" lon="-2.26742">
        <ele>4.5999999046326</ele>
        <time>2022-05-05T09:34:21.000Z</time>
      </trkpt>
      <trkpt lat="47.2921" lon="-2.26747">
        <ele>4.5999999046326</ele>
        <time>2022-05-05T09:34:22.000Z</time>
      </trkpt>
      <trkpt lat="47.29215" lon="-2.26773">
        <ele>4.5999999046326</ele>
        <time>2022-05-05T09:34:26.000Z</time>
      </trkpt>
      <trkpt lat="47.29225" lon="-2.26834">
        <ele>4.5999999046326</ele>
        <time>2022-05-05T09:34:34.000Z</time>
      </trkpt>
      <trkpt lat="47.29233" lon="-2.26886">
        <ele>4.5999999046326</ele>
        <time>2022-05-05T09:34:41.000Z</time>
      </trkpt>
      <trkpt lat="47.29236" lon="-2.26915">
        <ele>4.5999999046326</ele>
        <time>2022-05-05T09:34:45.000Z</time>
      </trkpt>
      <trkpt lat="47.29233" lon="-2.26925">
        <ele>4.5999999046326</ele>
        <time>2022-05-05T09:34:47.000Z</time>
      </trkpt>
      <trkpt lat="47.29228" lon="-2.26934">
        <ele>4.5999999046326</ele>
        <time>2022-05-05T09:34:49.000Z</time>
      </trkpt>
      <trkpt lat="47.29224" lon="-2.26947">
        <ele>4.5999999046326</ele>
        <time>2022-05-05T09:34:52.000Z</time>
      </trkpt>
      <trkpt lat="47.29222" lon="-2.26985">
        <ele>4.5999999046326</ele>
        <time>2022-05-05T09:34:58.000Z</time>
      </trkpt>
      <trkpt lat="47.29223" lon="-2.27">
        <ele>4.5999999046326</ele>
        <time>2022-05-05T09:35:00.000Z</time>
      </trkpt>
      <trkpt lat="47.29223" lon="-2.27016">
        <ele>4.5999999046326</ele>
        <time>2022-05-05T09:35:02.000Z</time>
      </trkpt>
      <trkpt lat="47.29225" lon="-2.27033">
        <ele>4.5999999046326</ele>
        <time>2022-05-05T09:35:04.000Z</time>
      </trkpt>
      <trkpt lat="47.29227" lon="-2.2705">
        <ele>4.5999999046326</ele>
        <time>2022-05-05T09:35:06.000Z</time>
      </trkpt>
      <trkpt lat="47.29228" lon="-2.27067">
        <ele>4.5999999046326</ele>
        <time>2022-05-05T09:35:08.000Z</time>
      </trkpt>
      <trkpt lat="47.29229" lon="-2.27075">
        <ele>4.5999999046326</ele>
        <time>2022-05-05T09:35:09.000Z</time>
      </trkpt>
      <trkpt lat="47.29234" lon="-2.27104">
        <ele>4.5999999046326</ele>
        <time>2022-05-05T09:35:13.000Z</time>
      </trkpt>
      <trkpt lat="47.29231" lon="-2.2713">
        <ele>4.5999999046326</ele>
        <time>2022-05-05T09:35:17.000Z</time>
      </trkpt>
      <trkpt lat="47.29228" lon="-2.27145">
        <ele>4.5999999046326</ele>
        <time>2022-05-05T09:35:19.000Z</time>
      </trkpt>
      <trkpt lat="47.29222" lon="-2.27157">
        <ele>4.5999999046326</ele>
        <time>2022-05-05T09:35:21.000Z</time>
      </trkpt>
      <trkpt lat="47.29216" lon="-2.27166">
        <ele>4.5999999046326</ele>
        <time>2022-05-05T09:35:23.000Z</time>
      </trkpt>
      <trkpt lat="47.29207" lon="-2.27172">
        <ele>4.5999999046326</ele>
        <time>2022-05-05T09:35:25.000Z</time>
      </trkpt>
      <trkpt lat="47.29193" lon="-2.27181">
        <ele>4.5999999046326</ele>
        <time>2022-05-05T09:35:27.000Z</time>
      </trkpt>
      <trkpt lat="47.29178" lon="-2.27187">
        <ele>4.5999999046326</ele>
        <time>2022-05-05T09:35:30.000Z</time>
      </trkpt>
      <trkpt lat="47.2916" lon="-2.27192">
        <ele>4.5999999046326</ele>
        <time>2022-05-05T09:35:36.000Z</time>
      </trkpt>
      <trkpt lat="47.29156" lon="-2.27193">
        <ele>4.5999999046326</ele>
        <time>2022-05-05T09:35:39.000Z</time>
      </trkpt>
      <trkpt lat="47.29149" lon="-2.27196">
        <ele>4.5999999046326</ele>
        <time>2022-05-05T09:35:44.000Z</time>
      </trkpt>
      <trkpt lat="47.29148" lon="-2.27196">
        <ele>4.5999999046326</ele>
        <time>2022-05-05T09:35:45.000Z</time>
      </trkpt>
      <trkpt lat="47.29146" lon="-2.27196">
        <ele>4.5999999046326</ele>
        <time>2022-05-05T09:35:51.000Z</time>
      </trkpt>
      <trkpt lat="47.29143" lon="-2.27198">
        <ele>4.5999999046326</ele>
        <time>2022-05-05T09:35:52.000Z</time>
      </trkpt>
      <trkpt lat="47.29137" lon="-2.27206">
        <ele>4.5999999046326</ele>
        <time>2022-05-05T09:35:55.000Z</time>
      </trkpt>
      <trkpt lat="47.29136" lon="-2.27209">
        <ele>4.5999999046326</ele>
        <time>2022-05-05T09:35:56.000Z</time>
      </trkpt>
      <trkpt lat="47.29131" lon="-2.27221">
        <ele>4.5999999046326</ele>
        <time>2022-05-05T09:36:01.000Z</time>
      </trkpt>
      <trkpt lat="47.29131" lon="-2.27233">
        <ele>4.5999999046326</ele>
        <time>2022-05-05T09:36:04.000Z</time>
      </trkpt>
      <trkpt lat="47.2913" lon="-2.27238">
        <ele>4.5999999046326</ele>
        <time>2022-05-05T09:36:05.000Z</time>
      </trkpt>
      <trkpt lat="47.29124" lon="-2.27263">
        <ele>4.5999999046326</ele>
        <time>2022-05-05T09:36:10.000Z</time>
      </trkpt>
      <trkpt lat="47.29121" lon="-2.27274">
        <ele>4.5999999046326</ele>
        <time>2022-05-05T09:36:12.000Z</time>
      </trkpt>
      <trkpt lat="47.29115" lon="-2.27296">
        <ele>4.5999999046326</ele>
        <time>2022-05-05T09:36:16.000Z</time>
      </trkpt>
      <trkpt lat="47.29109" lon="-2.27336">
        <ele>4.5999999046326</ele>
        <time>2022-05-05T09:36:23.000Z</time>
      </trkpt>
      <trkpt lat="47.29108" lon="-2.27342">
        <ele>4.5999999046326</ele>
        <time>2022-05-05T09:36:24.000Z</time>
      </trkpt>
      <trkpt lat="47.29105" lon="-2.27362">
        <ele>4.5999999046326</ele>
        <time>2022-05-05T09:36:28.000Z</time>
      </trkpt>
      <trkpt lat="47.29107" lon="-2.27386">
        <ele>4.5999999046326</ele>
        <time>2022-05-05T09:36:32.000Z</time>
      </trkpt>
      <trkpt lat="47.29108" lon="-2.27409">
        <ele>4.5999999046326</ele>
        <time>2022-05-05T09:36:35.000Z</time>
      </trkpt>
      <trkpt lat="47.29109" lon="-2.27434">
        <ele>4.5999999046326</ele>
        <time>2022-05-05T09:36:38.000Z</time>
      </trkpt>
      <trkpt lat="47.29107" lon="-2.2747">
        <ele>4.5999999046326</ele>
        <time>2022-05-05T09:36:43.000Z</time>
      </trkpt>
      <trkpt lat="47.29106" lon="-2.27484">
        <ele>4.5999999046326</ele>
        <time>2022-05-05T09:36:45.000Z</time>
      </trkpt>
      <trkpt lat="47.29105" lon="-2.27516">
        <ele>4.5999999046326</ele>
        <time>2022-05-05T09:36:51.000Z</time>
      </trkpt>
      <trkpt lat="47.29098" lon="-2.27526">
        <ele>4.5999999046326</ele>
        <time>2022-05-05T09:36:55.000Z</time>
      </trkpt>
      <trkpt lat="47.29077" lon="-2.2753">
        <ele>4.5999999046326</ele>
        <time>2022-05-05T09:37:00.000Z</time>
      </trkpt>
      <trkpt lat="47.29073" lon="-2.27531">
        <ele>5</ele>
        <time>2022-05-05T09:37:01.000Z</time>
      </trkpt>
      <trkpt lat="47.29068" lon="-2.27531">
        <ele>5.4000000953674</ele>
        <time>2022-05-05T09:37:02.000Z</time>
      </trkpt>
      <trkpt lat="47.29062" lon="-2.2753">
        <ele>5.8000001907349</ele>
        <time>2022-05-05T09:37:03.000Z</time>
      </trkpt>
      <trkpt lat="47.29056" lon="-2.27529">
        <ele>6.1999998092651</ele>
        <time>2022-05-05T09:37:04.000Z</time>
      </trkpt>
      <trkpt lat="47.29051" lon="-2.27529">
        <ele>6.5999999046326</ele>
        <time>2022-05-05T09:37:05.000Z</time>
      </trkpt>
      <trkpt lat="47.29019" lon="-2.27526">
        <ele>6.5999999046326</ele>
        <time>2022-05-05T09:37:11.000Z</time>
      </trkpt>
      <trkpt lat="47.28981" lon="-2.27527">
        <ele>6.5999999046326</ele>
        <time>2022-05-05T09:37:18.000Z</time>
      </trkpt>
      <trkpt lat="47.28949" lon="-2.27528">
        <ele>6.5999999046326</ele>
        <time>2022-05-05T09:37:24.000Z</time>
      </trkpt>
      <trkpt lat="47.28903" lon="-2.2753">
        <ele>6.5999999046326</ele>
        <time>2022-05-05T09:37:32.000Z</time>
      </trkpt>
      <trkpt lat="47.28873" lon="-2.27535">
        <ele>6.5999999046326</ele>
        <time>2022-05-05T09:37:38.000Z</time>
      </trkpt>
      <trkpt lat="47.28842" lon="-2.2754">
        <ele>6.5999999046326</ele>
        <time>2022-05-05T09:37:45.000Z</time>
      </trkpt>
      <trkpt lat="47.28812" lon="-2.27547">
        <ele>6.5999999046326</ele>
        <time>2022-05-05T09:37:53.000Z</time>
      </trkpt>
      <trkpt lat="47.28798" lon="-2.27562">
        <ele>6.5999999046326</ele>
        <time>2022-05-05T09:37:57.000Z</time>
      </trkpt>
      <trkpt lat="47.28795" lon="-2.27566">
        <ele>6.5999999046326</ele>
        <time>2022-05-05T09:37:58.000Z</time>
      </trkpt>
      <trkpt lat="47.28773" lon="-2.27589">
        <ele>6.5999999046326</ele>
        <time>2022-05-05T09:38:05.000Z</time>
      </trkpt>
      <trkpt lat="47.28757" lon="-2.27609">
        <ele>6.5999999046326</ele>
        <time>2022-05-05T09:38:11.000Z</time>
      </trkpt>
      <trkpt lat="47.28739" lon="-2.27632">
        <ele>6.5999999046326</ele>
        <time>2022-05-05T09:38:17.000Z</time>
      </trkpt>
      <trkpt lat="47.28736" lon="-2.27637">
        <ele>6.5999999046326</ele>
        <time>2022-05-05T09:38:18.000Z</time>
      </trkpt>
      <trkpt lat="47.2871" lon="-2.27678">
        <ele>6.5999999046326</ele>
        <time>2022-05-05T09:38:26.000Z</time>
      </trkpt>
      <trkpt lat="47.28691" lon="-2.27711">
        <ele>6.5999999046326</ele>
        <time>2022-05-05T09:38:32.000Z</time>
      </trkpt>
      <trkpt lat="47.28689" lon="-2.27716">
        <ele>6.5999999046326</ele>
        <time>2022-05-05T09:38:33.000Z</time>
      </trkpt>
      <trkpt lat="47.28671" lon="-2.2775">
        <ele>6.5999999046326</ele>
        <time>2022-05-05T09:38:39.000Z</time>
      </trkpt>
      <trkpt lat="47.28658" lon="-2.2778">
        <ele>6.5999999046326</ele>
        <time>2022-05-05T09:38:44.000Z</time>
      </trkpt>
      <trkpt lat="47.28657" lon="-2.27787">
        <ele>6.5999999046326</ele>
        <time>2022-05-05T09:38:45.000Z</time>
      </trkpt>
      <trkpt lat="47.28642" lon="-2.27837">
        <ele>6.5999999046326</ele>
        <time>2022-05-05T09:38:53.000Z</time>
      </trkpt>
      <trkpt lat="47.28635" lon="-2.27886">
        <ele>6.5999999046326</ele>
        <time>2022-05-05T09:39:00.000Z</time>
      </trkpt>
      <trkpt lat="47.28634" lon="-2.27893">
        <ele>7.1999998092651</ele>
        <time>2022-05-05T09:39:01.000Z</time>
      </trkpt>
      <trkpt lat="47.28634" lon="-2.279">
        <ele>7.5999999046326</ele>
        <time>2022-05-05T09:39:02.000Z</time>
      </trkpt>
      <trkpt lat="47.28633" lon="-2.27907">
        <ele>8</ele>
        <time>2022-05-05T09:39:03.000Z</time>
      </trkpt>
      <trkpt lat="47.28632" lon="-2.27914">
        <ele>8.3999996185303</ele>
        <time>2022-05-05T09:39:04.000Z</time>
      </trkpt>
      <trkpt lat="47.28632" lon="-2.27921">
        <ele>8.8000001907349</ele>
        <time>2022-05-05T09:39:05.000Z</time>
      </trkpt>
      <trkpt lat="47.28627" lon="-2.27941">
        <ele>8.8000001907349</ele>
        <time>2022-05-05T09:39:08.000Z</time>
      </trkpt>
      <trkpt lat="47.28623" lon="-2.27953">
        <ele>8.8000001907349</ele>
        <time>2022-05-05T09:39:10.000Z</time>
      </trkpt>
      <trkpt lat="47.28611" lon="-2.27989">
        <ele>8.8000001907349</ele>
        <time>2022-05-05T09:39:15.000Z</time>
      </trkpt>
      <trkpt lat="47.28602" lon="-2.28014">
        <ele>8.8000001907349</ele>
        <time>2022-05-05T09:39:19.000Z</time>
      </trkpt>
      <trkpt lat="47.28599" lon="-2.28019">
        <ele>8.8000001907349</ele>
        <time>2022-05-05T09:39:20.000Z</time>
      </trkpt>
      <trkpt lat="47.28589" lon="-2.28033">
        <ele>8.8000001907349</ele>
        <time>2022-05-05T09:39:24.000Z</time>
      </trkpt>
      <trkpt lat="47.28587" lon="-2.28036">
        <ele>8.8000001907349</ele>
        <time>2022-05-05T09:39:25.000Z</time>
      </trkpt>
      <trkpt lat="47.28577" lon="-2.28046">
        <ele>8.8000001907349</ele>
        <time>2022-05-05T09:39:29.000Z</time>
      </trkpt>
      <trkpt lat="47.28561" lon="-2.28053">
        <ele>8.8000001907349</ele>
        <time>2022-05-05T09:39:35.000Z</time>
      </trkpt>
      <trkpt lat="47.2856" lon="-2.28052">
        <ele>8.8000001907349</ele>
        <time>2022-05-05T09:39:36.000Z</time>
      </trkpt>
      <trkpt lat="47.28555" lon="-2.28051">
        <ele>9.1999998092651</ele>
        <time>2022-05-05T09:39:38.000Z</time>
      </trkpt>
      <trkpt lat="47.28553" lon="-2.28051">
        <ele>9.6000003814697</ele>
        <time>2022-05-05T09:39:39.000Z</time>
      </trkpt>
      <trkpt lat="47.28551" lon="-2.2805">
        <ele>10.39999961853</ele>
        <time>2022-05-05T09:39:40.000Z</time>
      </trkpt>
      <trkpt lat="47.28549" lon="-2.2805">
        <ele>10.800000190735</ele>
        <time>2022-05-05T09:39:41.000Z</time>
      </trkpt>
      <trkpt lat="47.28542" lon="-2.28048">
        <ele>11.199999809265</ele>
        <time>2022-05-05T09:39:44.000Z</time>
      </trkpt>
      <trkpt lat="47.28539" lon="-2.28048">
        <ele>11.60000038147</ele>
        <time>2022-05-05T09:39:45.000Z</time>
      </trkpt>
      <trkpt lat="47.28537" lon="-2.28048">
        <ele>12.199999809265</ele>
        <time>2022-05-05T09:39:46.000Z</time>
      </trkpt>
      <trkpt lat="47.28535" lon="-2.28048">
        <ele>12.60000038147</ele>
        <time>2022-05-05T09:39:47.000Z</time>
      </trkpt>
      <trkpt lat="47.28533" lon="-2.28048">
        <ele>13</ele>
        <time>2022-05-05T09:39:48.000Z</time>
      </trkpt>
      <trkpt lat="47.28529" lon="-2.28048">
        <ele>13</ele>
        <time>2022-05-05T09:39:50.000Z</time>
      </trkpt>
      <trkpt lat="47.28522" lon="-2.28046">
        <ele>13.39999961853</ele>
        <time>2022-05-05T09:39:54.000Z</time>
      </trkpt>
      <trkpt lat="47.2852" lon="-2.28045">
        <ele>13.800000190735</ele>
        <time>2022-05-05T09:39:55.000Z</time>
      </trkpt>
      <trkpt lat="47.28518" lon="-2.28045">
        <ele>14.199999809265</ele>
        <time>2022-05-05T09:39:56.000Z</time>
      </trkpt>
      <trkpt lat="47.28517" lon="-2.28044">
        <ele>14.60000038147</ele>
        <time>2022-05-05T09:39:57.000Z</time>
      </trkpt>
      <trkpt lat="47.28516" lon="-2.28043">
        <ele>15</ele>
        <time>2022-05-05T09:39:58.000Z</time>
      </trkpt>
      <trkpt lat="47.28511" lon="-2.2804">
        <ele>15</ele>
        <time>2022-05-05T09:40:01.000Z</time>
      </trkpt>
      <trkpt lat="47.28505" lon="-2.28039">
        <ele>15</ele>
        <time>2022-05-05T09:40:04.000Z</time>
      </trkpt>
      <trkpt lat="47.28503" lon="-2.2804">
        <ele>15.39999961853</ele>
        <time>2022-05-05T09:40:05.000Z</time>
      </trkpt>
      <trkpt lat="47.28501" lon="-2.28041">
        <ele>15.800000190735</ele>
        <time>2022-05-05T09:40:06.000Z</time>
      </trkpt>
      <trkpt lat="47.285" lon="-2.28043">
        <ele>16.39999961853</ele>
        <time>2022-05-05T09:40:07.000Z</time>
      </trkpt>
      <trkpt lat="47.28498" lon="-2.28043">
        <ele>16.799999237061</ele>
        <time>2022-05-05T09:40:08.000Z</time>
      </trkpt>
      <trkpt lat="47.28496" lon="-2.28044">
        <ele>17.200000762939</ele>
        <time>2022-05-05T09:40:09.000Z</time>
      </trkpt>
      <trkpt lat="47.28491" lon="-2.28047">
        <ele>17.200000762939</ele>
        <time>2022-05-05T09:40:12.000Z</time>
      </trkpt>
      <trkpt lat="47.28491" lon="-2.28049">
        <ele>17.200000762939</ele>
        <time>2022-05-05T09:40:13.000Z</time>
      </trkpt>
      <trkpt lat="47.28492" lon="-2.28061">
        <ele>17.200000762939</ele>
        <time>2022-05-05T09:40:16.000Z</time>
      </trkpt>
      <trkpt lat="47.28498" lon="-2.28075">
        <ele>17.200000762939</ele>
        <time>2022-05-05T09:40:20.000Z</time>
      </trkpt>
      <trkpt lat="47.28498" lon="-2.28079">
        <ele>17.200000762939</ele>
        <time>2022-05-05T09:40:21.000Z</time>
      </trkpt>
      <trkpt lat="47.28492" lon="-2.28087">
        <ele>17.200000762939</ele>
        <time>2022-05-05T09:40:24.000Z</time>
      </trkpt>
      <trkpt lat="47.28484" lon="-2.28094">
        <ele>16.60000038147</ele>
        <time>2022-05-05T09:40:26.000Z</time>
      </trkpt>
      <trkpt lat="47.2848" lon="-2.28095">
        <ele>16.200000762939</ele>
        <time>2022-05-05T09:40:27.000Z</time>
      </trkpt>
      <trkpt lat="47.28476" lon="-2.28096">
        <ele>15.60000038147</ele>
        <time>2022-05-05T09:40:28.000Z</time>
      </trkpt>
      <trkpt lat="47.28473" lon="-2.28094">
        <ele>14.800000190735</ele>
        <time>2022-05-05T09:40:29.000Z</time>
      </trkpt>
      <trkpt lat="47.28469" lon="-2.28091">
        <ele>14.800000190735</ele>
        <time>2022-05-05T09:40:31.000Z</time>
      </trkpt>
      <trkpt lat="47.28463" lon="-2.28091">
        <ele>14.800000190735</ele>
        <time>2022-05-05T09:40:33.000Z</time>
      </trkpt>
      <trkpt lat="47.28453" lon="-2.2809">
        <ele>14.800000190735</ele>
        <time>2022-05-05T09:40:36.000Z</time>
      </trkpt>
      <trkpt lat="47.28439" lon="-2.2809">
        <ele>14.800000190735</ele>
        <time>2022-05-05T09:40:41.000Z</time>
      </trkpt>
      <trkpt lat="47.28433" lon="-2.28086">
        <ele>14.800000190735</ele>
        <time>2022-05-05T09:40:44.000Z</time>
      </trkpt>
      <trkpt lat="47.28421" lon="-2.28086">
        <ele>14.800000190735</ele>
        <time>2022-05-05T09:40:48.000Z</time>
      </trkpt>
      <trkpt lat="47.28404" lon="-2.28081">
        <ele>14.800000190735</ele>
        <time>2022-05-05T09:40:54.000Z</time>
      </trkpt>
      <trkpt lat="47.28401" lon="-2.28081">
        <ele>14.800000190735</ele>
        <time>2022-05-05T09:40:55.000Z</time>
      </trkpt>
      <trkpt lat="47.28386" lon="-2.28081">
        <ele>14.800000190735</ele>
        <time>2022-05-05T09:41:01.000Z</time>
      </trkpt>
      <trkpt lat="47.28379" lon="-2.28079">
        <ele>14.800000190735</ele>
        <time>2022-05-05T09:41:05.000Z</time>
      </trkpt>
      <trkpt lat="47.28379" lon="-2.28077">
        <ele>14.800000190735</ele>
        <time>2022-05-05T09:41:06.000Z</time>
      </trkpt>
      <trkpt lat="47.28377" lon="-2.28072">
        <ele>14.800000190735</ele>
        <time>2022-05-05T09:41:08.000Z</time>
      </trkpt>
      <trkpt lat="47.28377" lon="-2.28064">
        <ele>14.800000190735</ele>
        <time>2022-05-05T09:41:11.000Z</time>
      </trkpt>
      <trkpt lat="47.28375" lon="-2.28064">
        <ele>14.800000190735</ele>
        <time>2022-05-05T09:41:14.000Z</time>
      </trkpt>
      <trkpt lat="47.28376" lon="-2.28059">
        <ele>14.800000190735</ele>
        <time>2022-05-05T09:41:18.000Z</time>
      </trkpt>
      <trkpt lat="47.28376" lon="-2.28057">
        <ele>15.199999809265</ele>
        <time>2022-05-05T09:41:19.000Z</time>
      </trkpt>
      <trkpt lat="47.28375" lon="-2.28056">
        <ele>15.60000038147</ele>
        <time>2022-05-05T09:41:20.000Z</time>
      </trkpt>
      <trkpt lat="47.28375" lon="-2.28054">
        <ele>16</ele>
        <time>2022-05-05T09:41:21.000Z</time>
      </trkpt>
      <trkpt lat="47.28374" lon="-2.28052">
        <ele>16.39999961853</ele>
        <time>2022-05-05T09:41:22.000Z</time>
      </trkpt>
      <trkpt lat="47.28374" lon="-2.28049">
        <ele>16.799999237061</ele>
        <time>2022-05-05T09:41:23.000Z</time>
      </trkpt>
      <trkpt lat="47.28374" lon="-2.28047">
        <ele>16.799999237061</ele>
        <time>2022-05-05T09:41:24.000Z</time>
      </trkpt>
      <trkpt lat="47.28376" lon="-2.2804">
        <ele>17.200000762939</ele>
        <time>2022-05-05T09:41:27.000Z</time>
      </trkpt>
      <trkpt lat="47.28376" lon="-2.28037">
        <ele>17.60000038147</ele>
        <time>2022-05-05T09:41:28.000Z</time>
      </trkpt>
      <trkpt lat="47.28376" lon="-2.28034">
        <ele>18</ele>
        <time>2022-05-05T09:41:29.000Z</time>
      </trkpt>
      <trkpt lat="47.28376" lon="-2.28032">
        <ele>18.39999961853</ele>
        <time>2022-05-05T09:41:30.000Z</time>
      </trkpt>
      <trkpt lat="47.28376" lon="-2.28031">
        <ele>19</ele>
        <time>2022-05-05T09:41:31.000Z</time>
      </trkpt>
      <trkpt lat="47.28378" lon="-2.28025">
        <ele>19</ele>
        <time>2022-05-05T09:41:34.000Z</time>
      </trkpt>
      <trkpt lat="47.28381" lon="-2.28018">
        <ele>19</ele>
        <time>2022-05-05T09:41:37.000Z</time>
      </trkpt>
      <trkpt lat="47.28385" lon="-2.28016">
        <ele>19</ele>
        <time>2022-05-05T09:41:39.000Z</time>
      </trkpt>
      <trkpt lat="47.28388" lon="-2.28015">
        <ele>19</ele>
        <time>2022-05-05T09:41:41.000Z</time>
      </trkpt>
      <trkpt lat="47.28397" lon="-2.2801">
        <ele>19</ele>
        <time>2022-05-05T09:41:47.000Z</time>
      </trkpt>
      <trkpt lat="47.28397" lon="-2.28016">
        <ele>19</ele>
        <time>2022-05-05T09:41:53.000Z</time>
      </trkpt>
      <trkpt lat="47.28393" lon="-2.28031">
        <ele>19</ele>
        <time>2022-05-05T09:41:59.000Z</time>
      </trkpt>
      <trkpt lat="47.28389" lon="-2.28034">
        <ele>19</ele>
        <time>2022-05-05T09:42:03.000Z</time>
      </trkpt>
      <trkpt lat="47.28387" lon="-2.28033">
        <ele>19</ele>
        <time>2022-05-05T09:42:06.000Z</time>
      </trkpt>
      <trkpt lat="47.28381" lon="-2.28038">
        <ele>19</ele>
        <time>2022-05-05T09:42:20.000Z</time>
      </trkpt>
      <trkpt lat="47.28378" lon="-2.28043">
        <ele>19</ele>
        <time>2022-05-05T09:42:22.000Z</time>
      </trkpt>
      <trkpt lat="47.28376" lon="-2.28054">
        <ele>18.60000038147</ele>
        <time>2022-05-05T09:42:24.000Z</time>
      </trkpt>
      <trkpt lat="47.28375" lon="-2.2806">
        <ele>18.200000762939</ele>
        <time>2022-05-05T09:42:25.000Z</time>
      </trkpt>
      <trkpt lat="47.28374" lon="-2.28065">
        <ele>17.60000038147</ele>
        <time>2022-05-05T09:42:26.000Z</time>
      </trkpt>
      <trkpt lat="47.28374" lon="-2.28069">
        <ele>17.200000762939</ele>
        <time>2022-05-05T09:42:27.000Z</time>
      </trkpt>
      <trkpt lat="47.28373" lon="-2.28072">
        <ele>16.60000038147</ele>
        <time>2022-05-05T09:42:28.000Z</time>
      </trkpt>
      <trkpt lat="47.28373" lon="-2.28075">
        <ele>16</ele>
        <time>2022-05-05T09:42:29.000Z</time>
      </trkpt>
      <trkpt lat="47.28372" lon="-2.28079">
        <ele>15.39999961853</ele>
        <time>2022-05-05T09:42:30.000Z</time>
      </trkpt>
      <trkpt lat="47.28372" lon="-2.28085">
        <ele>14.800000190735</ele>
        <time>2022-05-05T09:42:31.000Z</time>
      </trkpt>
      <trkpt lat="47.28373" lon="-2.2809">
        <ele>14.199999809265</ele>
        <time>2022-05-05T09:42:32.000Z</time>
      </trkpt>
      <trkpt lat="47.28371" lon="-2.28106">
        <ele>14.199999809265</ele>
        <time>2022-05-05T09:42:36.000Z</time>
      </trkpt>
      <trkpt lat="47.28371" lon="-2.28133">
        <ele>14.199999809265</ele>
        <time>2022-05-05T09:42:44.000Z</time>
      </trkpt>
      <trkpt lat="47.28376" lon="-2.28153">
        <ele>14.199999809265</ele>
        <time>2022-05-05T09:42:51.000Z</time>
      </trkpt>
      <trkpt lat="47.28376" lon="-2.28165">
        <ele>14.800000190735</ele>
        <time>2022-05-05T09:42:54.000Z</time>
      </trkpt>
      <trkpt lat="47.28375" lon="-2.28169">
        <ele>15.199999809265</ele>
        <time>2022-05-05T09:42:55.000Z</time>
      </trkpt>
      <trkpt lat="47.28376" lon="-2.28173">
        <ele>15.60000038147</ele>
        <time>2022-05-05T09:42:56.000Z</time>
      </trkpt>
      <trkpt lat="47.28376" lon="-2.28177">
        <ele>16.39999961853</ele>
        <time>2022-05-05T09:42:57.000Z</time>
      </trkpt>
      <trkpt lat="47.28376" lon="-2.28181">
        <ele>16.39999961853</ele>
        <time>2022-05-05T09:42:58.000Z</time>
      </trkpt>
      <trkpt lat="47.28372" lon="-2.28211">
        <ele>16.799999237061</ele>
        <time>2022-05-05T09:43:04.000Z</time>
      </trkpt>
      <trkpt lat="47.28371" lon="-2.28215">
        <ele>17.39999961853</ele>
        <time>2022-05-05T09:43:05.000Z</time>
      </trkpt>
      <trkpt lat="47.2837" lon="-2.2822">
        <ele>17.799999237061</ele>
        <time>2022-05-05T09:43:06.000Z</time>
      </trkpt>
      <trkpt lat="47.2837" lon="-2.28224">
        <ele>18.200000762939</ele>
        <time>2022-05-05T09:43:07.000Z</time>
      </trkpt>
      <trkpt lat="47.2837" lon="-2.28228">
        <ele>18.60000038147</ele>
        <time>2022-05-05T09:43:08.000Z</time>
      </trkpt>
      <trkpt lat="47.28371" lon="-2.28242">
        <ele>18.60000038147</ele>
        <time>2022-05-05T09:43:12.000Z</time>
      </trkpt>
      <trkpt lat="47.2837" lon="-2.2827">
        <ele>18.60000038147</ele>
        <time>2022-05-05T09:43:20.000Z</time>
      </trkpt>
      <trkpt lat="47.2837" lon="-2.28273">
        <ele>19</ele>
        <time>2022-05-05T09:43:21.000Z</time>
      </trkpt>
      <trkpt lat="47.2837" lon="-2.28277">
        <ele>19.799999237061</ele>
        <time>2022-05-05T09:43:22.000Z</time>
      </trkpt>
      <trkpt lat="47.28371" lon="-2.28281">
        <ele>20.200000762939</ele>
        <time>2022-05-05T09:43:23.000Z</time>
      </trkpt>
      <trkpt lat="47.28371" lon="-2.28286">
        <ele>20.60000038147</ele>
        <time>2022-05-05T09:43:24.000Z</time>
      </trkpt>
      <trkpt lat="47.28371" lon="-2.283">
        <ele>20.60000038147</ele>
        <time>2022-05-05T09:43:27.000Z</time>
      </trkpt>
      <trkpt lat="47.28372" lon="-2.28334">
        <ele>20.60000038147</ele>
        <time>2022-05-05T09:43:34.000Z</time>
      </trkpt>
      <trkpt lat="47.28371" lon="-2.2837">
        <ele>20.60000038147</ele>
        <time>2022-05-05T09:43:41.000Z</time>
      </trkpt>
      <trkpt lat="47.28376" lon="-2.284">
        <ele>20.60000038147</ele>
        <time>2022-05-05T09:43:47.000Z</time>
      </trkpt>
      <trkpt lat="47.28376" lon="-2.28406">
        <ele>20.60000038147</ele>
        <time>2022-05-05T09:43:48.000Z</time>
      </trkpt>
      <trkpt lat="47.28376" lon="-2.28423">
        <ele>20.60000038147</ele>
        <time>2022-05-05T09:43:51.000Z</time>
      </trkpt>
      <trkpt lat="47.28378" lon="-2.28474">
        <ele>20.60000038147</ele>
        <time>2022-05-05T09:43:58.000Z</time>
      </trkpt>
      <trkpt lat="47.28379" lon="-2.28517">
        <ele>20.60000038147</ele>
        <time>2022-05-05T09:44:04.000Z</time>
      </trkpt>
      <trkpt lat="47.28381" lon="-2.2856">
        <ele>20.60000038147</ele>
        <time>2022-05-05T09:44:10.000Z</time>
      </trkpt>
      <trkpt lat="47.28382" lon="-2.28604">
        <ele>20.60000038147</ele>
        <time>2022-05-05T09:44:16.000Z</time>
      </trkpt>
      <trkpt lat="47.28383" lon="-2.28672">
        <ele>20.60000038147</ele>
        <time>2022-05-05T09:44:25.000Z</time>
      </trkpt>
      <trkpt lat="47.28386" lon="-2.28734">
        <ele>20.60000038147</ele>
        <time>2022-05-05T09:44:33.000Z</time>
      </trkpt>
      <trkpt lat="47.28389" lon="-2.28792">
        <ele>20.60000038147</ele>
        <time>2022-05-05T09:44:40.000Z</time>
      </trkpt>
      <trkpt lat="47.2839" lon="-2.28851">
        <ele>20.60000038147</ele>
        <time>2022-05-05T09:44:47.000Z</time>
      </trkpt>
      <trkpt lat="47.28391" lon="-2.28913">
        <ele>20.60000038147</ele>
        <time>2022-05-05T09:44:54.000Z</time>
      </trkpt>
      <trkpt lat="47.28394" lon="-2.28966">
        <ele>20.60000038147</ele>
        <time>2022-05-05T09:45:01.000Z</time>
      </trkpt>
      <trkpt lat="47.28395" lon="-2.28988">
        <ele>20.60000038147</ele>
        <time>2022-05-05T09:45:05.000Z</time>
      </trkpt>
      <trkpt lat="47.28397" lon="-2.28989">
        <ele>20.60000038147</ele>
        <time>2022-05-05T09:45:06.000Z</time>
      </trkpt>
      <trkpt lat="47.28407" lon="-2.28993">
        <ele>20.60000038147</ele>
        <time>2022-05-05T09:45:09.000Z</time>
      </trkpt>
      <trkpt lat="47.28411" lon="-2.28994">
        <ele>20.60000038147</ele>
        <time>2022-05-05T09:45:10.000Z</time>
      </trkpt>
      <trkpt lat="47.28421" lon="-2.28994">
        <ele>20.60000038147</ele>
        <time>2022-05-05T09:45:12.000Z</time>
      </trkpt>
      <trkpt lat="47.28432" lon="-2.28997">
        <ele>20.200000762939</ele>
        <time>2022-05-05T09:45:14.000Z</time>
      </trkpt>
      <trkpt lat="47.28437" lon="-2.28996">
        <ele>19.799999237061</ele>
        <time>2022-05-05T09:45:15.000Z</time>
      </trkpt>
      <trkpt lat="47.28443" lon="-2.28995">
        <ele>19.39999961853</ele>
        <time>2022-05-05T09:45:16.000Z</time>
      </trkpt>
      <trkpt lat="47.28448" lon="-2.28995">
        <ele>19</ele>
        <time>2022-05-05T09:45:17.000Z</time>
      </trkpt>
      <trkpt lat="47.28454" lon="-2.28995">
        <ele>18.60000038147</ele>
        <time>2022-05-05T09:45:18.000Z</time>
      </trkpt>
      <trkpt lat="47.2846" lon="-2.28997">
        <ele>18.60000038147</ele>
        <time>2022-05-05T09:45:19.000Z</time>
      </trkpt>
      <trkpt lat="47.28478" lon="-2.29002">
        <ele>18.200000762939</ele>
        <time>2022-05-05T09:45:22.000Z</time>
      </trkpt>
      <trkpt lat="47.28485" lon="-2.29003">
        <ele>17.799999237061</ele>
        <time>2022-05-05T09:45:23.000Z</time>
      </trkpt>
      <trkpt lat="47.28491" lon="-2.29005">
        <ele>17.39999961853</ele>
        <time>2022-05-05T09:45:24.000Z</time>
      </trkpt>
      <trkpt lat="47.28498" lon="-2.29007">
        <ele>16.799999237061</ele>
        <time>2022-05-05T09:45:25.000Z</time>
      </trkpt>
      <trkpt lat="47.28503" lon="-2.2901">
        <ele>16.39999961853</ele>
        <time>2022-05-05T09:45:26.000Z</time>
      </trkpt>
      <trkpt lat="47.28514" lon="-2.29017">
        <ele>16.39999961853</ele>
        <time>2022-05-05T09:45:28.000Z</time>
      </trkpt>
      <trkpt lat="47.28548" lon="-2.2903">
        <ele>16.39999961853</ele>
        <time>2022-05-05T09:45:34.000Z</time>
      </trkpt>
      <trkpt lat="47.28559" lon="-2.29031">
        <ele>16</ele>
        <time>2022-05-05T09:45:36.000Z</time>
      </trkpt>
      <trkpt lat="47.28564" lon="-2.29032">
        <ele>15.60000038147</ele>
        <time>2022-05-05T09:45:37.000Z</time>
      </trkpt>
      <trkpt lat="47.28569" lon="-2.29033">
        <ele>15.199999809265</ele>
        <time>2022-05-05T09:45:38.000Z</time>
      </trkpt>
      <trkpt lat="47.28574" lon="-2.29034">
        <ele>14.800000190735</ele>
        <time>2022-05-05T09:45:39.000Z</time>
      </trkpt>
      <trkpt lat="47.28581" lon="-2.29037">
        <ele>14.39999961853</ele>
        <time>2022-05-05T09:45:40.000Z</time>
      </trkpt>
      <trkpt lat="47.28587" lon="-2.29039">
        <ele>14.39999961853</ele>
        <time>2022-05-05T09:45:41.000Z</time>
      </trkpt>
      <trkpt lat="47.28604" lon="-2.29048">
        <ele>14.39999961853</ele>
        <time>2022-05-05T09:45:45.000Z</time>
      </trkpt>
      <trkpt lat="47.28612" lon="-2.29072">
        <ele>14.39999961853</ele>
        <time>2022-05-05T09:45:49.000Z</time>
      </trkpt>
      <trkpt lat="47.28608" lon="-2.29101">
        <ele>14.39999961853</ele>
        <time>2022-05-05T09:45:54.000Z</time>
      </trkpt>
      <trkpt lat="47.28606" lon="-2.29107">
        <ele>14.39999961853</ele>
        <time>2022-05-05T09:45:55.000Z</time>
      </trkpt>
      <trkpt lat="47.28596" lon="-2.29127">
        <ele>14.39999961853</ele>
        <time>2022-05-05T09:45:59.000Z</time>
      </trkpt>
      <trkpt lat="47.2858" lon="-2.29156">
        <ele>14.39999961853</ele>
        <time>2022-05-05T09:46:06.000Z</time>
      </trkpt>
      <trkpt lat="47.2856" lon="-2.29171">
        <ele>14.39999961853</ele>
        <time>2022-05-05T09:46:12.000Z</time>
      </trkpt>
      <trkpt lat="47.28549" lon="-2.29182">
        <ele>14.39999961853</ele>
        <time>2022-05-05T09:46:16.000Z</time>
      </trkpt>
      <trkpt lat="47.28531" lon="-2.29196">
        <ele>14.39999961853</ele>
        <time>2022-05-05T09:46:22.000Z</time>
      </trkpt>
      <trkpt lat="47.28522" lon="-2.29209">
        <ele>14.39999961853</ele>
        <time>2022-05-05T09:46:27.000Z</time>
      </trkpt>
      <trkpt lat="47.28521" lon="-2.29208">
        <ele>14.39999961853</ele>
        <time>2022-05-05T09:46:29.000Z</time>
      </trkpt>
      <trkpt lat="47.2852" lon="-2.29213">
        <ele>14.39999961853</ele>
        <time>2022-05-05T09:46:45.000Z</time>
      </trkpt>
      <trkpt lat="47.2852" lon="-2.29217">
        <ele>14.39999961853</ele>
        <time>2022-05-05T09:46:46.000Z</time>
      </trkpt>
      <trkpt lat="47.28521" lon="-2.29238">
        <ele>14.39999961853</ele>
        <time>2022-05-05T09:46:50.000Z</time>
      </trkpt>
      <trkpt lat="47.28523" lon="-2.29282">
        <ele>14.39999961853</ele>
        <time>2022-05-05T09:46:58.000Z</time>
      </trkpt>
      <trkpt lat="47.28522" lon="-2.29285">
        <ele>14.39999961853</ele>
        <time>2022-05-05T09:47:01.000Z</time>
      </trkpt>
      <trkpt lat="47.28513" lon="-2.29296">
        <ele>14.39999961853</ele>
        <time>2022-05-05T09:47:06.000Z</time>
      </trkpt>
      <trkpt lat="47.28506" lon="-2.29302">
        <ele>14.39999961853</ele>
        <time>2022-05-05T09:47:08.000Z</time>
      </trkpt>
      <trkpt lat="47.28495" lon="-2.29312">
        <ele>14.39999961853</ele>
        <time>2022-05-05T09:47:11.000Z</time>
      </trkpt>
      <trkpt lat="47.28491" lon="-2.29314">
        <ele>14.39999961853</ele>
        <time>2022-05-05T09:47:12.000Z</time>
      </trkpt>
      <trkpt lat="47.28461" lon="-2.29328">
        <ele>14.800000190735</ele>
        <time>2022-05-05T09:47:19.000Z</time>
      </trkpt>
      <trkpt lat="47.28456" lon="-2.29329">
        <ele>15.199999809265</ele>
        <time>2022-05-05T09:47:20.000Z</time>
      </trkpt>
      <trkpt lat="47.28452" lon="-2.2933">
        <ele>15.60000038147</ele>
        <time>2022-05-05T09:47:21.000Z</time>
      </trkpt>
      <trkpt lat="47.28448" lon="-2.29331">
        <ele>16</ele>
        <time>2022-05-05T09:47:22.000Z</time>
      </trkpt>
      <trkpt lat="47.28443" lon="-2.29333">
        <ele>16.39999961853</ele>
        <time>2022-05-05T09:47:23.000Z</time>
      </trkpt>
      <trkpt lat="47.2843" lon="-2.29338">
        <ele>16.39999961853</ele>
        <time>2022-05-05T09:47:26.000Z</time>
      </trkpt>
      <trkpt lat="47.28418" lon="-2.29344">
        <ele>17.39999961853</ele>
        <time>2022-05-05T09:47:29.000Z</time>
      </trkpt>
      <trkpt lat="47.28414" lon="-2.29346">
        <ele>17.799999237061</ele>
        <time>2022-05-05T09:47:30.000Z</time>
      </trkpt>
      <trkpt lat="47.2841" lon="-2.29349">
        <ele>18.200000762939</ele>
        <time>2022-05-05T09:47:31.000Z</time>
      </trkpt>
      <trkpt lat="47.28406" lon="-2.29351">
        <ele>18.60000038147</ele>
        <time>2022-05-05T09:47:32.000Z</time>
      </trkpt>
      <trkpt lat="47.28398" lon="-2.29357">
        <ele>18.60000038147</ele>
        <time>2022-05-05T09:47:34.000Z</time>
      </trkpt>
      <trkpt lat="47.2839" lon="-2.29362">
        <ele>18.60000038147</ele>
        <time>2022-05-05T09:47:36.000Z</time>
      </trkpt>
      <trkpt lat="47.28371" lon="-2.29373">
        <ele>18.60000038147</ele>
        <time>2022-05-05T09:47:40.000Z</time>
      </trkpt>
      <trkpt lat="47.28344" lon="-2.29398">
        <ele>18.60000038147</ele>
        <time>2022-05-05T09:47:46.000Z</time>
      </trkpt>
      <trkpt lat="47.28302" lon="-2.29443">
        <ele>18.60000038147</ele>
        <time>2022-05-05T09:47:55.000Z</time>
      </trkpt>
      <trkpt lat="47.2827" lon="-2.29468">
        <ele>18.60000038147</ele>
        <time>2022-05-05T09:48:02.000Z</time>
      </trkpt>
      <trkpt lat="47.28239" lon="-2.29485">
        <ele>18.60000038147</ele>
        <time>2022-05-05T09:48:09.000Z</time>
      </trkpt>
      <trkpt lat="47.28211" lon="-2.295">
        <ele>18.60000038147</ele>
        <time>2022-05-05T09:48:15.000Z</time>
      </trkpt>
      <trkpt lat="47.28206" lon="-2.29501">
        <ele>18.60000038147</ele>
        <time>2022-05-05T09:48:16.000Z</time>
      </trkpt>
      <trkpt lat="47.28201" lon="-2.29502">
        <ele>18.60000038147</ele>
        <time>2022-05-05T09:48:17.000Z</time>
      </trkpt>
      <trkpt lat="47.28197" lon="-2.29504">
        <ele>19</ele>
        <time>2022-05-05T09:48:18.000Z</time>
      </trkpt>
      <trkpt lat="47.28192" lon="-2.29506">
        <ele>19.39999961853</ele>
        <time>2022-05-05T09:48:19.000Z</time>
      </trkpt>
      <trkpt lat="47.28188" lon="-2.29508">
        <ele>19.799999237061</ele>
        <time>2022-05-05T09:48:20.000Z</time>
      </trkpt>
      <trkpt lat="47.28184" lon="-2.29509">
        <ele>20.200000762939</ele>
        <time>2022-05-05T09:48:21.000Z</time>
      </trkpt>
      <trkpt lat="47.2818" lon="-2.29511">
        <ele>20.60000038147</ele>
        <time>2022-05-05T09:48:22.000Z</time>
      </trkpt>
      <trkpt lat="47.28171" lon="-2.29514">
        <ele>20.60000038147</ele>
        <time>2022-05-05T09:48:24.000Z</time>
      </trkpt>
      <trkpt lat="47.28143" lon="-2.29525">
        <ele>21.200000762939</ele>
        <time>2022-05-05T09:48:30.000Z</time>
      </trkpt>
      <trkpt lat="47.28137" lon="-2.29527">
        <ele>21.60000038147</ele>
        <time>2022-05-05T09:48:31.000Z</time>
      </trkpt>
      <trkpt lat="47.28133" lon="-2.2953">
        <ele>22</ele>
        <time>2022-05-05T09:48:32.000Z</time>
      </trkpt>
      <trkpt lat="47.28128" lon="-2.29532">
        <ele>22.39999961853</ele>
        <time>2022-05-05T09:48:33.000Z</time>
      </trkpt>
      <trkpt lat="47.28123" lon="-2.29534">
        <ele>22.799999237061</ele>
        <time>2022-05-05T09:48:34.000Z</time>
      </trkpt>
      <trkpt lat="47.28093" lon="-2.29547">
        <ele>22.799999237061</ele>
        <time>2022-05-05T09:48:40.000Z</time>
      </trkpt>
      <trkpt lat="47.28059" lon="-2.29563">
        <ele>22.799999237061</ele>
        <time>2022-05-05T09:48:47.000Z</time>
      </trkpt>
      <trkpt lat="47.28024" lon="-2.29578">
        <ele>22.799999237061</ele>
        <time>2022-05-05T09:48:54.000Z</time>
      </trkpt>
      <trkpt lat="47.27991" lon="-2.29592">
        <ele>22.799999237061</ele>
        <time>2022-05-05T09:49:00.000Z</time>
      </trkpt>
      <trkpt lat="47.27947" lon="-2.29599">
        <ele>22.799999237061</ele>
        <time>2022-05-05T09:49:08.000Z</time>
      </trkpt>
      <trkpt lat="47.27909" lon="-2.29599">
        <ele>22.799999237061</ele>
        <time>2022-05-05T09:49:15.000Z</time>
      </trkpt>
      <trkpt lat="47.27875" lon="-2.29596">
        <ele>22.799999237061</ele>
        <time>2022-05-05T09:49:22.000Z</time>
      </trkpt>
      <trkpt lat="47.27857" lon="-2.29603">
        <ele>22.799999237061</ele>
        <time>2022-05-05T09:49:27.000Z</time>
      </trkpt>
      <trkpt lat="47.27858" lon="-2.29618">
        <ele>22.799999237061</ele>
        <time>2022-05-05T09:49:30.000Z</time>
      </trkpt>
      <trkpt lat="47.27859" lon="-2.29623">
        <ele>22.799999237061</ele>
        <time>2022-05-05T09:49:31.000Z</time>
      </trkpt>
      <trkpt lat="47.27867" lon="-2.29661">
        <ele>22.799999237061</ele>
        <time>2022-05-05T09:49:37.000Z</time>
      </trkpt>
      <trkpt lat="47.27871" lon="-2.29682">
        <ele>22.799999237061</ele>
        <time>2022-05-05T09:49:40.000Z</time>
      </trkpt>
      <trkpt lat="47.27876" lon="-2.29713">
        <ele>22.799999237061</ele>
        <time>2022-05-05T09:49:44.000Z</time>
      </trkpt>
      <trkpt lat="47.27884" lon="-2.29783">
        <ele>22.799999237061</ele>
        <time>2022-05-05T09:49:52.000Z</time>
      </trkpt>
      <trkpt lat="47.2789" lon="-2.29858">
        <ele>22.799999237061</ele>
        <time>2022-05-05T09:50:00.000Z</time>
      </trkpt>
      <trkpt lat="47.27887" lon="-2.29911">
        <ele>22.799999237061</ele>
        <time>2022-05-05T09:50:05.000Z</time>
      </trkpt>
      <trkpt lat="47.27888" lon="-2.29971">
        <ele>22.799999237061</ele>
        <time>2022-05-05T09:50:11.000Z</time>
      </trkpt>
      <trkpt lat="47.27891" lon="-2.30015">
        <ele>22.799999237061</ele>
        <time>2022-05-05T09:50:16.000Z</time>
      </trkpt>
      <trkpt lat="47.27889" lon="-2.30031">
        <ele>22.39999961853</ele>
        <time>2022-05-05T09:50:18.000Z</time>
      </trkpt>
      <trkpt lat="47.27887" lon="-2.30038">
        <ele>22</ele>
        <time>2022-05-05T09:50:19.000Z</time>
      </trkpt>
      <trkpt lat="47.27885" lon="-2.30043">
        <ele>21.39999961853</ele>
        <time>2022-05-05T09:50:20.000Z</time>
      </trkpt>
      <trkpt lat="47.27881" lon="-2.30047">
        <ele>21</ele>
        <time>2022-05-05T09:50:21.000Z</time>
      </trkpt>
      <trkpt lat="47.27878" lon="-2.30052">
        <ele>20.60000038147</ele>
        <time>2022-05-05T09:50:22.000Z</time>
      </trkpt>
      <trkpt lat="47.27874" lon="-2.30056">
        <ele>20.60000038147</ele>
        <time>2022-05-05T09:50:23.000Z</time>
      </trkpt>
      <trkpt lat="47.2786" lon="-2.30067">
        <ele>20.60000038147</ele>
        <time>2022-05-05T09:50:26.000Z</time>
      </trkpt>
      <trkpt lat="47.27822" lon="-2.30094">
        <ele>20.60000038147</ele>
        <time>2022-05-05T09:50:32.000Z</time>
      </trkpt>
      <trkpt lat="47.27802" lon="-2.30107">
        <ele>20.200000762939</ele>
        <time>2022-05-05T09:50:35.000Z</time>
      </trkpt>
      <trkpt lat="47.27795" lon="-2.30111">
        <ele>19.799999237061</ele>
        <time>2022-05-05T09:50:36.000Z</time>
      </trkpt>
      <trkpt lat="47.27788" lon="-2.30114">
        <ele>19.39999961853</ele>
        <time>2022-05-05T09:50:37.000Z</time>
      </trkpt>
      <trkpt lat="47.27782" lon="-2.30118">
        <ele>19</ele>
        <time>2022-05-05T09:50:38.000Z</time>
      </trkpt>
      <trkpt lat="47.27775" lon="-2.30121">
        <ele>18.60000038147</ele>
        <time>2022-05-05T09:50:39.000Z</time>
      </trkpt>
      <trkpt lat="47.27769" lon="-2.30124">
        <ele>18.60000038147</ele>
        <time>2022-05-05T09:50:40.000Z</time>
      </trkpt>
      <trkpt lat="47.27763" lon="-2.30125">
        <ele>18.60000038147</ele>
        <time>2022-05-05T09:50:41.000Z</time>
      </trkpt>
      <trkpt lat="47.2774" lon="-2.30136">
        <ele>18.60000038147</ele>
        <time>2022-05-05T09:50:45.000Z</time>
      </trkpt>
      <trkpt lat="47.27721" lon="-2.30143">
        <ele>18.60000038147</ele>
        <time>2022-05-05T09:50:48.000Z</time>
      </trkpt>
      <trkpt lat="47.27704" lon="-2.30146">
        <ele>18.60000038147</ele>
        <time>2022-05-05T09:50:51.000Z</time>
      </trkpt>
      <trkpt lat="47.27692" lon="-2.3015">
        <ele>18.200000762939</ele>
        <time>2022-05-05T09:50:53.000Z</time>
      </trkpt>
      <trkpt lat="47.27686" lon="-2.30152">
        <ele>17.799999237061</ele>
        <time>2022-05-05T09:50:54.000Z</time>
      </trkpt>
      <trkpt lat="47.27681" lon="-2.30154">
        <ele>17.200000762939</ele>
        <time>2022-05-05T09:50:55.000Z</time>
      </trkpt>
      <trkpt lat="47.27676" lon="-2.30155">
        <ele>16.799999237061</ele>
        <time>2022-05-05T09:50:56.000Z</time>
      </trkpt>
      <trkpt lat="47.2767" lon="-2.30156">
        <ele>16.39999961853</ele>
        <time>2022-05-05T09:50:57.000Z</time>
      </trkpt>
      <trkpt lat="47.27665" lon="-2.30155">
        <ele>16.39999961853</ele>
        <time>2022-05-05T09:50:58.000Z</time>
      </trkpt>
      <trkpt lat="47.27652" lon="-2.30143">
        <ele>16.39999961853</ele>
        <time>2022-05-05T09:51:01.000Z</time>
      </trkpt>
      <trkpt lat="47.27646" lon="-2.30133">
        <ele>16.39999961853</ele>
        <time>2022-05-05T09:51:03.000Z</time>
      </trkpt>
      <trkpt lat="47.27641" lon="-2.3013">
        <ele>16.39999961853</ele>
        <time>2022-05-05T09:51:04.000Z</time>
      </trkpt>
      <trkpt lat="47.27631" lon="-2.30131">
        <ele>16.39999961853</ele>
        <time>2022-05-05T09:51:06.000Z</time>
      </trkpt>
      <trkpt lat="47.27621" lon="-2.3013">
        <ele>16.39999961853</ele>
        <time>2022-05-05T09:51:08.000Z</time>
      </trkpt>
      <trkpt lat="47.27618" lon="-2.30133">
        <ele>16.39999961853</ele>
        <time>2022-05-05T09:51:09.000Z</time>
      </trkpt>
      <trkpt lat="47.27614" lon="-2.30136">
        <ele>16.39999961853</ele>
        <time>2022-05-05T09:51:10.000Z</time>
      </trkpt>
      <trkpt lat="47.27592" lon="-2.30148">
        <ele>16.39999961853</ele>
        <time>2022-05-05T09:51:16.000Z</time>
      </trkpt>
      <trkpt lat="47.27566" lon="-2.30158">
        <ele>16.39999961853</ele>
        <time>2022-05-05T09:51:22.000Z</time>
      </trkpt>
      <trkpt lat="47.27536" lon="-2.30175">
        <ele>16.39999961853</ele>
        <time>2022-05-05T09:51:29.000Z</time>
      </trkpt>
      <trkpt lat="47.27525" lon="-2.3019">
        <ele>16.39999961853</ele>
        <time>2022-05-05T09:51:33.000Z</time>
      </trkpt>
      <trkpt lat="47.27514" lon="-2.30198">
        <ele>16.39999961853</ele>
        <time>2022-05-05T09:51:36.000Z</time>
      </trkpt>
      <trkpt lat="47.27511" lon="-2.302">
        <ele>16.39999961853</ele>
        <time>2022-05-05T09:51:37.000Z</time>
      </trkpt>
      <trkpt lat="47.27487" lon="-2.30209">
        <ele>16.39999961853</ele>
        <time>2022-05-05T09:51:42.000Z</time>
      </trkpt>
      <trkpt lat="47.2747" lon="-2.30216">
        <ele>16.39999961853</ele>
        <time>2022-05-05T09:51:46.000Z</time>
      </trkpt>
      <trkpt lat="47.27468" lon="-2.30214">
        <ele>16.39999961853</ele>
        <time>2022-05-05T09:51:47.000Z</time>
      </trkpt>
      <trkpt lat="47.27467" lon="-2.30207">
        <ele>16.39999961853</ele>
        <time>2022-05-05T09:51:49.000Z</time>
      </trkpt>
      <trkpt lat="47.27462" lon="-2.30185">
        <ele>16.39999961853</ele>
        <time>2022-05-05T09:51:55.000Z</time>
      </trkpt>
      <trkpt lat="47.27459" lon="-2.30173">
        <ele>16.39999961853</ele>
        <time>2022-05-05T09:52:00.000Z</time>
      </trkpt>
      <trkpt lat="47.27455" lon="-2.30151">
        <ele>16.39999961853</ele>
        <time>2022-05-05T09:52:07.000Z</time>
      </trkpt>
      <trkpt lat="47.2745" lon="-2.3012">
        <ele>16.799999237061</ele>
        <time>2022-05-05T09:52:12.000Z</time>
      </trkpt>
      <trkpt lat="47.27449" lon="-2.30114">
        <ele>17.200000762939</ele>
        <time>2022-05-05T09:52:13.000Z</time>
      </trkpt>
      <trkpt lat="47.27447" lon="-2.30107">
        <ele>17.60000038147</ele>
        <time>2022-05-05T09:52:14.000Z</time>
      </trkpt>
      <trkpt lat="47.27446" lon="-2.30101">
        <ele>18</ele>
        <time>2022-05-05T09:52:15.000Z</time>
      </trkpt>
      <trkpt lat="47.27444" lon="-2.30095">
        <ele>18.60000038147</ele>
        <time>2022-05-05T09:52:16.000Z</time>
      </trkpt>
      <trkpt lat="47.27441" lon="-2.30081">
        <ele>18.60000038147</ele>
        <time>2022-05-05T09:52:18.000Z</time>
      </trkpt>
      <trkpt lat="47.27422" lon="-2.30031">
        <ele>18.60000038147</ele>
        <time>2022-05-05T09:52:26.000Z</time>
      </trkpt>
      <trkpt lat="47.274" lon="-2.29987">
        <ele>18.60000038147</ele>
        <time>2022-05-05T09:52:33.000Z</time>
      </trkpt>
      <trkpt lat="47.27379" lon="-2.29946">
        <ele>18.60000038147</ele>
        <time>2022-05-05T09:52:40.000Z</time>
      </trkpt>
      <trkpt lat="47.27358" lon="-2.29903">
        <ele>18.60000038147</ele>
        <time>2022-05-05T09:52:47.000Z</time>
      </trkpt>
      <trkpt lat="47.27337" lon="-2.29862">
        <ele>19</ele>
        <time>2022-05-05T09:52:54.000Z</time>
      </trkpt>
      <trkpt lat="47.27334" lon="-2.29856">
        <ele>19.39999961853</ele>
        <time>2022-05-05T09:52:55.000Z</time>
      </trkpt>
      <trkpt lat="47.27331" lon="-2.2985">
        <ele>19.799999237061</ele>
        <time>2022-05-05T09:52:56.000Z</time>
      </trkpt>
      <trkpt lat="47.27328" lon="-2.29845">
        <ele>20.200000762939</ele>
        <time>2022-05-05T09:52:57.000Z</time>
      </trkpt>
      <trkpt lat="47.27325" lon="-2.29839">
        <ele>20.60000038147</ele>
        <time>2022-05-05T09:52:58.000Z</time>
      </trkpt>
      <trkpt lat="47.27317" lon="-2.29823">
        <ele>20.60000038147</ele>
        <time>2022-05-05T09:53:01.000Z</time>
      </trkpt>
      <trkpt lat="47.27307" lon="-2.29803">
        <ele>20.60000038147</ele>
        <time>2022-05-05T09:53:05.000Z</time>
      </trkpt>
      <trkpt lat="47.27302" lon="-2.29792">
        <ele>20.60000038147</ele>
        <time>2022-05-05T09:53:07.000Z</time>
      </trkpt>
      <trkpt lat="47.2729" lon="-2.2975">
        <ele>20.60000038147</ele>
        <time>2022-05-05T09:53:14.000Z</time>
      </trkpt>
      <trkpt lat="47.27287" lon="-2.29732">
        <ele>20.60000038147</ele>
        <time>2022-05-05T09:53:18.000Z</time>
      </trkpt>
      <trkpt lat="47.27288" lon="-2.2973">
        <ele>20.60000038147</ele>
        <time>2022-05-05T09:53:19.000Z</time>
      </trkpt>
      <trkpt lat="47.27298" lon="-2.29728">
        <ele>20.60000038147</ele>
        <time>2022-05-05T09:53:23.000Z</time>
      </trkpt>
      <trkpt lat="47.27318" lon="-2.29724">
        <ele>20.60000038147</ele>
        <time>2022-05-05T09:53:30.000Z</time>
      </trkpt>
      <trkpt lat="47.27334" lon="-2.29713">
        <ele>20.60000038147</ele>
        <time>2022-05-05T09:53:37.000Z</time>
      </trkpt>
      <trkpt lat="47.27347" lon="-2.29708">
        <ele>20.60000038147</ele>
        <time>2022-05-05T09:53:44.000Z</time>
      </trkpt>
      <trkpt lat="47.27348" lon="-2.29707">
        <ele>20.60000038147</ele>
        <time>2022-05-05T09:53:47.000Z</time>
      </trkpt>
      <trkpt lat="47.27343" lon="-2.29709">
        <ele>20.60000038147</ele>
        <time>2022-05-05T10:49:59.000Z</time>
      </trkpt>
      <trkpt lat="47.27342" lon="-2.2971">
        <ele>20.60000038147</ele>
        <time>2022-05-05T10:50:00.000Z</time>
      </trkpt>
      <trkpt lat="47.27328" lon="-2.29715">
        <ele>20.60000038147</ele>
        <time>2022-05-05T10:50:06.000Z</time>
      </trkpt>
      <trkpt lat="47.27313" lon="-2.2972">
        <ele>20.60000038147</ele>
        <time>2022-05-05T10:50:10.000Z</time>
      </trkpt>
      <trkpt lat="47.27309" lon="-2.2972">
        <ele>20.60000038147</ele>
        <time>2022-05-05T10:50:11.000Z</time>
      </trkpt>
      <trkpt lat="47.27278" lon="-2.29717">
        <ele>20.60000038147</ele>
        <time>2022-05-05T10:50:19.000Z</time>
      </trkpt>
      <trkpt lat="47.27272" lon="-2.29695">
        <ele>20.60000038147</ele>
        <time>2022-05-05T10:50:23.000Z</time>
      </trkpt>
      <trkpt lat="47.27271" lon="-2.29689">
        <ele>20.60000038147</ele>
        <time>2022-05-05T10:50:24.000Z</time>
      </trkpt>
      <trkpt lat="47.27265" lon="-2.29653">
        <ele>20.60000038147</ele>
        <time>2022-05-05T10:50:30.000Z</time>
      </trkpt>
      <trkpt lat="47.27262" lon="-2.29648">
        <ele>20.60000038147</ele>
        <time>2022-05-05T10:50:32.000Z</time>
      </trkpt>
      <trkpt lat="47.27256" lon="-2.29647">
        <ele>20.60000038147</ele>
        <time>2022-05-05T10:50:34.000Z</time>
      </trkpt>
      <trkpt lat="47.27241" lon="-2.29648">
        <ele>20.60000038147</ele>
        <time>2022-05-05T10:50:38.000Z</time>
      </trkpt>
      <trkpt lat="47.27232" lon="-2.29648">
        <ele>20.60000038147</ele>
        <time>2022-05-05T10:50:40.000Z</time>
      </trkpt>
      <trkpt lat="47.27213" lon="-2.29649">
        <ele>20.60000038147</ele>
        <time>2022-05-05T10:50:44.000Z</time>
      </trkpt>
      <trkpt lat="47.27187" lon="-2.29649">
        <ele>21</ele>
        <time>2022-05-05T10:50:49.000Z</time>
      </trkpt>
      <trkpt lat="47.27182" lon="-2.29649">
        <ele>21.39999961853</ele>
        <time>2022-05-05T10:50:50.000Z</time>
      </trkpt>
      <trkpt lat="47.27177" lon="-2.29649">
        <ele>21.799999237061</ele>
        <time>2022-05-05T10:50:51.000Z</time>
      </trkpt>
      <trkpt lat="47.27172" lon="-2.2965">
        <ele>22.200000762939</ele>
        <time>2022-05-05T10:50:52.000Z</time>
      </trkpt>
      <trkpt lat="47.27167" lon="-2.2965">
        <ele>22.60000038147</ele>
        <time>2022-05-05T10:50:53.000Z</time>
      </trkpt>
      <trkpt lat="47.27147" lon="-2.29653">
        <ele>22.60000038147</ele>
        <time>2022-05-05T10:50:57.000Z</time>
      </trkpt>
      <trkpt lat="47.27107" lon="-2.29666">
        <ele>22.60000038147</ele>
        <time>2022-05-05T10:51:05.000Z</time>
      </trkpt>
      <trkpt lat="47.2708" lon="-2.29678">
        <ele>22.60000038147</ele>
        <time>2022-05-05T10:51:11.000Z</time>
      </trkpt>
      <trkpt lat="47.27049" lon="-2.29695">
        <ele>22.60000038147</ele>
        <time>2022-05-05T10:51:18.000Z</time>
      </trkpt>
      <trkpt lat="47.2704" lon="-2.29702">
        <ele>23.200000762939</ele>
        <time>2022-05-05T10:51:20.000Z</time>
      </trkpt>
      <trkpt lat="47.27035" lon="-2.29705">
        <ele>23.60000038147</ele>
        <time>2022-05-05T10:51:21.000Z</time>
      </trkpt>
      <trkpt lat="47.27031" lon="-2.29708">
        <ele>24</ele>
        <time>2022-05-05T10:51:22.000Z</time>
      </trkpt>
      <trkpt lat="47.27026" lon="-2.29712">
        <ele>24.39999961853</ele>
        <time>2022-05-05T10:51:23.000Z</time>
      </trkpt>
      <trkpt lat="47.27022" lon="-2.29717">
        <ele>24.799999237061</ele>
        <time>2022-05-05T10:51:24.000Z</time>
      </trkpt>
      <trkpt lat="47.27018" lon="-2.29722">
        <ele>24.799999237061</ele>
        <time>2022-05-05T10:51:25.000Z</time>
      </trkpt>
      <trkpt lat="47.26995" lon="-2.29756">
        <ele>24.799999237061</ele>
        <time>2022-05-05T10:51:31.000Z</time>
      </trkpt>
      <trkpt lat="47.26959" lon="-2.29808">
        <ele>24.799999237061</ele>
        <time>2022-05-05T10:51:41.000Z</time>
      </trkpt>
      <trkpt lat="47.26952" lon="-2.2982">
        <ele>24.799999237061</ele>
        <time>2022-05-05T10:51:43.000Z</time>
      </trkpt>
      <trkpt lat="47.2694" lon="-2.29836">
        <ele>24.799999237061</ele>
        <time>2022-05-05T10:51:46.000Z</time>
      </trkpt>
      <trkpt lat="47.26923" lon="-2.29864">
        <ele>24.799999237061</ele>
        <time>2022-05-05T10:51:51.000Z</time>
      </trkpt>
      <trkpt lat="47.26901" lon="-2.29897">
        <ele>25.200000762939</ele>
        <time>2022-05-05T10:51:57.000Z</time>
      </trkpt>
      <trkpt lat="47.26898" lon="-2.29902">
        <ele>25.60000038147</ele>
        <time>2022-05-05T10:51:58.000Z</time>
      </trkpt>
      <trkpt lat="47.26895" lon="-2.29908">
        <ele>26</ele>
        <time>2022-05-05T10:51:59.000Z</time>
      </trkpt>
      <trkpt lat="47.26891" lon="-2.29914">
        <ele>26.39999961853</ele>
        <time>2022-05-05T10:52:00.000Z</time>
      </trkpt>
      <trkpt lat="47.26888" lon="-2.29919">
        <ele>26.799999237061</ele>
        <time>2022-05-05T10:52:01.000Z</time>
      </trkpt>
      <trkpt lat="47.26872" lon="-2.2995">
        <ele>26.799999237061</ele>
        <time>2022-05-05T10:52:06.000Z</time>
      </trkpt>
      <trkpt lat="47.26842" lon="-2.30007">
        <ele>26.799999237061</ele>
        <time>2022-05-05T10:52:15.000Z</time>
      </trkpt>
      <trkpt lat="47.26831" lon="-2.30035">
        <ele>26.799999237061</ele>
        <time>2022-05-05T10:52:19.000Z</time>
      </trkpt>
      <trkpt lat="47.26829" lon="-2.30044">
        <ele>26.799999237061</ele>
        <time>2022-05-05T10:52:20.000Z</time>
      </trkpt>
      <trkpt lat="47.26834" lon="-2.3007">
        <ele>26.799999237061</ele>
        <time>2022-05-05T10:52:23.000Z</time>
      </trkpt>
      <trkpt lat="47.26837" lon="-2.30078">
        <ele>26.799999237061</ele>
        <time>2022-05-05T10:52:24.000Z</time>
      </trkpt>
      <trkpt lat="47.26854" lon="-2.3013">
        <ele>26.799999237061</ele>
        <time>2022-05-05T10:52:30.000Z</time>
      </trkpt>
      <trkpt lat="47.26863" lon="-2.30157">
        <ele>26.39999961853</ele>
        <time>2022-05-05T10:52:33.000Z</time>
      </trkpt>
      <trkpt lat="47.26866" lon="-2.30166">
        <ele>25.60000038147</ele>
        <time>2022-05-05T10:52:34.000Z</time>
      </trkpt>
      <trkpt lat="47.2687" lon="-2.30176">
        <ele>25.200000762939</ele>
        <time>2022-05-05T10:52:35.000Z</time>
      </trkpt>
      <trkpt lat="47.26873" lon="-2.30184">
        <ele>24.799999237061</ele>
        <time>2022-05-05T10:52:36.000Z</time>
      </trkpt>
      <trkpt lat="47.26882" lon="-2.3021">
        <ele>24.799999237061</ele>
        <time>2022-05-05T10:52:39.000Z</time>
      </trkpt>
      <trkpt lat="47.26894" lon="-2.30269">
        <ele>24.799999237061</ele>
        <time>2022-05-05T10:52:45.000Z</time>
      </trkpt>
      <trkpt lat="47.26897" lon="-2.30305">
        <ele>24.799999237061</ele>
        <time>2022-05-05T10:52:49.000Z</time>
      </trkpt>
      <trkpt lat="47.26899" lon="-2.30323">
        <ele>24.799999237061</ele>
        <time>2022-05-05T10:52:51.000Z</time>
      </trkpt>
      <trkpt lat="47.26901" lon="-2.30342">
        <ele>24.39999961853</ele>
        <time>2022-05-05T10:52:53.000Z</time>
      </trkpt>
      <trkpt lat="47.26902" lon="-2.30351">
        <ele>24</ele>
        <time>2022-05-05T10:52:54.000Z</time>
      </trkpt>
      <trkpt lat="47.26903" lon="-2.3036">
        <ele>23.60000038147</ele>
        <time>2022-05-05T10:52:55.000Z</time>
      </trkpt>
      <trkpt lat="47.26904" lon="-2.30369">
        <ele>23.200000762939</ele>
        <time>2022-05-05T10:52:56.000Z</time>
      </trkpt>
      <trkpt lat="47.26905" lon="-2.30378">
        <ele>22.60000038147</ele>
        <time>2022-05-05T10:52:57.000Z</time>
      </trkpt>
      <trkpt lat="47.26909" lon="-2.30406">
        <ele>22.60000038147</ele>
        <time>2022-05-05T10:53:00.000Z</time>
      </trkpt>
      <trkpt lat="47.26916" lon="-2.30452">
        <ele>22.60000038147</ele>
        <time>2022-05-05T10:53:05.000Z</time>
      </trkpt>
      <trkpt lat="47.26916" lon="-2.30462">
        <ele>22.60000038147</ele>
        <time>2022-05-05T10:53:06.000Z</time>
      </trkpt>
      <trkpt lat="47.26915" lon="-2.30509">
        <ele>22.60000038147</ele>
        <time>2022-05-05T10:53:11.000Z</time>
      </trkpt>
      <trkpt lat="47.26915" lon="-2.30518">
        <ele>22.60000038147</ele>
        <time>2022-05-05T10:53:12.000Z</time>
      </trkpt>
      <trkpt lat="47.26917" lon="-2.30546">
        <ele>22.60000038147</ele>
        <time>2022-05-05T10:53:15.000Z</time>
      </trkpt>
      <trkpt lat="47.26922" lon="-2.30564">
        <ele>22.60000038147</ele>
        <time>2022-05-05T10:53:17.000Z</time>
      </trkpt>
      <trkpt lat="47.26927" lon="-2.30592">
        <ele>22.60000038147</ele>
        <time>2022-05-05T10:53:20.000Z</time>
      </trkpt>
      <trkpt lat="47.26926" lon="-2.3061">
        <ele>22.60000038147</ele>
        <time>2022-05-05T10:53:22.000Z</time>
      </trkpt>
      <trkpt lat="47.26913" lon="-2.30642">
        <ele>22.60000038147</ele>
        <time>2022-05-05T10:53:26.000Z</time>
      </trkpt>
      <trkpt lat="47.26903" lon="-2.30653">
        <ele>22.60000038147</ele>
        <time>2022-05-05T10:53:28.000Z</time>
      </trkpt>
      <trkpt lat="47.26894" lon="-2.30663">
        <ele>22.60000038147</ele>
        <time>2022-05-05T10:53:30.000Z</time>
      </trkpt>
      <trkpt lat="47.26865" lon="-2.30705">
        <ele>22.60000038147</ele>
        <time>2022-05-05T10:53:37.000Z</time>
      </trkpt>
      <trkpt lat="47.26844" lon="-2.30756">
        <ele>22.60000038147</ele>
        <time>2022-05-05T10:53:44.000Z</time>
      </trkpt>
      <trkpt lat="47.26835" lon="-2.30787">
        <ele>22.60000038147</ele>
        <time>2022-05-05T10:53:48.000Z</time>
      </trkpt>
      <trkpt lat="47.26833" lon="-2.30804">
        <ele>22.60000038147</ele>
        <time>2022-05-05T10:53:50.000Z</time>
      </trkpt>
      <trkpt lat="47.26832" lon="-2.30857">
        <ele>22.60000038147</ele>
        <time>2022-05-05T10:53:56.000Z</time>
      </trkpt>
      <trkpt lat="47.26839" lon="-2.30918">
        <ele>22.60000038147</ele>
        <time>2022-05-05T10:54:03.000Z</time>
      </trkpt>
      <trkpt lat="47.26848" lon="-2.30976">
        <ele>22.60000038147</ele>
        <time>2022-05-05T10:54:10.000Z</time>
      </trkpt>
      <trkpt lat="47.26853" lon="-2.31034">
        <ele>22.60000038147</ele>
        <time>2022-05-05T10:54:17.000Z</time>
      </trkpt>
      <trkpt lat="47.26854" lon="-2.31077">
        <ele>22.200000762939</ele>
        <time>2022-05-05T10:54:23.000Z</time>
      </trkpt>
      <trkpt lat="47.26855" lon="-2.31081">
        <ele>21.799999237061</ele>
        <time>2022-05-05T10:54:24.000Z</time>
      </trkpt>
      <trkpt lat="47.26856" lon="-2.31086">
        <ele>21.39999961853</ele>
        <time>2022-05-05T10:54:25.000Z</time>
      </trkpt>
      <trkpt lat="47.26857" lon="-2.31091">
        <ele>21</ele>
        <time>2022-05-05T10:54:26.000Z</time>
      </trkpt>
      <trkpt lat="47.26858" lon="-2.31097">
        <ele>20.60000038147</ele>
        <time>2022-05-05T10:54:27.000Z</time>
      </trkpt>
      <trkpt lat="47.26858" lon="-2.31104">
        <ele>20.60000038147</ele>
        <time>2022-05-05T10:54:28.000Z</time>
      </trkpt>
      <trkpt lat="47.26856" lon="-2.31132">
        <ele>20.60000038147</ele>
        <time>2022-05-05T10:54:32.000Z</time>
      </trkpt>
      <trkpt lat="47.26854" lon="-2.31187">
        <ele>20.60000038147</ele>
        <time>2022-05-05T10:54:39.000Z</time>
      </trkpt>
      <trkpt lat="47.26851" lon="-2.31233">
        <ele>20.60000038147</ele>
        <time>2022-05-05T10:54:45.000Z</time>
      </trkpt>
      <trkpt lat="47.26851" lon="-2.31239">
        <ele>20.60000038147</ele>
        <time>2022-05-05T10:54:46.000Z</time>
      </trkpt>
      <trkpt lat="47.26846" lon="-2.31279">
        <ele>20.60000038147</ele>
        <time>2022-05-05T10:54:51.000Z</time>
      </trkpt>
      <trkpt lat="47.26845" lon="-2.31287">
        <ele>20.60000038147</ele>
        <time>2022-05-05T10:54:52.000Z</time>
      </trkpt>
      <trkpt lat="47.26833" lon="-2.31329">
        <ele>20.60000038147</ele>
        <time>2022-05-05T10:54:58.000Z</time>
      </trkpt>
      <trkpt lat="47.26819" lon="-2.31338">
        <ele>20.60000038147</ele>
        <time>2022-05-05T10:55:01.000Z</time>
      </trkpt>
      <trkpt lat="47.26801" lon="-2.31352">
        <ele>20.60000038147</ele>
        <time>2022-05-05T10:55:05.000Z</time>
      </trkpt>
      <trkpt lat="47.26791" lon="-2.3136">
        <ele>20.60000038147</ele>
        <time>2022-05-05T10:55:07.000Z</time>
      </trkpt>
      <trkpt lat="47.26752" lon="-2.31382">
        <ele>20.60000038147</ele>
        <time>2022-05-05T10:55:14.000Z</time>
      </trkpt>
      <trkpt lat="47.26724" lon="-2.31399">
        <ele>20.60000038147</ele>
        <time>2022-05-05T10:55:19.000Z</time>
      </trkpt>
      <trkpt lat="47.2669" lon="-2.31418">
        <ele>20.60000038147</ele>
        <time>2022-05-05T10:55:25.000Z</time>
      </trkpt>
      <trkpt lat="47.26672" lon="-2.31428">
        <ele>20.200000762939</ele>
        <time>2022-05-05T10:55:28.000Z</time>
      </trkpt>
      <trkpt lat="47.26667" lon="-2.31432">
        <ele>19.799999237061</ele>
        <time>2022-05-05T10:55:29.000Z</time>
      </trkpt>
      <trkpt lat="47.26661" lon="-2.31436">
        <ele>19.39999961853</ele>
        <time>2022-05-05T10:55:30.000Z</time>
      </trkpt>
      <trkpt lat="47.26655" lon="-2.3144">
        <ele>19</ele>
        <time>2022-05-05T10:55:31.000Z</time>
      </trkpt>
      <trkpt lat="47.26649" lon="-2.31444">
        <ele>18.60000038147</ele>
        <time>2022-05-05T10:55:32.000Z</time>
      </trkpt>
      <trkpt lat="47.26613" lon="-2.31478">
        <ele>18.200000762939</ele>
        <time>2022-05-05T10:55:39.000Z</time>
      </trkpt>
      <trkpt lat="47.26611" lon="-2.31482">
        <ele>17.799999237061</ele>
        <time>2022-05-05T10:55:40.000Z</time>
      </trkpt>
      <trkpt lat="47.2661" lon="-2.31487">
        <ele>17.39999961853</ele>
        <time>2022-05-05T10:55:41.000Z</time>
      </trkpt>
      <trkpt lat="47.26611" lon="-2.31492">
        <ele>16.799999237061</ele>
        <time>2022-05-05T10:55:42.000Z</time>
      </trkpt>
      <trkpt lat="47.26612" lon="-2.31498">
        <ele>16.39999961853</ele>
        <time>2022-05-05T10:55:43.000Z</time>
      </trkpt>
      <trkpt lat="47.26619" lon="-2.31518">
        <ele>16.39999961853</ele>
        <time>2022-05-05T10:55:46.000Z</time>
      </trkpt>
      <trkpt lat="47.26622" lon="-2.31524">
        <ele>16</ele>
        <time>2022-05-05T10:55:47.000Z</time>
      </trkpt>
      <trkpt lat="47.26624" lon="-2.31531">
        <ele>15.60000038147</ele>
        <time>2022-05-05T10:55:48.000Z</time>
      </trkpt>
      <trkpt lat="47.26627" lon="-2.31537">
        <ele>15.199999809265</ele>
        <time>2022-05-05T10:55:49.000Z</time>
      </trkpt>
      <trkpt lat="47.2663" lon="-2.31543">
        <ele>14.800000190735</ele>
        <time>2022-05-05T10:55:50.000Z</time>
      </trkpt>
      <trkpt lat="47.26632" lon="-2.3155">
        <ele>14.39999961853</ele>
        <time>2022-05-05T10:55:51.000Z</time>
      </trkpt>
      <trkpt lat="47.26629" lon="-2.31562">
        <ele>14.39999961853</ele>
        <time>2022-05-05T10:55:53.000Z</time>
      </trkpt>
      <trkpt lat="47.26616" lon="-2.3157">
        <ele>14.39999961853</ele>
        <time>2022-05-05T10:55:56.000Z</time>
      </trkpt>
      <trkpt lat="47.26611" lon="-2.31572">
        <ele>14.39999961853</ele>
        <time>2022-05-05T10:55:57.000Z</time>
      </trkpt>
      <trkpt lat="47.26593" lon="-2.31584">
        <ele>14</ele>
        <time>2022-05-05T10:56:00.000Z</time>
      </trkpt>
      <trkpt lat="47.26586" lon="-2.31589">
        <ele>13.60000038147</ele>
        <time>2022-05-05T10:56:01.000Z</time>
      </trkpt>
      <trkpt lat="47.2658" lon="-2.31593">
        <ele>13.199999809265</ele>
        <time>2022-05-05T10:56:02.000Z</time>
      </trkpt>
      <trkpt lat="47.26572" lon="-2.31598">
        <ele>12.800000190735</ele>
        <time>2022-05-05T10:56:03.000Z</time>
      </trkpt>
      <trkpt lat="47.26565" lon="-2.31603">
        <ele>12.39999961853</ele>
        <time>2022-05-05T10:56:04.000Z</time>
      </trkpt>
      <trkpt lat="47.26558" lon="-2.31608">
        <ele>11.800000190735</ele>
        <time>2022-05-05T10:56:05.000Z</time>
      </trkpt>
      <trkpt lat="47.2655" lon="-2.31614">
        <ele>11.39999961853</ele>
        <time>2022-05-05T10:56:06.000Z</time>
      </trkpt>
      <trkpt lat="47.26542" lon="-2.31619">
        <ele>11</ele>
        <time>2022-05-05T10:56:07.000Z</time>
      </trkpt>
      <trkpt lat="47.26534" lon="-2.31624">
        <ele>10.60000038147</ele>
        <time>2022-05-05T10:56:08.000Z</time>
      </trkpt>
      <trkpt lat="47.26526" lon="-2.31629">
        <ele>10</ele>
        <time>2022-05-05T10:56:09.000Z</time>
      </trkpt>
      <trkpt lat="47.26519" lon="-2.31634">
        <ele>9.6000003814697</ele>
        <time>2022-05-05T10:56:10.000Z</time>
      </trkpt>
      <trkpt lat="47.26511" lon="-2.31638">
        <ele>9.1999998092651</ele>
        <time>2022-05-05T10:56:11.000Z</time>
      </trkpt>
      <trkpt lat="47.26502" lon="-2.31641">
        <ele>8.6000003814697</ele>
        <time>2022-05-05T10:56:12.000Z</time>
      </trkpt>
      <trkpt lat="47.26493" lon="-2.31644">
        <ele>8.1999998092651</ele>
        <time>2022-05-05T10:56:13.000Z</time>
      </trkpt>
      <trkpt lat="47.26485" lon="-2.31646">
        <ele>7.8000001907349</ele>
        <time>2022-05-05T10:56:14.000Z</time>
      </trkpt>
      <trkpt lat="47.26476" lon="-2.31648">
        <ele>7.4000000953674</ele>
        <time>2022-05-05T10:56:15.000Z</time>
      </trkpt>
      <trkpt lat="47.26468" lon="-2.31649">
        <ele>6.4000000953674</ele>
        <time>2022-05-05T10:56:16.000Z</time>
      </trkpt>
      <trkpt lat="47.26459" lon="-2.31651">
        <ele>5.8000001907349</ele>
        <time>2022-05-05T10:56:17.000Z</time>
      </trkpt>
      <trkpt lat="47.26451" lon="-2.31653">
        <ele>5.1999998092651</ele>
        <time>2022-05-05T10:56:18.000Z</time>
      </trkpt>
      <trkpt lat="47.26443" lon="-2.31654">
        <ele>4.5999999046326</ele>
        <time>2022-05-05T10:56:19.000Z</time>
      </trkpt>
      <trkpt lat="47.26434" lon="-2.31656">
        <ele>4.1999998092651</ele>
        <time>2022-05-05T10:56:20.000Z</time>
      </trkpt>
      <trkpt lat="47.26426" lon="-2.31657">
        <ele>3.5999999046326</ele>
        <time>2022-05-05T10:56:21.000Z</time>
      </trkpt>
      <trkpt lat="47.26419" lon="-2.31659">
        <ele>3.2000000476837</ele>
        <time>2022-05-05T10:56:22.000Z</time>
      </trkpt>
      <trkpt lat="47.26412" lon="-2.31658">
        <ele>2.7999999523163</ele>
        <time>2022-05-05T10:56:23.000Z</time>
      </trkpt>
      <trkpt lat="47.26407" lon="-2.31655">
        <ele>2.4000000953674</ele>
        <time>2022-05-05T10:56:24.000Z</time>
      </trkpt>
      <trkpt lat="47.26403" lon="-2.31648">
        <ele>1.7999999523163</ele>
        <time>2022-05-05T10:56:25.000Z</time>
      </trkpt>
      <trkpt lat="47.26402" lon="-2.31641">
        <ele>1.3999999761581</ele>
        <time>2022-05-05T10:56:26.000Z</time>
      </trkpt>
      <trkpt lat="47.26404" lon="-2.31615">
        <ele>1.3999999761581</ele>
        <time>2022-05-05T10:56:29.000Z</time>
      </trkpt>
      <trkpt lat="47.26405" lon="-2.31607">
        <ele>1.3999999761581</ele>
        <time>2022-05-05T10:56:30.000Z</time>
      </trkpt>
      <trkpt lat="47.26404" lon="-2.316">
        <ele>1.3999999761581</ele>
        <time>2022-05-05T10:56:31.000Z</time>
      </trkpt>
      <trkpt lat="47.26404" lon="-2.3157">
        <ele>1.3999999761581</ele>
        <time>2022-05-05T10:56:35.000Z</time>
      </trkpt>
      <trkpt lat="47.26404" lon="-2.31564">
        <ele>1.3999999761581</ele>
        <time>2022-05-05T10:56:36.000Z</time>
      </trkpt>
      <trkpt lat="47.26409" lon="-2.31549">
        <ele>1.3999999761581</ele>
        <time>2022-05-05T10:56:39.000Z</time>
      </trkpt>
      <trkpt lat="47.26418" lon="-2.31551">
        <ele>1.3999999761581</ele>
        <time>2022-05-05T10:56:42.000Z</time>
      </trkpt>
      <trkpt lat="47.26418" lon="-2.31553">
        <ele>1.3999999761581</ele>
        <time>2022-05-05T10:56:46.000Z</time>
      </trkpt>
    </trkseg>
  </trk>
</gpx>